<?xml version='1.0' encoding='UTF-8'?><gpx version="1.1" creator="JPX - https://github.com/jenetics/jpx" xmlns="http://www.topografix.com/GPX/1/1"><trk><trkseg><trkpt lat="45.0029816" lon="9.6127589"><ele>83.0</ele><time>2026-05-02T12:42:38.103Z</time></trkpt><trkpt lat="45.0028293" lon="9.6126902"><ele>83.0</ele><time>2026-05-02T12:42:40.065Z</time></trkpt><trkpt lat="45.0029104" lon="9.612777"><ele>83.0</ele><time>2026-05-02T12:42:45.083Z</time></trkpt><trkpt lat="45.0029637" lon="9.6127279"><ele>83.0</ele><time>2026-05-02T12:43:12.064Z</time></trkpt><trkpt lat="45.0029133" lon="9.6125933"><ele>83.0</ele><time>2026-05-02T12:43:30.037Z</time></trkpt><trkpt lat="45.002905" lon="9.6124383"><ele>83.0</ele><time>2026-05-02T12:43:33.038Z</time></trkpt><trkpt lat="45.0029067" lon="9.6123167"><ele>83.0</ele><time>2026-05-02T12:43:35.035Z</time></trkpt><trkpt lat="45.0029333" lon="9.6122017"><ele>83.0</ele><time>2026-05-02T12:43:38.039Z</time></trkpt><trkpt lat="45.00298" lon="9.6121383"><ele>83.0</ele><time>2026-05-02T12:43:43.041Z</time></trkpt><trkpt lat="45.00305" lon="9.6121483"><ele>83.0</ele><time>2026-05-02T12:43:47.036Z</time></trkpt><trkpt lat="45.003115" lon="9.6121883"><ele>83.0</ele><time>2026-05-02T12:43:51.038Z</time></trkpt><trkpt lat="45.00305" lon="9.6121517"><ele>83.0</ele><time>2026-05-02T12:43:57.04Z</time></trkpt><trkpt lat="45.002975" lon="9.612125"><ele>83.0</ele><time>2026-05-02T12:43:59.038Z</time></trkpt><trkpt lat="45.00291" lon="9.6121117"><ele>83.0</ele><time>2026-05-02T12:44:01.044Z</time></trkpt><trkpt lat="45.0028267" lon="9.6120967"><ele>83.0</ele><time>2026-05-02T12:44:03.04Z</time></trkpt><trkpt lat="45.002745" lon="9.6120817"><ele>83.0</ele><time>2026-05-02T12:44:05.036Z</time></trkpt><trkpt lat="45.0026717" lon="9.61207"><ele>83.0</ele><time>2026-05-02T12:44:08.037Z</time></trkpt><trkpt lat="45.0025933" lon="9.612055"><ele>83.0</ele><time>2026-05-02T12:44:12.039Z</time></trkpt><trkpt lat="45.002515" lon="9.6120417"><ele>83.0</ele><time>2026-05-02T12:44:16.038Z</time></trkpt><trkpt lat="45.0024383" lon="9.6120283"><ele>83.0</ele><time>2026-05-02T12:44:21.044Z</time></trkpt><trkpt lat="45.002365" lon="9.6120183"><ele>83.0</ele><time>2026-05-02T12:44:41.035Z</time></trkpt><trkpt lat="45.0022833" lon="9.6120033"><ele>83.0</ele><time>2026-05-02T12:44:44.036Z</time></trkpt><trkpt lat="45.0021617" lon="9.6119817"><ele>83.0</ele><time>2026-05-02T12:44:47.036Z</time></trkpt><trkpt lat="45.0020833" lon="9.6119683"><ele>83.0</ele><time>2026-05-02T12:44:49.04Z</time></trkpt><trkpt lat="45.0020017" lon="9.611955"><ele>83.0</ele><time>2026-05-02T12:44:51.037Z</time></trkpt><trkpt lat="45.00191" lon="9.6119333"><ele>83.0</ele><time>2026-05-02T12:44:53.039Z</time></trkpt><trkpt lat="45.001795" lon="9.6119083"><ele>83.0</ele><time>2026-05-02T12:44:55.038Z</time></trkpt><trkpt lat="45.001725" lon="9.6118933"><ele>83.0</ele><time>2026-05-02T12:44:56.039Z</time></trkpt><trkpt lat="45.0016583" lon="9.6118833"><ele>83.0</ele><time>2026-05-02T12:44:57.044Z</time></trkpt><trkpt lat="45.001595" lon="9.611875"><ele>83.0</ele><time>2026-05-02T12:44:58.039Z</time></trkpt><trkpt lat="45.0014833" lon="9.61186"><ele>83.4</ele><time>2026-05-02T12:45:00.035Z</time></trkpt><trkpt lat="45.0014183" lon="9.6118517"><ele>83.80000000000001</ele><time>2026-05-02T12:45:01.036Z</time></trkpt><trkpt lat="45.001295" lon="9.6118367"><ele>84.2</ele><time>2026-05-02T12:45:03.037Z</time></trkpt><trkpt lat="45.0011867" lon="9.611825"><ele>84.6</ele><time>2026-05-02T12:45:05.039Z</time></trkpt><trkpt lat="45.0010817" lon="9.6118183"><ele>85.0</ele><time>2026-05-02T12:45:07.037Z</time></trkpt><trkpt lat="45.00097" lon="9.6118133"><ele>85.0</ele><time>2026-05-02T12:45:09.032Z</time></trkpt><trkpt lat="45.0008733" lon="9.6118267"><ele>85.0</ele><time>2026-05-02T12:45:11.035Z</time></trkpt><trkpt lat="45.00077" lon="9.6118483"><ele>85.0</ele><time>2026-05-02T12:45:13.039Z</time></trkpt><trkpt lat="45.0006683" lon="9.6118583"><ele>85.0</ele><time>2026-05-02T12:45:15.041Z</time></trkpt><trkpt lat="45.0005683" lon="9.6118717"><ele>85.0</ele><time>2026-05-02T12:45:17.034Z</time></trkpt><trkpt lat="45.0004683" lon="9.6118767"><ele>85.0</ele><time>2026-05-02T12:45:19.037Z</time></trkpt><trkpt lat="45.0003683" lon="9.6118917"><ele>85.0</ele><time>2026-05-02T12:45:21.037Z</time></trkpt><trkpt lat="45.0002633" lon="9.6119117"><ele>85.0</ele><time>2026-05-02T12:45:23.035Z</time></trkpt><trkpt lat="45.0001567" lon="9.61192"><ele>85.0</ele><time>2026-05-02T12:45:25.038Z</time></trkpt><trkpt lat="45.00005" lon="9.6119267"><ele>85.0</ele><time>2026-05-02T12:45:27.042Z</time></trkpt><trkpt lat="44.999945" lon="9.611925"><ele>85.0</ele><time>2026-05-02T12:45:29.036Z</time></trkpt><trkpt lat="44.9998317" lon="9.61193"><ele>85.0</ele><time>2026-05-02T12:45:31.035Z</time></trkpt><trkpt lat="44.9997217" lon="9.6119433"><ele>85.0</ele><time>2026-05-02T12:45:33.038Z</time></trkpt><trkpt lat="44.9996183" lon="9.611955"><ele>85.0</ele><time>2026-05-02T12:45:35.038Z</time></trkpt><trkpt lat="44.9995067" lon="9.6119567"><ele>85.0</ele><time>2026-05-02T12:45:37.04Z</time></trkpt><trkpt lat="44.9994" lon="9.6119583"><ele>85.0</ele><time>2026-05-02T12:45:39.038Z</time></trkpt><trkpt lat="44.9993067" lon="9.6119717"><ele>85.0</ele><time>2026-05-02T12:45:41.037Z</time></trkpt><trkpt lat="44.9992033" lon="9.611975"><ele>85.0</ele><time>2026-05-02T12:45:43.037Z</time></trkpt><trkpt lat="44.999115" lon="9.6119733"><ele>85.0</ele><time>2026-05-02T12:45:45.036Z</time></trkpt><trkpt lat="44.9990217" lon="9.61194"><ele>85.0</ele><time>2026-05-02T12:45:48.037Z</time></trkpt><trkpt lat="44.99897" lon="9.6118433"><ele>85.25</ele><time>2026-05-02T12:45:50.033Z</time></trkpt><trkpt lat="44.99891" lon="9.6117167"><ele>85.5</ele><time>2026-05-02T12:45:52.039Z</time></trkpt><trkpt lat="44.9988617" lon="9.6115583"><ele>85.75</ele><time>2026-05-02T12:45:54.036Z</time></trkpt><trkpt lat="44.998825" lon="9.61141"><ele>86.0</ele><time>2026-05-02T12:45:56.041Z</time></trkpt><trkpt lat="44.998785" lon="9.611265"><ele>85.6</ele><time>2026-05-02T12:45:58.035Z</time></trkpt><trkpt lat="44.9987417" lon="9.6111217"><ele>85.19999999999999</ele><time>2026-05-02T12:46:00.036Z</time></trkpt><trkpt lat="44.9986983" lon="9.610995"><ele>84.80000000000001</ele><time>2026-05-02T12:46:02.036Z</time></trkpt><trkpt lat="44.99865" lon="9.6108683"><ele>84.4</ele><time>2026-05-02T12:46:04.038Z</time></trkpt><trkpt lat="44.9986017" lon="9.6107467"><ele>84.0</ele><time>2026-05-02T12:46:06.032Z</time></trkpt><trkpt lat="44.9985583" lon="9.6106333"><ele>84.0</ele><time>2026-05-02T12:46:08.042Z</time></trkpt><trkpt lat="44.9985117" lon="9.6105317"><ele>84.0</ele><time>2026-05-02T12:46:10.036Z</time></trkpt><trkpt lat="44.9984733" lon="9.6104367"><ele>84.0</ele><time>2026-05-02T12:46:12.038Z</time></trkpt><trkpt lat="44.9984417" lon="9.61033"><ele>84.0</ele><time>2026-05-02T12:46:14.041Z</time></trkpt><trkpt lat="44.998395" lon="9.6102317"><ele>84.0</ele><time>2026-05-02T12:46:16.039Z</time></trkpt><trkpt lat="44.9983483" lon="9.6101383"><ele>84.0</ele><time>2026-05-02T12:46:18.036Z</time></trkpt><trkpt lat="44.998315" lon="9.6100383"><ele>84.4</ele><time>2026-05-02T12:46:20.033Z</time></trkpt><trkpt lat="44.998275" lon="9.6099233"><ele>84.80000000000001</ele><time>2026-05-02T12:46:22.034Z</time></trkpt><trkpt lat="44.9982283" lon="9.6098017"><ele>85.19999999999999</ele><time>2026-05-02T12:46:24.04Z</time></trkpt><trkpt lat="44.9981683" lon="9.609675"><ele>85.6</ele><time>2026-05-02T12:46:26.042Z</time></trkpt><trkpt lat="44.9981133" lon="9.609545"><ele>86.0</ele><time>2026-05-02T12:46:28.035Z</time></trkpt><trkpt lat="44.9980583" lon="9.609415"><ele>86.19999999999999</ele><time>2026-05-02T12:46:30.038Z</time></trkpt><trkpt lat="44.998" lon="9.6092917"><ele>86.39999999999999</ele><time>2026-05-02T12:46:32.036Z</time></trkpt><trkpt lat="44.997935" lon="9.6091767"><ele>86.6</ele><time>2026-05-02T12:46:34.04Z</time></trkpt><trkpt lat="44.9978583" lon="9.609065"><ele>86.8</ele><time>2026-05-02T12:46:36.036Z</time></trkpt><trkpt lat="44.9977917" lon="9.6089417"><ele>87.0</ele><time>2026-05-02T12:46:38.037Z</time></trkpt><trkpt lat="44.99773" lon="9.608805"><ele>87.0</ele><time>2026-05-02T12:46:40.036Z</time></trkpt><trkpt lat="44.9976733" lon="9.608665"><ele>87.0</ele><time>2026-05-02T12:46:42.041Z</time></trkpt><trkpt lat="44.9976067" lon="9.6085367"><ele>87.0</ele><time>2026-05-02T12:46:44.036Z</time></trkpt><trkpt lat="44.9975383" lon="9.6084117"><ele>87.0</ele><time>2026-05-02T12:46:46.039Z</time></trkpt><trkpt lat="44.99747" lon="9.6082767"><ele>87.19999999999999</ele><time>2026-05-02T12:46:48.038Z</time></trkpt><trkpt lat="44.99739" lon="9.6081417"><ele>87.4</ele><time>2026-05-02T12:46:50.036Z</time></trkpt><trkpt lat="44.99734" lon="9.6080067"><ele>87.6</ele><time>2026-05-02T12:46:52.038Z</time></trkpt><trkpt lat="44.9973" lon="9.6078717"><ele>87.80000000000001</ele><time>2026-05-02T12:46:54.035Z</time></trkpt><trkpt lat="44.9972583" lon="9.6077333"><ele>88.0</ele><time>2026-05-02T12:46:56.037Z</time></trkpt><trkpt lat="44.9972017" lon="9.6075917"><ele>87.60000000000001</ele><time>2026-05-02T12:46:58.037Z</time></trkpt><trkpt lat="44.9971533" lon="9.6074583"><ele>87.2</ele><time>2026-05-02T12:47:00.041Z</time></trkpt><trkpt lat="44.9971033" lon="9.60733"><ele>86.8</ele><time>2026-05-02T12:47:02.037Z</time></trkpt><trkpt lat="44.9970533" lon="9.6072"><ele>86.4</ele><time>2026-05-02T12:47:04.037Z</time></trkpt><trkpt lat="44.99701" lon="9.6070833"><ele>86.0</ele><time>2026-05-02T12:47:06.035Z</time></trkpt><trkpt lat="44.9969617" lon="9.6069517"><ele>85.8</ele><time>2026-05-02T12:47:08.034Z</time></trkpt><trkpt lat="44.9969083" lon="9.60681"><ele>85.6</ele><time>2026-05-02T12:47:10.034Z</time></trkpt><trkpt lat="44.9968483" lon="9.6066733"><ele>85.4</ele><time>2026-05-02T12:47:12.037Z</time></trkpt><trkpt lat="44.9967967" lon="9.606535"><ele>85.2</ele><time>2026-05-02T12:47:14.038Z</time></trkpt><trkpt lat="44.99675" lon="9.6064083"><ele>85.0</ele><time>2026-05-02T12:47:16.035Z</time></trkpt><trkpt lat="44.9967" lon="9.6062817"><ele>85.6</ele><time>2026-05-02T12:47:18.041Z</time></trkpt><trkpt lat="44.9966367" lon="9.6061433"><ele>86.2</ele><time>2026-05-02T12:47:20.037Z</time></trkpt><trkpt lat="44.9965817" lon="9.6060083"><ele>86.80000000000001</ele><time>2026-05-02T12:47:22.037Z</time></trkpt><trkpt lat="44.996525" lon="9.6058833"><ele>87.4</ele><time>2026-05-02T12:47:24.035Z</time></trkpt><trkpt lat="44.9964733" lon="9.6057583"><ele>88.0</ele><time>2026-05-02T12:47:26.035Z</time></trkpt><trkpt lat="44.9964133" lon="9.6056317"><ele>88.0</ele><time>2026-05-02T12:47:28.038Z</time></trkpt><trkpt lat="44.9963467" lon="9.6055033"><ele>88.0</ele><time>2026-05-02T12:47:30.035Z</time></trkpt><trkpt lat="44.9962833" lon="9.6053767"><ele>88.0</ele><time>2026-05-02T12:47:32.036Z</time></trkpt><trkpt lat="44.9962117" lon="9.6052467"><ele>88.0</ele><time>2026-05-02T12:47:34.036Z</time></trkpt><trkpt lat="44.9961567" lon="9.6051183"><ele>88.0</ele><time>2026-05-02T12:47:36.038Z</time></trkpt><trkpt lat="44.996085" lon="9.604985"><ele>87.75</ele><time>2026-05-02T12:47:38.037Z</time></trkpt><trkpt lat="44.9960067" lon="9.6048467"><ele>87.5</ele><time>2026-05-02T12:47:40.037Z</time></trkpt><trkpt lat="44.99594" lon="9.6047283"><ele>87.25</ele><time>2026-05-02T12:47:42.037Z</time></trkpt><trkpt lat="44.995875" lon="9.6046067"><ele>87.0</ele><time>2026-05-02T12:47:44.037Z</time></trkpt><trkpt lat="44.9958017" lon="9.6044817"><ele>86.8</ele><time>2026-05-02T12:47:46.037Z</time></trkpt><trkpt lat="44.9957217" lon="9.6043867"><ele>86.6</ele><time>2026-05-02T12:47:48.039Z</time></trkpt><trkpt lat="44.9956317" lon="9.6043417"><ele>86.39999999999999</ele><time>2026-05-02T12:47:50.037Z</time></trkpt><trkpt lat="44.9955117" lon="9.60436"><ele>86.19999999999999</ele><time>2026-05-02T12:47:52.038Z</time></trkpt><trkpt lat="44.995405" lon="9.6043783"><ele>86.0</ele><time>2026-05-02T12:47:54.038Z</time></trkpt><trkpt lat="44.9953017" lon="9.6043883"><ele>86.0</ele><time>2026-05-02T12:47:56.038Z</time></trkpt><trkpt lat="44.9952083" lon="9.6043733"><ele>86.0</ele><time>2026-05-02T12:47:58.038Z</time></trkpt><trkpt lat="44.995105" lon="9.604345"><ele>86.0</ele><time>2026-05-02T12:48:00.034Z</time></trkpt><trkpt lat="44.994995" lon="9.6043383"><ele>86.0</ele><time>2026-05-02T12:48:02.039Z</time></trkpt><trkpt lat="44.994885" lon="9.604345"><ele>86.0</ele><time>2026-05-02T12:48:04.035Z</time></trkpt><trkpt lat="44.994775" lon="9.604365"><ele>85.8</ele><time>2026-05-02T12:48:06.038Z</time></trkpt><trkpt lat="44.9946767" lon="9.604385"><ele>85.6</ele><time>2026-05-02T12:48:08.037Z</time></trkpt><trkpt lat="44.9945733" lon="9.6044117"><ele>85.4</ele><time>2026-05-02T12:48:10.035Z</time></trkpt><trkpt lat="44.9944683" lon="9.6044417"><ele>85.2</ele><time>2026-05-02T12:48:12.04Z</time></trkpt><trkpt lat="44.9943683" lon="9.6044617"><ele>85.0</ele><time>2026-05-02T12:48:14.04Z</time></trkpt><trkpt lat="44.9942817" lon="9.6044683"><ele>85.0</ele><time>2026-05-02T12:48:16.041Z</time></trkpt><trkpt lat="44.9941883" lon="9.60449"><ele>85.0</ele><time>2026-05-02T12:48:18.036Z</time></trkpt><trkpt lat="44.9940917" lon="9.604535"><ele>85.0</ele><time>2026-05-02T12:48:20.042Z</time></trkpt><trkpt lat="44.9939883" lon="9.6045867"><ele>85.0</ele><time>2026-05-02T12:48:22.042Z</time></trkpt><trkpt lat="44.9938883" lon="9.6046283"><ele>85.0</ele><time>2026-05-02T12:48:24.036Z</time></trkpt><trkpt lat="44.9937883" lon="9.6046567"><ele>84.8</ele><time>2026-05-02T12:48:26.039Z</time></trkpt><trkpt lat="44.993675" lon="9.6046917"><ele>84.6</ele><time>2026-05-02T12:48:28.036Z</time></trkpt><trkpt lat="44.9935567" lon="9.6047217"><ele>84.4</ele><time>2026-05-02T12:48:30.035Z</time></trkpt><trkpt lat="44.9934483" lon="9.6047467"><ele>84.2</ele><time>2026-05-02T12:48:32.037Z</time></trkpt><trkpt lat="44.9933467" lon="9.6047717"><ele>84.0</ele><time>2026-05-02T12:48:34.037Z</time></trkpt><trkpt lat="44.993235" lon="9.6047983"><ele>85.0</ele><time>2026-05-02T12:48:36.035Z</time></trkpt><trkpt lat="44.993125" lon="9.6048067"><ele>86.0</ele><time>2026-05-02T12:48:38.042Z</time></trkpt><trkpt lat="44.9930183" lon="9.604785"><ele>87.0</ele><time>2026-05-02T12:48:40.04Z</time></trkpt><trkpt lat="44.992915" lon="9.6047733"><ele>88.0</ele><time>2026-05-02T12:48:42.035Z</time></trkpt><trkpt lat="44.9928167" lon="9.6047833"><ele>89.0</ele><time>2026-05-02T12:48:44.037Z</time></trkpt><trkpt lat="44.9927183" lon="9.60478"><ele>89.0</ele><time>2026-05-02T12:48:46.037Z</time></trkpt><trkpt lat="44.9926183" lon="9.6047733"><ele>89.0</ele><time>2026-05-02T12:48:48.036Z</time></trkpt><trkpt lat="44.9925117" lon="9.6047717"><ele>89.0</ele><time>2026-05-02T12:48:50.039Z</time></trkpt><trkpt lat="44.9924" lon="9.6047733"><ele>89.0</ele><time>2026-05-02T12:48:52.038Z</time></trkpt><trkpt lat="44.9922967" lon="9.604765"><ele>89.0</ele><time>2026-05-02T12:48:54.037Z</time></trkpt><trkpt lat="44.9921917" lon="9.6047417"><ele>88.6</ele><time>2026-05-02T12:48:56.037Z</time></trkpt><trkpt lat="44.992095" lon="9.604715"><ele>88.2</ele><time>2026-05-02T12:48:58.037Z</time></trkpt><trkpt lat="44.991995" lon="9.6047067"><ele>87.8</ele><time>2026-05-02T12:49:00.041Z</time></trkpt><trkpt lat="44.9918917" lon="9.6047083"><ele>87.39999999999999</ele><time>2026-05-02T12:49:02.04Z</time></trkpt><trkpt lat="44.9917883" lon="9.604705"><ele>87.0</ele><time>2026-05-02T12:49:04.036Z</time></trkpt><trkpt lat="44.99169" lon="9.60469"><ele>87.19999999999999</ele><time>2026-05-02T12:49:06.04Z</time></trkpt><trkpt lat="44.99159" lon="9.6046783"><ele>87.4</ele><time>2026-05-02T12:49:08.034Z</time></trkpt><trkpt lat="44.99148" lon="9.6046633"><ele>87.6</ele><time>2026-05-02T12:49:10.038Z</time></trkpt><trkpt lat="44.9913783" lon="9.60464"><ele>87.80000000000001</ele><time>2026-05-02T12:49:12.037Z</time></trkpt><trkpt lat="44.99128" lon="9.60462"><ele>88.0</ele><time>2026-05-02T12:49:14.037Z</time></trkpt><trkpt lat="44.9911767" lon="9.6046017"><ele>88.0</ele><time>2026-05-02T12:49:16.037Z</time></trkpt><trkpt lat="44.9910733" lon="9.604585"><ele>88.0</ele><time>2026-05-02T12:49:18.036Z</time></trkpt><trkpt lat="44.990975" lon="9.60457"><ele>88.0</ele><time>2026-05-02T12:49:20.037Z</time></trkpt><trkpt lat="44.99087" lon="9.604545"><ele>88.0</ele><time>2026-05-02T12:49:22.038Z</time></trkpt><trkpt lat="44.99076" lon="9.6045167"><ele>88.0</ele><time>2026-05-02T12:49:24.035Z</time></trkpt><trkpt lat="44.990655" lon="9.60449"><ele>88.0</ele><time>2026-05-02T12:49:26.038Z</time></trkpt><trkpt lat="44.99055" lon="9.604465"><ele>88.0</ele><time>2026-05-02T12:49:28.037Z</time></trkpt><trkpt lat="44.9904467" lon="9.6044617"><ele>88.0</ele><time>2026-05-02T12:49:30.037Z</time></trkpt><trkpt lat="44.99035" lon="9.6044683"><ele>88.0</ele><time>2026-05-02T12:49:32.033Z</time></trkpt><trkpt lat="44.9902583" lon="9.60446"><ele>88.0</ele><time>2026-05-02T12:49:34.037Z</time></trkpt><trkpt lat="44.990165" lon="9.6044467"><ele>88.0</ele><time>2026-05-02T12:49:36.036Z</time></trkpt><trkpt lat="44.990065" lon="9.6044367"><ele>88.0</ele><time>2026-05-02T12:49:38.036Z</time></trkpt><trkpt lat="44.9899617" lon="9.60442"><ele>88.0</ele><time>2026-05-02T12:49:40.037Z</time></trkpt><trkpt lat="44.9898617" lon="9.6044033"><ele>88.0</ele><time>2026-05-02T12:49:42.037Z</time></trkpt><trkpt lat="44.9897617" lon="9.6043917"><ele>88.0</ele><time>2026-05-02T12:49:44.041Z</time></trkpt><trkpt lat="44.989665" lon="9.6043883"><ele>88.0</ele><time>2026-05-02T12:49:46.035Z</time></trkpt><trkpt lat="44.9895767" lon="9.6043833"><ele>88.0</ele><time>2026-05-02T12:49:48.037Z</time></trkpt><trkpt lat="44.9894817" lon="9.6043633"><ele>88.0</ele><time>2026-05-02T12:49:50.037Z</time></trkpt><trkpt lat="44.9893867" lon="9.6043483"><ele>88.0</ele><time>2026-05-02T12:49:52.035Z</time></trkpt><trkpt lat="44.98929" lon="9.6043433"><ele>88.0</ele><time>2026-05-02T12:49:54.036Z</time></trkpt><trkpt lat="44.98919" lon="9.60435"><ele>88.2</ele><time>2026-05-02T12:49:56.034Z</time></trkpt><trkpt lat="44.9891" lon="9.60436"><ele>88.4</ele><time>2026-05-02T12:49:58.035Z</time></trkpt><trkpt lat="44.9890017" lon="9.6043733"><ele>88.60000000000001</ele><time>2026-05-02T12:50:00.037Z</time></trkpt><trkpt lat="44.98891" lon="9.60439"><ele>88.80000000000001</ele><time>2026-05-02T12:50:02.037Z</time></trkpt><trkpt lat="44.9888167" lon="9.604395"><ele>89.0</ele><time>2026-05-02T12:50:04.04Z</time></trkpt><trkpt lat="44.9887233" lon="9.6044017"><ele>89.0</ele><time>2026-05-02T12:50:06.035Z</time></trkpt><trkpt lat="44.9886367" lon="9.6044017"><ele>89.0</ele><time>2026-05-02T12:50:08.03Z</time></trkpt><trkpt lat="44.9885417" lon="9.6044017"><ele>89.0</ele><time>2026-05-02T12:50:10.046Z</time></trkpt><trkpt lat="44.9884467" lon="9.6043833"><ele>89.0</ele><time>2026-05-02T12:50:12.036Z</time></trkpt><trkpt lat="44.9883467" lon="9.60438"><ele>89.0</ele><time>2026-05-02T12:50:14.038Z</time></trkpt><trkpt lat="44.98824" lon="9.60437"><ele>89.2</ele><time>2026-05-02T12:50:16.04Z</time></trkpt><trkpt lat="44.9881383" lon="9.6043733"><ele>89.4</ele><time>2026-05-02T12:50:18.036Z</time></trkpt><trkpt lat="44.988035" lon="9.6043867"><ele>89.6</ele><time>2026-05-02T12:50:20.035Z</time></trkpt><trkpt lat="44.9879233" lon="9.6043833"><ele>89.8</ele><time>2026-05-02T12:50:22.04Z</time></trkpt><trkpt lat="44.9878183" lon="9.6043667"><ele>90.0</ele><time>2026-05-02T12:50:24.037Z</time></trkpt><trkpt lat="44.98772" lon="9.60436"><ele>90.0</ele><time>2026-05-02T12:50:26.034Z</time></trkpt><trkpt lat="44.9876183" lon="9.6043517"><ele>90.0</ele><time>2026-05-02T12:50:28.036Z</time></trkpt><trkpt lat="44.987515" lon="9.6043367"><ele>90.0</ele><time>2026-05-02T12:50:30.034Z</time></trkpt><trkpt lat="44.9874183" lon="9.6043467"><ele>90.0</ele><time>2026-05-02T12:50:32.042Z</time></trkpt><trkpt lat="44.9873217" lon="9.6043583"><ele>90.0</ele><time>2026-05-02T12:50:34.037Z</time></trkpt><trkpt lat="44.9872183" lon="9.6043733"><ele>90.2</ele><time>2026-05-02T12:50:36.033Z</time></trkpt><trkpt lat="44.98712" lon="9.6043917"><ele>90.4</ele><time>2026-05-02T12:50:38.038Z</time></trkpt><trkpt lat="44.98702" lon="9.604415"><ele>90.6</ele><time>2026-05-02T12:50:40.041Z</time></trkpt><trkpt lat="44.9869183" lon="9.6044317"><ele>90.8</ele><time>2026-05-02T12:50:42.039Z</time></trkpt><trkpt lat="44.9868117" lon="9.604445"><ele>91.0</ele><time>2026-05-02T12:50:44.037Z</time></trkpt><trkpt lat="44.9867017" lon="9.6044583"><ele>91.0</ele><time>2026-05-02T12:50:46.038Z</time></trkpt><trkpt lat="44.9866" lon="9.60447"><ele>91.0</ele><time>2026-05-02T12:50:48.036Z</time></trkpt><trkpt lat="44.9864967" lon="9.6044783"><ele>91.0</ele><time>2026-05-02T12:50:50.035Z</time></trkpt><trkpt lat="44.9863967" lon="9.60449"><ele>91.0</ele><time>2026-05-02T12:50:52.036Z</time></trkpt><trkpt lat="44.986295" lon="9.6045033"><ele>91.0</ele><time>2026-05-02T12:50:54.041Z</time></trkpt><trkpt lat="44.9861967" lon="9.60453"><ele>91.0</ele><time>2026-05-02T12:50:56.035Z</time></trkpt><trkpt lat="44.9861083" lon="9.604555"><ele>91.0</ele><time>2026-05-02T12:50:58.038Z</time></trkpt><trkpt lat="44.9860317" lon="9.6045717"><ele>91.0</ele><time>2026-05-02T12:51:00.032Z</time></trkpt><trkpt lat="44.9859683" lon="9.6045883"><ele>91.0</ele><time>2026-05-02T12:51:02.038Z</time></trkpt><trkpt lat="44.9859067" lon="9.6046233"><ele>91.0</ele><time>2026-05-02T12:51:05.038Z</time></trkpt><trkpt lat="44.9858583" lon="9.60473"><ele>91.0</ele><time>2026-05-02T12:51:08.036Z</time></trkpt><trkpt lat="44.9858383" lon="9.6048333"><ele>91.0</ele><time>2026-05-02T12:51:10.036Z</time></trkpt><trkpt lat="44.98582" lon="9.6049767"><ele>91.0</ele><time>2026-05-02T12:51:12.039Z</time></trkpt><trkpt lat="44.9857983" lon="9.6051233"><ele>91.0</ele><time>2026-05-02T12:51:14.042Z</time></trkpt><trkpt lat="44.9857717" lon="9.605265"><ele>91.0</ele><time>2026-05-02T12:51:16.038Z</time></trkpt><trkpt lat="44.9857433" lon="9.6054283"><ele>91.0</ele><time>2026-05-02T12:51:18.036Z</time></trkpt><trkpt lat="44.985715" lon="9.6055967"><ele>91.4</ele><time>2026-05-02T12:51:20.036Z</time></trkpt><trkpt lat="44.98569" lon="9.60575"><ele>91.8</ele><time>2026-05-02T12:51:22.041Z</time></trkpt><trkpt lat="44.9856633" lon="9.605905"><ele>92.2</ele><time>2026-05-02T12:51:24.036Z</time></trkpt><trkpt lat="44.98565" lon="9.6060483"><ele>92.60000000000001</ele><time>2026-05-02T12:51:26.03Z</time></trkpt><trkpt lat="44.9856317" lon="9.6061917"><ele>93.0</ele><time>2026-05-02T12:51:28.036Z</time></trkpt><trkpt lat="44.9856067" lon="9.6063333"><ele>93.0</ele><time>2026-05-02T12:51:30.032Z</time></trkpt><trkpt lat="44.9855783" lon="9.6064667"><ele>93.0</ele><time>2026-05-02T12:51:32.034Z</time></trkpt><trkpt lat="44.9855533" lon="9.6065933"><ele>93.0</ele><time>2026-05-02T12:51:34.036Z</time></trkpt><trkpt lat="44.9855467" lon="9.6066983"><ele>93.0</ele><time>2026-05-02T12:51:36.034Z</time></trkpt><trkpt lat="44.9855267" lon="9.6068"><ele>93.0</ele><time>2026-05-02T12:51:38.036Z</time></trkpt><trkpt lat="44.9854983" lon="9.6068933"><ele>93.0</ele><time>2026-05-02T12:51:40.039Z</time></trkpt><trkpt lat="44.9854417" lon="9.60696"><ele>93.0</ele><time>2026-05-02T12:51:42.034Z</time></trkpt><trkpt lat="44.9853517" lon="9.6069783"><ele>93.0</ele><time>2026-05-02T12:51:44.033Z</time></trkpt><trkpt lat="44.98523" lon="9.6069583"><ele>93.0</ele><time>2026-05-02T12:51:46.039Z</time></trkpt><trkpt lat="44.9851617" lon="9.6069417"><ele>93.0</ele><time>2026-05-02T12:51:47.041Z</time></trkpt><trkpt lat="44.9850417" lon="9.6069133"><ele>93.0</ele><time>2026-05-02T12:51:49.032Z</time></trkpt><trkpt lat="44.9849783" lon="9.6068917"><ele>93.16666666666667</ele><time>2026-05-02T12:51:50.039Z</time></trkpt><trkpt lat="44.9848567" lon="9.6068633"><ele>93.33333333333333</ele><time>2026-05-02T12:51:52.042Z</time></trkpt><trkpt lat="44.9847917" lon="9.6068533"><ele>93.5</ele><time>2026-05-02T12:51:53.033Z</time></trkpt><trkpt lat="44.9847267" lon="9.60685"><ele>93.66666666666666</ele><time>2026-05-02T12:51:54.037Z</time></trkpt><trkpt lat="44.9846583" lon="9.6068483"><ele>93.83333333333333</ele><time>2026-05-02T12:51:55.038Z</time></trkpt><trkpt lat="44.9845933" lon="9.60685"><ele>94.0</ele><time>2026-05-02T12:51:56.036Z</time></trkpt><trkpt lat="44.98453" lon="9.6068517"><ele>94.0</ele><time>2026-05-02T12:51:57.041Z</time></trkpt><trkpt lat="44.9844633" lon="9.6068483"><ele>94.0</ele><time>2026-05-02T12:51:58.038Z</time></trkpt><trkpt lat="44.9844" lon="9.6068517"><ele>94.0</ele><time>2026-05-02T12:51:59.034Z</time></trkpt><trkpt lat="44.9842733" lon="9.606845"><ele>94.0</ele><time>2026-05-02T12:52:01.037Z</time></trkpt><trkpt lat="44.9842" lon="9.60684"><ele>94.0</ele><time>2026-05-02T12:52:02.034Z</time></trkpt><trkpt lat="44.9841283" lon="9.606845"><ele>94.0</ele><time>2026-05-02T12:52:03.038Z</time></trkpt><trkpt lat="44.9840633" lon="9.6068483"><ele>94.16666666666666</ele><time>2026-05-02T12:52:04.038Z</time></trkpt><trkpt lat="44.9839967" lon="9.6068533"><ele>94.33333333333333</ele><time>2026-05-02T12:52:05.033Z</time></trkpt><trkpt lat="44.98393" lon="9.6068567"><ele>94.5</ele><time>2026-05-02T12:52:06.033Z</time></trkpt><trkpt lat="44.9838167" lon="9.6068667"><ele>94.66666666666667</ele><time>2026-05-02T12:52:08.036Z</time></trkpt><trkpt lat="44.9837533" lon="9.6068767"><ele>94.83333333333334</ele><time>2026-05-02T12:52:09.04Z</time></trkpt><trkpt lat="44.9836867" lon="9.6068833"><ele>95.0</ele><time>2026-05-02T12:52:10.037Z</time></trkpt><trkpt lat="44.98356" lon="9.6068883"><ele>95.0</ele><time>2026-05-02T12:52:12.041Z</time></trkpt><trkpt lat="44.9834483" lon="9.6068767"><ele>95.0</ele><time>2026-05-02T12:52:14.034Z</time></trkpt><trkpt lat="44.983385" lon="9.60687"><ele>95.0</ele><time>2026-05-02T12:52:15.04Z</time></trkpt><trkpt lat="44.9832583" lon="9.6068667"><ele>95.0</ele><time>2026-05-02T12:52:17.037Z</time></trkpt><trkpt lat="44.98314" lon="9.6068717"><ele>95.0</ele><time>2026-05-02T12:52:19.036Z</time></trkpt><trkpt lat="44.9830767" lon="9.6068733"><ele>95.0</ele><time>2026-05-02T12:52:20.032Z</time></trkpt><trkpt lat="44.9830133" lon="9.6068817"><ele>95.0</ele><time>2026-05-02T12:52:21.04Z</time></trkpt><trkpt lat="44.9828933" lon="9.60688"><ele>95.0</ele><time>2026-05-02T12:52:23.041Z</time></trkpt><trkpt lat="44.982825" lon="9.6068883"><ele>95.0</ele><time>2026-05-02T12:52:24.037Z</time></trkpt><trkpt lat="44.9827033" lon="9.6068883"><ele>95.0</ele><time>2026-05-02T12:52:26.037Z</time></trkpt><trkpt lat="44.982605" lon="9.60688"><ele>95.0</ele><time>2026-05-02T12:52:28.033Z</time></trkpt><trkpt lat="44.9825" lon="9.6068833"><ele>95.0</ele><time>2026-05-02T12:52:30.034Z</time></trkpt><trkpt lat="44.9823767" lon="9.6068983"><ele>95.0</ele><time>2026-05-02T12:52:32.037Z</time></trkpt><trkpt lat="44.98226" lon="9.6069033"><ele>95.0</ele><time>2026-05-02T12:52:34.034Z</time></trkpt><trkpt lat="44.9821967" lon="9.6068917"><ele>95.0</ele><time>2026-05-02T12:52:35.037Z</time></trkpt><trkpt lat="44.9821333" lon="9.6068683"><ele>95.0</ele><time>2026-05-02T12:52:36.034Z</time></trkpt><trkpt lat="44.9820183" lon="9.6068217"><ele>95.0</ele><time>2026-05-02T12:52:38.035Z</time></trkpt><trkpt lat="44.9818967" lon="9.6068017"><ele>95.0</ele><time>2026-05-02T12:52:40.036Z</time></trkpt><trkpt lat="44.98183" lon="9.6067983"><ele>95.0</ele><time>2026-05-02T12:52:41.035Z</time></trkpt><trkpt lat="44.9817633" lon="9.6067967"><ele>95.0</ele><time>2026-05-02T12:52:42.038Z</time></trkpt><trkpt lat="44.9816517" lon="9.6067867"><ele>94.6</ele><time>2026-05-02T12:52:44.038Z</time></trkpt><trkpt lat="44.98153" lon="9.6067633"><ele>94.2</ele><time>2026-05-02T12:52:46.037Z</time></trkpt><trkpt lat="44.9814033" lon="9.60675"><ele>93.80000000000001</ele><time>2026-05-02T12:52:48.041Z</time></trkpt><trkpt lat="44.98134" lon="9.6067383"><ele>93.4</ele><time>2026-05-02T12:52:49.043Z</time></trkpt><trkpt lat="44.9812317" lon="9.6067117"><ele>93.0</ele><time>2026-05-02T12:52:51.037Z</time></trkpt><trkpt lat="44.98112" lon="9.6066967"><ele>93.0</ele><time>2026-05-02T12:52:53.037Z</time></trkpt><trkpt lat="44.9809983" lon="9.606675"><ele>93.0</ele><time>2026-05-02T12:52:55.036Z</time></trkpt><trkpt lat="44.9809317" lon="9.6066733"><ele>93.0</ele><time>2026-05-02T12:52:56.037Z</time></trkpt><trkpt lat="44.9808217" lon="9.6066617"><ele>93.0</ele><time>2026-05-02T12:52:58.036Z</time></trkpt><trkpt lat="44.9807133" lon="9.60664"><ele>93.0</ele><time>2026-05-02T12:53:00.035Z</time></trkpt><trkpt lat="44.98061" lon="9.606635"><ele>93.75</ele><time>2026-05-02T12:53:02.035Z</time></trkpt><trkpt lat="44.9804967" lon="9.6066183"><ele>94.5</ele><time>2026-05-02T12:53:04.037Z</time></trkpt><trkpt lat="44.980385" lon="9.6066"><ele>95.25</ele><time>2026-05-02T12:53:06.039Z</time></trkpt><trkpt lat="44.9802667" lon="9.60658"><ele>96.0</ele><time>2026-05-02T12:53:08.038Z</time></trkpt><trkpt lat="44.9801533" lon="9.60656"><ele>96.0</ele><time>2026-05-02T12:53:10.037Z</time></trkpt><trkpt lat="44.980055" lon="9.6065617"><ele>96.0</ele><time>2026-05-02T12:53:12.034Z</time></trkpt><trkpt lat="44.979955" lon="9.6065383"><ele>96.0</ele><time>2026-05-02T12:53:14.038Z</time></trkpt><trkpt lat="44.9798517" lon="9.6065117"><ele>96.0</ele><time>2026-05-02T12:53:16.036Z</time></trkpt><trkpt lat="44.979745" lon="9.6065"><ele>96.0</ele><time>2026-05-02T12:53:18.035Z</time></trkpt><trkpt lat="44.9796383" lon="9.606495"><ele>96.16666666666667</ele><time>2026-05-02T12:53:20.037Z</time></trkpt><trkpt lat="44.9795717" lon="9.6064917"><ele>96.33333333333334</ele><time>2026-05-02T12:53:21.046Z</time></trkpt><trkpt lat="44.97945" lon="9.6065167"><ele>96.5</ele><time>2026-05-02T12:53:23.035Z</time></trkpt><trkpt lat="44.9793867" lon="9.6065267"><ele>96.66666666666667</ele><time>2026-05-02T12:53:24.039Z</time></trkpt><trkpt lat="44.979265" lon="9.6065717"><ele>96.83333333333334</ele><time>2026-05-02T12:53:26.038Z</time></trkpt><trkpt lat="44.9792017" lon="9.60659"><ele>97.0</ele><time>2026-05-02T12:53:27.036Z</time></trkpt><trkpt lat="44.9790967" lon="9.6066067"><ele>96.6</ele><time>2026-05-02T12:53:29.04Z</time></trkpt><trkpt lat="44.9790017" lon="9.606565"><ele>96.19999999999999</ele><time>2026-05-02T12:53:31.038Z</time></trkpt><trkpt lat="44.9789583" lon="9.606465"><ele>95.8</ele><time>2026-05-02T12:53:33.036Z</time></trkpt><trkpt lat="44.978875" lon="9.6064017"><ele>95.4</ele><time>2026-05-02T12:53:35.035Z</time></trkpt><trkpt lat="44.97877" lon="9.6063717"><ele>95.0</ele><time>2026-05-02T12:53:37.036Z</time></trkpt><trkpt lat="44.978665" lon="9.6063417"><ele>95.0</ele><time>2026-05-02T12:53:39.039Z</time></trkpt><trkpt lat="44.9785583" lon="9.6063167"><ele>95.0</ele><time>2026-05-02T12:53:41.037Z</time></trkpt><trkpt lat="44.9784417" lon="9.6062833"><ele>95.0</ele><time>2026-05-02T12:53:43.04Z</time></trkpt><trkpt lat="44.97833" lon="9.60625"><ele>95.0</ele><time>2026-05-02T12:53:45.036Z</time></trkpt><trkpt lat="44.97823" lon="9.606215"><ele>95.0</ele><time>2026-05-02T12:53:47.038Z</time></trkpt><trkpt lat="44.9781683" lon="9.6061933"><ele>95.2</ele><time>2026-05-02T12:53:48.035Z</time></trkpt><trkpt lat="44.9780483" lon="9.6061717"><ele>95.4</ele><time>2026-05-02T12:53:50.041Z</time></trkpt><trkpt lat="44.9779417" lon="9.606125"><ele>95.6</ele><time>2026-05-02T12:53:52.037Z</time></trkpt><trkpt lat="44.9778383" lon="9.60609"><ele>95.8</ele><time>2026-05-02T12:53:54.036Z</time></trkpt><trkpt lat="44.9777383" lon="9.6060517"><ele>96.0</ele><time>2026-05-02T12:53:56.035Z</time></trkpt><trkpt lat="44.97763" lon="9.6060283"><ele>96.25</ele><time>2026-05-02T12:53:58.032Z</time></trkpt><trkpt lat="44.977515" lon="9.6059867"><ele>96.5</ele><time>2026-05-02T12:54:00.037Z</time></trkpt><trkpt lat="44.9774083" lon="9.6059533"><ele>96.75</ele><time>2026-05-02T12:54:02.034Z</time></trkpt><trkpt lat="44.9773033" lon="9.6059283"><ele>97.0</ele><time>2026-05-02T12:54:04.034Z</time></trkpt><trkpt lat="44.9771867" lon="9.6059083"><ele>97.0</ele><time>2026-05-02T12:54:06.034Z</time></trkpt><trkpt lat="44.9770717" lon="9.6058883"><ele>97.0</ele><time>2026-05-02T12:54:08.038Z</time></trkpt><trkpt lat="44.9769633" lon="9.6058817"><ele>97.0</ele><time>2026-05-02T12:54:10.036Z</time></trkpt><trkpt lat="44.9768567" lon="9.6058667"><ele>97.0</ele><time>2026-05-02T12:54:12.042Z</time></trkpt><trkpt lat="44.9767567" lon="9.6058533"><ele>97.0</ele><time>2026-05-02T12:54:14.035Z</time></trkpt><trkpt lat="44.97666" lon="9.6058517"><ele>97.19999999999999</ele><time>2026-05-02T12:54:16.036Z</time></trkpt><trkpt lat="44.9765533" lon="9.6058333"><ele>97.4</ele><time>2026-05-02T12:54:18.037Z</time></trkpt><trkpt lat="44.97644" lon="9.6058017"><ele>97.6</ele><time>2026-05-02T12:54:20.037Z</time></trkpt><trkpt lat="44.9763433" lon="9.60579"><ele>97.80000000000001</ele><time>2026-05-02T12:54:22.04Z</time></trkpt><trkpt lat="44.97624" lon="9.6057717"><ele>98.0</ele><time>2026-05-02T12:54:24.033Z</time></trkpt><trkpt lat="44.97614" lon="9.6057567"><ele>98.0</ele><time>2026-05-02T12:54:26.032Z</time></trkpt><trkpt lat="44.9760483" lon="9.6057533"><ele>98.0</ele><time>2026-05-02T12:54:28.033Z</time></trkpt><trkpt lat="44.9759517" lon="9.60573"><ele>98.0</ele><time>2026-05-02T12:54:30.04Z</time></trkpt><trkpt lat="44.9758567" lon="9.6056933"><ele>98.0</ele><time>2026-05-02T12:54:32.034Z</time></trkpt><trkpt lat="44.9757567" lon="9.6056483"><ele>98.0</ele><time>2026-05-02T12:54:34.039Z</time></trkpt><trkpt lat="44.97567" lon="9.6055867"><ele>97.80000000000001</ele><time>2026-05-02T12:54:36.036Z</time></trkpt><trkpt lat="44.9755817" lon="9.605515"><ele>97.6</ele><time>2026-05-02T12:54:38.035Z</time></trkpt><trkpt lat="44.97549" lon="9.60545"><ele>97.4</ele><time>2026-05-02T12:54:40.035Z</time></trkpt><trkpt lat="44.9753783" lon="9.605395"><ele>97.19999999999999</ele><time>2026-05-02T12:54:42.036Z</time></trkpt><trkpt lat="44.97527" lon="9.60537"><ele>97.0</ele><time>2026-05-02T12:54:44.035Z</time></trkpt><trkpt lat="44.9751633" lon="9.6053683"><ele>97.0</ele><time>2026-05-02T12:54:46.038Z</time></trkpt><trkpt lat="44.9750533" lon="9.605385"><ele>97.0</ele><time>2026-05-02T12:54:48.038Z</time></trkpt><trkpt lat="44.9749533" lon="9.605425"><ele>97.0</ele><time>2026-05-02T12:54:50.036Z</time></trkpt><trkpt lat="44.9748633" lon="9.6054433"><ele>97.0</ele><time>2026-05-02T12:54:52.032Z</time></trkpt><trkpt lat="44.97477" lon="9.6054533"><ele>97.0</ele><time>2026-05-02T12:54:54.035Z</time></trkpt><trkpt lat="44.97466" lon="9.60546"><ele>97.8</ele><time>2026-05-02T12:54:56.036Z</time></trkpt><trkpt lat="44.9745517" lon="9.6054633"><ele>98.6</ele><time>2026-05-02T12:54:58.036Z</time></trkpt><trkpt lat="44.9744433" lon="9.60546"><ele>99.39999999999999</ele><time>2026-05-02T12:55:00.035Z</time></trkpt><trkpt lat="44.974335" lon="9.605445"><ele>100.19999999999999</ele><time>2026-05-02T12:55:02.034Z</time></trkpt><trkpt lat="44.9742317" lon="9.6054317"><ele>101.0</ele><time>2026-05-02T12:55:04.032Z</time></trkpt><trkpt lat="44.97413" lon="9.6054233"><ele>101.0</ele><time>2026-05-02T12:55:06.034Z</time></trkpt><trkpt lat="44.97402" lon="9.6054233"><ele>101.0</ele><time>2026-05-02T12:55:08.037Z</time></trkpt><trkpt lat="44.9739167" lon="9.60543"><ele>101.0</ele><time>2026-05-02T12:55:10.036Z</time></trkpt><trkpt lat="44.973815" lon="9.60544"><ele>101.0</ele><time>2026-05-02T12:55:12.039Z</time></trkpt><trkpt lat="44.973715" lon="9.60545"><ele>101.0</ele><time>2026-05-02T12:55:14.036Z</time></trkpt><trkpt lat="44.973595" lon="9.60545"><ele>101.0</ele><time>2026-05-02T12:55:16.034Z</time></trkpt><trkpt lat="44.973485" lon="9.6054533"><ele>101.0</ele><time>2026-05-02T12:55:18.035Z</time></trkpt><trkpt lat="44.9733783" lon="9.6054467"><ele>101.0</ele><time>2026-05-02T12:55:20.035Z</time></trkpt><trkpt lat="44.97327" lon="9.6054467"><ele>101.0</ele><time>2026-05-02T12:55:22.033Z</time></trkpt><trkpt lat="44.97318" lon="9.60544"><ele>101.0</ele><time>2026-05-02T12:55:24.035Z</time></trkpt><trkpt lat="44.9731067" lon="9.6054333"><ele>100.83333333333333</ele><time>2026-05-02T12:55:26.034Z</time></trkpt><trkpt lat="44.9730433" lon="9.6054067"><ele>100.66666666666666</ele><time>2026-05-02T12:55:28.036Z</time></trkpt><trkpt lat="44.97298" lon="9.6053633"><ele>100.5</ele><time>2026-05-02T12:55:30.039Z</time></trkpt><trkpt lat="44.972905" lon="9.60536"><ele>100.33333333333334</ele><time>2026-05-02T12:55:32.036Z</time></trkpt><trkpt lat="44.9728183" lon="9.6053767"><ele>100.16666666666667</ele><time>2026-05-02T12:55:34.035Z</time></trkpt><trkpt lat="44.9727333" lon="9.6053917"><ele>100.0</ele><time>2026-05-02T12:55:36.038Z</time></trkpt><trkpt lat="44.9726467" lon="9.605385"><ele>100.0</ele><time>2026-05-02T12:55:38.037Z</time></trkpt><trkpt lat="44.9725683" lon="9.6053917"><ele>100.0</ele><time>2026-05-02T12:55:40.037Z</time></trkpt><trkpt lat="44.9724817" lon="9.6053833"><ele>100.0</ele><time>2026-05-02T12:55:42.038Z</time></trkpt><trkpt lat="44.9723883" lon="9.6053533"><ele>100.0</ele><time>2026-05-02T12:55:44.037Z</time></trkpt><trkpt lat="44.97229" lon="9.60532"><ele>100.0</ele><time>2026-05-02T12:55:46.034Z</time></trkpt><trkpt lat="44.9721933" lon="9.605285"><ele>100.0</ele><time>2026-05-02T12:55:48.035Z</time></trkpt><trkpt lat="44.9720867" lon="9.60527"><ele>100.0</ele><time>2026-05-02T12:55:50.037Z</time></trkpt><trkpt lat="44.971985" lon="9.6052483"><ele>100.0</ele><time>2026-05-02T12:55:52.034Z</time></trkpt><trkpt lat="44.9718833" lon="9.605215"><ele>100.0</ele><time>2026-05-02T12:55:54.037Z</time></trkpt><trkpt lat="44.9718033" lon="9.605205"><ele>100.0</ele><time>2026-05-02T12:55:56.034Z</time></trkpt><trkpt lat="44.97173" lon="9.6051917"><ele>100.16666666666667</ele><time>2026-05-02T12:55:58.038Z</time></trkpt><trkpt lat="44.971645" lon="9.6051833"><ele>100.33333333333334</ele><time>2026-05-02T12:56:01.039Z</time></trkpt><trkpt lat="44.9716217" lon="9.6052967"><ele>100.5</ele><time>2026-05-02T12:56:04.039Z</time></trkpt><trkpt lat="44.9715383" lon="9.6053283"><ele>100.66666666666666</ele><time>2026-05-02T12:56:09.042Z</time></trkpt><trkpt lat="44.9714617" lon="9.6053133"><ele>100.83333333333333</ele><time>2026-05-02T12:56:11.037Z</time></trkpt><trkpt lat="44.9713767" lon="9.6053033"><ele>101.0</ele><time>2026-05-02T12:56:13.038Z</time></trkpt><trkpt lat="44.9712933" lon="9.6052883"><ele>101.0</ele><time>2026-05-02T12:56:15.036Z</time></trkpt><trkpt lat="44.9712083" lon="9.6052717"><ele>101.0</ele><time>2026-05-02T12:56:17.034Z</time></trkpt><trkpt lat="44.9711083" lon="9.6052533"><ele>101.0</ele><time>2026-05-02T12:56:19.042Z</time></trkpt><trkpt lat="44.9710167" lon="9.6052417"><ele>101.0</ele><time>2026-05-02T12:56:21.042Z</time></trkpt><trkpt lat="44.9709133" lon="9.6052583"><ele>101.0</ele><time>2026-05-02T12:56:23.034Z</time></trkpt><trkpt lat="44.9708333" lon="9.605285"><ele>101.0</ele><time>2026-05-02T12:56:25.038Z</time></trkpt><trkpt lat="44.9707533" lon="9.605315"><ele>101.0</ele><time>2026-05-02T12:56:27.038Z</time></trkpt><trkpt lat="44.97066" lon="9.6053583"><ele>101.0</ele><time>2026-05-02T12:56:29.04Z</time></trkpt><trkpt lat="44.9705733" lon="9.6054067"><ele>101.0</ele><time>2026-05-02T12:56:31.037Z</time></trkpt><trkpt lat="44.9704883" lon="9.6054667"><ele>101.0</ele><time>2026-05-02T12:56:33.036Z</time></trkpt><trkpt lat="44.9703967" lon="9.6055117"><ele>101.0</ele><time>2026-05-02T12:56:35.037Z</time></trkpt><trkpt lat="44.9703133" lon="9.6055233"><ele>101.0</ele><time>2026-05-02T12:56:37.041Z</time></trkpt><trkpt lat="44.97024" lon="9.6055033"><ele>101.0</ele><time>2026-05-02T12:56:39.042Z</time></trkpt><trkpt lat="44.970145" lon="9.605455"><ele>101.0</ele><time>2026-05-02T12:56:41.039Z</time></trkpt><trkpt lat="44.9700533" lon="9.6053783"><ele>101.0</ele><time>2026-05-02T12:56:43.035Z</time></trkpt><trkpt lat="44.9699683" lon="9.6052733"><ele>101.6</ele><time>2026-05-02T12:56:45.037Z</time></trkpt><trkpt lat="44.9699233" lon="9.60521"><ele>102.19999999999999</ele><time>2026-05-02T12:56:46.035Z</time></trkpt><trkpt lat="44.9698483" lon="9.6050933"><ele>102.80000000000001</ele><time>2026-05-02T12:56:48.039Z</time></trkpt><trkpt lat="44.969755" lon="9.6049817"><ele>103.4</ele><time>2026-05-02T12:56:50.033Z</time></trkpt><trkpt lat="44.96967" lon="9.6048567"><ele>104.0</ele><time>2026-05-02T12:56:52.038Z</time></trkpt><trkpt lat="44.9695833" lon="9.6047417"><ele>104.0</ele><time>2026-05-02T12:56:54.035Z</time></trkpt><trkpt lat="44.969495" lon="9.6046517"><ele>104.0</ele><time>2026-05-02T12:56:56.036Z</time></trkpt><trkpt lat="44.96944" lon="9.6045967"><ele>104.0</ele><time>2026-05-02T12:56:57.04Z</time></trkpt><trkpt lat="44.9693433" lon="9.604495"><ele>104.0</ele><time>2026-05-02T12:56:59.026Z</time></trkpt><trkpt lat="44.9692483" lon="9.6043867"><ele>104.0</ele><time>2026-05-02T12:57:01.04Z</time></trkpt><trkpt lat="44.9691967" lon="9.60433"><ele>104.33333333333333</ele><time>2026-05-02T12:57:02.039Z</time></trkpt><trkpt lat="44.969145" lon="9.6042767"><ele>104.66666666666666</ele><time>2026-05-02T12:57:03.037Z</time></trkpt><trkpt lat="44.9690933" lon="9.604225"><ele>105.0</ele><time>2026-05-02T12:57:04.031Z</time></trkpt><trkpt lat="44.968985" lon="9.6041383"><ele>105.33333333333334</ele><time>2026-05-02T12:57:06.035Z</time></trkpt><trkpt lat="44.9688717" lon="9.6040567"><ele>105.66666666666667</ele><time>2026-05-02T12:57:08.033Z</time></trkpt><trkpt lat="44.96881" lon="9.604015"><ele>106.0</ele><time>2026-05-02T12:57:09.039Z</time></trkpt><trkpt lat="44.9687517" lon="9.6039767"><ele>106.0</ele><time>2026-05-02T12:57:10.036Z</time></trkpt><trkpt lat="44.96864" lon="9.6038983"><ele>106.0</ele><time>2026-05-02T12:57:12.036Z</time></trkpt><trkpt lat="44.9685333" lon="9.6038333"><ele>106.0</ele><time>2026-05-02T12:57:14.031Z</time></trkpt><trkpt lat="44.9684233" lon="9.60377"><ele>106.0</ele><time>2026-05-02T12:57:16.034Z</time></trkpt><trkpt lat="44.9683133" lon="9.6037183"><ele>105.6</ele><time>2026-05-02T12:57:18.034Z</time></trkpt><trkpt lat="44.9682083" lon="9.6036717"><ele>105.19999999999999</ele><time>2026-05-02T12:57:20.036Z</time></trkpt><trkpt lat="44.9680917" lon="9.6036267"><ele>104.80000000000001</ele><time>2026-05-02T12:57:22.036Z</time></trkpt><trkpt lat="44.9680217" lon="9.6036067"><ele>104.4</ele><time>2026-05-02T12:57:23.035Z</time></trkpt><trkpt lat="44.9679583" lon="9.6035933"><ele>104.0</ele><time>2026-05-02T12:57:24.036Z</time></trkpt><trkpt lat="44.9678333" lon="9.6035667"><ele>103.75</ele><time>2026-05-02T12:57:26.034Z</time></trkpt><trkpt lat="44.9677017" lon="9.6035417"><ele>103.5</ele><time>2026-05-02T12:57:28.035Z</time></trkpt><trkpt lat="44.9675783" lon="9.6035217"><ele>103.25</ele><time>2026-05-02T12:57:30.035Z</time></trkpt><trkpt lat="44.9675133" lon="9.6035067"><ele>103.0</ele><time>2026-05-02T12:57:31.036Z</time></trkpt><trkpt lat="44.9673833" lon="9.6034917"><ele>103.4</ele><time>2026-05-02T12:57:33.04Z</time></trkpt><trkpt lat="44.9673183" lon="9.603495"><ele>103.80000000000001</ele><time>2026-05-02T12:57:34.034Z</time></trkpt><trkpt lat="44.9672033" lon="9.603495"><ele>104.2</ele><time>2026-05-02T12:57:36.036Z</time></trkpt><trkpt lat="44.9670767" lon="9.6034783"><ele>104.6</ele><time>2026-05-02T12:57:38.037Z</time></trkpt><trkpt lat="44.9669533" lon="9.6034817"><ele>105.0</ele><time>2026-05-02T12:57:40.034Z</time></trkpt><trkpt lat="44.966885" lon="9.6034883"><ele>105.0</ele><time>2026-05-02T12:57:41.037Z</time></trkpt><trkpt lat="44.9668167" lon="9.6034967"><ele>105.0</ele><time>2026-05-02T12:57:42.034Z</time></trkpt><trkpt lat="44.9667533" lon="9.60351"><ele>105.0</ele><time>2026-05-02T12:57:43.035Z</time></trkpt><trkpt lat="44.9666333" lon="9.6035367"><ele>105.0</ele><time>2026-05-02T12:57:45.034Z</time></trkpt><trkpt lat="44.9665667" lon="9.60354"><ele>105.0</ele><time>2026-05-02T12:57:46.036Z</time></trkpt><trkpt lat="44.9664933" lon="9.6035417"><ele>105.0</ele><time>2026-05-02T12:57:47.034Z</time></trkpt><trkpt lat="44.9663667" lon="9.603555"><ele>105.16666666666667</ele><time>2026-05-02T12:57:49.04Z</time></trkpt><trkpt lat="44.9662967" lon="9.6035617"><ele>105.33333333333334</ele><time>2026-05-02T12:57:50.027Z</time></trkpt><trkpt lat="44.96623" lon="9.6035683"><ele>105.5</ele><time>2026-05-02T12:57:51.045Z</time></trkpt><trkpt lat="44.9661667" lon="9.603585"><ele>105.66666666666667</ele><time>2026-05-02T12:57:52.035Z</time></trkpt><trkpt lat="44.9660533" lon="9.60361"><ele>105.83333333333334</ele><time>2026-05-02T12:57:54.034Z</time></trkpt><trkpt lat="44.9659333" lon="9.6036383"><ele>106.0</ele><time>2026-05-02T12:57:56.033Z</time></trkpt><trkpt lat="44.9658083" lon="9.603655"><ele>106.19999999999999</ele><time>2026-05-02T12:57:58.037Z</time></trkpt><trkpt lat="44.965685" lon="9.6036567"><ele>106.39999999999999</ele><time>2026-05-02T12:58:00.038Z</time></trkpt><trkpt lat="44.9656217" lon="9.603655"><ele>106.6</ele><time>2026-05-02T12:58:01.035Z</time></trkpt><trkpt lat="44.9654967" lon="9.6036533"><ele>106.8</ele><time>2026-05-02T12:58:03.035Z</time></trkpt><trkpt lat="44.96538" lon="9.6036517"><ele>107.0</ele><time>2026-05-02T12:58:05.036Z</time></trkpt><trkpt lat="44.9652717" lon="9.6036533"><ele>106.99999999999999</ele><time>2026-05-02T12:58:07.038Z</time></trkpt><trkpt lat="44.9651483" lon="9.6036317"><ele>107.0</ele><time>2026-05-02T12:58:09.041Z</time></trkpt><trkpt lat="44.9650283" lon="9.603595"><ele>107.0</ele><time>2026-05-02T12:58:11.034Z</time></trkpt><trkpt lat="44.9649667" lon="9.6035733"><ele>107.0</ele><time>2026-05-02T12:58:12.036Z</time></trkpt><trkpt lat="44.964905" lon="9.603545"><ele>106.99999999999999</ele><time>2026-05-02T12:58:13.037Z</time></trkpt><trkpt lat="44.9648433" lon="9.6035167"><ele>107.0</ele><time>2026-05-02T12:58:14.036Z</time></trkpt><trkpt lat="44.9647283" lon="9.6034567"><ele>106.66666666666666</ele><time>2026-05-02T12:58:16.033Z</time></trkpt><trkpt lat="44.9646117" lon="9.603405"><ele>106.33333333333333</ele><time>2026-05-02T12:58:18.036Z</time></trkpt><trkpt lat="44.9644983" lon="9.6033283"><ele>106.0</ele><time>2026-05-02T12:58:20.036Z</time></trkpt><trkpt lat="44.9644367" lon="9.6032833"><ele>105.66666666666666</ele><time>2026-05-02T12:58:21.035Z</time></trkpt><trkpt lat="44.9643833" lon="9.60323"><ele>105.33333333333333</ele><time>2026-05-02T12:58:22.034Z</time></trkpt><trkpt lat="44.9643333" lon="9.6031717"><ele>105.0</ele><time>2026-05-02T12:58:23.035Z</time></trkpt><trkpt lat="44.964285" lon="9.6031083"><ele>105.0</ele><time>2026-05-02T12:58:24.035Z</time></trkpt><trkpt lat="44.9642367" lon="9.60305"><ele>105.0</ele><time>2026-05-02T12:58:25.035Z</time></trkpt><trkpt lat="44.964145" lon="9.6029333"><ele>105.0</ele><time>2026-05-02T12:58:27.045Z</time></trkpt><trkpt lat="44.9640617" lon="9.6028167"><ele>105.0</ele><time>2026-05-02T12:58:29.038Z</time></trkpt><trkpt lat="44.963995" lon="9.6026917"><ele>105.0</ele><time>2026-05-02T12:58:31.037Z</time></trkpt><trkpt lat="44.9639217" lon="9.602555"><ele>105.0</ele><time>2026-05-02T12:58:33.039Z</time></trkpt><trkpt lat="44.9638833" lon="9.6024783"><ele>105.0</ele><time>2026-05-02T12:58:34.035Z</time></trkpt><trkpt lat="44.9638433" lon="9.6024017"><ele>105.0</ele><time>2026-05-02T12:58:35.035Z</time></trkpt><trkpt lat="44.96381" lon="9.6023233"><ele>105.0</ele><time>2026-05-02T12:58:36.038Z</time></trkpt><trkpt lat="44.9637767" lon="9.6022467"><ele>105.0</ele><time>2026-05-02T12:58:37.042Z</time></trkpt><trkpt lat="44.9637233" lon="9.6020933"><ele>105.0</ele><time>2026-05-02T12:58:39.041Z</time></trkpt><trkpt lat="44.963685" lon="9.601925"><ele>104.5</ele><time>2026-05-02T12:58:41.035Z</time></trkpt><trkpt lat="44.9636533" lon="9.60177"><ele>104.0</ele><time>2026-05-02T12:58:43.034Z</time></trkpt><trkpt lat="44.96363" lon="9.6016083"><ele>103.5</ele><time>2026-05-02T12:58:45.04Z</time></trkpt><trkpt lat="44.9636033" lon="9.60145"><ele>103.0</ele><time>2026-05-02T12:58:47.035Z</time></trkpt><trkpt lat="44.9635833" lon="9.6012817"><ele>102.99999999999999</ele><time>2026-05-02T12:58:49.033Z</time></trkpt><trkpt lat="44.963575" lon="9.60119"><ele>103.0</ele><time>2026-05-02T12:58:50.036Z</time></trkpt><trkpt lat="44.9635733" lon="9.6010983"><ele>103.0</ele><time>2026-05-02T12:58:51.038Z</time></trkpt><trkpt lat="44.96357" lon="9.6010083"><ele>103.0</ele><time>2026-05-02T12:58:52.036Z</time></trkpt><trkpt lat="44.9635683" lon="9.6009183"><ele>103.0</ele><time>2026-05-02T12:58:53.038Z</time></trkpt><trkpt lat="44.963575" lon="9.600745"><ele>102.99999999999999</ele><time>2026-05-02T12:58:55.042Z</time></trkpt><trkpt lat="44.9635783" lon="9.600655"><ele>103.0</ele><time>2026-05-02T12:58:56.034Z</time></trkpt><trkpt lat="44.9635833" lon="9.6005617"><ele>103.25</ele><time>2026-05-02T12:58:57.039Z</time></trkpt><trkpt lat="44.963585" lon="9.6004"><ele>103.5</ele><time>2026-05-02T12:58:59.038Z</time></trkpt><trkpt lat="44.9635967" lon="9.6002267"><ele>103.75</ele><time>2026-05-02T12:59:01.039Z</time></trkpt><trkpt lat="44.9636067" lon="9.60005"><ele>104.0</ele><time>2026-05-02T12:59:03.041Z</time></trkpt><trkpt lat="44.96362" lon="9.5998833"><ele>103.99999999999999</ele><time>2026-05-02T12:59:05.039Z</time></trkpt><trkpt lat="44.9636167" lon="9.5997883"><ele>104.0</ele><time>2026-05-02T12:59:06.038Z</time></trkpt><trkpt lat="44.9636267" lon="9.5996067"><ele>104.0</ele><time>2026-05-02T12:59:08.037Z</time></trkpt><trkpt lat="44.963645" lon="9.59944"><ele>104.0</ele><time>2026-05-02T12:59:10.039Z</time></trkpt><trkpt lat="44.96365" lon="9.59935"><ele>103.99999999999999</ele><time>2026-05-02T12:59:11.037Z</time></trkpt><trkpt lat="44.9636583" lon="9.5992617"><ele>104.0</ele><time>2026-05-02T12:59:12.035Z</time></trkpt><trkpt lat="44.9636817" lon="9.599095"><ele>104.16666666666666</ele><time>2026-05-02T12:59:14.039Z</time></trkpt><trkpt lat="44.9636867" lon="9.5989983"><ele>104.33333333333333</ele><time>2026-05-02T12:59:15.037Z</time></trkpt><trkpt lat="44.9636967" lon="9.5988317"><ele>104.5</ele><time>2026-05-02T12:59:17.035Z</time></trkpt><trkpt lat="44.96371" lon="9.59866"><ele>104.66666666666666</ele><time>2026-05-02T12:59:19.039Z</time></trkpt><trkpt lat="44.9637167" lon="9.59857"><ele>104.83333333333333</ele><time>2026-05-02T12:59:20.037Z</time></trkpt><trkpt lat="44.9637217" lon="9.59848"><ele>105.0</ele><time>2026-05-02T12:59:21.04Z</time></trkpt><trkpt lat="44.9637383" lon="9.598315"><ele>104.6</ele><time>2026-05-02T12:59:23.037Z</time></trkpt><trkpt lat="44.9637383" lon="9.5981417"><ele>104.2</ele><time>2026-05-02T12:59:25.035Z</time></trkpt><trkpt lat="44.9637467" lon="9.59796"><ele>103.80000000000001</ele><time>2026-05-02T12:59:27.036Z</time></trkpt><trkpt lat="44.96376" lon="9.5977833"><ele>103.4</ele><time>2026-05-02T12:59:29.034Z</time></trkpt><trkpt lat="44.9637683" lon="9.5976933"><ele>103.0</ele><time>2026-05-02T12:59:30.035Z</time></trkpt><trkpt lat="44.963785" lon="9.5975117"><ele>102.5</ele><time>2026-05-02T12:59:32.037Z</time></trkpt><trkpt lat="44.9638017" lon="9.5973383"><ele>102.0</ele><time>2026-05-02T12:59:34.036Z</time></trkpt><trkpt lat="44.9638117" lon="9.59717"><ele>101.5</ele><time>2026-05-02T12:59:36.036Z</time></trkpt><trkpt lat="44.96382" lon="9.597"><ele>101.0</ele><time>2026-05-02T12:59:38.036Z</time></trkpt><trkpt lat="44.9638267" lon="9.59682"><ele>100.99999999999999</ele><time>2026-05-02T12:59:40.033Z</time></trkpt><trkpt lat="44.963835" lon="9.5967233"><ele>101.0</ele><time>2026-05-02T12:59:41.035Z</time></trkpt><trkpt lat="44.9638517" lon="9.5965533"><ele>101.0</ele><time>2026-05-02T12:59:43.037Z</time></trkpt><trkpt lat="44.963855" lon="9.5964633"><ele>101.0</ele><time>2026-05-02T12:59:44.036Z</time></trkpt><trkpt lat="44.96386" lon="9.59629"><ele>100.99999999999999</ele><time>2026-05-02T12:59:46.035Z</time></trkpt><trkpt lat="44.963865" lon="9.5961983"><ele>101.0</ele><time>2026-05-02T12:59:47.035Z</time></trkpt><trkpt lat="44.96387" lon="9.5961033"><ele>100.8</ele><time>2026-05-02T12:59:48.038Z</time></trkpt><trkpt lat="44.9638767" lon="9.5960117"><ele>100.6</ele><time>2026-05-02T12:59:49.04Z</time></trkpt><trkpt lat="44.9638917" lon="9.5958333"><ele>100.4</ele><time>2026-05-02T12:59:51.039Z</time></trkpt><trkpt lat="44.96391" lon="9.59566"><ele>100.2</ele><time>2026-05-02T12:59:53.037Z</time></trkpt><trkpt lat="44.963915" lon="9.5955683"><ele>100.0</ele><time>2026-05-02T12:59:54.037Z</time></trkpt><trkpt lat="44.9639217" lon="9.5954"><ele>100.0</ele><time>2026-05-02T12:59:56.037Z</time></trkpt><trkpt lat="44.9639333" lon="9.5952217"><ele>100.0</ele><time>2026-05-02T12:59:58.036Z</time></trkpt><trkpt lat="44.96394" lon="9.5951317"><ele>100.0</ele><time>2026-05-02T12:59:59.039Z</time></trkpt><trkpt lat="44.963945" lon="9.5950417"><ele>100.0</ele><time>2026-05-02T13:00:00.036Z</time></trkpt><trkpt lat="44.96395" lon="9.59486"><ele>100.0</ele><time>2026-05-02T13:00:02.035Z</time></trkpt><trkpt lat="44.9639567" lon="9.5946883"><ele>100.0</ele><time>2026-05-02T13:00:04.036Z</time></trkpt><trkpt lat="44.9639733" lon="9.5945083"><ele>100.0</ele><time>2026-05-02T13:00:06.037Z</time></trkpt><trkpt lat="44.96398" lon="9.5944133"><ele>100.0</ele><time>2026-05-02T13:00:07.035Z</time></trkpt><trkpt lat="44.9639867" lon="9.5943233"><ele>100.0</ele><time>2026-05-02T13:00:08.036Z</time></trkpt><trkpt lat="44.964005" lon="9.5941583"><ele>100.0</ele><time>2026-05-02T13:00:10.037Z</time></trkpt><trkpt lat="44.9640067" lon="9.59398"><ele>100.00000000000001</ele><time>2026-05-02T13:00:12.033Z</time></trkpt><trkpt lat="44.9640117" lon="9.5938883"><ele>100.0</ele><time>2026-05-02T13:00:13.036Z</time></trkpt><trkpt lat="44.9640183" lon="9.593715"><ele>100.0</ele><time>2026-05-02T13:00:15.044Z</time></trkpt><trkpt lat="44.9640267" lon="9.5936233"><ele>100.0</ele><time>2026-05-02T13:00:16.034Z</time></trkpt><trkpt lat="44.9640317" lon="9.59353"><ele>100.00000000000001</ele><time>2026-05-02T13:00:17.034Z</time></trkpt><trkpt lat="44.9640433" lon="9.5934383"><ele>100.0</ele><time>2026-05-02T13:00:18.038Z</time></trkpt><trkpt lat="44.964065" lon="9.59327"><ele>100.00000000000001</ele><time>2026-05-02T13:00:20.038Z</time></trkpt><trkpt lat="44.9640767" lon="9.5931817"><ele>100.0</ele><time>2026-05-02T13:00:21.042Z</time></trkpt><trkpt lat="44.9640817" lon="9.5930917"><ele>100.0</ele><time>2026-05-02T13:00:22.04Z</time></trkpt><trkpt lat="44.9640933" lon="9.5930017"><ele>100.0</ele><time>2026-05-02T13:00:23.038Z</time></trkpt><trkpt lat="44.964105" lon="9.5928367"><ele>100.00000000000001</ele><time>2026-05-02T13:00:25.037Z</time></trkpt><trkpt lat="44.964115" lon="9.59266"><ele>100.0</ele><time>2026-05-02T13:00:27.04Z</time></trkpt><trkpt lat="44.9641233" lon="9.5924917"><ele>100.00000000000001</ele><time>2026-05-02T13:00:29.035Z</time></trkpt><trkpt lat="44.9641283" lon="9.5923117"><ele>100.0</ele><time>2026-05-02T13:00:31.038Z</time></trkpt><trkpt lat="44.9641267" lon="9.5922167"><ele>100.0</ele><time>2026-05-02T13:00:32.038Z</time></trkpt><trkpt lat="44.9641383" lon="9.5920433"><ele>100.0</ele><time>2026-05-02T13:00:34.034Z</time></trkpt><trkpt lat="44.96414" lon="9.5919517"><ele>100.00000000000001</ele><time>2026-05-02T13:00:35.04Z</time></trkpt><trkpt lat="44.9641467" lon="9.5918583"><ele>100.0</ele><time>2026-05-02T13:00:36.039Z</time></trkpt><trkpt lat="44.9641567" lon="9.59177"><ele>100.25</ele><time>2026-05-02T13:00:37.036Z</time></trkpt><trkpt lat="44.9641717" lon="9.591595"><ele>100.5</ele><time>2026-05-02T13:00:39.035Z</time></trkpt><trkpt lat="44.96418" lon="9.5914183"><ele>100.75</ele><time>2026-05-02T13:00:41.037Z</time></trkpt><trkpt lat="44.96418" lon="9.59125"><ele>101.0</ele><time>2026-05-02T13:00:43.037Z</time></trkpt><trkpt lat="44.9641933" lon="9.5910767"><ele>101.16666666666666</ele><time>2026-05-02T13:00:45.034Z</time></trkpt><trkpt lat="44.9642017" lon="9.5909833"><ele>101.33333333333333</ele><time>2026-05-02T13:00:46.036Z</time></trkpt><trkpt lat="44.9642117" lon="9.590895"><ele>101.5</ele><time>2026-05-02T13:00:47.045Z</time></trkpt><trkpt lat="44.9642167" lon="9.590805"><ele>101.66666666666666</ele><time>2026-05-02T13:00:48.035Z</time></trkpt><trkpt lat="44.9642267" lon="9.5906283"><ele>101.83333333333333</ele><time>2026-05-02T13:00:50.038Z</time></trkpt><trkpt lat="44.964235" lon="9.5904583"><ele>102.0</ele><time>2026-05-02T13:00:52.04Z</time></trkpt><trkpt lat="44.96425" lon="9.5902867"><ele>102.0</ele><time>2026-05-02T13:00:54.033Z</time></trkpt><trkpt lat="44.9642617" lon="9.5901083"><ele>102.0</ele><time>2026-05-02T13:00:56.041Z</time></trkpt><trkpt lat="44.96427" lon="9.5900183"><ele>102.0</ele><time>2026-05-02T13:00:57.039Z</time></trkpt><trkpt lat="44.96428" lon="9.58993"><ele>102.0</ele><time>2026-05-02T13:00:58.038Z</time></trkpt><trkpt lat="44.9642983" lon="9.589775"><ele>102.0</ele><time>2026-05-02T13:01:00.037Z</time></trkpt><trkpt lat="44.9642967" lon="9.5896817"><ele>102.0</ele><time>2026-05-02T13:01:01.037Z</time></trkpt><trkpt lat="44.964295" lon="9.589515"><ele>102.33333333333333</ele><time>2026-05-02T13:01:03.038Z</time></trkpt><trkpt lat="44.9642983" lon="9.589425"><ele>102.66666666666666</ele><time>2026-05-02T13:01:04.04Z</time></trkpt><trkpt lat="44.964305" lon="9.5893317"><ele>103.0</ele><time>2026-05-02T13:01:05.036Z</time></trkpt><trkpt lat="44.9643117" lon="9.5892383"><ele>103.33333333333333</ele><time>2026-05-02T13:01:06.037Z</time></trkpt><trkpt lat="44.964315" lon="9.589145"><ele>103.66666666666666</ele><time>2026-05-02T13:01:07.038Z</time></trkpt><trkpt lat="44.964335" lon="9.5889783"><ele>104.0</ele><time>2026-05-02T13:01:09.05Z</time></trkpt><trkpt lat="44.964345" lon="9.58882"><ele>104.4</ele><time>2026-05-02T13:01:11.034Z</time></trkpt><trkpt lat="44.964355" lon="9.58865"><ele>104.80000000000001</ele><time>2026-05-02T13:01:13.041Z</time></trkpt><trkpt lat="44.9643733" lon="9.588485"><ele>105.19999999999999</ele><time>2026-05-02T13:01:15.033Z</time></trkpt><trkpt lat="44.964385" lon="9.5883083"><ele>105.6</ele><time>2026-05-02T13:01:17.036Z</time></trkpt><trkpt lat="44.9643833" lon="9.5882183"><ele>106.0</ele><time>2026-05-02T13:01:18.037Z</time></trkpt><trkpt lat="44.9643833" lon="9.5881283"><ele>106.0</ele><time>2026-05-02T13:01:19.034Z</time></trkpt><trkpt lat="44.964385" lon="9.5880383"><ele>106.0</ele><time>2026-05-02T13:01:20.035Z</time></trkpt><trkpt lat="44.9643917" lon="9.5878683"><ele>106.0</ele><time>2026-05-02T13:01:22.034Z</time></trkpt><trkpt lat="44.9644067" lon="9.5877017"><ele>106.0</ele><time>2026-05-02T13:01:24.035Z</time></trkpt><trkpt lat="44.9644233" lon="9.58754"><ele>106.0</ele><time>2026-05-02T13:01:26.036Z</time></trkpt><trkpt lat="44.96444" lon="9.5873733"><ele>106.5</ele><time>2026-05-02T13:01:28.041Z</time></trkpt><trkpt lat="44.9644383" lon="9.5872"><ele>107.0</ele><time>2026-05-02T13:01:30.037Z</time></trkpt><trkpt lat="44.964445" lon="9.5870417"><ele>107.5</ele><time>2026-05-02T13:01:32.036Z</time></trkpt><trkpt lat="44.9644633" lon="9.586895"><ele>108.0</ele><time>2026-05-02T13:01:34.036Z</time></trkpt><trkpt lat="44.9644783" lon="9.5867417"><ele>108.80000000000001</ele><time>2026-05-02T13:01:36.035Z</time></trkpt><trkpt lat="44.9644933" lon="9.5865733"><ele>109.60000000000001</ele><time>2026-05-02T13:01:38.035Z</time></trkpt><trkpt lat="44.9645" lon="9.586405"><ele>110.39999999999999</ele><time>2026-05-02T13:01:40.034Z</time></trkpt><trkpt lat="44.9645167" lon="9.586265"><ele>111.19999999999999</ele><time>2026-05-02T13:01:42.036Z</time></trkpt><trkpt lat="44.9645317" lon="9.586115"><ele>112.0</ele><time>2026-05-02T13:01:44.034Z</time></trkpt><trkpt lat="44.9645467" lon="9.58597"><ele>112.0</ele><time>2026-05-02T13:01:46.044Z</time></trkpt><trkpt lat="44.9645517" lon="9.5858267"><ele>111.99999999999999</ele><time>2026-05-02T13:01:48.039Z</time></trkpt><trkpt lat="44.9645283" lon="9.5857167"><ele>111.99999999999999</ele><time>2026-05-02T13:01:50.034Z</time></trkpt><trkpt lat="44.9644583" lon="9.5856533"><ele>112.0</ele><time>2026-05-02T13:01:52.039Z</time></trkpt><trkpt lat="44.9643617" lon="9.585675"><ele>112.0</ele><time>2026-05-02T13:01:54.041Z</time></trkpt><trkpt lat="44.9642567" lon="9.585725"><ele>112.75</ele><time>2026-05-02T13:01:56.041Z</time></trkpt><trkpt lat="44.96413" lon="9.5857517"><ele>113.5</ele><time>2026-05-02T13:01:58.029Z</time></trkpt><trkpt lat="44.964015" lon="9.5857867"><ele>114.25</ele><time>2026-05-02T13:02:00.036Z</time></trkpt><trkpt lat="44.9639033" lon="9.58582"><ele>115.0</ele><time>2026-05-02T13:02:02.042Z</time></trkpt><trkpt lat="44.9637917" lon="9.585855"><ele>115.0</ele><time>2026-05-02T13:02:04.031Z</time></trkpt><trkpt lat="44.96368" lon="9.5858933"><ele>115.0</ele><time>2026-05-02T13:02:06.032Z</time></trkpt><trkpt lat="44.9636167" lon="9.58592"><ele>115.0</ele><time>2026-05-02T13:02:07.042Z</time></trkpt><trkpt lat="44.963495" lon="9.585945"><ele>115.0</ele><time>2026-05-02T13:02:09.037Z</time></trkpt><trkpt lat="44.9633783" lon="9.5859783"><ele>115.0</ele><time>2026-05-02T13:02:11.032Z</time></trkpt><trkpt lat="44.9632667" lon="9.5860133"><ele>115.2</ele><time>2026-05-02T13:02:13.039Z</time></trkpt><trkpt lat="44.9631683" lon="9.58605"><ele>115.4</ele><time>2026-05-02T13:02:15.038Z</time></trkpt><trkpt lat="44.9630683" lon="9.586085"><ele>115.6</ele><time>2026-05-02T13:02:17.038Z</time></trkpt><trkpt lat="44.9629567" lon="9.586115"><ele>115.8</ele><time>2026-05-02T13:02:19.035Z</time></trkpt><trkpt lat="44.9628483" lon="9.5861433"><ele>116.0</ele><time>2026-05-02T13:02:21.039Z</time></trkpt><trkpt lat="44.9627383" lon="9.5861783"><ele>116.0</ele><time>2026-05-02T13:02:23.037Z</time></trkpt><trkpt lat="44.962625" lon="9.5862183"><ele>116.0</ele><time>2026-05-02T13:02:25.042Z</time></trkpt><trkpt lat="44.9625083" lon="9.58624"><ele>116.0</ele><time>2026-05-02T13:02:27.042Z</time></trkpt><trkpt lat="44.9624033" lon="9.58627"><ele>116.0</ele><time>2026-05-02T13:02:29.039Z</time></trkpt><trkpt lat="44.9622967" lon="9.5863017"><ele>116.8</ele><time>2026-05-02T13:02:31.041Z</time></trkpt><trkpt lat="44.962185" lon="9.586325"><ele>117.6</ele><time>2026-05-02T13:02:33.036Z</time></trkpt><trkpt lat="44.9621083" lon="9.586335"><ele>118.4</ele><time>2026-05-02T13:02:34.033Z</time></trkpt><trkpt lat="44.9620433" lon="9.58634"><ele>119.2</ele><time>2026-05-02T13:02:35.034Z</time></trkpt><trkpt lat="44.9619283" lon="9.5863767"><ele>120.0</ele><time>2026-05-02T13:02:37.036Z</time></trkpt><trkpt lat="44.9618183" lon="9.5864183"><ele>120.0</ele><time>2026-05-02T13:02:39.039Z</time></trkpt><trkpt lat="44.9617033" lon="9.586445"><ele>120.0</ele><time>2026-05-02T13:02:41.033Z</time></trkpt><trkpt lat="44.9616033" lon="9.5864817"><ele>120.0</ele><time>2026-05-02T13:02:43.039Z</time></trkpt><trkpt lat="44.9615" lon="9.58651"><ele>120.0</ele><time>2026-05-02T13:02:45.037Z</time></trkpt><trkpt lat="44.961385" lon="9.5865433"><ele>120.0</ele><time>2026-05-02T13:02:47.035Z</time></trkpt><trkpt lat="44.96129" lon="9.5865867"><ele>120.25</ele><time>2026-05-02T13:02:49.039Z</time></trkpt><trkpt lat="44.9611767" lon="9.5866183"><ele>120.5</ele><time>2026-05-02T13:02:51.042Z</time></trkpt><trkpt lat="44.9610567" lon="9.5866517"><ele>120.75</ele><time>2026-05-02T13:02:53.031Z</time></trkpt><trkpt lat="44.960945" lon="9.5866917"><ele>121.0</ele><time>2026-05-02T13:02:55.042Z</time></trkpt><trkpt lat="44.960835" lon="9.5867283"><ele>121.0</ele><time>2026-05-02T13:02:57.044Z</time></trkpt><trkpt lat="44.9607733" lon="9.5867467"><ele>121.0</ele><time>2026-05-02T13:02:58.037Z</time></trkpt><trkpt lat="44.960655" lon="9.5867817"><ele>121.0</ele><time>2026-05-02T13:03:00.039Z</time></trkpt><trkpt lat="44.9605483" lon="9.5868133"><ele>121.0</ele><time>2026-05-02T13:03:02.035Z</time></trkpt><trkpt lat="44.9604433" lon="9.586855"><ele>121.0</ele><time>2026-05-02T13:03:04.035Z</time></trkpt><trkpt lat="44.9603267" lon="9.5868917"><ele>121.0</ele><time>2026-05-02T13:03:06.036Z</time></trkpt><trkpt lat="44.9602233" lon="9.5869117"><ele>121.0</ele><time>2026-05-02T13:03:08.034Z</time></trkpt><trkpt lat="44.9601117" lon="9.5869467"><ele>121.0</ele><time>2026-05-02T13:03:10.035Z</time></trkpt><trkpt lat="44.96001" lon="9.5869867"><ele>121.0</ele><time>2026-05-02T13:03:12.035Z</time></trkpt><trkpt lat="44.9598983" lon="9.587015"><ele>121.0</ele><time>2026-05-02T13:03:14.036Z</time></trkpt><trkpt lat="44.9597883" lon="9.5870433"><ele>121.4</ele><time>2026-05-02T13:03:16.038Z</time></trkpt><trkpt lat="44.959705" lon="9.5870833"><ele>121.8</ele><time>2026-05-02T13:03:18.036Z</time></trkpt><trkpt lat="44.9596067" lon="9.58712"><ele>122.20000000000002</ele><time>2026-05-02T13:03:20.034Z</time></trkpt><trkpt lat="44.9595017" lon="9.587175"><ele>122.60000000000001</ele><time>2026-05-02T13:03:22.036Z</time></trkpt><trkpt lat="44.9593883" lon="9.58721"><ele>123.0</ele><time>2026-05-02T13:03:24.034Z</time></trkpt><trkpt lat="44.95929" lon="9.5872683"><ele>123.2</ele><time>2026-05-02T13:03:26.036Z</time></trkpt><trkpt lat="44.9591817" lon="9.587305"><ele>123.4</ele><time>2026-05-02T13:03:28.032Z</time></trkpt><trkpt lat="44.9591183" lon="9.5873233"><ele>123.60000000000001</ele><time>2026-05-02T13:03:29.035Z</time></trkpt><trkpt lat="44.959055" lon="9.5873417"><ele>123.80000000000001</ele><time>2026-05-02T13:03:30.036Z</time></trkpt><trkpt lat="44.9589433" lon="9.5873783"><ele>124.0</ele><time>2026-05-02T13:03:32.038Z</time></trkpt><trkpt lat="44.9588483" lon="9.5874317"><ele>124.0</ele><time>2026-05-02T13:03:34.037Z</time></trkpt><trkpt lat="44.9587517" lon="9.5874767"><ele>124.0</ele><time>2026-05-02T13:03:36.036Z</time></trkpt><trkpt lat="44.95865" lon="9.58753"><ele>124.0</ele><time>2026-05-02T13:03:38.037Z</time></trkpt><trkpt lat="44.9585567" lon="9.5875733"><ele>124.0</ele><time>2026-05-02T13:03:40.037Z</time></trkpt><trkpt lat="44.95846" lon="9.5876183"><ele>124.0</ele><time>2026-05-02T13:03:42.036Z</time></trkpt><trkpt lat="44.9583467" lon="9.5876517"><ele>124.4</ele><time>2026-05-02T13:03:44.037Z</time></trkpt><trkpt lat="44.9582267" lon="9.5876717"><ele>124.80000000000001</ele><time>2026-05-02T13:03:46.035Z</time></trkpt><trkpt lat="44.9581217" lon="9.587685"><ele>125.19999999999999</ele><time>2026-05-02T13:03:48.04Z</time></trkpt><trkpt lat="44.9580017" lon="9.5876867"><ele>125.6</ele><time>2026-05-02T13:03:50.036Z</time></trkpt><trkpt lat="44.9579317" lon="9.5876833"><ele>126.0</ele><time>2026-05-02T13:03:51.043Z</time></trkpt><trkpt lat="44.9578683" lon="9.58767"><ele>126.0</ele><time>2026-05-02T13:03:52.035Z</time></trkpt><trkpt lat="44.9577467" lon="9.5876467"><ele>126.0</ele><time>2026-05-02T13:03:54.037Z</time></trkpt><trkpt lat="44.9576317" lon="9.5876217"><ele>126.0</ele><time>2026-05-02T13:03:56.034Z</time></trkpt><trkpt lat="44.9575133" lon="9.5876"><ele>126.0</ele><time>2026-05-02T13:03:58.036Z</time></trkpt><trkpt lat="44.9573983" lon="9.587565"><ele>126.0</ele><time>2026-05-02T13:04:00.034Z</time></trkpt><trkpt lat="44.9572933" lon="9.5875367"><ele>126.0</ele><time>2026-05-02T13:04:02.039Z</time></trkpt><trkpt lat="44.9571783" lon="9.5874967"><ele>126.0</ele><time>2026-05-02T13:04:04.04Z</time></trkpt><trkpt lat="44.9570667" lon="9.5874617"><ele>126.0</ele><time>2026-05-02T13:04:06.035Z</time></trkpt><trkpt lat="44.9569567" lon="9.587435"><ele>126.0</ele><time>2026-05-02T13:04:08.036Z</time></trkpt><trkpt lat="44.9568533" lon="9.5874283"><ele>126.0</ele><time>2026-05-02T13:04:10.037Z</time></trkpt><trkpt lat="44.9567417" lon="9.58743"><ele>126.0</ele><time>2026-05-02T13:04:12.04Z</time></trkpt><trkpt lat="44.956625" lon="9.5874183"><ele>126.0</ele><time>2026-05-02T13:04:14.035Z</time></trkpt><trkpt lat="44.9565217" lon="9.5874467"><ele>126.0</ele><time>2026-05-02T13:04:16.034Z</time></trkpt><trkpt lat="44.9564133" lon="9.5874583"><ele>126.5</ele><time>2026-05-02T13:04:18.038Z</time></trkpt><trkpt lat="44.9562983" lon="9.58749"><ele>127.0</ele><time>2026-05-02T13:04:20.036Z</time></trkpt><trkpt lat="44.9561817" lon="9.58752"><ele>127.5</ele><time>2026-05-02T13:04:22.03Z</time></trkpt><trkpt lat="44.9560717" lon="9.5875567"><ele>128.0</ele><time>2026-05-02T13:04:24.039Z</time></trkpt><trkpt lat="44.95597" lon="9.5875817"><ele>128.0</ele><time>2026-05-02T13:04:26.038Z</time></trkpt><trkpt lat="44.95586" lon="9.5876067"><ele>128.0</ele><time>2026-05-02T13:04:28.035Z</time></trkpt><trkpt lat="44.9557533" lon="9.5876167"><ele>128.0</ele><time>2026-05-02T13:04:30.037Z</time></trkpt><trkpt lat="44.9556567" lon="9.5876417"><ele>128.0</ele><time>2026-05-02T13:04:32.034Z</time></trkpt><trkpt lat="44.9555583" lon="9.5876583"><ele>128.0</ele><time>2026-05-02T13:04:34.038Z</time></trkpt><trkpt lat="44.9554467" lon="9.5876717"><ele>128.0</ele><time>2026-05-02T13:04:36.036Z</time></trkpt><trkpt lat="44.9553333" lon="9.5876783"><ele>128.0</ele><time>2026-05-02T13:04:38.038Z</time></trkpt><trkpt lat="44.955215" lon="9.5876767"><ele>128.0</ele><time>2026-05-02T13:04:40.034Z</time></trkpt><trkpt lat="44.9551117" lon="9.5876733"><ele>128.0</ele><time>2026-05-02T13:04:42.032Z</time></trkpt><trkpt lat="44.9550083" lon="9.587655"><ele>128.0</ele><time>2026-05-02T13:04:44.042Z</time></trkpt><trkpt lat="44.9548967" lon="9.5876333"><ele>128.4</ele><time>2026-05-02T13:04:46.035Z</time></trkpt><trkpt lat="44.9547917" lon="9.5875767"><ele>128.8</ele><time>2026-05-02T13:04:48.036Z</time></trkpt><trkpt lat="44.9546817" lon="9.58754"><ele>129.2</ele><time>2026-05-02T13:04:50.037Z</time></trkpt><trkpt lat="44.9545717" lon="9.5874733"><ele>129.6</ele><time>2026-05-02T13:04:52.036Z</time></trkpt><trkpt lat="44.9545117" lon="9.5874417"><ele>130.0</ele><time>2026-05-02T13:04:53.035Z</time></trkpt><trkpt lat="44.95445" lon="9.587415"><ele>130.0</ele><time>2026-05-02T13:04:54.042Z</time></trkpt><trkpt lat="44.9543367" lon="9.587365"><ele>130.0</ele><time>2026-05-02T13:04:56.042Z</time></trkpt><trkpt lat="44.9542417" lon="9.587325"><ele>130.0</ele><time>2026-05-02T13:04:58.034Z</time></trkpt><trkpt lat="44.9541283" lon="9.5872717"><ele>130.0</ele><time>2026-05-02T13:05:00.034Z</time></trkpt><trkpt lat="44.9540283" lon="9.5872217"><ele>130.0</ele><time>2026-05-02T13:05:02.034Z</time></trkpt><trkpt lat="44.953935" lon="9.5871817"><ele>130.0</ele><time>2026-05-02T13:05:04.037Z</time></trkpt><trkpt lat="44.9538267" lon="9.5871267"><ele>130.0</ele><time>2026-05-02T13:05:06.04Z</time></trkpt><trkpt lat="44.953715" lon="9.5870683"><ele>130.0</ele><time>2026-05-02T13:05:08.039Z</time></trkpt><trkpt lat="44.953605" lon="9.5870283"><ele>130.0</ele><time>2026-05-02T13:05:10.037Z</time></trkpt><trkpt lat="44.9535017" lon="9.5869867"><ele>130.2</ele><time>2026-05-02T13:05:12.035Z</time></trkpt><trkpt lat="44.9533933" lon="9.5869467"><ele>130.4</ele><time>2026-05-02T13:05:14.042Z</time></trkpt><trkpt lat="44.953285" lon="9.586915"><ele>130.6</ele><time>2026-05-02T13:05:16.036Z</time></trkpt><trkpt lat="44.9531733" lon="9.58691"><ele>130.8</ele><time>2026-05-02T13:05:18.036Z</time></trkpt><trkpt lat="44.95311" lon="9.58691"><ele>131.0</ele><time>2026-05-02T13:05:19.036Z</time></trkpt><trkpt lat="44.9530467" lon="9.5869217"><ele>130.8</ele><time>2026-05-02T13:05:20.034Z</time></trkpt><trkpt lat="44.9529317" lon="9.58695"><ele>130.6</ele><time>2026-05-02T13:05:22.027Z</time></trkpt><trkpt lat="44.952835" lon="9.587"><ele>130.4</ele><time>2026-05-02T13:05:24.035Z</time></trkpt><trkpt lat="44.9527383" lon="9.58706"><ele>130.2</ele><time>2026-05-02T13:05:26.035Z</time></trkpt><trkpt lat="44.9526483" lon="9.58713"><ele>130.0</ele><time>2026-05-02T13:05:28.04Z</time></trkpt><trkpt lat="44.9525633" lon="9.5872017"><ele>130.8</ele><time>2026-05-02T13:05:30.036Z</time></trkpt><trkpt lat="44.9524567" lon="9.58726"><ele>131.6</ele><time>2026-05-02T13:05:32.037Z</time></trkpt><trkpt lat="44.9523467" lon="9.587325"><ele>132.4</ele><time>2026-05-02T13:05:34.043Z</time></trkpt><trkpt lat="44.9522267" lon="9.5873883"><ele>133.2</ele><time>2026-05-02T13:05:36.038Z</time></trkpt><trkpt lat="44.952165" lon="9.5874217"><ele>134.0</ele><time>2026-05-02T13:05:37.036Z</time></trkpt><trkpt lat="44.9521017" lon="9.587455"><ele>134.0</ele><time>2026-05-02T13:05:38.036Z</time></trkpt><trkpt lat="44.9520417" lon="9.5874833"><ele>134.0</ele><time>2026-05-02T13:05:39.04Z</time></trkpt><trkpt lat="44.951935" lon="9.5875483"><ele>134.0</ele><time>2026-05-02T13:05:41.036Z</time></trkpt><trkpt lat="44.9518167" lon="9.5876233"><ele>134.0</ele><time>2026-05-02T13:05:43.041Z</time></trkpt><trkpt lat="44.951755" lon="9.587665"><ele>134.0</ele><time>2026-05-02T13:05:44.034Z</time></trkpt><trkpt lat="44.9516567" lon="9.5877683"><ele>133.83333333333331</ele><time>2026-05-02T13:05:46.038Z</time></trkpt><trkpt lat="44.951605" lon="9.5878233"><ele>133.66666666666666</ele><time>2026-05-02T13:05:47.037Z</time></trkpt><trkpt lat="44.9515" lon="9.587925"><ele>133.5</ele><time>2026-05-02T13:05:49.035Z</time></trkpt><trkpt lat="44.9514517" lon="9.5879867"><ele>133.33333333333334</ele><time>2026-05-02T13:05:50.049Z</time></trkpt><trkpt lat="44.9514067" lon="9.5880517"><ele>133.16666666666669</ele><time>2026-05-02T13:05:51.038Z</time></trkpt><trkpt lat="44.9513583" lon="9.5881133"><ele>133.0</ele><time>2026-05-02T13:05:52.034Z</time></trkpt><trkpt lat="44.9513083" lon="9.5881683"><ele>133.0</ele><time>2026-05-02T13:05:53.037Z</time></trkpt><trkpt lat="44.95126" lon="9.5882283"><ele>133.0</ele><time>2026-05-02T13:05:54.037Z</time></trkpt><trkpt lat="44.9512083" lon="9.5882833"><ele>133.0</ele><time>2026-05-02T13:05:55.035Z</time></trkpt><trkpt lat="44.9511567" lon="9.5883433"><ele>133.0</ele><time>2026-05-02T13:05:56.04Z</time></trkpt><trkpt lat="44.9510633" lon="9.5884567"><ele>133.0</ele><time>2026-05-02T13:05:58.039Z</time></trkpt><trkpt lat="44.9509633" lon="9.5885767"><ele>133.0</ele><time>2026-05-02T13:06:00.039Z</time></trkpt><trkpt lat="44.9509117" lon="9.5886367"><ele>133.0</ele><time>2026-05-02T13:06:01.039Z</time></trkpt><trkpt lat="44.9508533" lon="9.5886933"><ele>133.0</ele><time>2026-05-02T13:06:02.035Z</time></trkpt><trkpt lat="44.9508033" lon="9.58875"><ele>133.0</ele><time>2026-05-02T13:06:03.041Z</time></trkpt><trkpt lat="44.9507017" lon="9.5888533"><ele>133.0</ele><time>2026-05-02T13:06:05.032Z</time></trkpt><trkpt lat="44.9506483" lon="9.5889117"><ele>133.0</ele><time>2026-05-02T13:06:06.036Z</time></trkpt><trkpt lat="44.9505883" lon="9.5889667"><ele>132.6</ele><time>2026-05-02T13:06:07.039Z</time></trkpt><trkpt lat="44.9505317" lon="9.5890067"><ele>132.20000000000002</ele><time>2026-05-02T13:06:08.038Z</time></trkpt><trkpt lat="44.9504733" lon="9.5890433"><ele>131.8</ele><time>2026-05-02T13:06:09.037Z</time></trkpt><trkpt lat="44.9503683" lon="9.5891233"><ele>131.4</ele><time>2026-05-02T13:06:11.037Z</time></trkpt><trkpt lat="44.950265" lon="9.5891933"><ele>131.0</ele><time>2026-05-02T13:06:13.036Z</time></trkpt><trkpt lat="44.9501467" lon="9.5892767"><ele>131.5</ele><time>2026-05-02T13:06:15.046Z</time></trkpt><trkpt lat="44.9500367" lon="9.5893533"><ele>132.0</ele><time>2026-05-02T13:06:17.035Z</time></trkpt><trkpt lat="44.9499783" lon="9.5893967"><ele>132.5</ele><time>2026-05-02T13:06:18.038Z</time></trkpt><trkpt lat="44.9499133" lon="9.5894367"><ele>133.0</ele><time>2026-05-02T13:06:19.038Z</time></trkpt><trkpt lat="44.9498533" lon="9.5894817"><ele>133.5</ele><time>2026-05-02T13:06:20.037Z</time></trkpt><trkpt lat="44.949795" lon="9.5895183"><ele>134.0</ele><time>2026-05-02T13:06:21.036Z</time></trkpt><trkpt lat="44.949725" lon="9.5895533"><ele>134.0</ele><time>2026-05-02T13:06:22.035Z</time></trkpt><trkpt lat="44.9496133" lon="9.5896267"><ele>134.0</ele><time>2026-05-02T13:06:24.034Z</time></trkpt><trkpt lat="44.9495583" lon="9.589685"><ele>134.0</ele><time>2026-05-02T13:06:25.032Z</time></trkpt><trkpt lat="44.94945" lon="9.5897717"><ele>134.0</ele><time>2026-05-02T13:06:27.041Z</time></trkpt><trkpt lat="44.94939" lon="9.5898133"><ele>134.0</ele><time>2026-05-02T13:06:28.038Z</time></trkpt><trkpt lat="44.94933" lon="9.5898533"><ele>134.0</ele><time>2026-05-02T13:06:29.035Z</time></trkpt><trkpt lat="44.9492683" lon="9.58989"><ele>134.0</ele><time>2026-05-02T13:06:30.037Z</time></trkpt><trkpt lat="44.9491483" lon="9.5899383"><ele>134.0</ele><time>2026-05-02T13:06:32.035Z</time></trkpt><trkpt lat="44.9490867" lon="9.5899567"><ele>134.0</ele><time>2026-05-02T13:06:33.039Z</time></trkpt><trkpt lat="44.94897" lon="9.5899833"><ele>134.0</ele><time>2026-05-02T13:06:35.039Z</time></trkpt><trkpt lat="44.9488583" lon="9.5900167"><ele>133.75</ele><time>2026-05-02T13:06:37.039Z</time></trkpt><trkpt lat="44.9487433" lon="9.5900283"><ele>133.5</ele><time>2026-05-02T13:06:39.043Z</time></trkpt><trkpt lat="44.948625" lon="9.590015"><ele>133.25</ele><time>2026-05-02T13:06:41.035Z</time></trkpt><trkpt lat="44.9485217" lon="9.589985"><ele>133.0</ele><time>2026-05-02T13:06:43.036Z</time></trkpt><trkpt lat="44.9484033" lon="9.5899317"><ele>132.20000000000002</ele><time>2026-05-02T13:06:45.038Z</time></trkpt><trkpt lat="44.9482867" lon="9.5898767"><ele>131.4</ele><time>2026-05-02T13:06:47.035Z</time></trkpt><trkpt lat="44.94817" lon="9.5898283"><ele>130.60000000000002</ele><time>2026-05-02T13:06:49.039Z</time></trkpt><trkpt lat="44.9481083" lon="9.5897983"><ele>129.8</ele><time>2026-05-02T13:06:50.033Z</time></trkpt><trkpt lat="44.9479933" lon="9.5897533"><ele>129.0</ele><time>2026-05-02T13:06:52.037Z</time></trkpt><trkpt lat="44.9478867" lon="9.5897083"><ele>129.0</ele><time>2026-05-02T13:06:54.036Z</time></trkpt><trkpt lat="44.947775" lon="9.5896517"><ele>129.0</ele><time>2026-05-02T13:06:56.037Z</time></trkpt><trkpt lat="44.9476617" lon="9.5896"><ele>129.0</ele><time>2026-05-02T13:06:58.042Z</time></trkpt><trkpt lat="44.947565" lon="9.58956"><ele>129.0</ele><time>2026-05-02T13:07:00.035Z</time></trkpt><trkpt lat="44.9474633" lon="9.5895133"><ele>129.0</ele><time>2026-05-02T13:07:02.037Z</time></trkpt><trkpt lat="44.9473583" lon="9.5894533"><ele>129.75</ele><time>2026-05-02T13:07:04.036Z</time></trkpt><trkpt lat="44.94725" lon="9.5893967"><ele>130.5</ele><time>2026-05-02T13:07:06.037Z</time></trkpt><trkpt lat="44.9471417" lon="9.589355"><ele>131.25</ele><time>2026-05-02T13:07:08.034Z</time></trkpt><trkpt lat="44.9470333" lon="9.5893117"><ele>132.0</ele><time>2026-05-02T13:07:10.034Z</time></trkpt><trkpt lat="44.94693" lon="9.5892583"><ele>132.0</ele><time>2026-05-02T13:07:12.039Z</time></trkpt><trkpt lat="44.946825" lon="9.5892133"><ele>132.0</ele><time>2026-05-02T13:07:14.037Z</time></trkpt><trkpt lat="44.9467083" lon="9.5891567"><ele>132.0</ele><time>2026-05-02T13:07:16.037Z</time></trkpt><trkpt lat="44.9466467" lon="9.5891283"><ele>132.0</ele><time>2026-05-02T13:07:17.038Z</time></trkpt><trkpt lat="44.946585" lon="9.589105"><ele>132.0</ele><time>2026-05-02T13:07:18.035Z</time></trkpt><trkpt lat="44.9464717" lon="9.5890817"><ele>134.0</ele><time>2026-05-02T13:07:20.035Z</time></trkpt><trkpt lat="44.94933" lon="9.5898533"><ele>134.0</ele><time>2026-05-02T13:06:29.035Z</time></trkpt><trkpt lat="44.9492683" lon="9.58989"><ele>134.0</ele><time>2026-05-02T13:06:30.037Z</time></trkpt><trkpt lat="44.9491483" lon="9.5899383"><ele>134.0</ele><time>2026-05-02T13:06:32.035Z</time></trkpt><trkpt lat="44.9490867" lon="9.5899567"><ele>134.0</ele><time>2026-05-02T13:06:33.039Z</time></trkpt><trkpt lat="44.94897" lon="9.5899833"><ele>134.0</ele><time>2026-05-02T13:06:35.039Z</time></trkpt><trkpt lat="44.9488583" lon="9.5900167"><ele>133.75</ele><time>2026-05-02T13:06:37.039Z</time></trkpt><trkpt lat="44.9487433" lon="9.5900283"><ele>133.5</ele><time>2026-05-02T13:06:39.043Z</time></trkpt><trkpt lat="44.948625" lon="9.590015"><ele>133.25</ele><time>2026-05-02T13:06:41.035Z</time></trkpt><trkpt lat="44.9485217" lon="9.589985"><ele>133.0</ele><time>2026-05-02T13:06:43.036Z</time></trkpt><trkpt lat="44.9484033" lon="9.5899317"><ele>132.20000000000002</ele><time>2026-05-02T13:06:45.038Z</time></trkpt><trkpt lat="44.9482867" lon="9.5898767"><ele>131.4</ele><time>2026-05-02T13:06:47.035Z</time></trkpt><trkpt lat="44.94817" lon="9.5898283"><ele>130.60000000000002</ele><time>2026-05-02T13:06:49.039Z</time></trkpt><trkpt lat="44.9481083" lon="9.5897983"><ele>129.8</ele><time>2026-05-02T13:06:50.033Z</time></trkpt><trkpt lat="44.9479933" lon="9.5897533"><ele>129.0</ele><time>2026-05-02T13:06:52.037Z</time></trkpt><trkpt lat="44.9478867" lon="9.5897083"><ele>129.0</ele><time>2026-05-02T13:06:54.036Z</time></trkpt><trkpt lat="44.947775" lon="9.5896517"><ele>129.0</ele><time>2026-05-02T13:06:56.037Z</time></trkpt><trkpt lat="44.9476617" lon="9.5896"><ele>129.0</ele><time>2026-05-02T13:06:58.042Z</time></trkpt><trkpt lat="44.947565" lon="9.58956"><ele>129.0</ele><time>2026-05-02T13:07:00.035Z</time></trkpt><trkpt lat="44.9474633" lon="9.5895133"><ele>129.0</ele><time>2026-05-02T13:07:02.037Z</time></trkpt><trkpt lat="44.9473583" lon="9.5894533"><ele>129.75</ele><time>2026-05-02T13:07:04.036Z</time></trkpt><trkpt lat="44.94725" lon="9.5893967"><ele>130.5</ele><time>2026-05-02T13:07:06.037Z</time></trkpt><trkpt lat="44.9471417" lon="9.589355"><ele>131.25</ele><time>2026-05-02T13:07:08.034Z</time></trkpt><trkpt lat="44.9470333" lon="9.5893117"><ele>132.0</ele><time>2026-05-02T13:07:10.034Z</time></trkpt><trkpt lat="44.94693" lon="9.5892583"><ele>132.0</ele><time>2026-05-02T13:07:12.039Z</time></trkpt><trkpt lat="44.946825" lon="9.5892133"><ele>132.0</ele><time>2026-05-02T13:07:14.037Z</time></trkpt><trkpt lat="44.9467083" lon="9.5891567"><ele>132.0</ele><time>2026-05-02T13:07:16.037Z</time></trkpt><trkpt lat="44.9466467" lon="9.5891283"><ele>132.0</ele><time>2026-05-02T13:07:17.038Z</time></trkpt><trkpt lat="44.946585" lon="9.589105"><ele>132.0</ele><time>2026-05-02T13:07:18.035Z</time></trkpt><trkpt lat="44.9464717" lon="9.5890817"><ele>132.5</ele><time>2026-05-02T13:07:20.035Z</time></trkpt><trkpt lat="44.94635" lon="9.58905"><ele>133.0</ele><time>2026-05-02T13:07:22.034Z</time></trkpt><trkpt lat="44.9462383" lon="9.5890533"><ele>133.5</ele><time>2026-05-02T13:07:24.037Z</time></trkpt><trkpt lat="44.946125" lon="9.5890483"><ele>134.0</ele><time>2026-05-02T13:07:26.034Z</time></trkpt><trkpt lat="44.9460133" lon="9.5890333"><ele>134.0</ele><time>2026-05-02T13:07:28.035Z</time></trkpt><trkpt lat="44.9459" lon="9.589045"><ele>134.0</ele><time>2026-05-02T13:07:30.036Z</time></trkpt><trkpt lat="44.945835" lon="9.5890483"><ele>134.0</ele><time>2026-05-02T13:07:31.033Z</time></trkpt><trkpt lat="44.9457717" lon="9.5890467"><ele>134.0</ele><time>2026-05-02T13:07:32.035Z</time></trkpt><trkpt lat="44.9456583" lon="9.5890583"><ele>134.0</ele><time>2026-05-02T13:07:34.034Z</time></trkpt><trkpt lat="44.9455467" lon="9.58908"><ele>134.25</ele><time>2026-05-02T13:07:36.032Z</time></trkpt><trkpt lat="44.9454317" lon="9.58909"><ele>134.5</ele><time>2026-05-02T13:07:38.037Z</time></trkpt><trkpt lat="44.9453167" lon="9.589095"><ele>134.75</ele><time>2026-05-02T13:07:40.037Z</time></trkpt><trkpt lat="44.9452033" lon="9.589115"><ele>135.0</ele><time>2026-05-02T13:07:42.036Z</time></trkpt><trkpt lat="44.9450867" lon="9.58914"><ele>135.0</ele><time>2026-05-02T13:07:44.034Z</time></trkpt><trkpt lat="44.9449717" lon="9.5891633"><ele>135.0</ele><time>2026-05-02T13:07:46.035Z</time></trkpt><trkpt lat="44.944845" lon="9.5891683"><ele>135.0</ele><time>2026-05-02T13:07:48.039Z</time></trkpt><trkpt lat="44.944775" lon="9.589165"><ele>135.0</ele><time>2026-05-02T13:07:49.042Z</time></trkpt><trkpt lat="44.944705" lon="9.5891633"><ele>135.0</ele><time>2026-05-02T13:07:50.036Z</time></trkpt><trkpt lat="44.9446367" lon="9.5891683"><ele>135.0</ele><time>2026-05-02T13:07:51.038Z</time></trkpt><trkpt lat="44.94451" lon="9.589165"><ele>135.0</ele><time>2026-05-02T13:07:53.04Z</time></trkpt><trkpt lat="44.9443833" lon="9.58917"><ele>135.0</ele><time>2026-05-02T13:07:55.035Z</time></trkpt><trkpt lat="44.9443183" lon="9.5891717"><ele>135.0</ele><time>2026-05-02T13:07:56.039Z</time></trkpt><trkpt lat="44.944255" lon="9.5891767"><ele>135.0</ele><time>2026-05-02T13:07:57.036Z</time></trkpt><trkpt lat="44.94413" lon="9.5891833"><ele>135.33333333333334</ele><time>2026-05-02T13:07:59.034Z</time></trkpt><trkpt lat="44.944" lon="9.5891833"><ele>135.66666666666666</ele><time>2026-05-02T13:08:01.036Z</time></trkpt><trkpt lat="44.943935" lon="9.58919"><ele>136.0</ele><time>2026-05-02T13:08:02.036Z</time></trkpt><trkpt lat="44.9438683" lon="9.5891983"><ele>136.33333333333331</ele><time>2026-05-02T13:08:03.038Z</time></trkpt><trkpt lat="44.9437967" lon="9.5892033"><ele>136.66666666666666</ele><time>2026-05-02T13:08:04.034Z</time></trkpt><trkpt lat="44.94373" lon="9.5892133"><ele>137.0</ele><time>2026-05-02T13:08:05.037Z</time></trkpt><trkpt lat="44.9436017" lon="9.5892433"><ele>137.0</ele><time>2026-05-02T13:08:07.034Z</time></trkpt><trkpt lat="44.9434933" lon="9.5892917"><ele>137.0</ele><time>2026-05-02T13:08:09.039Z</time></trkpt><trkpt lat="44.943425" lon="9.5893183"><ele>137.0</ele><time>2026-05-02T13:08:10.039Z</time></trkpt><trkpt lat="44.9433633" lon="9.5893467"><ele>137.0</ele><time>2026-05-02T13:08:11.036Z</time></trkpt><trkpt lat="44.9432883" lon="9.5893733"><ele>137.0</ele><time>2026-05-02T13:08:12.035Z</time></trkpt><trkpt lat="44.94322" lon="9.5894033"><ele>137.0</ele><time>2026-05-02T13:08:13.037Z</time></trkpt><trkpt lat="44.943145" lon="9.589435"><ele>137.5</ele><time>2026-05-02T13:08:14.038Z</time></trkpt><trkpt lat="44.9430633" lon="9.5894733"><ele>138.0</ele><time>2026-05-02T13:08:15.04Z</time></trkpt><trkpt lat="44.9429917" lon="9.5895117"><ele>138.5</ele><time>2026-05-02T13:08:16.036Z</time></trkpt><trkpt lat="44.94291" lon="9.5895467"><ele>139.0</ele><time>2026-05-02T13:08:17.038Z</time></trkpt><trkpt lat="44.9428433" lon="9.5895917"><ele>139.5</ele><time>2026-05-02T13:08:18.039Z</time></trkpt><trkpt lat="44.94278" lon="9.589645"><ele>140.0</ele><time>2026-05-02T13:08:19.04Z</time></trkpt><trkpt lat="44.9426967" lon="9.58969"><ele>138.33333333333331</ele><time>2026-05-02T13:08:20.037Z</time></trkpt><trkpt lat="44.94261" lon="9.5897433"><ele>136.66666666666666</ele><time>2026-05-02T13:08:21.039Z</time></trkpt><trkpt lat="44.9425183" lon="9.5897867"><ele>135.0</ele><time>2026-05-02T13:08:22.037Z</time></trkpt><trkpt lat="44.942445" lon="9.58984"><ele>133.33333333333334</ele><time>2026-05-02T13:08:23.037Z</time></trkpt><trkpt lat="44.942365" lon="9.5898817"><ele>131.66666666666669</ele><time>2026-05-02T13:08:24.039Z</time></trkpt><trkpt lat="44.9422933" lon="9.5899367"><ele>130.0</ele><time>2026-05-02T13:08:25.039Z</time></trkpt><trkpt lat="44.9422283" lon="9.5899817"><ele>130.0</ele><time>2026-05-02T13:08:26.038Z</time></trkpt><trkpt lat="44.9421433" lon="9.5900117"><ele>130.0</ele><time>2026-05-02T13:08:27.037Z</time></trkpt><trkpt lat="44.94207" lon="9.5900467"><ele>130.0</ele><time>2026-05-02T13:08:28.039Z</time></trkpt><trkpt lat="44.942" lon="9.5900833"><ele>130.0</ele><time>2026-05-02T13:08:29.037Z</time></trkpt><trkpt lat="44.941925" lon="9.5901167"><ele>130.0</ele><time>2026-05-02T13:08:30.038Z</time></trkpt><trkpt lat="44.9418533" lon="9.590155"><ele>130.0</ele><time>2026-05-02T13:08:31.039Z</time></trkpt><trkpt lat="44.94179" lon="9.5901933"><ele>130.0</ele><time>2026-05-02T13:08:32.037Z</time></trkpt><trkpt lat="44.9417233" lon="9.5902333"><ele>130.0</ele><time>2026-05-02T13:08:33.04Z</time></trkpt><trkpt lat="44.94164" lon="9.590275"><ele>130.0</ele><time>2026-05-02T13:08:34.039Z</time></trkpt><trkpt lat="44.9415533" lon="9.59031"><ele>130.0</ele><time>2026-05-02T13:08:35.036Z</time></trkpt><trkpt lat="44.9414817" lon="9.5903467"><ele>130.0</ele><time>2026-05-02T13:08:36.039Z</time></trkpt><trkpt lat="44.94141" lon="9.5903933"><ele>130.0</ele><time>2026-05-02T13:08:37.037Z</time></trkpt><trkpt lat="44.941335" lon="9.59042"><ele>129.16666666666669</ele><time>2026-05-02T13:08:38.041Z</time></trkpt><trkpt lat="44.9412567" lon="9.590455"><ele>128.33333333333334</ele><time>2026-05-02T13:08:39.039Z</time></trkpt><trkpt lat="44.94118" lon="9.590475"><ele>127.5</ele><time>2026-05-02T13:08:40.038Z</time></trkpt><trkpt lat="44.9411" lon="9.5904933"><ele>126.66666666666666</ele><time>2026-05-02T13:08:41.034Z</time></trkpt><trkpt lat="44.9410267" lon="9.590515"><ele>125.83333333333333</ele><time>2026-05-02T13:08:42.037Z</time></trkpt><trkpt lat="44.94095" lon="9.5905267"><ele>125.0</ele><time>2026-05-02T13:08:43.037Z</time></trkpt><trkpt lat="44.94087" lon="9.5905367"><ele>124.99999999999999</ele><time>2026-05-02T13:08:44.035Z</time></trkpt><trkpt lat="44.9407767" lon="9.5905367"><ele>125.0</ele><time>2026-05-02T13:08:45.037Z</time></trkpt><trkpt lat="44.9407017" lon="9.59053"><ele>125.0</ele><time>2026-05-02T13:08:46.039Z</time></trkpt><trkpt lat="44.9406283" lon="9.5905383"><ele>125.0</ele><time>2026-05-02T13:08:47.035Z</time></trkpt><trkpt lat="44.94051" lon="9.5905533"><ele>124.99999999999999</ele><time>2026-05-02T13:08:49.035Z</time></trkpt><trkpt lat="44.9404417" lon="9.590565"><ele>125.0</ele><time>2026-05-02T13:08:50.036Z</time></trkpt><trkpt lat="44.940375" lon="9.5905733"><ele>125.0</ele><time>2026-05-02T13:08:51.039Z</time></trkpt><trkpt lat="44.9402483" lon="9.5905867"><ele>125.0</ele><time>2026-05-02T13:08:53.036Z</time></trkpt><trkpt lat="44.9401717" lon="9.5906"><ele>125.0</ele><time>2026-05-02T13:08:54.038Z</time></trkpt><trkpt lat="44.9401033" lon="9.5906033"><ele>125.0</ele><time>2026-05-02T13:08:55.037Z</time></trkpt><trkpt lat="44.940035" lon="9.590605"><ele>125.0</ele><time>2026-05-02T13:08:56.039Z</time></trkpt><trkpt lat="44.9399133" lon="9.5906133"><ele>124.99999999999999</ele><time>2026-05-02T13:08:58.036Z</time></trkpt><trkpt lat="44.9398467" lon="9.59062"><ele>125.0</ele><time>2026-05-02T13:08:59.036Z</time></trkpt><trkpt lat="44.9397817" lon="9.5906267"><ele>125.0</ele><time>2026-05-02T13:09:00.038Z</time></trkpt><trkpt lat="44.9397133" lon="9.5906333"><ele>125.0</ele><time>2026-05-02T13:09:01.04Z</time></trkpt><trkpt lat="44.9396467" lon="9.5906383"><ele>124.99999999999999</ele><time>2026-05-02T13:09:02.037Z</time></trkpt><trkpt lat="44.9395833" lon="9.5906433"><ele>125.0</ele><time>2026-05-02T13:09:03.04Z</time></trkpt><trkpt lat="44.9394583" lon="9.5906533"><ele>124.99999999999999</ele><time>2026-05-02T13:09:05.035Z</time></trkpt><trkpt lat="44.93939" lon="9.5906617"><ele>125.0</ele><time>2026-05-02T13:09:06.04Z</time></trkpt><trkpt lat="44.9393217" lon="9.590675"><ele>125.0</ele><time>2026-05-02T13:09:07.038Z</time></trkpt><trkpt lat="44.9392583" lon="9.5906833"><ele>125.0</ele><time>2026-05-02T13:09:08.04Z</time></trkpt><trkpt lat="44.9391367" lon="9.5906967"><ele>124.99999999999999</ele><time>2026-05-02T13:09:10.036Z</time></trkpt><trkpt lat="44.9390733" lon="9.590715"><ele>125.0</ele><time>2026-05-02T13:09:11.034Z</time></trkpt><trkpt lat="44.9390083" lon="9.5907183"><ele>124.99999999999999</ele><time>2026-05-02T13:09:12.038Z</time></trkpt><trkpt lat="44.9389433" lon="9.590725"><ele>125.0</ele><time>2026-05-02T13:09:13.039Z</time></trkpt><trkpt lat="44.9388783" lon="9.59073"><ele>125.0</ele><time>2026-05-02T13:09:14.036Z</time></trkpt><trkpt lat="44.938775" lon="9.5907417"><ele>125.0</ele><time>2026-05-02T13:09:16.031Z</time></trkpt><trkpt lat="44.9386683" lon="9.59076"><ele>124.99999999999999</ele><time>2026-05-02T13:09:18.039Z</time></trkpt><trkpt lat="44.9385667" lon="9.590775"><ele>125.0</ele><time>2026-05-02T13:09:20.036Z</time></trkpt><trkpt lat="44.9384483" lon="9.590785"><ele>125.8</ele><time>2026-05-02T13:09:22.035Z</time></trkpt><trkpt lat="44.9383367" lon="9.5907933"><ele>126.6</ele><time>2026-05-02T13:09:24.037Z</time></trkpt><trkpt lat="44.9382367" lon="9.590805"><ele>127.4</ele><time>2026-05-02T13:09:26.037Z</time></trkpt><trkpt lat="44.938135" lon="9.5908117"><ele>128.2</ele><time>2026-05-02T13:09:28.035Z</time></trkpt><trkpt lat="44.938025" lon="9.590825"><ele>129.0</ele><time>2026-05-02T13:09:30.037Z</time></trkpt><trkpt lat="44.9379167" lon="9.5908217"><ele>129.0</ele><time>2026-05-02T13:09:32.036Z</time></trkpt><trkpt lat="44.9378183" lon="9.59083"><ele>129.0</ele><time>2026-05-02T13:09:34.038Z</time></trkpt><trkpt lat="44.937725" lon="9.5908267"><ele>129.0</ele><time>2026-05-02T13:09:36.035Z</time></trkpt><trkpt lat="44.9376317" lon="9.5908217"><ele>129.0</ele><time>2026-05-02T13:09:38.039Z</time></trkpt><trkpt lat="44.9375317" lon="9.5908483"><ele>129.0</ele><time>2026-05-02T13:09:40.035Z</time></trkpt><trkpt lat="44.937445" lon="9.5909017"><ele>131.4</ele><time>2026-05-02T13:09:42.034Z</time></trkpt><trkpt lat="44.93738" lon="9.5909117"><ele>133.8</ele><time>2026-05-02T13:09:43.036Z</time></trkpt><trkpt lat="44.9372667" lon="9.5909333"><ele>136.2</ele><time>2026-05-02T13:09:45.038Z</time></trkpt><trkpt lat="44.93715" lon="9.5909417"><ele>138.6</ele><time>2026-05-02T13:09:47.036Z</time></trkpt><trkpt lat="44.9370317" lon="9.5909733"><ele>141.0</ele><time>2026-05-02T13:09:49.037Z</time></trkpt><trkpt lat="44.9369167" lon="9.5909767"><ele>141.0</ele><time>2026-05-02T13:09:51.046Z</time></trkpt><trkpt lat="44.9368017" lon="9.5909783"><ele>141.0</ele><time>2026-05-02T13:09:53.036Z</time></trkpt><trkpt lat="44.9366783" lon="9.590975"><ele>141.0</ele><time>2026-05-02T13:09:55.039Z</time></trkpt><trkpt lat="44.9365683" lon="9.5909217"><ele>141.0</ele><time>2026-05-02T13:09:57.039Z</time></trkpt><trkpt lat="44.9364583" lon="9.5908783"><ele>141.2</ele><time>2026-05-02T13:09:59.04Z</time></trkpt><trkpt lat="44.9363583" lon="9.5908083"><ele>141.39999999999998</ele><time>2026-05-02T13:10:01.039Z</time></trkpt><trkpt lat="44.9362567" lon="9.590745"><ele>141.6</ele><time>2026-05-02T13:10:03.035Z</time></trkpt><trkpt lat="44.9361717" lon="9.5906717"><ele>141.79999999999998</ele><time>2026-05-02T13:10:05.036Z</time></trkpt><trkpt lat="44.9360783" lon="9.59061"><ele>142.0</ele><time>2026-05-02T13:10:07.035Z</time></trkpt><trkpt lat="44.935965" lon="9.590535"><ele>143.0</ele><time>2026-05-02T13:10:09.038Z</time></trkpt><trkpt lat="44.9358617" lon="9.5904633"><ele>144.0</ele><time>2026-05-02T13:10:11.034Z</time></trkpt><trkpt lat="44.9357433" lon="9.5903917"><ele>145.0</ele><time>2026-05-02T13:10:13.035Z</time></trkpt><trkpt lat="44.93563" lon="9.5903367"><ele>146.0</ele><time>2026-05-02T13:10:15.035Z</time></trkpt><trkpt lat="44.9355267" lon="9.5902767"><ele>146.0</ele><time>2026-05-02T13:10:17.035Z</time></trkpt><trkpt lat="44.9354217" lon="9.5902017"><ele>146.0</ele><time>2026-05-02T13:10:19.039Z</time></trkpt><trkpt lat="44.93532" lon="9.5901217"><ele>146.0</ele><time>2026-05-02T13:10:21.037Z</time></trkpt><trkpt lat="44.935235" lon="9.5900483"><ele>146.0</ele><time>2026-05-02T13:10:23.037Z</time></trkpt><trkpt lat="44.9351417" lon="9.5899833"><ele>146.0</ele><time>2026-05-02T13:10:25.033Z</time></trkpt><trkpt lat="44.935045" lon="9.58991"><ele>144.2</ele><time>2026-05-02T13:10:27.035Z</time></trkpt><trkpt lat="44.93494" lon="9.589845"><ele>142.39999999999998</ele><time>2026-05-02T13:10:29.034Z</time></trkpt><trkpt lat="44.9348283" lon="9.5897733"><ele>140.6</ele><time>2026-05-02T13:10:31.04Z</time></trkpt><trkpt lat="44.93477" lon="9.589735"><ele>138.79999999999998</ele><time>2026-05-02T13:10:32.035Z</time></trkpt><trkpt lat="44.9346717" lon="9.5896767"><ele>137.0</ele><time>2026-05-02T13:10:34.036Z</time></trkpt><trkpt lat="44.93457" lon="9.5896167"><ele>137.0</ele><time>2026-05-02T13:10:36.036Z</time></trkpt><trkpt lat="44.9344733" lon="9.5895517"><ele>137.0</ele><time>2026-05-02T13:10:38.036Z</time></trkpt><trkpt lat="44.934365" lon="9.5894967"><ele>137.0</ele><time>2026-05-02T13:10:40.034Z</time></trkpt><trkpt lat="44.934255" lon="9.5894283"><ele>137.0</ele><time>2026-05-02T13:10:42.04Z</time></trkpt><trkpt lat="44.9341517" lon="9.589365"><ele>139.4</ele><time>2026-05-02T13:10:44.035Z</time></trkpt><trkpt lat="44.9340567" lon="9.58932"><ele>141.79999999999998</ele><time>2026-05-02T13:10:46.037Z</time></trkpt><trkpt lat="44.9339533" lon="9.5892567"><ele>144.2</ele><time>2026-05-02T13:10:48.034Z</time></trkpt><trkpt lat="44.9338483" lon="9.5891867"><ele>146.6</ele><time>2026-05-02T13:10:50.037Z</time></trkpt><trkpt lat="44.9337483" lon="9.5891317"><ele>149.0</ele><time>2026-05-02T13:10:52.038Z</time></trkpt><trkpt lat="44.9336583" lon="9.589075"><ele>149.0</ele><time>2026-05-02T13:10:54.038Z</time></trkpt><trkpt lat="44.9335633" lon="9.5890083"><ele>149.0</ele><time>2026-05-02T13:10:56.036Z</time></trkpt><trkpt lat="44.9334567" lon="9.58893"><ele>149.0</ele><time>2026-05-02T13:10:58.035Z</time></trkpt><trkpt lat="44.9333633" lon="9.5888567"><ele>149.0</ele><time>2026-05-02T13:11:00.037Z</time></trkpt><trkpt lat="44.933265" lon="9.588795"><ele>149.0</ele><time>2026-05-02T13:11:02.035Z</time></trkpt><trkpt lat="44.9331617" lon="9.588755"><ele>150.75</ele><time>2026-05-02T13:11:04.033Z</time></trkpt><trkpt lat="44.9330667" lon="9.588685"><ele>152.5</ele><time>2026-05-02T13:11:06.042Z</time></trkpt><trkpt lat="44.9329567" lon="9.5886417"><ele>154.25</ele><time>2026-05-02T13:11:08.037Z</time></trkpt><trkpt lat="44.93285" lon="9.5885767"><ele>156.0</ele><time>2026-05-02T13:11:10.034Z</time></trkpt><trkpt lat="44.93274" lon="9.5884983"><ele>156.0</ele><time>2026-05-02T13:11:12.035Z</time></trkpt><trkpt lat="44.93264" lon="9.588425"><ele>156.0</ele><time>2026-05-02T13:11:14.037Z</time></trkpt><trkpt lat="44.9325833" lon="9.5883833"><ele>156.0</ele><time>2026-05-02T13:11:15.041Z</time></trkpt><trkpt lat="44.9325233" lon="9.588345"><ele>156.0</ele><time>2026-05-02T13:11:16.033Z</time></trkpt><trkpt lat="44.9324633" lon="9.5883"><ele>156.0</ele><time>2026-05-02T13:11:17.035Z</time></trkpt><trkpt lat="44.9324017" lon="9.5882617"><ele>156.0</ele><time>2026-05-02T13:11:18.034Z</time></trkpt><trkpt lat="44.9323383" lon="9.5882033"><ele>153.6</ele><time>2026-05-02T13:11:19.037Z</time></trkpt><trkpt lat="44.9322783" lon="9.5881683"><ele>151.2</ele><time>2026-05-02T13:11:20.039Z</time></trkpt><trkpt lat="44.932165" lon="9.5881167"><ele>148.8</ele><time>2026-05-02T13:11:22.035Z</time></trkpt><trkpt lat="44.9320567" lon="9.5880683"><ele>146.4</ele><time>2026-05-02T13:11:24.035Z</time></trkpt><trkpt lat="44.9319517" lon="9.58801"><ele>144.0</ele><time>2026-05-02T13:11:26.035Z</time></trkpt><trkpt lat="44.9318667" lon="9.5879483"><ele>144.0</ele><time>2026-05-02T13:11:28.034Z</time></trkpt><trkpt lat="44.9318033" lon="9.5879133"><ele>144.0</ele><time>2026-05-02T13:11:29.034Z</time></trkpt><trkpt lat="44.9316967" lon="9.5878517"><ele>144.0</ele><time>2026-05-02T13:11:31.033Z</time></trkpt><trkpt lat="44.93159" lon="9.5877883"><ele>144.0</ele><time>2026-05-02T13:11:33.035Z</time></trkpt><trkpt lat="44.931495" lon="9.5877283"><ele>144.0</ele><time>2026-05-02T13:11:35.034Z</time></trkpt><trkpt lat="44.9314083" lon="9.5876483"><ele>144.8</ele><time>2026-05-02T13:11:37.034Z</time></trkpt><trkpt lat="44.93131" lon="9.5875833"><ele>145.60000000000002</ele><time>2026-05-02T13:11:39.04Z</time></trkpt><trkpt lat="44.9312017" lon="9.5875033"><ele>146.4</ele><time>2026-05-02T13:11:41.038Z</time></trkpt><trkpt lat="44.9310883" lon="9.5874283"><ele>147.20000000000002</ele><time>2026-05-02T13:11:43.035Z</time></trkpt><trkpt lat="44.93103" lon="9.5873917"><ele>148.0</ele><time>2026-05-02T13:11:44.037Z</time></trkpt><trkpt lat="44.9309167" lon="9.58732"><ele>148.16666666666669</ele><time>2026-05-02T13:11:46.042Z</time></trkpt><trkpt lat="44.9308583" lon="9.5872817"><ele>148.33333333333334</ele><time>2026-05-02T13:11:47.034Z</time></trkpt><trkpt lat="44.9307467" lon="9.5872217"><ele>148.5</ele><time>2026-05-02T13:11:49.04Z</time></trkpt><trkpt lat="44.9306867" lon="9.5871867"><ele>148.66666666666666</ele><time>2026-05-02T13:11:50.035Z</time></trkpt><trkpt lat="44.9306267" lon="9.5871467"><ele>148.83333333333331</ele><time>2026-05-02T13:11:51.037Z</time></trkpt><trkpt lat="44.9305183" lon="9.5870783"><ele>149.0</ele><time>2026-05-02T13:11:53.035Z</time></trkpt><trkpt lat="44.9303983" lon="9.587005"><ele>149.0</ele><time>2026-05-02T13:11:55.036Z</time></trkpt><trkpt lat="44.93029" lon="9.58693"><ele>149.0</ele><time>2026-05-02T13:11:57.038Z</time></trkpt><trkpt lat="44.9301883" lon="9.5868567"><ele>149.0</ele><time>2026-05-02T13:11:59.035Z</time></trkpt><trkpt lat="44.9300817" lon="9.58679"><ele>149.0</ele><time>2026-05-02T13:12:01.036Z</time></trkpt><trkpt lat="44.9299767" lon="9.586735"><ele>146.2</ele><time>2026-05-02T13:12:03.037Z</time></trkpt><trkpt lat="44.9298667" lon="9.5866733"><ele>143.4</ele><time>2026-05-02T13:12:05.037Z</time></trkpt><trkpt lat="44.9297683" lon="9.586605"><ele>140.6</ele><time>2026-05-02T13:12:07.032Z</time></trkpt><trkpt lat="44.92968" lon="9.5865433"><ele>137.8</ele><time>2026-05-02T13:12:09.039Z</time></trkpt><trkpt lat="44.9295717" lon="9.5864717"><ele>135.0</ele><time>2026-05-02T13:12:11.035Z</time></trkpt><trkpt lat="44.9295117" lon="9.5864383"><ele>135.0</ele><time>2026-05-02T13:12:12.037Z</time></trkpt><trkpt lat="44.929445" lon="9.5864017"><ele>135.0</ele><time>2026-05-02T13:12:13.038Z</time></trkpt><trkpt lat="44.9293783" lon="9.5863683"><ele>135.0</ele><time>2026-05-02T13:12:14.037Z</time></trkpt><trkpt lat="44.9293183" lon="9.5863383"><ele>135.0</ele><time>2026-05-02T13:12:15.042Z</time></trkpt><trkpt lat="44.9292467" lon="9.5863117"><ele>135.0</ele><time>2026-05-02T13:12:16.039Z</time></trkpt><trkpt lat="44.9291883" lon="9.5862683"><ele>135.0</ele><time>2026-05-02T13:12:17.039Z</time></trkpt><trkpt lat="44.9290817" lon="9.5862033"><ele>135.0</ele><time>2026-05-02T13:12:19.041Z</time></trkpt><trkpt lat="44.9290117" lon="9.5861717"><ele>135.0</ele><time>2026-05-02T13:12:20.038Z</time></trkpt><trkpt lat="44.9289483" lon="9.5861467"><ele>135.0</ele><time>2026-05-02T13:12:21.038Z</time></trkpt><trkpt lat="44.9288333" lon="9.5860767"><ele>135.0</ele><time>2026-05-02T13:12:23.035Z</time></trkpt><trkpt lat="44.9287283" lon="9.586015"><ele>135.0</ele><time>2026-05-02T13:12:25.04Z</time></trkpt><trkpt lat="44.92862" lon="9.5859417"><ele>135.0</ele><time>2026-05-02T13:12:27.034Z</time></trkpt><trkpt lat="44.9285167" lon="9.5858867"><ele>135.0</ele><time>2026-05-02T13:12:29.039Z</time></trkpt><trkpt lat="44.9284133" lon="9.5858233"><ele>135.0</ele><time>2026-05-02T13:12:31.035Z</time></trkpt><trkpt lat="44.9283017" lon="9.5857617"><ele>135.0</ele><time>2026-05-02T13:12:33.038Z</time></trkpt><trkpt lat="44.928205" lon="9.585705"><ele>135.0</ele><time>2026-05-02T13:12:35.034Z</time></trkpt><trkpt lat="44.928105" lon="9.5856383"><ele>135.0</ele><time>2026-05-02T13:12:37.034Z</time></trkpt><trkpt lat="44.9280083" lon="9.5855833"><ele>135.0</ele><time>2026-05-02T13:12:39.041Z</time></trkpt><trkpt lat="44.9278867" lon="9.5855217"><ele>135.0</ele><time>2026-05-02T13:12:41.034Z</time></trkpt><trkpt lat="44.92779" lon="9.5854533"><ele>135.0</ele><time>2026-05-02T13:12:43.036Z</time></trkpt><trkpt lat="44.9276933" lon="9.5853867"><ele>135.0</ele><time>2026-05-02T13:12:45.041Z</time></trkpt><trkpt lat="44.9275967" lon="9.5853267"><ele>134.8</ele><time>2026-05-02T13:12:47.035Z</time></trkpt><trkpt lat="44.9274883" lon="9.585255"><ele>134.6</ele><time>2026-05-02T13:12:49.036Z</time></trkpt><trkpt lat="44.9273917" lon="9.5851883"><ele>134.4</ele><time>2026-05-02T13:12:51.041Z</time></trkpt><trkpt lat="44.9272983" lon="9.58513"><ele>134.2</ele><time>2026-05-02T13:12:53.038Z</time></trkpt><trkpt lat="44.92719" lon="9.58507"><ele>134.0</ele><time>2026-05-02T13:12:55.034Z</time></trkpt><trkpt lat="44.9271017" lon="9.5849967"><ele>134.0</ele><time>2026-05-02T13:12:57.035Z</time></trkpt><trkpt lat="44.927005" lon="9.5849383"><ele>134.0</ele><time>2026-05-02T13:12:59.036Z</time></trkpt><trkpt lat="44.9269217" lon="9.5848783"><ele>134.0</ele><time>2026-05-02T13:13:01.034Z</time></trkpt><trkpt lat="44.9268167" lon="9.5848117"><ele>134.0</ele><time>2026-05-02T13:13:03.037Z</time></trkpt><trkpt lat="44.926705" lon="9.5847533"><ele>134.0</ele><time>2026-05-02T13:13:05.033Z</time></trkpt><trkpt lat="44.9265967" lon="9.5846983"><ele>134.0</ele><time>2026-05-02T13:13:07.033Z</time></trkpt><trkpt lat="44.9264933" lon="9.58464"><ele>134.0</ele><time>2026-05-02T13:13:09.037Z</time></trkpt><trkpt lat="44.9264" lon="9.5845883"><ele>134.0</ele><time>2026-05-02T13:13:11.034Z</time></trkpt><trkpt lat="44.9263033" lon="9.584525"><ele>134.0</ele><time>2026-05-02T13:13:13.04Z</time></trkpt><trkpt lat="44.9262067" lon="9.584465"><ele>134.0</ele><time>2026-05-02T13:13:15.035Z</time></trkpt><trkpt lat="44.9261233" lon="9.5843967"><ele>134.4</ele><time>2026-05-02T13:13:17.034Z</time></trkpt><trkpt lat="44.9260633" lon="9.5843483"><ele>134.8</ele><time>2026-05-02T13:13:18.034Z</time></trkpt><trkpt lat="44.9259717" lon="9.58428"><ele>135.2</ele><time>2026-05-02T13:13:20.037Z</time></trkpt><trkpt lat="44.9258833" lon="9.58422"><ele>135.6</ele><time>2026-05-02T13:13:22.033Z</time></trkpt><trkpt lat="44.92579" lon="9.5841767"><ele>136.0</ele><time>2026-05-02T13:13:24.034Z</time></trkpt><trkpt lat="44.9256867" lon="9.5841033"><ele>136.16666666666669</ele><time>2026-05-02T13:13:26.039Z</time></trkpt><trkpt lat="44.925625" lon="9.5840633"><ele>136.33333333333334</ele><time>2026-05-02T13:13:27.037Z</time></trkpt><trkpt lat="44.9255683" lon="9.5840233"><ele>136.5</ele><time>2026-05-02T13:13:28.038Z</time></trkpt><trkpt lat="44.9254983" lon="9.5839867"><ele>136.66666666666666</ele><time>2026-05-02T13:13:29.033Z</time></trkpt><trkpt lat="44.925385" lon="9.5839233"><ele>136.83333333333331</ele><time>2026-05-02T13:13:31.038Z</time></trkpt><trkpt lat="44.9253233" lon="9.5838883"><ele>137.0</ele><time>2026-05-02T13:13:32.035Z</time></trkpt><trkpt lat="44.9252067" lon="9.5838317"><ele>137.0</ele><time>2026-05-02T13:13:34.037Z</time></trkpt><trkpt lat="44.9250967" lon="9.583765"><ele>137.0</ele><time>2026-05-02T13:13:36.04Z</time></trkpt><trkpt lat="44.9249883" lon="9.5837033"><ele>137.0</ele><time>2026-05-02T13:13:38.037Z</time></trkpt><trkpt lat="44.9249033" lon="9.5836433"><ele>137.0</ele><time>2026-05-02T13:13:40.039Z</time></trkpt><trkpt lat="44.9248217" lon="9.5835867"><ele>137.0</ele><time>2026-05-02T13:13:42.041Z</time></trkpt><trkpt lat="44.9247367" lon="9.5835333"><ele>137.79999999999998</ele><time>2026-05-02T13:13:44.036Z</time></trkpt><trkpt lat="44.92465" lon="9.5834767"><ele>138.6</ele><time>2026-05-02T13:13:46.035Z</time></trkpt><trkpt lat="44.9245667" lon="9.5834217"><ele>139.39999999999998</ele><time>2026-05-02T13:13:48.037Z</time></trkpt><trkpt lat="44.924465" lon="9.5833567"><ele>140.2</ele><time>2026-05-02T13:13:50.035Z</time></trkpt><trkpt lat="44.92437" lon="9.5833017"><ele>141.0</ele><time>2026-05-02T13:13:52.033Z</time></trkpt><trkpt lat="44.9242783" lon="9.5832283"><ele>142.2</ele><time>2026-05-02T13:13:54.036Z</time></trkpt><trkpt lat="44.92421" lon="9.5831817"><ele>143.39999999999998</ele><time>2026-05-02T13:13:55.035Z</time></trkpt><trkpt lat="44.924105" lon="9.5831083"><ele>144.6</ele><time>2026-05-02T13:13:57.035Z</time></trkpt><trkpt lat="44.9240417" lon="9.5830817"><ele>145.79999999999998</ele><time>2026-05-02T13:13:58.038Z</time></trkpt><trkpt lat="44.9239433" lon="9.58303"><ele>147.0</ele><time>2026-05-02T13:14:00.039Z</time></trkpt><trkpt lat="44.9238483" lon="9.5829867"><ele>147.0</ele><time>2026-05-02T13:14:02.037Z</time></trkpt><trkpt lat="44.92375" lon="9.58295"><ele>147.0</ele><time>2026-05-02T13:14:04.035Z</time></trkpt><trkpt lat="44.9236483" lon="9.58292"><ele>147.0</ele><time>2026-05-02T13:14:06.034Z</time></trkpt><trkpt lat="44.9235833" lon="9.5829"><ele>147.0</ele><time>2026-05-02T13:14:07.038Z</time></trkpt><trkpt lat="44.9234717" lon="9.582875"><ele>147.0</ele><time>2026-05-02T13:14:09.037Z</time></trkpt><trkpt lat="44.923355" lon="9.5828567"><ele>148.4</ele><time>2026-05-02T13:14:11.034Z</time></trkpt><trkpt lat="44.923245" lon="9.582835"><ele>149.79999999999998</ele><time>2026-05-02T13:14:13.034Z</time></trkpt><trkpt lat="44.9231517" lon="9.58281"><ele>151.2</ele><time>2026-05-02T13:14:15.033Z</time></trkpt><trkpt lat="44.9230583" lon="9.5828"><ele>152.6</ele><time>2026-05-02T13:14:17.037Z</time></trkpt><trkpt lat="44.9229617" lon="9.5827883"><ele>154.0</ele><time>2026-05-02T13:14:19.037Z</time></trkpt><trkpt lat="44.922865" lon="9.582765"><ele>154.0</ele><time>2026-05-02T13:14:21.041Z</time></trkpt><trkpt lat="44.92276" lon="9.5827267"><ele>154.0</ele><time>2026-05-02T13:14:23.036Z</time></trkpt><trkpt lat="44.9226333" lon="9.582705"><ele>154.0</ele><time>2026-05-02T13:14:25.037Z</time></trkpt><trkpt lat="44.9225683" lon="9.5827"><ele>154.0</ele><time>2026-05-02T13:14:26.034Z</time></trkpt><trkpt lat="44.9225" lon="9.5826967"><ele>154.0</ele><time>2026-05-02T13:14:27.035Z</time></trkpt><trkpt lat="44.9223983" lon="9.5826667"><ele>154.2</ele><time>2026-05-02T13:14:29.035Z</time></trkpt><trkpt lat="44.92229" lon="9.5826433"><ele>154.4</ele><time>2026-05-02T13:14:31.04Z</time></trkpt><trkpt lat="44.9221883" lon="9.5826333"><ele>154.6</ele><time>2026-05-02T13:14:33.035Z</time></trkpt><trkpt lat="44.92207" lon="9.5826417"><ele>154.8</ele><time>2026-05-02T13:14:35.037Z</time></trkpt><trkpt lat="44.9220017" lon="9.5826517"><ele>155.0</ele><time>2026-05-02T13:14:36.033Z</time></trkpt><trkpt lat="44.9219367" lon="9.5826633"><ele>155.0</ele><time>2026-05-02T13:14:37.033Z</time></trkpt><trkpt lat="44.9218117" lon="9.5826983"><ele>155.0</ele><time>2026-05-02T13:14:39.04Z</time></trkpt><trkpt lat="44.92175" lon="9.5827183"><ele>155.0</ele><time>2026-05-02T13:14:40.034Z</time></trkpt><trkpt lat="44.9216367" lon="9.5827383"><ele>155.0</ele><time>2026-05-02T13:14:42.035Z</time></trkpt><trkpt lat="44.9215033" lon="9.5827683"><ele>155.0</ele><time>2026-05-02T13:14:44.035Z</time></trkpt><trkpt lat="44.9214367" lon="9.5827717"><ele>154.66666666666666</ele><time>2026-05-02T13:14:45.035Z</time></trkpt><trkpt lat="44.9213667" lon="9.5827717"><ele>154.33333333333331</ele><time>2026-05-02T13:14:46.034Z</time></trkpt><trkpt lat="44.9213017" lon="9.5827783"><ele>154.0</ele><time>2026-05-02T13:14:47.034Z</time></trkpt><trkpt lat="44.9211933" lon="9.5828083"><ele>153.66666666666666</ele><time>2026-05-02T13:14:49.034Z</time></trkpt><trkpt lat="44.92109" lon="9.582845"><ele>153.33333333333334</ele><time>2026-05-02T13:14:51.033Z</time></trkpt><trkpt lat="44.9210233" lon="9.5828667"><ele>153.0</ele><time>2026-05-02T13:14:52.037Z</time></trkpt><trkpt lat="44.92096" lon="9.5828867"><ele>152.16666666666666</ele><time>2026-05-02T13:14:53.034Z</time></trkpt><trkpt lat="44.9208983" lon="9.5829067"><ele>151.33333333333334</ele><time>2026-05-02T13:14:54.036Z</time></trkpt><trkpt lat="44.92078" lon="9.5829367"><ele>150.5</ele><time>2026-05-02T13:14:56.038Z</time></trkpt><trkpt lat="44.9207117" lon="9.5829517"><ele>149.66666666666669</ele><time>2026-05-02T13:14:57.04Z</time></trkpt><trkpt lat="44.9205883" lon="9.5829833"><ele>148.83333333333334</ele><time>2026-05-02T13:14:59.033Z</time></trkpt><trkpt lat="44.920525" lon="9.582995"><ele>148.0</ele><time>2026-05-02T13:15:00.038Z</time></trkpt><trkpt lat="44.9204117" lon="9.5830383"><ele>148.0</ele><time>2026-05-02T13:15:02.036Z</time></trkpt><trkpt lat="44.9203" lon="9.583075"><ele>148.0</ele><time>2026-05-02T13:15:04.037Z</time></trkpt><trkpt lat="44.920195" lon="9.5831167"><ele>148.0</ele><time>2026-05-02T13:15:06.036Z</time></trkpt><trkpt lat="44.9200767" lon="9.5831467"><ele>148.0</ele><time>2026-05-02T13:15:08.037Z</time></trkpt><trkpt lat="44.9199567" lon="9.583175"><ele>148.6</ele><time>2026-05-02T13:15:10.034Z</time></trkpt><trkpt lat="44.91985" lon="9.58322"><ele>149.20000000000002</ele><time>2026-05-02T13:15:12.036Z</time></trkpt><trkpt lat="44.91975" lon="9.5832517"><ele>149.8</ele><time>2026-05-02T13:15:14.039Z</time></trkpt><trkpt lat="44.9196367" lon="9.5832617"><ele>150.4</ele><time>2026-05-02T13:15:16.038Z</time></trkpt><trkpt lat="44.9195217" lon="9.5832733"><ele>151.0</ele><time>2026-05-02T13:15:18.036Z</time></trkpt><trkpt lat="44.9194217" lon="9.5832783"><ele>151.0</ele><time>2026-05-02T13:15:20.033Z</time></trkpt><trkpt lat="44.9193517" lon="9.58326"><ele>151.0</ele><time>2026-05-02T13:15:21.037Z</time></trkpt><trkpt lat="44.919285" lon="9.5832467"><ele>151.0</ele><time>2026-05-02T13:15:22.038Z</time></trkpt><trkpt lat="44.9191683" lon="9.58321"><ele>151.0</ele><time>2026-05-02T13:15:24.036Z</time></trkpt><trkpt lat="44.91907" lon="9.58317"><ele>151.0</ele><time>2026-05-02T13:15:26.035Z</time></trkpt><trkpt lat="44.9189717" lon="9.583125"><ele>151.33333333333334</ele><time>2026-05-02T13:15:28.038Z</time></trkpt><trkpt lat="44.9189067" lon="9.5831"><ele>151.66666666666669</ele><time>2026-05-02T13:15:29.036Z</time></trkpt><trkpt lat="44.9188467" lon="9.5830717"><ele>152.0</ele><time>2026-05-02T13:15:30.034Z</time></trkpt><trkpt lat="44.9187833" lon="9.583055"><ele>152.33333333333334</ele><time>2026-05-02T13:15:31.038Z</time></trkpt><trkpt lat="44.9186717" lon="9.5830117"><ele>152.66666666666666</ele><time>2026-05-02T13:15:33.039Z</time></trkpt><trkpt lat="44.9185433" lon="9.5829917"><ele>153.0</ele><time>2026-05-02T13:15:35.035Z</time></trkpt><trkpt lat="44.9184717" lon="9.5829783"><ele>153.0</ele><time>2026-05-02T13:15:36.037Z</time></trkpt><trkpt lat="44.9184083" lon="9.58296"><ele>153.0</ele><time>2026-05-02T13:15:37.036Z</time></trkpt><trkpt lat="44.9182917" lon="9.5829033"><ele>153.0</ele><time>2026-05-02T13:15:39.034Z</time></trkpt><trkpt lat="44.9181833" lon="9.5828517"><ele>153.0</ele><time>2026-05-02T13:15:41.033Z</time></trkpt><trkpt lat="44.9180733" lon="9.582795"><ele>153.0</ele><time>2026-05-02T13:15:43.039Z</time></trkpt><trkpt lat="44.917965" lon="9.5827283"><ele>153.0</ele><time>2026-05-02T13:15:45.034Z</time></trkpt><trkpt lat="44.917855" lon="9.5826767"><ele>153.0</ele><time>2026-05-02T13:15:47.032Z</time></trkpt><trkpt lat="44.917735" lon="9.5826217"><ele>153.0</ele><time>2026-05-02T13:15:49.036Z</time></trkpt><trkpt lat="44.9176667" lon="9.5825967"><ele>153.0</ele><time>2026-05-02T13:15:50.034Z</time></trkpt><trkpt lat="44.9175567" lon="9.5825733"><ele>153.0</ele><time>2026-05-02T13:15:52.035Z</time></trkpt><trkpt lat="44.9174433" lon="9.5825467"><ele>152.6</ele><time>2026-05-02T13:15:54.032Z</time></trkpt><trkpt lat="44.9173417" lon="9.5825083"><ele>152.20000000000002</ele><time>2026-05-02T13:15:56.041Z</time></trkpt><trkpt lat="44.9172317" lon="9.5824533"><ele>151.8</ele><time>2026-05-02T13:15:58.036Z</time></trkpt><trkpt lat="44.9171183" lon="9.5824117"><ele>151.4</ele><time>2026-05-02T13:16:00.037Z</time></trkpt><trkpt lat="44.917015" lon="9.5823917"><ele>151.0</ele><time>2026-05-02T13:16:02.041Z</time></trkpt><trkpt lat="44.9169033" lon="9.5824033"><ele>151.0</ele><time>2026-05-02T13:16:04.034Z</time></trkpt><trkpt lat="44.9167867" lon="9.5824417"><ele>151.0</ele><time>2026-05-02T13:16:06.039Z</time></trkpt><trkpt lat="44.9166917" lon="9.582525"><ele>151.0</ele><time>2026-05-02T13:16:08.037Z</time></trkpt><trkpt lat="44.9165917" lon="9.5826067"><ele>151.0</ele><time>2026-05-02T13:16:10.037Z</time></trkpt><trkpt lat="44.9164883" lon="9.5826967"><ele>151.0</ele><time>2026-05-02T13:16:12.036Z</time></trkpt><trkpt lat="44.9164" lon="9.5828"><ele>151.0</ele><time>2026-05-02T13:16:14.037Z</time></trkpt><trkpt lat="44.9163117" lon="9.5829"><ele>151.0</ele><time>2026-05-02T13:16:16.041Z</time></trkpt><trkpt lat="44.9162067" lon="9.5829583"><ele>151.0</ele><time>2026-05-02T13:16:18.035Z</time></trkpt><trkpt lat="44.9161017" lon="9.58301"><ele>149.75</ele><time>2026-05-02T13:16:20.035Z</time></trkpt><trkpt lat="44.9160017" lon="9.5830667"><ele>148.5</ele><time>2026-05-02T13:16:22.034Z</time></trkpt><trkpt lat="44.9158833" lon="9.5831167"><ele>147.25</ele><time>2026-05-02T13:16:24.038Z</time></trkpt><trkpt lat="44.91577" lon="9.5831583"><ele>146.0</ele><time>2026-05-02T13:16:26.036Z</time></trkpt><trkpt lat="44.915665" lon="9.583195"><ele>146.0</ele><time>2026-05-02T13:16:28.035Z</time></trkpt><trkpt lat="44.91557" lon="9.5832467"><ele>146.0</ele><time>2026-05-02T13:16:30.035Z</time></trkpt><trkpt lat="44.91546" lon="9.583305"><ele>146.0</ele><time>2026-05-02T13:16:32.035Z</time></trkpt><trkpt lat="44.915345" lon="9.583335"><ele>146.0</ele><time>2026-05-02T13:16:34.037Z</time></trkpt><trkpt lat="44.915245" lon="9.58339"><ele>146.0</ele><time>2026-05-02T13:16:36.039Z</time></trkpt><trkpt lat="44.9151233" lon="9.583445"><ele>147.4</ele><time>2026-05-02T13:16:38.035Z</time></trkpt><trkpt lat="44.91501" lon="9.5834817"><ele>148.8</ele><time>2026-05-02T13:16:40.034Z</time></trkpt><trkpt lat="44.9149017" lon="9.58353"><ele>150.20000000000002</ele><time>2026-05-02T13:16:42.035Z</time></trkpt><trkpt lat="44.91484" lon="9.58355"><ele>151.6</ele><time>2026-05-02T13:16:43.036Z</time></trkpt><trkpt lat="44.9147233" lon="9.5835883"><ele>153.0</ele><time>2026-05-02T13:16:45.039Z</time></trkpt><trkpt lat="44.9146183" lon="9.5836167"><ele>153.0</ele><time>2026-05-02T13:16:47.037Z</time></trkpt><trkpt lat="44.914515" lon="9.5836417"><ele>153.0</ele><time>2026-05-02T13:16:49.037Z</time></trkpt><trkpt lat="44.9144017" lon="9.583625"><ele>153.0</ele><time>2026-05-02T13:16:51.038Z</time></trkpt><trkpt lat="44.9142933" lon="9.5835817"><ele>153.0</ele><time>2026-05-02T13:16:53.038Z</time></trkpt><trkpt lat="44.914205" lon="9.58353"><ele>153.0</ele><time>2026-05-02T13:16:55.034Z</time></trkpt><trkpt lat="44.91411" lon="9.5834433"><ele>154.25</ele><time>2026-05-02T13:16:57.035Z</time></trkpt><trkpt lat="44.9140067" lon="9.583345"><ele>155.5</ele><time>2026-05-02T13:16:59.035Z</time></trkpt><trkpt lat="44.9139017" lon="9.583275"><ele>156.75</ele><time>2026-05-02T13:17:01.035Z</time></trkpt><trkpt lat="44.9137867" lon="9.583255"><ele>158.0</ele><time>2026-05-02T13:17:03.041Z</time></trkpt><trkpt lat="44.9136717" lon="9.5832833"><ele>158.0</ele><time>2026-05-02T13:17:05.037Z</time></trkpt><trkpt lat="44.9135567" lon="9.5833283"><ele>158.0</ele><time>2026-05-02T13:17:07.037Z</time></trkpt><trkpt lat="44.913455" lon="9.5833767"><ele>158.0</ele><time>2026-05-02T13:17:09.037Z</time></trkpt><trkpt lat="44.9133567" lon="9.58344"><ele>158.0</ele><time>2026-05-02T13:17:11.036Z</time></trkpt><trkpt lat="44.9132517" lon="9.5835"><ele>158.0</ele><time>2026-05-02T13:17:13.039Z</time></trkpt><trkpt lat="44.9131517" lon="9.58357"><ele>158.4</ele><time>2026-05-02T13:17:15.039Z</time></trkpt><trkpt lat="44.9130583" lon="9.5836417"><ele>158.8</ele><time>2026-05-02T13:17:17.032Z</time></trkpt><trkpt lat="44.9129767" lon="9.583725"><ele>159.2</ele><time>2026-05-02T13:17:19.034Z</time></trkpt><trkpt lat="44.9128883" lon="9.583805"><ele>159.6</ele><time>2026-05-02T13:17:21.029Z</time></trkpt><trkpt lat="44.9128" lon="9.5838867"><ele>160.0</ele><time>2026-05-02T13:17:23.026Z</time></trkpt><trkpt lat="44.9127267" lon="9.58396"><ele>160.4</ele><time>2026-05-02T13:17:25.033Z</time></trkpt><trkpt lat="44.9126367" lon="9.58402"><ele>160.8</ele><time>2026-05-02T13:17:27.03Z</time></trkpt><trkpt lat="44.9125517" lon="9.5840683"><ele>161.2</ele><time>2026-05-02T13:17:29.03Z</time></trkpt><trkpt lat="44.912465" lon="9.584115"><ele>161.6</ele><time>2026-05-02T13:17:31.028Z</time></trkpt><trkpt lat="44.9123633" lon="9.5841517"><ele>162.0</ele><time>2026-05-02T13:17:33.03Z</time></trkpt><trkpt lat="44.9122633" lon="9.5841683"><ele>162.0</ele><time>2026-05-02T13:17:35.029Z</time></trkpt><trkpt lat="44.9121667" lon="9.5841783"><ele>162.0</ele><time>2026-05-02T13:17:37.04Z</time></trkpt><trkpt lat="44.9120583" lon="9.5841867"><ele>162.0</ele><time>2026-05-02T13:17:39.037Z</time></trkpt><trkpt lat="44.91196" lon="9.58418"><ele>162.0</ele><time>2026-05-02T13:17:41.035Z</time></trkpt><trkpt lat="44.9118583" lon="9.5841467"><ele>162.0</ele><time>2026-05-02T13:17:43.04Z</time></trkpt><trkpt lat="44.9117783" lon="9.584065"><ele>162.39999999999998</ele><time>2026-05-02T13:17:45.038Z</time></trkpt><trkpt lat="44.9116967" lon="9.5839733"><ele>162.79999999999998</ele><time>2026-05-02T13:17:47.032Z</time></trkpt><trkpt lat="44.9116183" lon="9.58387"><ele>163.2</ele><time>2026-05-02T13:17:49.035Z</time></trkpt><trkpt lat="44.91155" lon="9.5837867"><ele>163.6</ele><time>2026-05-02T13:17:51.038Z</time></trkpt><trkpt lat="44.9114733" lon="9.583705"><ele>164.0</ele><time>2026-05-02T13:17:53.036Z</time></trkpt><trkpt lat="44.9113967" lon="9.58365"><ele>164.39999999999998</ele><time>2026-05-02T13:17:55.036Z</time></trkpt><trkpt lat="44.9112967" lon="9.5836033"><ele>164.8</ele><time>2026-05-02T13:17:57.04Z</time></trkpt><trkpt lat="44.91121" lon="9.58358"><ele>165.2</ele><time>2026-05-02T13:17:59.037Z</time></trkpt><trkpt lat="44.9111317" lon="9.58357"><ele>165.60000000000002</ele><time>2026-05-02T13:18:01.038Z</time></trkpt><trkpt lat="44.9110417" lon="9.5835617"><ele>166.0</ele><time>2026-05-02T13:18:03.037Z</time></trkpt><trkpt lat="44.9109433" lon="9.5835533"><ele>166.60000000000002</ele><time>2026-05-02T13:18:05.036Z</time></trkpt><trkpt lat="44.91085" lon="9.5835383"><ele>167.2</ele><time>2026-05-02T13:18:07.036Z</time></trkpt><trkpt lat="44.910755" lon="9.58354"><ele>167.8</ele><time>2026-05-02T13:18:09.036Z</time></trkpt><trkpt lat="44.91066" lon="9.5835533"><ele>168.39999999999998</ele><time>2026-05-02T13:18:11.036Z</time></trkpt><trkpt lat="44.9105517" lon="9.5835283"><ele>169.0</ele><time>2026-05-02T13:18:13.039Z</time></trkpt><trkpt lat="44.910445" lon="9.583505"><ele>169.0</ele><time>2026-05-02T13:18:15.042Z</time></trkpt><trkpt lat="44.9103417" lon="9.5835017"><ele>169.0</ele><time>2026-05-02T13:18:17.038Z</time></trkpt><trkpt lat="44.9102533" lon="9.583495"><ele>169.0</ele><time>2026-05-02T13:18:19.039Z</time></trkpt><trkpt lat="44.910155" lon="9.583485"><ele>169.0</ele><time>2026-05-02T13:18:21.04Z</time></trkpt><trkpt lat="44.9100533" lon="9.5834733"><ele>169.0</ele><time>2026-05-02T13:18:23.039Z</time></trkpt><trkpt lat="44.9099617" lon="9.5834733"><ele>170.0</ele><time>2026-05-02T13:18:25.037Z</time></trkpt><trkpt lat="44.909875" lon="9.5834683"><ele>171.0</ele><time>2026-05-02T13:18:27.037Z</time></trkpt><trkpt lat="44.9097767" lon="9.58346"><ele>172.0</ele><time>2026-05-02T13:18:29.033Z</time></trkpt><trkpt lat="44.9096817" lon="9.5834467"><ele>173.0</ele><time>2026-05-02T13:18:31.038Z</time></trkpt><trkpt lat="44.9095983" lon="9.5834333"><ele>174.0</ele><time>2026-05-02T13:18:33.039Z</time></trkpt><trkpt lat="44.9094983" lon="9.583405"><ele>174.0</ele><time>2026-05-02T13:18:35.037Z</time></trkpt><trkpt lat="44.9094033" lon="9.58337"><ele>174.0</ele><time>2026-05-02T13:18:37.035Z</time></trkpt><trkpt lat="44.9093233" lon="9.5833417"><ele>174.0</ele><time>2026-05-02T13:18:39.035Z</time></trkpt><trkpt lat="44.9092283" lon="9.5833133"><ele>174.0</ele><time>2026-05-02T13:18:41.035Z</time></trkpt><trkpt lat="44.9091433" lon="9.5832733"><ele>174.0</ele><time>2026-05-02T13:18:43.037Z</time></trkpt><trkpt lat="44.9090517" lon="9.583235"><ele>174.79999999999998</ele><time>2026-05-02T13:18:45.035Z</time></trkpt><trkpt lat="44.9089667" lon="9.5831717"><ele>175.6</ele><time>2026-05-02T13:18:47.035Z</time></trkpt><trkpt lat="44.908885" lon="9.583075"><ele>176.4</ele><time>2026-05-02T13:18:49.035Z</time></trkpt><trkpt lat="44.9088317" lon="9.5829717"><ele>177.2</ele><time>2026-05-02T13:18:51.037Z</time></trkpt><trkpt lat="44.9087933" lon="9.5828433"><ele>178.0</ele><time>2026-05-02T13:18:53.036Z</time></trkpt><trkpt lat="44.9087583" lon="9.5827133"><ele>179.2</ele><time>2026-05-02T13:18:55.039Z</time></trkpt><trkpt lat="44.9087233" lon="9.582595"><ele>180.4</ele><time>2026-05-02T13:18:57.036Z</time></trkpt><trkpt lat="44.9086883" lon="9.5824683"><ele>181.6</ele><time>2026-05-02T13:18:59.037Z</time></trkpt><trkpt lat="44.90865" lon="9.582355"><ele>182.79999999999998</ele><time>2026-05-02T13:19:01.035Z</time></trkpt><trkpt lat="44.9086033" lon="9.582225"><ele>184.0</ele><time>2026-05-02T13:19:03.039Z</time></trkpt><trkpt lat="44.9085533" lon="9.58211"><ele>184.0</ele><time>2026-05-02T13:19:05.035Z</time></trkpt><trkpt lat="44.9085233" lon="9.58201"><ele>184.0</ele><time>2026-05-02T13:19:07.037Z</time></trkpt><trkpt lat="44.9084967" lon="9.5818817"><ele>184.0</ele><time>2026-05-02T13:19:09.038Z</time></trkpt><trkpt lat="44.9084567" lon="9.5817617"><ele>184.0</ele><time>2026-05-02T13:19:11.034Z</time></trkpt><trkpt lat="44.9084117" lon="9.5816567"><ele>184.0</ele><time>2026-05-02T13:19:13.033Z</time></trkpt><trkpt lat="44.9083617" lon="9.58155"><ele>184.0</ele><time>2026-05-02T13:19:15.035Z</time></trkpt><trkpt lat="44.9083033" lon="9.58143"><ele>184.0</ele><time>2026-05-02T13:19:17.035Z</time></trkpt><trkpt lat="44.9082483" lon="9.581305"><ele>184.0</ele><time>2026-05-02T13:19:19.036Z</time></trkpt><trkpt lat="44.90817" lon="9.581185"><ele>184.0</ele><time>2026-05-02T13:19:21.037Z</time></trkpt><trkpt lat="44.9081283" lon="9.5811167"><ele>184.0</ele><time>2026-05-02T13:19:22.035Z</time></trkpt><trkpt lat="44.9080333" lon="9.5810083"><ele>184.0</ele><time>2026-05-02T13:19:24.04Z</time></trkpt><trkpt lat="44.90793" lon="9.5809133"><ele>184.5</ele><time>2026-05-02T13:19:26.04Z</time></trkpt><trkpt lat="44.9078417" lon="9.58083"><ele>185.0</ele><time>2026-05-02T13:19:28.036Z</time></trkpt><trkpt lat="44.9077467" lon="9.58073"><ele>185.5</ele><time>2026-05-02T13:19:30.034Z</time></trkpt><trkpt lat="44.9076367" lon="9.58064"><ele>186.0</ele><time>2026-05-02T13:19:32.034Z</time></trkpt><trkpt lat="44.9075233" lon="9.5806067"><ele>185.14285714285717</ele><time>2026-05-02T13:19:34.034Z</time></trkpt><trkpt lat="44.9074483" lon="9.5805983"><ele>184.28571428571428</ele><time>2026-05-02T13:19:35.041Z</time></trkpt><trkpt lat="44.90738" lon="9.58059"><ele>183.42857142857144</ele><time>2026-05-02T13:19:36.038Z</time></trkpt><trkpt lat="44.9073167" lon="9.5805833"><ele>182.57142857142858</ele><time>2026-05-02T13:19:37.035Z</time></trkpt><trkpt lat="44.9072467" lon="9.5805733"><ele>181.71428571428572</ele><time>2026-05-02T13:19:38.037Z</time></trkpt><trkpt lat="44.9071817" lon="9.5805533"><ele>180.85714285714286</ele><time>2026-05-02T13:19:39.037Z</time></trkpt><trkpt lat="44.9071133" lon="9.5805217"><ele>180.0</ele><time>2026-05-02T13:19:40.034Z</time></trkpt><trkpt lat="44.9070517" lon="9.5804883"><ele>180.0</ele><time>2026-05-02T13:19:41.035Z</time></trkpt><trkpt lat="44.90698" lon="9.58045"><ele>180.0</ele><time>2026-05-02T13:19:42.037Z</time></trkpt><trkpt lat="44.90692" lon="9.5804167"><ele>180.0</ele><time>2026-05-02T13:19:43.036Z</time></trkpt><trkpt lat="44.906805" lon="9.58035"><ele>180.0</ele><time>2026-05-02T13:19:45.041Z</time></trkpt><trkpt lat="44.9067433" lon="9.580305"><ele>180.0</ele><time>2026-05-02T13:19:46.037Z</time></trkpt><trkpt lat="44.90668" lon="9.5802733"><ele>180.0</ele><time>2026-05-02T13:19:47.034Z</time></trkpt><trkpt lat="44.906585" lon="9.580255"><ele>180.14285714285714</ele><time>2026-05-02T13:19:48.036Z</time></trkpt><trkpt lat="44.9065083" lon="9.580235"><ele>180.2857142857143</ele><time>2026-05-02T13:19:49.037Z</time></trkpt><trkpt lat="44.90644" lon="9.5802167"><ele>180.42857142857144</ele><time>2026-05-02T13:19:50.036Z</time></trkpt><trkpt lat="44.9063683" lon="9.5801917"><ele>180.57142857142856</ele><time>2026-05-02T13:19:51.041Z</time></trkpt><trkpt lat="44.906295" lon="9.5801633"><ele>180.71428571428572</ele><time>2026-05-02T13:19:52.04Z</time></trkpt><trkpt lat="44.906225" lon="9.580135"><ele>180.85714285714286</ele><time>2026-05-02T13:19:53.038Z</time></trkpt><trkpt lat="44.9061583" lon="9.5801083"><ele>181.0</ele><time>2026-05-02T13:19:54.035Z</time></trkpt><trkpt lat="44.906085" lon="9.5800817"><ele>181.0</ele><time>2026-05-02T13:19:55.035Z</time></trkpt><trkpt lat="44.906015" lon="9.5800517"><ele>181.0</ele><time>2026-05-02T13:19:56.035Z</time></trkpt><trkpt lat="44.90595" lon="9.5800317"><ele>181.0</ele><time>2026-05-02T13:19:57.034Z</time></trkpt><trkpt lat="44.9058817" lon="9.5800167"><ele>181.0</ele><time>2026-05-02T13:19:58.035Z</time></trkpt><trkpt lat="44.9058183" lon="9.579995"><ele>181.0</ele><time>2026-05-02T13:19:59.036Z</time></trkpt><trkpt lat="44.9057533" lon="9.5799733"><ele>181.0</ele><time>2026-05-02T13:20:00.034Z</time></trkpt><trkpt lat="44.90569" lon="9.57995"><ele>181.0</ele><time>2026-05-02T13:20:01.038Z</time></trkpt><trkpt lat="44.905625" lon="9.5799233"><ele>180.0</ele><time>2026-05-02T13:20:02.033Z</time></trkpt><trkpt lat="44.9055617" lon="9.5799"><ele>179.0</ele><time>2026-05-02T13:20:03.038Z</time></trkpt><trkpt lat="44.9054533" lon="9.57985"><ele>178.0</ele><time>2026-05-02T13:20:05.035Z</time></trkpt><trkpt lat="44.9053417" lon="9.5798083"><ele>177.0</ele><time>2026-05-02T13:20:07.039Z</time></trkpt><trkpt lat="44.9052733" lon="9.57979"><ele>176.0</ele><time>2026-05-02T13:20:08.039Z</time></trkpt><trkpt lat="44.9052067" lon="9.5797733"><ele>175.0</ele><time>2026-05-02T13:20:09.036Z</time></trkpt><trkpt lat="44.90514" lon="9.5797583"><ele>174.42857142857142</ele><time>2026-05-02T13:20:10.034Z</time></trkpt><trkpt lat="44.9050717" lon="9.5797433"><ele>173.85714285714286</ele><time>2026-05-02T13:20:11.033Z</time></trkpt><trkpt lat="44.9050067" lon="9.5797267"><ele>173.28571428571428</ele><time>2026-05-02T13:20:12.035Z</time></trkpt><trkpt lat="44.9049383" lon="9.5797183"><ele>172.71428571428572</ele><time>2026-05-02T13:20:13.035Z</time></trkpt><trkpt lat="44.904875" lon="9.5797083"><ele>172.14285714285714</ele><time>2026-05-02T13:20:14.032Z</time></trkpt><trkpt lat="44.90481" lon="9.5797"><ele>171.57142857142856</ele><time>2026-05-02T13:20:15.035Z</time></trkpt><trkpt lat="44.904745" lon="9.5796883"><ele>171.0</ele><time>2026-05-02T13:20:16.035Z</time></trkpt><trkpt lat="44.9046267" lon="9.5796383"><ele>170.99999999999997</ele><time>2026-05-02T13:20:18.034Z</time></trkpt><trkpt lat="44.904565" lon="9.5796067"><ele>171.0</ele><time>2026-05-02T13:20:19.037Z</time></trkpt><trkpt lat="44.9044967" lon="9.5795683"><ele>171.0</ele><time>2026-05-02T13:20:20.035Z</time></trkpt><trkpt lat="44.9044267" lon="9.579525"><ele>171.0</ele><time>2026-05-02T13:20:21.039Z</time></trkpt><trkpt lat="44.9043517" lon="9.579485"><ele>171.0</ele><time>2026-05-02T13:20:22.04Z</time></trkpt><trkpt lat="44.904285" lon="9.5794417"><ele>170.99999999999997</ele><time>2026-05-02T13:20:23.036Z</time></trkpt><trkpt lat="44.904215" lon="9.5794017"><ele>171.0</ele><time>2026-05-02T13:20:24.037Z</time></trkpt><trkpt lat="44.9041583" lon="9.57935"><ele>171.42857142857142</ele><time>2026-05-02T13:20:25.039Z</time></trkpt><trkpt lat="44.904105" lon="9.5793017"><ele>171.85714285714286</ele><time>2026-05-02T13:20:26.034Z</time></trkpt><trkpt lat="44.9040417" lon="9.57925"><ele>172.28571428571428</ele><time>2026-05-02T13:20:27.032Z</time></trkpt><trkpt lat="44.903975" lon="9.5791983"><ele>172.71428571428572</ele><time>2026-05-02T13:20:28.036Z</time></trkpt><trkpt lat="44.9039167" lon="9.57915"><ele>173.14285714285714</ele><time>2026-05-02T13:20:29.037Z</time></trkpt><trkpt lat="44.9038617" lon="9.5790983"><ele>173.57142857142856</ele><time>2026-05-02T13:20:30.033Z</time></trkpt><trkpt lat="44.9038017" lon="9.5790483"><ele>174.0</ele><time>2026-05-02T13:20:31.035Z</time></trkpt><trkpt lat="44.9037433" lon="9.5790033"><ele>174.0</ele><time>2026-05-02T13:20:32.036Z</time></trkpt><trkpt lat="44.9036833" lon="9.5789633"><ele>174.0</ele><time>2026-05-02T13:20:33.038Z</time></trkpt><trkpt lat="44.903565" lon="9.5788983"><ele>174.0</ele><time>2026-05-02T13:20:35.032Z</time></trkpt><trkpt lat="44.9035067" lon="9.5788633"><ele>174.0</ele><time>2026-05-02T13:20:36.036Z</time></trkpt><trkpt lat="44.9034433" lon="9.578825"><ele>174.0</ele><time>2026-05-02T13:20:37.034Z</time></trkpt><trkpt lat="44.9033767" lon="9.5787867"><ele>174.0</ele><time>2026-05-02T13:20:38.037Z</time></trkpt><trkpt lat="44.903315" lon="9.5787483"><ele>173.75</ele><time>2026-05-02T13:20:39.038Z</time></trkpt><trkpt lat="44.9031917" lon="9.5786883"><ele>173.5</ele><time>2026-05-02T13:20:41.034Z</time></trkpt><trkpt lat="44.903075" lon="9.578615"><ele>173.25</ele><time>2026-05-02T13:20:43.037Z</time></trkpt><trkpt lat="44.9029617" lon="9.578545"><ele>173.0</ele><time>2026-05-02T13:20:45.036Z</time></trkpt><trkpt lat="44.9028383" lon="9.5784867"><ele>173.0</ele><time>2026-05-02T13:20:47.036Z</time></trkpt><trkpt lat="44.9027233" lon="9.5784167"><ele>173.0</ele><time>2026-05-02T13:20:49.034Z</time></trkpt><trkpt lat="44.90266" lon="9.5783767"><ele>173.0</ele><time>2026-05-02T13:20:50.034Z</time></trkpt><trkpt lat="44.902605" lon="9.5783333"><ele>173.0</ele><time>2026-05-02T13:20:51.037Z</time></trkpt><trkpt lat="44.902545" lon="9.578305"><ele>173.0</ele><time>2026-05-02T13:20:52.039Z</time></trkpt><trkpt lat="44.902475" lon="9.57829"><ele>173.0</ele><time>2026-05-02T13:20:53.035Z</time></trkpt><trkpt lat="44.9024067" lon="9.5782733"><ele>172.83333333333331</ele><time>2026-05-02T13:20:54.038Z</time></trkpt><trkpt lat="44.9023417" lon="9.5782533"><ele>172.66666666666666</ele><time>2026-05-02T13:20:55.033Z</time></trkpt><trkpt lat="44.9022733" lon="9.5782417"><ele>172.5</ele><time>2026-05-02T13:20:56.038Z</time></trkpt><trkpt lat="44.9022083" lon="9.5782317"><ele>172.33333333333334</ele><time>2026-05-02T13:20:57.039Z</time></trkpt><trkpt lat="44.9020867" lon="9.57822"><ele>172.16666666666669</ele><time>2026-05-02T13:20:59.036Z</time></trkpt><trkpt lat="44.90202" lon="9.578215"><ele>172.0</ele><time>2026-05-02T13:21:00.035Z</time></trkpt><trkpt lat="44.9019533" lon="9.5782067"><ele>172.0</ele><time>2026-05-02T13:21:01.038Z</time></trkpt><trkpt lat="44.9018883" lon="9.5782083"><ele>172.0</ele><time>2026-05-02T13:21:02.036Z</time></trkpt><trkpt lat="44.9018233" lon="9.5782183"><ele>172.0</ele><time>2026-05-02T13:21:03.036Z</time></trkpt><trkpt lat="44.9017617" lon="9.5782433"><ele>172.0</ele><time>2026-05-02T13:21:04.036Z</time></trkpt><trkpt lat="44.901645" lon="9.5783067"><ele>172.0</ele><time>2026-05-02T13:21:06.042Z</time></trkpt><trkpt lat="44.901585" lon="9.5783433"><ele>172.0</ele><time>2026-05-02T13:21:07.038Z</time></trkpt><trkpt lat="44.9014617" lon="9.5783983"><ele>172.16666666666669</ele><time>2026-05-02T13:21:09.037Z</time></trkpt><trkpt lat="44.901345" lon="9.5784533"><ele>172.33333333333334</ele><time>2026-05-02T13:21:11.036Z</time></trkpt><trkpt lat="44.90129" lon="9.5785"><ele>172.5</ele><time>2026-05-02T13:21:12.039Z</time></trkpt><trkpt lat="44.9012283" lon="9.5785483"><ele>172.66666666666666</ele><time>2026-05-02T13:21:13.036Z</time></trkpt><trkpt lat="44.9011683" lon="9.5785983"><ele>172.83333333333331</ele><time>2026-05-02T13:21:14.033Z</time></trkpt><trkpt lat="44.901105" lon="9.5786417"><ele>173.0</ele><time>2026-05-02T13:21:15.039Z</time></trkpt><trkpt lat="44.9010483" lon="9.578695"><ele>172.0</ele><time>2026-05-02T13:21:16.035Z</time></trkpt><trkpt lat="44.9009967" lon="9.5787567"><ele>171.0</ele><time>2026-05-02T13:21:17.032Z</time></trkpt><trkpt lat="44.9009433" lon="9.5788183"><ele>170.0</ele><time>2026-05-02T13:21:18.04Z</time></trkpt><trkpt lat="44.900895" lon="9.5788767"><ele>169.0</ele><time>2026-05-02T13:21:19.039Z</time></trkpt><trkpt lat="44.9008433" lon="9.5789317"><ele>168.0</ele><time>2026-05-02T13:21:20.037Z</time></trkpt><trkpt lat="44.9007383" lon="9.5790133"><ele>167.0</ele><time>2026-05-02T13:21:22.036Z</time></trkpt><trkpt lat="44.9006667" lon="9.5790333"><ele>167.0</ele><time>2026-05-02T13:21:23.04Z</time></trkpt><trkpt lat="44.9005867" lon="9.5790333"><ele>167.0</ele><time>2026-05-02T13:21:24.038Z</time></trkpt><trkpt lat="44.9005217" lon="9.579035"><ele>167.0</ele><time>2026-05-02T13:21:25.037Z</time></trkpt><trkpt lat="44.9003933" lon="9.578965"><ele>167.0</ele><time>2026-05-02T13:21:27.038Z</time></trkpt><trkpt lat="44.9002817" lon="9.578875"><ele>167.0</ele><time>2026-05-02T13:21:29.036Z</time></trkpt><trkpt lat="44.9001717" lon="9.5787767"><ele>167.0</ele><time>2026-05-02T13:21:31.039Z</time></trkpt><trkpt lat="44.90011" lon="9.57874"><ele>167.0</ele><time>2026-05-02T13:21:32.036Z</time></trkpt><trkpt lat="44.8999917" lon="9.578685"><ele>167.0</ele><time>2026-05-02T13:21:34.039Z</time></trkpt><trkpt lat="44.8998683" lon="9.5786867"><ele>167.0</ele><time>2026-05-02T13:21:36.038Z</time></trkpt><trkpt lat="44.89976" lon="9.5787033"><ele>167.0</ele><time>2026-05-02T13:21:38.038Z</time></trkpt><trkpt lat="44.8996967" lon="9.5787283"><ele>166.83333333333331</ele><time>2026-05-02T13:21:39.039Z</time></trkpt><trkpt lat="44.8996333" lon="9.5787183"><ele>166.66666666666666</ele><time>2026-05-02T13:21:40.037Z</time></trkpt><trkpt lat="44.8995683" lon="9.5786967"><ele>166.5</ele><time>2026-05-02T13:21:41.035Z</time></trkpt><trkpt lat="44.899495" lon="9.578665"><ele>166.33333333333334</ele><time>2026-05-02T13:21:42.039Z</time></trkpt><trkpt lat="44.8993833" lon="9.5786233"><ele>166.16666666666669</ele><time>2026-05-02T13:21:44.035Z</time></trkpt><trkpt lat="44.8993217" lon="9.5785983"><ele>166.0</ele><time>2026-05-02T13:21:45.035Z</time></trkpt><trkpt lat="44.89926" lon="9.57857"><ele>166.5</ele><time>2026-05-02T13:21:46.037Z</time></trkpt><trkpt lat="44.899195" lon="9.5785367"><ele>167.0</ele><time>2026-05-02T13:21:47.034Z</time></trkpt><trkpt lat="44.8991317" lon="9.5785033"><ele>167.5</ele><time>2026-05-02T13:21:48.034Z</time></trkpt><trkpt lat="44.8990117" lon="9.578445"><ele>168.0</ele><time>2026-05-02T13:21:50.037Z</time></trkpt><trkpt lat="44.898955" lon="9.578405"><ele>168.5</ele><time>2026-05-02T13:21:51.042Z</time></trkpt><trkpt lat="44.8988933" lon="9.5783783"><ele>169.0</ele><time>2026-05-02T13:21:52.034Z</time></trkpt><trkpt lat="44.8988267" lon="9.57835"><ele>169.0</ele><time>2026-05-02T13:21:53.034Z</time></trkpt><trkpt lat="44.8987617" lon="9.5783183"><ele>169.0</ele><time>2026-05-02T13:21:54.035Z</time></trkpt><trkpt lat="44.8986983" lon="9.5782817"><ele>169.0</ele><time>2026-05-02T13:21:55.035Z</time></trkpt><trkpt lat="44.8986333" lon="9.5782383"><ele>169.0</ele><time>2026-05-02T13:21:56.036Z</time></trkpt><trkpt lat="44.8985733" lon="9.5781967"><ele>169.0</ele><time>2026-05-02T13:21:57.038Z</time></trkpt><trkpt lat="44.8984667" lon="9.5781167"><ele>169.0</ele><time>2026-05-02T13:21:59.035Z</time></trkpt><trkpt lat="44.8984117" lon="9.5780567"><ele>169.66666666666669</ele><time>2026-05-02T13:22:00.035Z</time></trkpt><trkpt lat="44.898365" lon="9.5779917"><ele>170.33333333333334</ele><time>2026-05-02T13:22:01.038Z</time></trkpt><trkpt lat="44.8983133" lon="9.577925"><ele>171.0</ele><time>2026-05-02T13:22:02.034Z</time></trkpt><trkpt lat="44.8982583" lon="9.5778567"><ele>171.66666666666666</ele><time>2026-05-02T13:22:03.036Z</time></trkpt><trkpt lat="44.898205" lon="9.577795"><ele>172.33333333333331</ele><time>2026-05-02T13:22:04.041Z</time></trkpt><trkpt lat="44.8981117" lon="9.5776933"><ele>173.0</ele><time>2026-05-02T13:22:06.034Z</time></trkpt><trkpt lat="44.898015" lon="9.5775933"><ele>173.0</ele><time>2026-05-02T13:22:08.036Z</time></trkpt><trkpt lat="44.8979617" lon="9.5775433"><ele>173.0</ele><time>2026-05-02T13:22:09.036Z</time></trkpt><trkpt lat="44.897905" lon="9.577495"><ele>173.0</ele><time>2026-05-02T13:22:10.04Z</time></trkpt><trkpt lat="44.897805" lon="9.57741"><ele>173.0</ele><time>2026-05-02T13:22:12.032Z</time></trkpt><trkpt lat="44.8976933" lon="9.5773433"><ele>173.0</ele><time>2026-05-02T13:22:14.034Z</time></trkpt><trkpt lat="44.8976317" lon="9.57732"><ele>173.0</ele><time>2026-05-02T13:22:15.036Z</time></trkpt><trkpt lat="44.8975167" lon="9.5772717"><ele>172.0</ele><time>2026-05-02T13:22:17.034Z</time></trkpt><trkpt lat="44.8974533" lon="9.5772467"><ele>171.0</ele><time>2026-05-02T13:22:18.038Z</time></trkpt><trkpt lat="44.89739" lon="9.5772267"><ele>170.0</ele><time>2026-05-02T13:22:19.041Z</time></trkpt><trkpt lat="44.8973217" lon="9.5772083"><ele>169.0</ele><time>2026-05-02T13:22:20.037Z</time></trkpt><trkpt lat="44.8972583" lon="9.577195"><ele>168.0</ele><time>2026-05-02T13:22:21.035Z</time></trkpt><trkpt lat="44.897195" lon="9.57719"><ele>167.0</ele><time>2026-05-02T13:22:22.036Z</time></trkpt><trkpt lat="44.8971317" lon="9.57718"><ele>166.0</ele><time>2026-05-02T13:22:23.034Z</time></trkpt><trkpt lat="44.8970667" lon="9.57717"><ele>166.0</ele><time>2026-05-02T13:22:24.038Z</time></trkpt><trkpt lat="44.897" lon="9.5771633"><ele>166.0</ele><time>2026-05-02T13:22:25.035Z</time></trkpt><trkpt lat="44.89693" lon="9.5771483"><ele>166.0</ele><time>2026-05-02T13:22:26.035Z</time></trkpt><trkpt lat="44.8968633" lon="9.57712"><ele>166.0</ele><time>2026-05-02T13:22:27.04Z</time></trkpt><trkpt lat="44.8968017" lon="9.5770867"><ele>166.0</ele><time>2026-05-02T13:22:28.036Z</time></trkpt><trkpt lat="44.8966917" lon="9.5770117"><ele>166.0</ele><time>2026-05-02T13:22:30.035Z</time></trkpt><trkpt lat="44.8965767" lon="9.57694"><ele>166.33333333333334</ele><time>2026-05-02T13:22:32.034Z</time></trkpt><trkpt lat="44.8965133" lon="9.5768967"><ele>166.66666666666669</ele><time>2026-05-02T13:22:33.037Z</time></trkpt><trkpt lat="44.8964517" lon="9.576845"><ele>167.0</ele><time>2026-05-02T13:22:34.034Z</time></trkpt><trkpt lat="44.8964017" lon="9.57679"><ele>167.33333333333334</ele><time>2026-05-02T13:22:35.033Z</time></trkpt><trkpt lat="44.8963483" lon="9.5767367"><ele>167.66666666666666</ele><time>2026-05-02T13:22:36.036Z</time></trkpt><trkpt lat="44.8962533" lon="9.5766367"><ele>168.0</ele><time>2026-05-02T13:22:38.035Z</time></trkpt><trkpt lat="44.896175" lon="9.576535"><ele>168.0</ele><time>2026-05-02T13:22:40.05Z</time></trkpt><trkpt lat="44.8960783" lon="9.576445"><ele>168.0</ele><time>2026-05-02T13:22:42.036Z</time></trkpt><trkpt lat="44.89597" lon="9.576365"><ele>168.0</ele><time>2026-05-02T13:22:44.037Z</time></trkpt><trkpt lat="44.8959133" lon="9.576325"><ele>168.0</ele><time>2026-05-02T13:22:45.038Z</time></trkpt><trkpt lat="44.8958583" lon="9.57627"><ele>168.0</ele><time>2026-05-02T13:22:46.037Z</time></trkpt><trkpt lat="44.895805" lon="9.576215"><ele>168.0</ele><time>2026-05-02T13:22:47.036Z</time></trkpt><trkpt lat="44.895745" lon="9.57616"><ele>167.60000000000002</ele><time>2026-05-02T13:22:48.035Z</time></trkpt><trkpt lat="44.89569" lon="9.576105"><ele>167.20000000000002</ele><time>2026-05-02T13:22:49.037Z</time></trkpt><trkpt lat="44.895635" lon="9.5760567"><ele>166.8</ele><time>2026-05-02T13:22:50.036Z</time></trkpt><trkpt lat="44.8955317" lon="9.5759683"><ele>166.4</ele><time>2026-05-02T13:22:52.038Z</time></trkpt><trkpt lat="44.8954283" lon="9.57589"><ele>166.0</ele><time>2026-05-02T13:22:54.035Z</time></trkpt><trkpt lat="44.895325" lon="9.5757883"><ele>166.0</ele><time>2026-05-02T13:22:56.035Z</time></trkpt><trkpt lat="44.89527" lon="9.575735"><ele>166.0</ele><time>2026-05-02T13:22:57.038Z</time></trkpt><trkpt lat="44.8952167" lon="9.57568"><ele>166.0</ele><time>2026-05-02T13:22:58.036Z</time></trkpt><trkpt lat="44.8951617" lon="9.5756283"><ele>166.0</ele><time>2026-05-02T13:22:59.035Z</time></trkpt><trkpt lat="44.89511" lon="9.575575"><ele>166.0</ele><time>2026-05-02T13:23:00.035Z</time></trkpt><trkpt lat="44.89501" lon="9.57548"><ele>166.0</ele><time>2026-05-02T13:23:02.036Z</time></trkpt><trkpt lat="44.89491" lon="9.5753817"><ele>167.5</ele><time>2026-05-02T13:23:04.036Z</time></trkpt><trkpt lat="44.8948133" lon="9.5752833"><ele>169.0</ele><time>2026-05-02T13:23:06.036Z</time></trkpt><trkpt lat="44.8947133" lon="9.5751833"><ele>170.5</ele><time>2026-05-02T13:23:08.037Z</time></trkpt><trkpt lat="44.89462" lon="9.5750833"><ele>172.0</ele><time>2026-05-02T13:23:10.036Z</time></trkpt><trkpt lat="44.89452" lon="9.5750017"><ele>172.0</ele><time>2026-05-02T13:23:12.04Z</time></trkpt><trkpt lat="44.894415" lon="9.5749267"><ele>172.0</ele><time>2026-05-02T13:23:14.039Z</time></trkpt><trkpt lat="44.8943117" lon="9.5748383"><ele>172.0</ele><time>2026-05-02T13:23:16.035Z</time></trkpt><trkpt lat="44.894255" lon="9.5747883"><ele>172.0</ele><time>2026-05-02T13:23:17.037Z</time></trkpt><trkpt lat="44.8942017" lon="9.5747367"><ele>172.0</ele><time>2026-05-02T13:23:18.036Z</time></trkpt><trkpt lat="44.894145" lon="9.5746933"><ele>172.0</ele><time>2026-05-02T13:23:19.033Z</time></trkpt><trkpt lat="44.894085" lon="9.5746533"><ele>171.83333333333334</ele><time>2026-05-02T13:23:20.033Z</time></trkpt><trkpt lat="44.8940233" lon="9.5746267"><ele>171.66666666666669</ele><time>2026-05-02T13:23:21.036Z</time></trkpt><trkpt lat="44.8939583" lon="9.5745983"><ele>171.5</ele><time>2026-05-02T13:23:22.035Z</time></trkpt><trkpt lat="44.8938967" lon="9.574575"><ele>171.33333333333334</ele><time>2026-05-02T13:23:23.035Z</time></trkpt><trkpt lat="44.8937883" lon="9.5745283"><ele>171.16666666666666</ele><time>2026-05-02T13:23:25.035Z</time></trkpt><trkpt lat="44.8936867" lon="9.5744767"><ele>171.0</ele><time>2026-05-02T13:23:27.037Z</time></trkpt><trkpt lat="44.8935767" lon="9.5744167"><ele>171.4</ele><time>2026-05-02T13:23:29.035Z</time></trkpt><trkpt lat="44.8934533" lon="9.5743533"><ele>171.8</ele><time>2026-05-02T13:23:31.038Z</time></trkpt><trkpt lat="44.8933867" lon="9.57432"><ele>172.20000000000002</ele><time>2026-05-02T13:23:32.039Z</time></trkpt><trkpt lat="44.893325" lon="9.574285"><ele>172.60000000000002</ele><time>2026-05-02T13:23:33.038Z</time></trkpt><trkpt lat="44.893215" lon="9.5742067"><ele>173.0</ele><time>2026-05-02T13:23:35.038Z</time></trkpt><trkpt lat="44.8931567" lon="9.57417"><ele>173.0</ele><time>2026-05-02T13:23:36.042Z</time></trkpt><trkpt lat="44.8930933" lon="9.574135"><ele>173.0</ele><time>2026-05-02T13:23:37.037Z</time></trkpt><trkpt lat="44.8929783" lon="9.5740683"><ele>173.0</ele><time>2026-05-02T13:23:39.039Z</time></trkpt><trkpt lat="44.892885" lon="9.5739783"><ele>173.0</ele><time>2026-05-02T13:23:41.035Z</time></trkpt><trkpt lat="44.892805" lon="9.5738533"><ele>173.0</ele><time>2026-05-02T13:23:43.039Z</time></trkpt><trkpt lat="44.892715" lon="9.5737183"><ele>173.8</ele><time>2026-05-02T13:23:45.037Z</time></trkpt><trkpt lat="44.8926717" lon="9.5736533"><ele>174.60000000000002</ele><time>2026-05-02T13:23:46.034Z</time></trkpt><trkpt lat="44.892625" lon="9.57359"><ele>175.39999999999998</ele><time>2026-05-02T13:23:47.038Z</time></trkpt><trkpt lat="44.8925417" lon="9.5734717"><ele>176.2</ele><time>2026-05-02T13:23:49.036Z</time></trkpt><trkpt lat="44.8924483" lon="9.5733733"><ele>177.0</ele><time>2026-05-02T13:23:51.037Z</time></trkpt><trkpt lat="44.89235" lon="9.5732717"><ele>177.2</ele><time>2026-05-02T13:23:53.035Z</time></trkpt><trkpt lat="44.8923" lon="9.57321"><ele>177.39999999999998</ele><time>2026-05-02T13:23:54.036Z</time></trkpt><trkpt lat="44.8922467" lon="9.5731583"><ele>177.60000000000002</ele><time>2026-05-02T13:23:55.039Z</time></trkpt><trkpt lat="44.89215" lon="9.57305"><ele>177.8</ele><time>2026-05-02T13:23:57.037Z</time></trkpt><trkpt lat="44.8920533" lon="9.5729467"><ele>178.0</ele><time>2026-05-02T13:23:59.036Z</time></trkpt><trkpt lat="44.8919667" lon="9.572835"><ele>179.0</ele><time>2026-05-02T13:24:01.039Z</time></trkpt><trkpt lat="44.89189" lon="9.5727333"><ele>180.0</ele><time>2026-05-02T13:24:03.037Z</time></trkpt><trkpt lat="44.8918183" lon="9.5726083"><ele>181.0</ele><time>2026-05-02T13:24:05.035Z</time></trkpt><trkpt lat="44.8917367" lon="9.5724767"><ele>182.0</ele><time>2026-05-02T13:24:07.036Z</time></trkpt><trkpt lat="44.89169" lon="9.572415"><ele>183.0</ele><time>2026-05-02T13:24:08.035Z</time></trkpt><trkpt lat="44.8915867" lon="9.5723167"><ele>183.0</ele><time>2026-05-02T13:24:10.037Z</time></trkpt><trkpt lat="44.891535" lon="9.5722633"><ele>183.0</ele><time>2026-05-02T13:24:11.038Z</time></trkpt><trkpt lat="44.8914817" lon="9.5722133"><ele>183.0</ele><time>2026-05-02T13:24:12.034Z</time></trkpt><trkpt lat="44.891385" lon="9.5721217"><ele>183.0</ele><time>2026-05-02T13:24:14.034Z</time></trkpt><trkpt lat="44.89131" lon="9.5720117"><ele>183.0</ele><time>2026-05-02T13:24:16.037Z</time></trkpt><trkpt lat="44.8912283" lon="9.5719283"><ele>182.0</ele><time>2026-05-02T13:24:18.035Z</time></trkpt><trkpt lat="44.8911417" lon="9.571835"><ele>181.0</ele><time>2026-05-02T13:24:20.034Z</time></trkpt><trkpt lat="44.8910467" lon="9.5717433"><ele>180.0</ele><time>2026-05-02T13:24:22.034Z</time></trkpt><trkpt lat="44.890955" lon="9.5716283"><ele>179.0</ele><time>2026-05-02T13:24:24.039Z</time></trkpt><trkpt lat="44.8908717" lon="9.5715333"><ele>179.0</ele><time>2026-05-02T13:24:26.034Z</time></trkpt><trkpt lat="44.890825" lon="9.5714717"><ele>179.0</ele><time>2026-05-02T13:24:27.038Z</time></trkpt><trkpt lat="44.89073" lon="9.571375"><ele>179.0</ele><time>2026-05-02T13:24:29.034Z</time></trkpt><trkpt lat="44.8906833" lon="9.571315"><ele>179.0</ele><time>2026-05-02T13:24:30.033Z</time></trkpt><trkpt lat="44.8906017" lon="9.5711933"><ele>179.0</ele><time>2026-05-02T13:24:32.035Z</time></trkpt><trkpt lat="44.8905217" lon="9.5710983"><ele>183.75</ele><time>2026-05-02T13:24:34.035Z</time></trkpt><trkpt lat="44.8904317" lon="9.5709833"><ele>188.5</ele><time>2026-05-02T13:24:36.037Z</time></trkpt><trkpt lat="44.8903383" lon="9.5708967"><ele>193.25</ele><time>2026-05-02T13:24:38.037Z</time></trkpt><trkpt lat="44.8902433" lon="9.5708333"><ele>198.0</ele><time>2026-05-02T13:24:40.036Z</time></trkpt><trkpt lat="44.89014" lon="9.5707733"><ele>194.0</ele><time>2026-05-02T13:24:42.038Z</time></trkpt><trkpt lat="44.8900333" lon="9.570685"><ele>190.0</ele><time>2026-05-02T13:24:44.036Z</time></trkpt><trkpt lat="44.8899467" lon="9.570595"><ele>186.0</ele><time>2026-05-02T13:24:46.036Z</time></trkpt><trkpt lat="44.8898933" lon="9.5705433"><ele>182.0</ele><time>2026-05-02T13:24:47.035Z</time></trkpt><trkpt lat="44.889795" lon="9.5704433"><ele>178.0</ele><time>2026-05-02T13:24:49.033Z</time></trkpt><trkpt lat="44.8897433" lon="9.5703833"><ele>180.60000000000002</ele><time>2026-05-02T13:24:50.036Z</time></trkpt><trkpt lat="44.8896633" lon="9.5702817"><ele>183.20000000000002</ele><time>2026-05-02T13:24:52.029Z</time></trkpt><trkpt lat="44.88959" lon="9.57017"><ele>185.8</ele><time>2026-05-02T13:24:54.033Z</time></trkpt><trkpt lat="44.889555" lon="9.5700567"><ele>188.4</ele><time>2026-05-02T13:24:56.034Z</time></trkpt><trkpt lat="44.8895717" lon="9.5699"><ele>191.0</ele><time>2026-05-02T13:24:58.033Z</time></trkpt><trkpt lat="44.8896133" lon="9.56974"><ele>191.0</ele><time>2026-05-02T13:25:00.036Z</time></trkpt><trkpt lat="44.8896667" lon="9.5696067"><ele>191.0</ele><time>2026-05-02T13:25:02.039Z</time></trkpt><trkpt lat="44.88972" lon="9.56949"><ele>191.0</ele><time>2026-05-02T13:25:04.037Z</time></trkpt><trkpt lat="44.8897867" lon="9.5693917"><ele>191.0</ele><time>2026-05-02T13:25:06.035Z</time></trkpt><trkpt lat="44.8898583" lon="9.5693067"><ele>191.0</ele><time>2026-05-02T13:25:08.036Z</time></trkpt><trkpt lat="44.889915" lon="9.5692117"><ele>191.0</ele><time>2026-05-02T13:25:10.034Z</time></trkpt><trkpt lat="44.88997" lon="9.56912"><ele>191.0</ele><time>2026-05-02T13:25:12.034Z</time></trkpt><trkpt lat="44.89" lon="9.569025"><ele>191.0</ele><time>2026-05-02T13:25:14.039Z</time></trkpt><trkpt lat="44.8900033" lon="9.568915"><ele>191.0</ele><time>2026-05-02T13:25:16.036Z</time></trkpt><trkpt lat="44.89001" lon="9.5687683"><ele>191.0</ele><time>2026-05-02T13:25:18.039Z</time></trkpt><trkpt lat="44.890005" lon="9.56863"><ele>191.0</ele><time>2026-05-02T13:25:20.038Z</time></trkpt><trkpt lat="44.89001" lon="9.5684917"><ele>191.0</ele><time>2026-05-02T13:25:22.038Z</time></trkpt><trkpt lat="44.89001" lon="9.568375"><ele>191.0</ele><time>2026-05-02T13:25:24.035Z</time></trkpt><trkpt lat="44.89003" lon="9.5682467"><ele>191.0</ele><time>2026-05-02T13:25:26.038Z</time></trkpt><trkpt lat="44.8900433" lon="9.568115"><ele>191.0</ele><time>2026-05-02T13:25:28.038Z</time></trkpt><trkpt lat="44.8900633" lon="9.567985"><ele>191.0</ele><time>2026-05-02T13:25:30.036Z</time></trkpt><trkpt lat="44.8900817" lon="9.56786"><ele>192.4</ele><time>2026-05-02T13:25:32.037Z</time></trkpt><trkpt lat="44.89007" lon="9.5677367"><ele>193.8</ele><time>2026-05-02T13:25:34.035Z</time></trkpt><trkpt lat="44.89005" lon="9.5676217"><ele>195.20000000000002</ele><time>2026-05-02T13:25:36.033Z</time></trkpt><trkpt lat="44.890035" lon="9.567495"><ele>196.60000000000002</ele><time>2026-05-02T13:25:38.035Z</time></trkpt><trkpt lat="44.8900283" lon="9.5673567"><ele>198.0</ele><time>2026-05-02T13:25:40.037Z</time></trkpt><trkpt lat="44.89001" lon="9.5672167"><ele>198.0</ele><time>2026-05-02T13:25:42.036Z</time></trkpt><trkpt lat="44.890005" lon="9.5670633"><ele>198.0</ele><time>2026-05-02T13:25:44.033Z</time></trkpt><trkpt lat="44.8900117" lon="9.56693"><ele>198.0</ele><time>2026-05-02T13:25:46.034Z</time></trkpt><trkpt lat="44.8900017" lon="9.5668067"><ele>198.0</ele><time>2026-05-02T13:25:48.035Z</time></trkpt><trkpt lat="44.8899867" lon="9.5666733"><ele>198.0</ele><time>2026-05-02T13:25:50.033Z</time></trkpt><trkpt lat="44.8899917" lon="9.56654"><ele>198.60000000000002</ele><time>2026-05-02T13:25:52.038Z</time></trkpt><trkpt lat="44.88998" lon="9.56641"><ele>199.20000000000002</ele><time>2026-05-02T13:25:54.035Z</time></trkpt><trkpt lat="44.889955" lon="9.5662817"><ele>199.8</ele><time>2026-05-02T13:25:56.034Z</time></trkpt><trkpt lat="44.8899017" lon="9.5661517"><ele>200.4</ele><time>2026-05-02T13:25:58.035Z</time></trkpt><trkpt lat="44.8898317" lon="9.56606"><ele>201.0</ele><time>2026-05-02T13:26:00.036Z</time></trkpt><trkpt lat="44.8897467" lon="9.5659817"><ele>201.20000000000002</ele><time>2026-05-02T13:26:02.035Z</time></trkpt><trkpt lat="44.8896467" lon="9.5659383"><ele>201.4</ele><time>2026-05-02T13:26:04.036Z</time></trkpt><trkpt lat="44.88954" lon="9.56591"><ele>201.6</ele><time>2026-05-02T13:26:06.036Z</time></trkpt><trkpt lat="44.8894417" lon="9.5658817"><ele>201.8</ele><time>2026-05-02T13:26:08.036Z</time></trkpt><trkpt lat="44.8893517" lon="9.565845"><ele>202.0</ele><time>2026-05-02T13:26:10.03Z</time></trkpt><trkpt lat="44.889245" lon="9.56581"><ele>200.6</ele><time>2026-05-02T13:26:12.034Z</time></trkpt><trkpt lat="44.88913" lon="9.5657717"><ele>199.2</ele><time>2026-05-02T13:26:14.032Z</time></trkpt><trkpt lat="44.8890267" lon="9.565725"><ele>197.8</ele><time>2026-05-02T13:26:16.034Z</time></trkpt><trkpt lat="44.8889317" lon="9.5656967"><ele>196.4</ele><time>2026-05-02T13:26:18.034Z</time></trkpt><trkpt lat="44.8888433" lon="9.56565"><ele>195.0</ele><time>2026-05-02T13:26:20.038Z</time></trkpt><trkpt lat="44.88875" lon="9.565605"><ele>195.0</ele><time>2026-05-02T13:26:22.035Z</time></trkpt><trkpt lat="44.88867" lon="9.5655733"><ele>195.0</ele><time>2026-05-02T13:26:24.035Z</time></trkpt><trkpt lat="44.8885817" lon="9.5655267"><ele>195.0</ele><time>2026-05-02T13:26:27.037Z</time></trkpt><trkpt lat="44.8885467" lon="9.56544"><ele>195.0</ele><time>2026-05-02T13:26:30.039Z</time></trkpt><trkpt lat="44.88858" lon="9.56536"><ele>195.0</ele><time>2026-05-02T13:26:32.037Z</time></trkpt><trkpt lat="44.8886233" lon="9.565275"><ele>195.0</ele><time>2026-05-02T13:26:34.034Z</time></trkpt><trkpt lat="44.8886767" lon="9.5652"><ele>195.83333333333334</ele><time>2026-05-02T13:26:36.036Z</time></trkpt><trkpt lat="44.88871" lon="9.56512"><ele>196.66666666666669</ele><time>2026-05-02T13:26:38.035Z</time></trkpt><trkpt lat="44.8887517" lon="9.564995"><ele>197.5</ele><time>2026-05-02T13:26:41.038Z</time></trkpt><trkpt lat="44.888795" lon="9.5648917"><ele>198.33333333333334</ele><time>2026-05-02T13:26:43.036Z</time></trkpt><trkpt lat="44.8888383" lon="9.5647783"><ele>199.16666666666669</ele><time>2026-05-02T13:26:45.038Z</time></trkpt><trkpt lat="44.8888817" lon="9.5646867"><ele>200.0</ele><time>2026-05-02T13:26:47.037Z</time></trkpt><trkpt lat="44.8889217" lon="9.5646017"><ele>200.00000000000003</ele><time>2026-05-02T13:26:49.037Z</time></trkpt><trkpt lat="44.8889783" lon="9.56453"><ele>200.0</ele><time>2026-05-02T13:26:51.04Z</time></trkpt><trkpt lat="44.8890333" lon="9.5644717"><ele>200.0</ele><time>2026-05-02T13:26:53.032Z</time></trkpt><trkpt lat="44.8890917" lon="9.5644183"><ele>200.0</ele><time>2026-05-02T13:26:55.038Z</time></trkpt><trkpt lat="44.88916" lon="9.5643833"><ele>200.0</ele><time>2026-05-02T13:26:57.041Z</time></trkpt><trkpt lat="44.8892183" lon="9.5643317"><ele>200.00000000000003</ele><time>2026-05-02T13:26:59.034Z</time></trkpt><trkpt lat="44.8892867" lon="9.564285"><ele>200.0</ele><time>2026-05-02T13:27:01.039Z</time></trkpt><trkpt lat="44.8893733" lon="9.564225"><ele>202.00000000000003</ele><time>2026-05-02T13:27:04.041Z</time></trkpt><trkpt lat="44.88944" lon="9.564165"><ele>204.0</ele><time>2026-05-02T13:27:06.035Z</time></trkpt><trkpt lat="44.8894933" lon="9.5641083"><ele>206.0</ele><time>2026-05-02T13:27:08.039Z</time></trkpt><trkpt lat="44.8895517" lon="9.5640567"><ele>208.0</ele><time>2026-05-02T13:27:10.04Z</time></trkpt><trkpt lat="44.889625" lon="9.5639767"><ele>210.00000000000003</ele><time>2026-05-02T13:27:13.036Z</time></trkpt><trkpt lat="44.889685" lon="9.563895"><ele>212.0</ele><time>2026-05-02T13:27:15.041Z</time></trkpt><trkpt lat="44.8897467" lon="9.5638317"><ele>212.00000000000003</ele><time>2026-05-02T13:27:17.035Z</time></trkpt><trkpt lat="44.88981" lon="9.5637633"><ele>212.0</ele><time>2026-05-02T13:27:19.04Z</time></trkpt><trkpt lat="44.889875" lon="9.5637017"><ele>212.0</ele><time>2026-05-02T13:27:21.035Z</time></trkpt><trkpt lat="44.889935" lon="9.5636483"><ele>212.0</ele><time>2026-05-02T13:27:23.036Z</time></trkpt><trkpt lat="44.8900017" lon="9.5635933"><ele>212.00000000000003</ele><time>2026-05-02T13:27:25.038Z</time></trkpt><trkpt lat="44.89005" lon="9.5635217"><ele>212.0</ele><time>2026-05-02T13:27:27.037Z</time></trkpt><trkpt lat="44.890085" lon="9.563395"><ele>213.33333333333334</ele><time>2026-05-02T13:27:30.036Z</time></trkpt><trkpt lat="44.8900683" lon="9.5633017"><ele>214.66666666666669</ele><time>2026-05-02T13:27:32.033Z</time></trkpt><trkpt lat="44.8900067" lon="9.5632467"><ele>216.0</ele><time>2026-05-02T13:27:34.037Z</time></trkpt><trkpt lat="44.88993" lon="9.5631967"><ele>217.33333333333331</ele><time>2026-05-02T13:27:37.039Z</time></trkpt><trkpt lat="44.8898583" lon="9.563135"><ele>218.66666666666666</ele><time>2026-05-02T13:27:40.035Z</time></trkpt><trkpt lat="44.8897767" lon="9.5630967"><ele>220.0</ele><time>2026-05-02T13:27:42.041Z</time></trkpt><trkpt lat="44.8897" lon="9.5630517"><ele>219.99999999999997</ele><time>2026-05-02T13:27:44.026Z</time></trkpt><trkpt lat="44.88962" lon="9.5630217"><ele>220.0</ele><time>2026-05-02T13:27:46.028Z</time></trkpt><trkpt lat="44.889545" lon="9.562995"><ele>220.0</ele><time>2026-05-02T13:27:48.037Z</time></trkpt><trkpt lat="44.8894717" lon="9.56298"><ele>220.0</ele><time>2026-05-02T13:27:50.033Z</time></trkpt><trkpt lat="44.8894" lon="9.5629617"><ele>219.99999999999997</ele><time>2026-05-02T13:27:52.037Z</time></trkpt><trkpt lat="44.8893283" lon="9.5629283"><ele>220.0</ele><time>2026-05-02T13:27:54.037Z</time></trkpt><trkpt lat="44.8892383" lon="9.5628817"><ele>221.83333333333331</ele><time>2026-05-02T13:27:56.036Z</time></trkpt><trkpt lat="44.889165" lon="9.5628267"><ele>223.66666666666666</ele><time>2026-05-02T13:27:58.035Z</time></trkpt><trkpt lat="44.88911" lon="9.562765"><ele>225.5</ele><time>2026-05-02T13:28:00.036Z</time></trkpt><trkpt lat="44.8890567" lon="9.56271"><ele>227.33333333333331</ele><time>2026-05-02T13:28:02.035Z</time></trkpt><trkpt lat="44.8890117" lon="9.5626267"><ele>229.16666666666666</ele><time>2026-05-02T13:28:04.026Z</time></trkpt><trkpt lat="44.88895" lon="9.56254"><ele>231.0</ele><time>2026-05-02T13:28:07.039Z</time></trkpt><trkpt lat="44.888905" lon="9.56243"><ele>231.0</ele><time>2026-05-02T13:28:10.035Z</time></trkpt><trkpt lat="44.8889117" lon="9.56234"><ele>231.0</ele><time>2026-05-02T13:28:12.033Z</time></trkpt><trkpt lat="44.8889383" lon="9.5622333"><ele>231.0</ele><time>2026-05-02T13:28:15.033Z</time></trkpt><trkpt lat="44.8889667" lon="9.5621367"><ele>231.0</ele><time>2026-05-02T13:28:18.032Z</time></trkpt><trkpt lat="44.88902" lon="9.562075"><ele>231.0</ele><time>2026-05-02T13:28:22.034Z</time></trkpt><trkpt lat="44.8890117" lon="9.5621917"><ele>231.0</ele><time>2026-05-02T13:28:28.036Z</time></trkpt><trkpt lat="44.88904" lon="9.5622917"><ele>231.0</ele><time>2026-05-02T13:28:31.036Z</time></trkpt><trkpt lat="44.8891017" lon="9.5623767"><ele>231.0</ele><time>2026-05-02T13:28:33.036Z</time></trkpt><trkpt lat="44.8891717" lon="9.562435"><ele>231.0</ele><time>2026-05-02T13:28:35.038Z</time></trkpt><trkpt lat="44.88925" lon="9.5624783"><ele>231.0</ele><time>2026-05-02T13:28:37.039Z</time></trkpt><trkpt lat="44.8893183" lon="9.5625183"><ele>231.0</ele><time>2026-05-02T13:28:39.032Z</time></trkpt><trkpt lat="44.8893833" lon="9.5625717"><ele>231.0</ele><time>2026-05-02T13:28:41.037Z</time></trkpt><trkpt lat="44.8894467" lon="9.5625883"><ele>231.0</ele><time>2026-05-02T13:28:43.038Z</time></trkpt><trkpt lat="44.8895233" lon="9.56259"><ele>231.66666666666666</ele><time>2026-05-02T13:28:45.04Z</time></trkpt><trkpt lat="44.8896" lon="9.5625733"><ele>232.33333333333331</ele><time>2026-05-02T13:28:47.035Z</time></trkpt><trkpt lat="44.88968" lon="9.5625117"><ele>233.0</ele><time>2026-05-02T13:28:50.037Z</time></trkpt><trkpt lat="44.8897367" lon="9.5624367"><ele>233.66666666666666</ele><time>2026-05-02T13:28:52.036Z</time></trkpt><trkpt lat="44.88978" lon="9.562355"><ele>234.33333333333331</ele><time>2026-05-02T13:28:54.034Z</time></trkpt><trkpt lat="44.88982" lon="9.562245"><ele>235.0</ele><time>2026-05-02T13:28:57.039Z</time></trkpt><trkpt lat="44.8898283" lon="9.562115"><ele>237.83333333333331</ele><time>2026-05-02T13:29:00.039Z</time></trkpt><trkpt lat="44.8898133" lon="9.5620117"><ele>240.66666666666666</ele><time>2026-05-02T13:29:02.037Z</time></trkpt><trkpt lat="44.88978" lon="9.5619"><ele>243.5</ele><time>2026-05-02T13:29:05.037Z</time></trkpt><trkpt lat="44.88973" lon="9.5617967"><ele>246.33333333333331</ele><time>2026-05-02T13:29:08.035Z</time></trkpt><trkpt lat="44.8896783" lon="9.5616967"><ele>249.16666666666666</ele><time>2026-05-02T13:29:11.034Z</time></trkpt><trkpt lat="44.8896417" lon="9.5616083"><ele>252.0</ele><time>2026-05-02T13:29:13.035Z</time></trkpt><trkpt lat="44.8896117" lon="9.5615033"><ele>252.0</ele><time>2026-05-02T13:29:15.038Z</time></trkpt><trkpt lat="44.889595" lon="9.5613983"><ele>252.0</ele><time>2026-05-02T13:29:17.034Z</time></trkpt><trkpt lat="44.8895633" lon="9.56131"><ele>252.0</ele><time>2026-05-02T13:29:19.038Z</time></trkpt><trkpt lat="44.8895033" lon="9.5612217"><ele>252.0</ele><time>2026-05-02T13:29:22.038Z</time></trkpt><trkpt lat="44.8894333" lon="9.5612183"><ele>252.0</ele><time>2026-05-02T13:29:25.037Z</time></trkpt><trkpt lat="44.88937" lon="9.5612417"><ele>252.0</ele><time>2026-05-02T13:29:28.035Z</time></trkpt><trkpt lat="44.8893067" lon="9.5612517"><ele>252.0</ele><time>2026-05-02T13:29:31.034Z</time></trkpt><trkpt lat="44.889235" lon="9.5612483"><ele>251.0</ele><time>2026-05-02T13:29:34.038Z</time></trkpt><trkpt lat="44.8891733" lon="9.5612017"><ele>250.0</ele><time>2026-05-02T13:29:36.039Z</time></trkpt><trkpt lat="44.8891083" lon="9.5611417"><ele>249.0</ele><time>2026-05-02T13:29:39.036Z</time></trkpt><trkpt lat="44.8891833" lon="9.5611883"><ele>248.0</ele><time>2026-05-02T13:29:49.038Z</time></trkpt><trkpt lat="44.889255" lon="9.5611983"><ele>247.0</ele><time>2026-05-02T13:29:52.035Z</time></trkpt><trkpt lat="44.8893367" lon="9.5611667"><ele>246.0</ele><time>2026-05-02T13:29:55.034Z</time></trkpt><trkpt lat="44.889405" lon="9.5611283"><ele>250.28571428571433</ele><time>2026-05-02T13:29:57.042Z</time></trkpt><trkpt lat="44.8894733" lon="9.561105"><ele>254.57142857142858</ele><time>2026-05-02T13:29:59.036Z</time></trkpt><trkpt lat="44.889535" lon="9.561075"><ele>258.8571428571429</ele><time>2026-05-02T13:30:01.039Z</time></trkpt><trkpt lat="44.8896033" lon="9.5610583"><ele>263.14285714285717</ele><time>2026-05-02T13:30:03.034Z</time></trkpt><trkpt lat="44.8896717" lon="9.56105"><ele>267.42857142857144</ele><time>2026-05-02T13:30:05.037Z</time></trkpt><trkpt lat="44.8897517" lon="9.5610633"><ele>271.7142857142857</ele><time>2026-05-02T13:30:08.04Z</time></trkpt><trkpt lat="44.889845" lon="9.56108"><ele>276.0</ele><time>2026-05-02T13:30:11.032Z</time></trkpt><trkpt lat="44.8899317" lon="9.5610867"><ele>276.0</ele><time>2026-05-02T13:30:14.037Z</time></trkpt><trkpt lat="44.8900067" lon="9.561095"><ele>276.0</ele><time>2026-05-02T13:30:17.037Z</time></trkpt><trkpt lat="44.8900917" lon="9.5611067"><ele>276.0</ele><time>2026-05-02T13:30:20.034Z</time></trkpt><trkpt lat="44.8901567" lon="9.561125"><ele>276.0</ele><time>2026-05-02T13:30:22.037Z</time></trkpt><trkpt lat="44.89024" lon="9.561145"><ele>276.0</ele><time>2026-05-02T13:30:24.033Z</time></trkpt><trkpt lat="44.8903183" lon="9.5611617"><ele>276.0</ele><time>2026-05-02T13:30:26.041Z</time></trkpt><trkpt lat="44.8904067" lon="9.5611683"><ele>276.6666666666667</ele><time>2026-05-02T13:30:29.036Z</time></trkpt><trkpt lat="44.89051" lon="9.5611333"><ele>277.3333333333333</ele><time>2026-05-02T13:30:32.038Z</time></trkpt><trkpt lat="44.890585" lon="9.561095"><ele>278.0</ele><time>2026-05-02T13:30:34.04Z</time></trkpt><trkpt lat="44.8906483" lon="9.5610467"><ele>278.66666666666663</ele><time>2026-05-02T13:30:36.035Z</time></trkpt><trkpt lat="44.890695" lon="9.5609817"><ele>279.3333333333333</ele><time>2026-05-02T13:30:38.039Z</time></trkpt><trkpt lat="44.8907517" lon="9.5608767"><ele>280.0</ele><time>2026-05-02T13:30:41.034Z</time></trkpt><trkpt lat="44.890805" lon="9.5608017"><ele>280.0</ele><time>2026-05-02T13:30:43.037Z</time></trkpt><trkpt lat="44.8908667" lon="9.560745"><ele>280.0</ele><time>2026-05-02T13:30:45.035Z</time></trkpt><trkpt lat="44.8909317" lon="9.5607"><ele>280.0</ele><time>2026-05-02T13:30:47.037Z</time></trkpt><trkpt lat="44.890995" lon="9.560665"><ele>280.0</ele><time>2026-05-02T13:30:49.037Z</time></trkpt><trkpt lat="44.89109" lon="9.5606417"><ele>280.0</ele><time>2026-05-02T13:30:52.034Z</time></trkpt><trkpt lat="44.8911683" lon="9.5606"><ele>280.0</ele><time>2026-05-02T13:30:54.033Z</time></trkpt><trkpt lat="44.8912433" lon="9.5605883"><ele>281.5</ele><time>2026-05-02T13:30:56.035Z</time></trkpt><trkpt lat="44.89131" lon="9.560575"><ele>283.0</ele><time>2026-05-02T13:30:58.037Z</time></trkpt><trkpt lat="44.8914017" lon="9.5606117"><ele>284.5</ele><time>2026-05-02T13:31:01.035Z</time></trkpt><trkpt lat="44.8914667" lon="9.56064"><ele>286.0</ele><time>2026-05-02T13:31:03.037Z</time></trkpt><trkpt lat="44.89152" lon="9.560695"><ele>287.5</ele><time>2026-05-02T13:31:05.035Z</time></trkpt><trkpt lat="44.8915683" lon="9.5607633"><ele>289.0</ele><time>2026-05-02T13:31:07.038Z</time></trkpt><trkpt lat="44.8916083" lon="9.5608717"><ele>289.0</ele><time>2026-05-02T13:31:10.034Z</time></trkpt><trkpt lat="44.8916383" lon="9.56095"><ele>289.0</ele><time>2026-05-02T13:31:13.037Z</time></trkpt><trkpt lat="44.8917033" lon="9.5609817"><ele>289.0</ele><time>2026-05-02T13:32:26.038Z</time></trkpt><trkpt lat="44.89178" lon="9.5609933"><ele>289.0</ele><time>2026-05-02T13:32:29.036Z</time></trkpt><trkpt lat="44.89183" lon="9.5609033"><ele>289.0</ele><time>2026-05-02T13:32:32.036Z</time></trkpt><trkpt lat="44.8918383" lon="9.5607883"><ele>289.0</ele><time>2026-05-02T13:32:35.037Z</time></trkpt><trkpt lat="44.8918517" lon="9.56069"><ele>289.0</ele><time>2026-05-02T13:32:38.037Z</time></trkpt><trkpt lat="44.89185" lon="9.56059"><ele>292.16666666666663</ele><time>2026-05-02T13:32:41.036Z</time></trkpt><trkpt lat="44.8918117" lon="9.5604933"><ele>295.3333333333333</ele><time>2026-05-02T13:32:44.037Z</time></trkpt><trkpt lat="44.8917583" lon="9.5604017"><ele>298.5</ele><time>2026-05-02T13:32:47.034Z</time></trkpt><trkpt lat="44.8916967" lon="9.56032"><ele>301.6666666666667</ele><time>2026-05-02T13:32:50.036Z</time></trkpt><trkpt lat="44.8916483" lon="9.5602367"><ele>304.83333333333337</ele><time>2026-05-02T13:32:53.04Z</time></trkpt><trkpt lat="44.8916067" lon="9.5601417"><ele>308.0</ele><time>2026-05-02T13:32:56.036Z</time></trkpt><trkpt lat="44.891565" lon="9.56003"><ele>308.33333333333337</ele><time>2026-05-02T13:32:59.036Z</time></trkpt><trkpt lat="44.89152" lon="9.5599533"><ele>308.6666666666667</ele><time>2026-05-02T13:33:02.038Z</time></trkpt><trkpt lat="44.89146" lon="9.5598867"><ele>309.0</ele><time>2026-05-02T13:33:05.037Z</time></trkpt><trkpt lat="44.89139" lon="9.559835"><ele>309.3333333333333</ele><time>2026-05-02T13:33:08.036Z</time></trkpt><trkpt lat="44.891325" lon="9.5597867"><ele>309.66666666666663</ele><time>2026-05-02T13:33:11.04Z</time></trkpt><trkpt lat="44.89125" lon="9.5597617"><ele>310.0</ele><time>2026-05-02T13:33:14.034Z</time></trkpt><trkpt lat="44.8911733" lon="9.559785"><ele>310.0</ele><time>2026-05-02T13:33:16.035Z</time></trkpt><trkpt lat="44.8911067" lon="9.55982"><ele>310.0</ele><time>2026-05-02T13:33:18.035Z</time></trkpt><trkpt lat="44.8910383" lon="9.5598867"><ele>310.0</ele><time>2026-05-02T13:33:21.037Z</time></trkpt><trkpt lat="44.8909667" lon="9.5599517"><ele>310.0</ele><time>2026-05-02T13:33:24.038Z</time></trkpt><trkpt lat="44.89089" lon="9.56"><ele>310.0</ele><time>2026-05-02T13:33:27.036Z</time></trkpt><trkpt lat="44.890815" lon="9.5600283"><ele>310.0</ele><time>2026-05-02T13:33:30.038Z</time></trkpt><trkpt lat="44.89075" lon="9.56004"><ele>309.14285714285717</ele><time>2026-05-02T13:33:33.043Z</time></trkpt><trkpt lat="44.890685" lon="9.560035"><ele>308.2857142857143</ele><time>2026-05-02T13:33:36.036Z</time></trkpt><trkpt lat="44.89062" lon="9.5599983"><ele>307.42857142857144</ele><time>2026-05-02T13:33:39.035Z</time></trkpt><trkpt lat="44.890565" lon="9.5599533"><ele>306.57142857142856</ele><time>2026-05-02T13:33:41.034Z</time></trkpt><trkpt lat="44.8905067" lon="9.5598983"><ele>305.7142857142857</ele><time>2026-05-02T13:33:43.04Z</time></trkpt><trkpt lat="44.8904333" lon="9.5598367"><ele>304.85714285714283</ele><time>2026-05-02T13:33:46.037Z</time></trkpt><trkpt lat="44.8903683" lon="9.5597567"><ele>304.0</ele><time>2026-05-02T13:33:49.043Z</time></trkpt><trkpt lat="44.89031" lon="9.559695"><ele>304.0</ele><time>2026-05-02T13:33:53.038Z</time></trkpt><trkpt lat="44.89023" lon="9.5596533"><ele>304.0</ele><time>2026-05-02T13:33:57.038Z</time></trkpt><trkpt lat="44.8901417" lon="9.5596233"><ele>304.0</ele><time>2026-05-02T13:34:00.037Z</time></trkpt><trkpt lat="44.8900383" lon="9.559585"><ele>304.0</ele><time>2026-05-02T13:34:03.037Z</time></trkpt><trkpt lat="44.8899633" lon="9.559535"><ele>304.0</ele><time>2026-05-02T13:34:07.038Z</time></trkpt><trkpt lat="44.8898833" lon="9.5595017"><ele>304.0</ele><time>2026-05-02T13:34:11.036Z</time></trkpt><trkpt lat="44.8898" lon="9.5594917"><ele>308.16666666666663</ele><time>2026-05-02T13:34:14.039Z</time></trkpt><trkpt lat="44.889715" lon="9.5594983"><ele>312.3333333333333</ele><time>2026-05-02T13:34:17.033Z</time></trkpt><trkpt lat="44.8896433" lon="9.5594967"><ele>316.5</ele><time>2026-05-02T13:34:19.039Z</time></trkpt><trkpt lat="44.889555" lon="9.559485"><ele>320.6666666666667</ele><time>2026-05-02T13:34:21.039Z</time></trkpt><trkpt lat="44.8894733" lon="9.5594467"><ele>324.83333333333337</ele><time>2026-05-02T13:34:24.035Z</time></trkpt><trkpt lat="44.889405" lon="9.5594"><ele>329.0</ele><time>2026-05-02T13:34:27.04Z</time></trkpt><trkpt lat="44.88932" lon="9.55936"><ele>329.33333333333337</ele><time>2026-05-02T13:34:30.038Z</time></trkpt><trkpt lat="44.8892483" lon="9.5593433"><ele>329.6666666666667</ele><time>2026-05-02T13:34:32.034Z</time></trkpt><trkpt lat="44.8891717" lon="9.55933"><ele>330.0</ele><time>2026-05-02T13:34:35.037Z</time></trkpt><trkpt lat="44.889075" lon="9.5593133"><ele>330.3333333333333</ele><time>2026-05-02T13:34:38.04Z</time></trkpt><trkpt lat="44.88901" lon="9.5592867"><ele>330.66666666666663</ele><time>2026-05-02T13:34:40.037Z</time></trkpt><trkpt lat="44.8889467" lon="9.5592483"><ele>331.0</ele><time>2026-05-02T13:34:42.037Z</time></trkpt><trkpt lat="44.8888683" lon="9.5591833"><ele>331.0</ele><time>2026-05-02T13:34:45.039Z</time></trkpt><trkpt lat="44.8888133" lon="9.5591317"><ele>331.0</ele><time>2026-05-02T13:34:47.034Z</time></trkpt><trkpt lat="44.8887367" lon="9.559065"><ele>331.0</ele><time>2026-05-02T13:34:50.036Z</time></trkpt><trkpt lat="44.88865" lon="9.5590333"><ele>331.0</ele><time>2026-05-02T13:34:53.034Z</time></trkpt><trkpt lat="44.888565" lon="9.559035"><ele>331.0</ele><time>2026-05-02T13:34:56.038Z</time></trkpt><trkpt lat="44.888485" lon="9.5590567"><ele>331.0</ele><time>2026-05-02T13:34:59.038Z</time></trkpt><trkpt lat="44.8883983" lon="9.5590717"><ele>331.14285714285717</ele><time>2026-05-02T13:35:02.036Z</time></trkpt><trkpt lat="44.888315" lon="9.5590667"><ele>331.2857142857143</ele><time>2026-05-02T13:35:04.034Z</time></trkpt><trkpt lat="44.8882483" lon="9.5590617"><ele>331.42857142857144</ele><time>2026-05-02T13:35:06.038Z</time></trkpt><trkpt lat="44.888185" lon="9.5590633"><ele>331.57142857142856</ele><time>2026-05-02T13:35:08.035Z</time></trkpt><trkpt lat="44.8881183" lon="9.5590633"><ele>331.7142857142857</ele><time>2026-05-02T13:35:10.038Z</time></trkpt><trkpt lat="44.88803" lon="9.5590533"><ele>331.85714285714283</ele><time>2026-05-02T13:35:13.033Z</time></trkpt><trkpt lat="44.8879567" lon="9.55904"><ele>332.0</ele><time>2026-05-02T13:35:16.038Z</time></trkpt><trkpt lat="44.8878817" lon="9.559025"><ele>332.0</ele><time>2026-05-02T13:35:18.033Z</time></trkpt><trkpt lat="44.8878067" lon="9.5590083"><ele>332.0</ele><time>2026-05-02T13:35:21.043Z</time></trkpt><trkpt lat="44.8877217" lon="9.5590083"><ele>332.0</ele><time>2026-05-02T13:35:24.037Z</time></trkpt><trkpt lat="44.8876533" lon="9.5590083"><ele>332.0</ele><time>2026-05-02T13:35:27.039Z</time></trkpt><trkpt lat="44.8875683" lon="9.5590233"><ele>332.0</ele><time>2026-05-02T13:35:30.038Z</time></trkpt><trkpt lat="44.8875" lon="9.5590417"><ele>332.0</ele><time>2026-05-02T13:35:32.033Z</time></trkpt><trkpt lat="44.8874317" lon="9.5590667"><ele>332.0</ele><time>2026-05-02T13:35:34.031Z</time></trkpt><trkpt lat="44.8873533" lon="9.5590667"><ele>332.0</ele><time>2026-05-02T13:35:36.037Z</time></trkpt><trkpt lat="44.8872883" lon="9.5590517"><ele>332.0</ele><time>2026-05-02T13:35:38.033Z</time></trkpt><trkpt lat="44.8872067" lon="9.559015"><ele>332.0</ele><time>2026-05-02T13:35:40.036Z</time></trkpt><trkpt lat="44.887145" lon="9.55898"><ele>332.0</ele><time>2026-05-02T13:35:42.031Z</time></trkpt><trkpt lat="44.8870683" lon="9.55893"><ele>332.0</ele><time>2026-05-02T13:35:45.038Z</time></trkpt><trkpt lat="44.8869933" lon="9.5588767"><ele>332.0</ele><time>2026-05-02T13:35:48.035Z</time></trkpt><trkpt lat="44.88693" lon="9.558835"><ele>332.0</ele><time>2026-05-02T13:35:51.036Z</time></trkpt><trkpt lat="44.8868517" lon="9.5588217"><ele>332.0</ele><time>2026-05-02T13:35:54.037Z</time></trkpt><trkpt lat="44.88676" lon="9.55885"><ele>332.0</ele><time>2026-05-02T13:35:57.04Z</time></trkpt><trkpt lat="44.8866717" lon="9.5588583"><ele>332.0</ele><time>2026-05-02T13:36:00.038Z</time></trkpt><trkpt lat="44.8865933" lon="9.5588567"><ele>332.0</ele><time>2026-05-02T13:36:03.036Z</time></trkpt><trkpt lat="44.88653" lon="9.558845"><ele>332.85714285714283</ele><time>2026-05-02T13:36:05.032Z</time></trkpt><trkpt lat="44.8864683" lon="9.5588183"><ele>333.7142857142857</ele><time>2026-05-02T13:36:07.037Z</time></trkpt><trkpt lat="44.8864083" lon="9.5587767"><ele>334.57142857142856</ele><time>2026-05-02T13:36:09.04Z</time></trkpt><trkpt lat="44.88635" lon="9.5587283"><ele>335.42857142857144</ele><time>2026-05-02T13:36:11.037Z</time></trkpt><trkpt lat="44.8862767" lon="9.5586617"><ele>336.2857142857143</ele><time>2026-05-02T13:36:14.039Z</time></trkpt><trkpt lat="44.886215" lon="9.5586067"><ele>337.14285714285717</ele><time>2026-05-02T13:36:16.037Z</time></trkpt><trkpt lat="44.8861517" lon="9.55858"><ele>338.0</ele><time>2026-05-02T13:36:19.04Z</time></trkpt><trkpt lat="44.8862233" lon="9.5585617"><ele>342.83333333333337</ele><time>2026-05-02T13:36:35.036Z</time></trkpt><trkpt lat="44.886275" lon="9.558475"><ele>347.6666666666667</ele><time>2026-05-02T13:36:39.035Z</time></trkpt><trkpt lat="44.88633" lon="9.5584017"><ele>352.5</ele><time>2026-05-02T13:36:42.036Z</time></trkpt><trkpt lat="44.8863883" lon="9.5583533"><ele>357.3333333333333</ele><time>2026-05-02T13:36:45.035Z</time></trkpt><trkpt lat="44.8864567" lon="9.558285"><ele>362.16666666666663</ele><time>2026-05-02T13:36:48.038Z</time></trkpt><trkpt lat="44.8865233" lon="9.55823"><ele>367.0</ele><time>2026-05-02T13:36:51.041Z</time></trkpt><trkpt lat="44.8865817" lon="9.5581717"><ele>367.0</ele><time>2026-05-02T13:36:54.039Z</time></trkpt><trkpt lat="44.8866333" lon="9.5581183"><ele>367.0</ele><time>2026-05-02T13:36:57.039Z</time></trkpt><trkpt lat="44.8866933" lon="9.5580833"><ele>367.0</ele><time>2026-05-02T13:37:00.035Z</time></trkpt><trkpt lat="44.8867767" lon="9.55806"><ele>367.0</ele><time>2026-05-02T13:37:03.04Z</time></trkpt><trkpt lat="44.8868533" lon="9.558055"><ele>367.0</ele><time>2026-05-02T13:37:05.035Z</time></trkpt><trkpt lat="44.8869183" lon="9.5580317"><ele>367.0</ele><time>2026-05-02T13:37:07.036Z</time></trkpt><trkpt lat="44.8869733" lon="9.5579767"><ele>367.0</ele><time>2026-05-02T13:37:09.037Z</time></trkpt><trkpt lat="44.8870133" lon="9.557865"><ele>367.0</ele><time>2026-05-02T13:37:11.035Z</time></trkpt><trkpt lat="44.887025" lon="9.55775"><ele>367.0</ele><time>2026-05-02T13:37:13.036Z</time></trkpt><trkpt lat="44.8869817" lon="9.5576833"><ele>367.0</ele><time>2026-05-02T13:37:16.034Z</time></trkpt><trkpt lat="44.88691" lon="9.5576667"><ele>367.0</ele><time>2026-05-02T13:37:21.035Z</time></trkpt><trkpt lat="44.8868317" lon="9.5577117"><ele>367.0</ele><time>2026-05-02T13:37:25.039Z</time></trkpt><trkpt lat="44.88677" lon="9.5577717"><ele>367.0</ele><time>2026-05-02T13:37:28.037Z</time></trkpt><trkpt lat="44.88672" lon="9.5578283"><ele>367.0</ele><time>2026-05-02T13:37:31.039Z</time></trkpt><trkpt lat="44.8866533" lon="9.5578933"><ele>367.0</ele><time>2026-05-02T13:37:35.037Z</time></trkpt><trkpt lat="44.8865933" lon="9.5579233"><ele>367.0</ele><time>2026-05-02T13:37:38.035Z</time></trkpt><trkpt lat="44.886515" lon="9.5579733"><ele>367.0</ele><time>2026-05-02T13:37:41.033Z</time></trkpt><trkpt lat="44.886455" lon="9.5580083"><ele>367.0</ele><time>2026-05-02T13:37:43.035Z</time></trkpt><trkpt lat="44.88636" lon="9.5580233"><ele>367.0</ele><time>2026-05-02T13:37:46.032Z</time></trkpt><trkpt lat="44.8862967" lon="9.5580217"><ele>367.0</ele><time>2026-05-02T13:37:48.037Z</time></trkpt><trkpt lat="44.8862083" lon="9.55795"><ele>367.0</ele><time>2026-05-02T13:37:51.038Z</time></trkpt><trkpt lat="44.88613" lon="9.5578717"><ele>367.0</ele><time>2026-05-02T13:37:53.031Z</time></trkpt><trkpt lat="44.8860617" lon="9.557775"><ele>367.0</ele><time>2026-05-02T13:37:55.037Z</time></trkpt><trkpt lat="44.8859933" lon="9.5576883"><ele>367.0</ele><time>2026-05-02T13:37:57.037Z</time></trkpt><trkpt lat="44.885925" lon="9.5576083"><ele>367.0</ele><time>2026-05-02T13:37:59.037Z</time></trkpt><trkpt lat="44.885865" lon="9.557525"><ele>367.0</ele><time>2026-05-02T13:38:01.037Z</time></trkpt><trkpt lat="44.885795" lon="9.55743"><ele>367.0</ele><time>2026-05-02T13:38:03.036Z</time></trkpt><trkpt lat="44.8857333" lon="9.5573367"><ele>367.0</ele><time>2026-05-02T13:38:05.035Z</time></trkpt><trkpt lat="44.885655" lon="9.5572617"><ele>367.0</ele><time>2026-05-02T13:38:07.04Z</time></trkpt><trkpt lat="44.8865933" lon="9.5579233"><ele>367.0</ele><time>2026-05-02T13:37:38.035Z</time></trkpt><trkpt lat="44.886515" lon="9.5579733"><ele>367.0</ele><time>2026-05-02T13:37:41.033Z</time></trkpt><trkpt lat="44.886455" lon="9.5580083"><ele>367.0</ele><time>2026-05-02T13:37:43.035Z</time></trkpt><trkpt lat="44.88636" lon="9.5580233"><ele>367.0</ele><time>2026-05-02T13:37:46.032Z</time></trkpt><trkpt lat="44.8862967" lon="9.5580217"><ele>367.0</ele><time>2026-05-02T13:37:48.037Z</time></trkpt><trkpt lat="44.8862083" lon="9.55795"><ele>367.0</ele><time>2026-05-02T13:37:51.038Z</time></trkpt><trkpt lat="44.88613" lon="9.5578717"><ele>371.6</ele><time>2026-05-02T13:37:53.031Z</time></trkpt><trkpt lat="44.8860617" lon="9.557775"><ele>376.20000000000005</ele><time>2026-05-02T13:37:55.037Z</time></trkpt><trkpt lat="44.8859933" lon="9.5576883"><ele>380.8</ele><time>2026-05-02T13:37:57.037Z</time></trkpt><trkpt lat="44.885925" lon="9.5576083"><ele>385.4</ele><time>2026-05-02T13:37:59.037Z</time></trkpt><trkpt lat="44.885865" lon="9.557525"><ele>390.0</ele><time>2026-05-02T13:38:01.037Z</time></trkpt><trkpt lat="44.885795" lon="9.55743"><ele>390.0</ele><time>2026-05-02T13:38:03.036Z</time></trkpt><trkpt lat="44.8857333" lon="9.5573367"><ele>390.0</ele><time>2026-05-02T13:38:05.035Z</time></trkpt><trkpt lat="44.885655" lon="9.5572617"><ele>390.0</ele><time>2026-05-02T13:38:07.04Z</time></trkpt><trkpt lat="44.8855817" lon="9.557205"><ele>390.0</ele><time>2026-05-02T13:38:09.037Z</time></trkpt><trkpt lat="44.88553" lon="9.557145"><ele>390.0</ele><time>2026-05-02T13:38:11.037Z</time></trkpt><trkpt lat="44.885485" lon="9.5570517"><ele>390.0</ele><time>2026-05-02T13:38:13.036Z</time></trkpt><trkpt lat="44.8854633" lon="9.556955"><ele>394.0</ele><time>2026-05-02T13:38:15.038Z</time></trkpt><trkpt lat="44.8854233" lon="9.5568617"><ele>398.0</ele><time>2026-05-02T13:38:17.038Z</time></trkpt><trkpt lat="44.8854033" lon="9.5567633"><ele>402.0</ele><time>2026-05-02T13:38:19.037Z</time></trkpt><trkpt lat="44.8854117" lon="9.556655"><ele>406.0</ele><time>2026-05-02T13:38:22.038Z</time></trkpt><trkpt lat="44.885435" lon="9.55654"><ele>410.0</ele><time>2026-05-02T13:38:26.037Z</time></trkpt><trkpt lat="44.88541" lon="9.5564333"><ele>414.0</ele><time>2026-05-02T13:38:30.034Z</time></trkpt><trkpt lat="44.88535" lon="9.5563483"><ele>414.0</ele><time>2026-05-02T13:38:33.033Z</time></trkpt><trkpt lat="44.88528" lon="9.5562783"><ele>414.0</ele><time>2026-05-02T13:38:36.038Z</time></trkpt><trkpt lat="44.885215" lon="9.5562067"><ele>414.0</ele><time>2026-05-02T13:38:39.038Z</time></trkpt><trkpt lat="44.8851617" lon="9.5561433"><ele>414.0</ele><time>2026-05-02T13:38:42.036Z</time></trkpt><trkpt lat="44.8851067" lon="9.5560617"><ele>414.0</ele><time>2026-05-02T13:38:45.038Z</time></trkpt><trkpt lat="44.8850567" lon="9.555985"><ele>414.0</ele><time>2026-05-02T13:38:48.035Z</time></trkpt><trkpt lat="44.8849983" lon="9.5557833"><ele>415.3333333333333</ele><time>2026-05-02T13:38:51.041Z</time></trkpt><trkpt lat="44.8849733" lon="9.555685"><ele>416.66666666666663</ele><time>2026-05-02T13:38:53.035Z</time></trkpt><trkpt lat="44.8849233" lon="9.5556067"><ele>418.0</ele><time>2026-05-02T13:38:55.038Z</time></trkpt><trkpt lat="44.8848617" lon="9.55551"><ele>419.3333333333333</ele><time>2026-05-02T13:38:57.036Z</time></trkpt><trkpt lat="44.88481" lon="9.5554333"><ele>420.66666666666663</ele><time>2026-05-02T13:38:59.035Z</time></trkpt><trkpt lat="44.884755" lon="9.5553433"><ele>422.0</ele><time>2026-05-02T13:39:01.041Z</time></trkpt><trkpt lat="44.8847083" lon="9.5552617"><ele>421.99999999999994</ele><time>2026-05-02T13:39:03.037Z</time></trkpt><trkpt lat="44.8846683" lon="9.555185"><ele>422.0</ele><time>2026-05-02T13:39:05.037Z</time></trkpt><trkpt lat="44.8846017" lon="9.5551067"><ele>422.0</ele><time>2026-05-02T13:39:07.031Z</time></trkpt><trkpt lat="44.88455" lon="9.555005"><ele>422.0</ele><time>2026-05-02T13:39:09.038Z</time></trkpt><trkpt lat="44.8845417" lon="9.554895"><ele>421.99999999999994</ele><time>2026-05-02T13:39:12.039Z</time></trkpt><trkpt lat="44.884565" lon="9.5547733"><ele>422.0</ele><time>2026-05-02T13:39:15.04Z</time></trkpt><trkpt lat="44.8845933" lon="9.55464"><ele>422.0</ele><time>2026-05-02T13:39:17.039Z</time></trkpt><trkpt lat="44.884635" lon="9.5545717"><ele>422.0</ele><time>2026-05-02T13:39:20.041Z</time></trkpt><trkpt lat="44.8846933" lon="9.5545017"><ele>422.0</ele><time>2026-05-02T13:39:23.035Z</time></trkpt><trkpt lat="44.88474" lon="9.5544367"><ele>422.0</ele><time>2026-05-02T13:39:25.038Z</time></trkpt><trkpt lat="44.88478" lon="9.554345"><ele>422.0</ele><time>2026-05-02T13:39:27.037Z</time></trkpt><trkpt lat="44.8848" lon="9.5542417"><ele>422.0</ele><time>2026-05-02T13:39:29.036Z</time></trkpt><trkpt lat="44.8848233" lon="9.5541283"><ele>422.0</ele><time>2026-05-02T13:39:31.035Z</time></trkpt><trkpt lat="44.8848583" lon="9.5540167"><ele>422.20000000000005</ele><time>2026-05-02T13:39:32.039Z</time></trkpt><trkpt lat="44.8848733" lon="9.5539217"><ele>422.4</ele><time>2026-05-02T13:39:33.043Z</time></trkpt><trkpt lat="44.8849183" lon="9.5537483"><ele>422.6</ele><time>2026-05-02T13:39:35.037Z</time></trkpt><trkpt lat="44.8849767" lon="9.5536117"><ele>422.79999999999995</ele><time>2026-05-02T13:39:37.037Z</time></trkpt><trkpt lat="44.8850517" lon="9.5534833"><ele>423.0</ele><time>2026-05-02T13:39:39.035Z</time></trkpt><trkpt lat="44.8851117" lon="9.55337"><ele>421.6666666666667</ele><time>2026-05-02T13:39:41.039Z</time></trkpt><trkpt lat="44.8851517" lon="9.5532783"><ele>420.33333333333337</ele><time>2026-05-02T13:39:43.038Z</time></trkpt><trkpt lat="44.8852017" lon="9.55316"><ele>419.0</ele><time>2026-05-02T13:39:45.038Z</time></trkpt><trkpt lat="44.885225" lon="9.55306"><ele>417.6666666666667</ele><time>2026-05-02T13:39:47.036Z</time></trkpt><trkpt lat="44.8852133" lon="9.5529617"><ele>416.33333333333337</ele><time>2026-05-02T13:39:49.041Z</time></trkpt><trkpt lat="44.8851583" lon="9.55283"><ele>415.0</ele><time>2026-05-02T13:39:53.04Z</time></trkpt><trkpt lat="44.8850833" lon="9.5527733"><ele>415.0</ele><time>2026-05-02T13:39:56.037Z</time></trkpt><trkpt lat="44.8850067" lon="9.5526567"><ele>415.0</ele><time>2026-05-02T13:39:59.037Z</time></trkpt><trkpt lat="44.88498" lon="9.55257"><ele>415.0</ele><time>2026-05-02T13:40:00.035Z</time></trkpt><trkpt lat="44.88495" lon="9.5524167"><ele>415.0</ele><time>2026-05-02T13:40:02.036Z</time></trkpt><trkpt lat="44.8849383" lon="9.5522667"><ele>415.0</ele><time>2026-05-02T13:40:04.034Z</time></trkpt><trkpt lat="44.884925" lon="9.552135"><ele>416.00000000000006</ele><time>2026-05-02T13:40:06.037Z</time></trkpt><trkpt lat="44.8848883" lon="9.5519917"><ele>417.0</ele><time>2026-05-02T13:40:08.038Z</time></trkpt><trkpt lat="44.8848267" lon="9.551885"><ele>418.0</ele><time>2026-05-02T13:40:10.039Z</time></trkpt><trkpt lat="44.8847883" lon="9.5517833"><ele>419.0</ele><time>2026-05-02T13:40:12.033Z</time></trkpt><trkpt lat="44.8847683" lon="9.5516917"><ele>420.00000000000006</ele><time>2026-05-02T13:40:14.037Z</time></trkpt><trkpt lat="44.8847717" lon="9.5515833"><ele>421.0</ele><time>2026-05-02T13:40:17.034Z</time></trkpt><trkpt lat="44.8848317" lon="9.55154"><ele>421.00000000000006</ele><time>2026-05-02T13:40:20.036Z</time></trkpt><trkpt lat="44.884895" lon="9.55152"><ele>421.0</ele><time>2026-05-02T13:40:24.045Z</time></trkpt><trkpt lat="44.88496" lon="9.5514633"><ele>421.0</ele><time>2026-05-02T13:40:28.038Z</time></trkpt><trkpt lat="44.8849983" lon="9.551385"><ele>421.0</ele><time>2026-05-02T13:40:31.034Z</time></trkpt><trkpt lat="44.8850517" lon="9.5513033"><ele>421.0</ele><time>2026-05-02T13:40:34.038Z</time></trkpt><trkpt lat="44.885085" lon="9.5512033"><ele>421.00000000000006</ele><time>2026-05-02T13:40:37.037Z</time></trkpt><trkpt lat="44.885105" lon="9.551095"><ele>421.0</ele><time>2026-05-02T13:40:40.04Z</time></trkpt><trkpt lat="44.88513" lon="9.550975"><ele>422.28571428571433</ele><time>2026-05-02T13:40:43.038Z</time></trkpt><trkpt lat="44.8851483" lon="9.5508733"><ele>423.57142857142856</ele><time>2026-05-02T13:40:46.034Z</time></trkpt><trkpt lat="44.8851017" lon="9.5507883"><ele>424.8571428571429</ele><time>2026-05-02T13:40:50.036Z</time></trkpt><trkpt lat="44.8850417" lon="9.55075"><ele>426.14285714285717</ele><time>2026-05-02T13:40:52.039Z</time></trkpt><trkpt lat="44.8849733" lon="9.5507"><ele>427.42857142857144</ele><time>2026-05-02T13:40:54.035Z</time></trkpt><trkpt lat="44.8849267" lon="9.55063"><ele>428.7142857142857</ele><time>2026-05-02T13:40:56.037Z</time></trkpt><trkpt lat="44.88487" lon="9.5505383"><ele>430.0</ele><time>2026-05-02T13:40:59.035Z</time></trkpt><trkpt lat="44.88482" lon="9.5504683"><ele>430.00000000000006</ele><time>2026-05-02T13:41:01.035Z</time></trkpt><trkpt lat="44.88477" lon="9.5504067"><ele>430.0</ele><time>2026-05-02T13:41:03.037Z</time></trkpt><trkpt lat="44.88471" lon="9.5503167"><ele>430.0</ele><time>2026-05-02T13:41:06.037Z</time></trkpt><trkpt lat="44.8846467" lon="9.550225"><ele>430.0</ele><time>2026-05-02T13:41:09.039Z</time></trkpt><trkpt lat="44.88461" lon="9.5501383"><ele>430.00000000000006</ele><time>2026-05-02T13:41:11.031Z</time></trkpt><trkpt lat="44.8845833" lon="9.5500333"><ele>430.0</ele><time>2026-05-02T13:41:13.039Z</time></trkpt><trkpt lat="44.8845417" lon="9.549915"><ele>432.4</ele><time>2026-05-02T13:41:15.037Z</time></trkpt><trkpt lat="44.8844983" lon="9.549765"><ele>434.8</ele><time>2026-05-02T13:41:17.038Z</time></trkpt><trkpt lat="44.88446" lon="9.5496367"><ele>437.20000000000005</ele><time>2026-05-02T13:41:19.038Z</time></trkpt><trkpt lat="44.884415" lon="9.5495033"><ele>439.6</ele><time>2026-05-02T13:41:21.04Z</time></trkpt><trkpt lat="44.8843633" lon="9.5493767"><ele>442.0</ele><time>2026-05-02T13:41:23.036Z</time></trkpt><trkpt lat="44.88431" lon="9.5492467"><ele>442.5714285714286</ele><time>2026-05-02T13:41:25.037Z</time></trkpt><trkpt lat="44.8842667" lon="9.549135"><ele>443.14285714285717</ele><time>2026-05-02T13:41:27.034Z</time></trkpt><trkpt lat="44.8842383" lon="9.5490433"><ele>443.7142857142857</ele><time>2026-05-02T13:41:29.033Z</time></trkpt><trkpt lat="44.8842133" lon="9.548955"><ele>444.28571428571433</ele><time>2026-05-02T13:41:31.036Z</time></trkpt><trkpt lat="44.8841817" lon="9.5488633"><ele>444.85714285714283</ele><time>2026-05-02T13:41:33.033Z</time></trkpt><trkpt lat="44.88416" lon="9.548775"><ele>445.42857142857144</ele><time>2026-05-02T13:41:35.036Z</time></trkpt><trkpt lat="44.884155" lon="9.5486717"><ele>446.0</ele><time>2026-05-02T13:41:37.038Z</time></trkpt><trkpt lat="44.8841617" lon="9.5485583"><ele>443.49999999999994</ele><time>2026-05-02T13:41:39.04Z</time></trkpt><trkpt lat="44.8841617" lon="9.548445"><ele>441.0</ele><time>2026-05-02T13:41:41.036Z</time></trkpt><trkpt lat="44.884165" lon="9.5483483"><ele>438.5</ele><time>2026-05-02T13:41:43.039Z</time></trkpt><trkpt lat="44.8841833" lon="9.5482333"><ele>436.0</ele><time>2026-05-02T13:41:46.038Z</time></trkpt><trkpt lat="44.884195" lon="9.548125"><ele>433.49999999999994</ele><time>2026-05-02T13:41:50.033Z</time></trkpt><trkpt lat="44.88425" lon="9.5480083"><ele>431.0</ele><time>2026-05-02T13:42:24.035Z</time></trkpt><trkpt lat="44.88418" lon="9.547985"><ele>430.99999999999994</ele><time>2026-05-02T13:44:43.042Z</time></trkpt><trkpt lat="44.8841733" lon="9.5481033"><ele>431.0</ele><time>2026-05-02T13:45:52.036Z</time></trkpt><trkpt lat="44.88418" lon="9.5482117"><ele>431.0</ele><time>2026-05-02T13:45:56.035Z</time></trkpt><trkpt lat="44.8842483" lon="9.54826"><ele>431.0</ele><time>2026-05-02T13:46:00.039Z</time></trkpt><trkpt lat="44.884325" lon="9.5482267"><ele>430.99999999999994</ele><time>2026-05-02T13:46:03.038Z</time></trkpt><trkpt lat="44.8844083" lon="9.5481767"><ele>431.0</ele><time>2026-05-02T13:46:06.035Z</time></trkpt><trkpt lat="44.88447" lon="9.54814"><ele>433.66666666666663</ele><time>2026-05-02T13:46:09.041Z</time></trkpt><trkpt lat="44.88454" lon="9.5480983"><ele>436.3333333333333</ele><time>2026-05-02T13:46:12.035Z</time></trkpt><trkpt lat="44.8846067" lon="9.5480483"><ele>439.0</ele><time>2026-05-02T13:46:16.035Z</time></trkpt><trkpt lat="44.8846683" lon="9.5479667"><ele>441.66666666666663</ele><time>2026-05-02T13:46:19.041Z</time></trkpt><trkpt lat="44.8847133" lon="9.547885"><ele>444.3333333333333</ele><time>2026-05-02T13:46:22.039Z</time></trkpt><trkpt lat="44.8847417" lon="9.547805"><ele>447.0</ele><time>2026-05-02T13:46:25.037Z</time></trkpt><trkpt lat="44.8847917" lon="9.5476983"><ele>447.0</ele><time>2026-05-02T13:46:29.039Z</time></trkpt><trkpt lat="44.8848317" lon="9.5476183"><ele>447.0</ele><time>2026-05-02T13:46:32.036Z</time></trkpt><trkpt lat="44.8848683" lon="9.5475217"><ele>447.0</ele><time>2026-05-02T13:46:35.037Z</time></trkpt><trkpt lat="44.8849267" lon="9.5474467"><ele>447.0</ele><time>2026-05-02T13:46:38.036Z</time></trkpt><trkpt lat="44.8849817" lon="9.547365"><ele>447.0</ele><time>2026-05-02T13:46:41.033Z</time></trkpt><trkpt lat="44.8850283" lon="9.5472783"><ele>447.0</ele><time>2026-05-02T13:46:44.037Z</time></trkpt><trkpt lat="44.8850683" lon="9.5472"><ele>449.1428571428571</ele><time>2026-05-02T13:46:47.034Z</time></trkpt><trkpt lat="44.88511" lon="9.5471317"><ele>451.2857142857143</ele><time>2026-05-02T13:46:50.036Z</time></trkpt><trkpt lat="44.8851583" lon="9.5470583"><ele>453.42857142857144</ele><time>2026-05-02T13:46:53.04Z</time></trkpt><trkpt lat="44.8852033" lon="9.5469783"><ele>455.57142857142856</ele><time>2026-05-02T13:46:57.037Z</time></trkpt><trkpt lat="44.885255" lon="9.546895"><ele>457.7142857142857</ele><time>2026-05-02T13:47:01.042Z</time></trkpt><trkpt lat="44.8853067" lon="9.5468117"><ele>459.85714285714283</ele><time>2026-05-02T13:47:04.038Z</time></trkpt><trkpt lat="44.8853633" lon="9.54674"><ele>462.0</ele><time>2026-05-02T13:47:08.035Z</time></trkpt><trkpt lat="44.885425" lon="9.546665"><ele>462.0</ele><time>2026-05-02T13:47:11.036Z</time></trkpt><trkpt lat="44.8854667" lon="9.546595"><ele>462.0</ele><time>2026-05-02T13:47:13.041Z</time></trkpt><trkpt lat="44.8854983" lon="9.546515"><ele>462.0</ele><time>2026-05-02T13:47:15.034Z</time></trkpt><trkpt lat="44.8855433" lon="9.5464283"><ele>462.0</ele><time>2026-05-02T13:47:17.036Z</time></trkpt><trkpt lat="44.88558" lon="9.5463233"><ele>462.0</ele><time>2026-05-02T13:47:19.037Z</time></trkpt><trkpt lat="44.885615" lon="9.5462383"><ele>462.0</ele><time>2026-05-02T13:47:21.039Z</time></trkpt><trkpt lat="44.885645" lon="9.54616"><ele>462.0</ele><time>2026-05-02T13:47:23.038Z</time></trkpt><trkpt lat="44.885665" lon="9.54601"><ele>462.1666666666667</ele><time>2026-05-02T13:47:25.037Z</time></trkpt><trkpt lat="44.8856783" lon="9.5459167"><ele>462.33333333333337</ele><time>2026-05-02T13:47:26.037Z</time></trkpt><trkpt lat="44.8857167" lon="9.5457967"><ele>462.5</ele><time>2026-05-02T13:47:28.042Z</time></trkpt><trkpt lat="44.8857783" lon="9.5456783"><ele>462.6666666666667</ele><time>2026-05-02T13:47:30.034Z</time></trkpt><trkpt lat="44.88583" lon="9.5455483"><ele>462.83333333333337</ele><time>2026-05-02T13:47:32.038Z</time></trkpt><trkpt lat="44.8858833" lon="9.545475"><ele>463.0</ele><time>2026-05-02T13:47:34.036Z</time></trkpt><trkpt lat="44.8859533" lon="9.5453617"><ele>463.00000000000006</ele><time>2026-05-02T13:47:36.036Z</time></trkpt><trkpt lat="44.8860083" lon="9.5452867"><ele>463.0</ele><time>2026-05-02T13:47:38.037Z</time></trkpt><trkpt lat="44.8860633" lon="9.54521"><ele>463.0</ele><time>2026-05-02T13:47:40.037Z</time></trkpt><trkpt lat="44.8861317" lon="9.54513"><ele>463.0</ele><time>2026-05-02T13:47:42.035Z</time></trkpt><trkpt lat="44.88617" lon="9.54503"><ele>463.00000000000006</ele><time>2026-05-02T13:47:44.037Z</time></trkpt><trkpt lat="44.886215" lon="9.5449483"><ele>463.0</ele><time>2026-05-02T13:47:45.031Z</time></trkpt><trkpt lat="44.8862817" lon="9.5448333"><ele>463.00000000000006</ele><time>2026-05-02T13:47:47.034Z</time></trkpt><trkpt lat="44.8863333" lon="9.54474"><ele>463.0</ele><time>2026-05-02T13:47:48.037Z</time></trkpt><trkpt lat="44.8864083" lon="9.5446417"><ele>463.0</ele><time>2026-05-02T13:47:50.033Z</time></trkpt><trkpt lat="44.886475" lon="9.5445883"><ele>463.0</ele><time>2026-05-02T13:47:52.037Z</time></trkpt><trkpt lat="44.8865733" lon="9.544555"><ele>463.00000000000006</ele><time>2026-05-02T13:47:54.037Z</time></trkpt><trkpt lat="44.8866567" lon="9.5445467"><ele>463.0</ele><time>2026-05-02T13:47:56.038Z</time></trkpt><trkpt lat="44.8867383" lon="9.5445533"><ele>461.0</ele><time>2026-05-02T13:47:58.04Z</time></trkpt><trkpt lat="44.886825" lon="9.544525"><ele>458.99999999999994</ele><time>2026-05-02T13:48:00.038Z</time></trkpt><trkpt lat="44.8869133" lon="9.54452"><ele>456.99999999999994</ele><time>2026-05-02T13:48:02.037Z</time></trkpt><trkpt lat="44.8870517" lon="9.5445833"><ele>455.0</ele><time>2026-05-02T13:48:05.037Z</time></trkpt><trkpt lat="44.88711" lon="9.5446283"><ele>453.0</ele><time>2026-05-02T13:48:06.037Z</time></trkpt><trkpt lat="44.887185" lon="9.54469"><ele>453.0</ele><time>2026-05-02T13:48:08.037Z</time></trkpt><trkpt lat="44.8872617" lon="9.544695"><ele>453.0</ele><time>2026-05-02T13:48:10.035Z</time></trkpt><trkpt lat="44.8873467" lon="9.5446983"><ele>453.0</ele><time>2026-05-02T13:48:12.037Z</time></trkpt><trkpt lat="44.8874583" lon="9.5447"><ele>453.0</ele><time>2026-05-02T13:48:14.037Z</time></trkpt><trkpt lat="44.8875483" lon="9.54474"><ele>453.0</ele><time>2026-05-02T13:48:16.033Z</time></trkpt><trkpt lat="44.8876167" lon="9.54474"><ele>453.0</ele><time>2026-05-02T13:48:19.028Z</time></trkpt><trkpt lat="44.8876783" lon="9.544675"><ele>453.79999999999995</ele><time>2026-05-02T13:48:22.038Z</time></trkpt><trkpt lat="44.8877467" lon="9.54458"><ele>454.59999999999997</ele><time>2026-05-02T13:48:26.036Z</time></trkpt><trkpt lat="44.8878017" lon="9.544495"><ele>455.40000000000003</ele><time>2026-05-02T13:48:28.039Z</time></trkpt><trkpt lat="44.887835" lon="9.5444183"><ele>456.20000000000005</ele><time>2026-05-02T13:48:30.036Z</time></trkpt><trkpt lat="44.8878967" lon="9.5443283"><ele>457.0</ele><time>2026-05-02T13:48:32.037Z</time></trkpt><trkpt lat="44.8879967" lon="9.5442233"><ele>453.1666666666667</ele><time>2026-05-02T13:48:34.035Z</time></trkpt><trkpt lat="44.8880483" lon="9.5441667"><ele>449.33333333333337</ele><time>2026-05-02T13:48:36.036Z</time></trkpt><trkpt lat="44.8881267" lon="9.5440667"><ele>445.5</ele><time>2026-05-02T13:48:38.035Z</time></trkpt><trkpt lat="44.8881633" lon="9.5439283"><ele>441.66666666666663</ele><time>2026-05-02T13:48:40.036Z</time></trkpt><trkpt lat="44.8881933" lon="9.5438333"><ele>437.8333333333333</ele><time>2026-05-02T13:48:41.03Z</time></trkpt><trkpt lat="44.8882167" lon="9.5437117"><ele>434.0</ele><time>2026-05-02T13:48:42.034Z</time></trkpt><trkpt lat="44.888225" lon="9.543615"><ele>430.99999999999994</ele><time>2026-05-02T13:48:43.038Z</time></trkpt><trkpt lat="44.88826" lon="9.5434733"><ele>428.0</ele><time>2026-05-02T13:48:44.028Z</time></trkpt><trkpt lat="44.88827" lon="9.54338"><ele>425.0</ele><time>2026-05-02T13:48:45.036Z</time></trkpt><trkpt lat="44.8882783" lon="9.5432167"><ele>422.0</ele><time>2026-05-02T13:48:47.037Z</time></trkpt><trkpt lat="44.8882917" lon="9.5431217"><ele>418.99999999999994</ele><time>2026-05-02T13:48:48.036Z</time></trkpt><trkpt lat="44.8883533" lon="9.5430333"><ele>416.0</ele><time>2026-05-02T13:48:49.037Z</time></trkpt><trkpt lat="44.888415" lon="9.542965"><ele>416.8333333333333</ele><time>2026-05-02T13:48:50.029Z</time></trkpt><trkpt lat="44.888485" lon="9.542905"><ele>417.66666666666663</ele><time>2026-05-02T13:48:51.039Z</time></trkpt><trkpt lat="44.88858" lon="9.54284"><ele>418.5</ele><time>2026-05-02T13:48:53.033Z</time></trkpt><trkpt lat="44.8886567" lon="9.5427967"><ele>419.33333333333337</ele><time>2026-05-02T13:48:54.038Z</time></trkpt><trkpt lat="44.8887283" lon="9.5427367"><ele>420.1666666666667</ele><time>2026-05-02T13:48:55.041Z</time></trkpt><trkpt lat="44.8887867" lon="9.5427"><ele>421.0</ele><time>2026-05-02T13:48:56.038Z</time></trkpt><trkpt lat="44.8888833" lon="9.5426633"><ele>421.0</ele><time>2026-05-02T13:48:58.031Z</time></trkpt><trkpt lat="44.88899" lon="9.5426867"><ele>421.0</ele><time>2026-05-02T13:49:00.039Z</time></trkpt><trkpt lat="44.8890783" lon="9.5427717"><ele>421.0</ele><time>2026-05-02T13:49:02.03Z</time></trkpt><trkpt lat="44.8891317" lon="9.5428633"><ele>421.0</ele><time>2026-05-02T13:49:04.036Z</time></trkpt><trkpt lat="44.8892" lon="9.5429483"><ele>421.0</ele><time>2026-05-02T13:49:06.033Z</time></trkpt><trkpt lat="44.88928" lon="9.5430117"><ele>417.83333333333337</ele><time>2026-05-02T13:49:08.033Z</time></trkpt><trkpt lat="44.8893883" lon="9.5431183"><ele>414.6666666666667</ele><time>2026-05-02T13:49:10.035Z</time></trkpt><trkpt lat="44.8894533" lon="9.5431717"><ele>411.5</ele><time>2026-05-02T13:49:11.037Z</time></trkpt><trkpt lat="44.8895267" lon="9.543215"><ele>408.33333333333337</ele><time>2026-05-02T13:49:12.035Z</time></trkpt><trkpt lat="44.8895983" lon="9.5432633"><ele>405.1666666666667</ele><time>2026-05-02T13:49:13.035Z</time></trkpt><trkpt lat="44.889675" lon="9.5433067"><ele>402.0</ele><time>2026-05-02T13:49:14.037Z</time></trkpt><trkpt lat="44.8897517" lon="9.54335"><ele>402.0</ele><time>2026-05-02T13:49:15.035Z</time></trkpt><trkpt lat="44.8898267" lon="9.543395"><ele>402.0</ele><time>2026-05-02T13:49:16.038Z</time></trkpt><trkpt lat="44.8899017" lon="9.5434267"><ele>402.0</ele><time>2026-05-02T13:49:17.035Z</time></trkpt><trkpt lat="44.8899817" lon="9.543435"><ele>402.0</ele><time>2026-05-02T13:49:18.034Z</time></trkpt><trkpt lat="44.890055" lon="9.5434367"><ele>402.0</ele><time>2026-05-02T13:49:19.038Z</time></trkpt><trkpt lat="44.8901283" lon="9.5434217"><ele>402.0</ele><time>2026-05-02T13:49:20.038Z</time></trkpt><trkpt lat="44.8902017" lon="9.5434033"><ele>403.0</ele><time>2026-05-02T13:49:21.036Z</time></trkpt><trkpt lat="44.890275" lon="9.5433867"><ele>404.0</ele><time>2026-05-02T13:49:22.037Z</time></trkpt><trkpt lat="44.89034" lon="9.5433683"><ele>405.0</ele><time>2026-05-02T13:49:23.034Z</time></trkpt><trkpt lat="44.8904367" lon="9.5433367"><ele>406.0</ele><time>2026-05-02T13:49:25.034Z</time></trkpt><trkpt lat="44.89053" lon="9.5433117"><ele>407.0</ele><time>2026-05-02T13:49:27.041Z</time></trkpt><trkpt lat="44.8906233" lon="9.5432467"><ele>408.0</ele><time>2026-05-02T13:49:29.043Z</time></trkpt><trkpt lat="44.8906867" lon="9.54313"><ele>408.0</ele><time>2026-05-02T13:49:31.036Z</time></trkpt><trkpt lat="44.8907433" lon="9.543015"><ele>408.0</ele><time>2026-05-02T13:49:33.035Z</time></trkpt><trkpt lat="44.8908017" lon="9.5429083"><ele>408.0</ele><time>2026-05-02T13:49:35.029Z</time></trkpt><trkpt lat="44.8908767" lon="9.5428433"><ele>408.0</ele><time>2026-05-02T13:49:37.039Z</time></trkpt><trkpt lat="44.89094" lon="9.5428717"><ele>408.0</ele><time>2026-05-02T13:49:40.041Z</time></trkpt><trkpt lat="44.8909917" lon="9.5429233"><ele>408.0</ele><time>2026-05-02T13:49:43.038Z</time></trkpt><trkpt lat="44.8910767" lon="9.5429617"><ele>407.8333333333333</ele><time>2026-05-02T13:49:47.038Z</time></trkpt><trkpt lat="44.89115" lon="9.5429783"><ele>407.66666666666663</ele><time>2026-05-02T13:49:49.037Z</time></trkpt><trkpt lat="44.8912183" lon="9.5429983"><ele>407.5</ele><time>2026-05-02T13:49:51.039Z</time></trkpt><trkpt lat="44.8912967" lon="9.5430667"><ele>407.3333333333333</ele><time>2026-05-02T13:49:54.038Z</time></trkpt><trkpt lat="44.8913517" lon="9.54311"><ele>407.16666666666663</ele><time>2026-05-02T13:49:56.04Z</time></trkpt><trkpt lat="44.8914283" lon="9.54313"><ele>407.0</ele><time>2026-05-02T13:49:58.039Z</time></trkpt><trkpt lat="44.891505" lon="9.543155"><ele>407.0</ele><time>2026-05-02T13:50:00.038Z</time></trkpt><trkpt lat="44.8915817" lon="9.5431933"><ele>407.0</ele><time>2026-05-02T13:50:02.036Z</time></trkpt><trkpt lat="44.891675" lon="9.543235"><ele>407.0</ele><time>2026-05-02T13:50:04.036Z</time></trkpt><trkpt lat="44.8917567" lon="9.5433"><ele>407.0</ele><time>2026-05-02T13:50:06.037Z</time></trkpt><trkpt lat="44.8918367" lon="9.5433683"><ele>407.0</ele><time>2026-05-02T13:50:08.039Z</time></trkpt><trkpt lat="44.891895" lon="9.5434633"><ele>407.00000000000006</ele><time>2026-05-02T13:50:10.037Z</time></trkpt><trkpt lat="44.8919367" lon="9.5435517"><ele>407.0</ele><time>2026-05-02T13:50:12.035Z</time></trkpt><trkpt lat="44.89197" lon="9.54364"><ele>407.0</ele><time>2026-05-02T13:50:14.035Z</time></trkpt><trkpt lat="44.8920133" lon="9.54373"><ele>407.0</ele><time>2026-05-02T13:50:16.039Z</time></trkpt><trkpt lat="44.892055" lon="9.5438367"><ele>407.0</ele><time>2026-05-02T13:50:19.035Z</time></trkpt><trkpt lat="44.8920817" lon="9.54392"><ele>407.00000000000006</ele><time>2026-05-02T13:50:21.04Z</time></trkpt><trkpt lat="44.89212" lon="9.5439933"><ele>407.0</ele><time>2026-05-02T13:50:23.035Z</time></trkpt><trkpt lat="44.8921717" lon="9.5441017"><ele>406.99999999999994</ele><time>2026-05-02T13:50:26.039Z</time></trkpt><trkpt lat="44.89222" lon="9.5442017"><ele>407.0</ele><time>2026-05-02T13:50:29.033Z</time></trkpt><trkpt lat="44.8922533" lon="9.5443083"><ele>407.0</ele><time>2026-05-02T13:50:32.034Z</time></trkpt><trkpt lat="44.8922783" lon="9.54439"><ele>407.0</ele><time>2026-05-02T13:50:35.038Z</time></trkpt><trkpt lat="44.89231" lon="9.54448"><ele>406.99999999999994</ele><time>2026-05-02T13:50:37.041Z</time></trkpt><trkpt lat="44.8923267" lon="9.5445683"><ele>407.0</ele><time>2026-05-02T13:50:39.038Z</time></trkpt><trkpt lat="44.892355" lon="9.5446867"><ele>408.99999999999994</ele><time>2026-05-02T13:50:42.038Z</time></trkpt><trkpt lat="44.892365" lon="9.5447767"><ele>411.0</ele><time>2026-05-02T13:50:44.037Z</time></trkpt><trkpt lat="44.8923833" lon="9.54493"><ele>413.0</ele><time>2026-05-02T13:50:47.036Z</time></trkpt><trkpt lat="44.8924167" lon="9.5450467"><ele>415.0</ele><time>2026-05-02T13:50:50.037Z</time></trkpt><trkpt lat="44.892455" lon="9.5451367"><ele>416.99999999999994</ele><time>2026-05-02T13:50:52.032Z</time></trkpt><trkpt lat="44.892495" lon="9.5452267"><ele>419.0</ele><time>2026-05-02T13:50:54.039Z</time></trkpt><trkpt lat="44.8925467" lon="9.5453317"><ele>417.66666666666663</ele><time>2026-05-02T13:50:57.037Z</time></trkpt><trkpt lat="44.8925967" lon="9.5453883"><ele>416.3333333333333</ele><time>2026-05-02T13:50:59.035Z</time></trkpt><trkpt lat="44.8926633" lon="9.5454817"><ele>415.0</ele><time>2026-05-02T13:51:02.034Z</time></trkpt><trkpt lat="44.8927233" lon="9.5455267"><ele>413.66666666666663</ele><time>2026-05-02T13:51:04.039Z</time></trkpt><trkpt lat="44.8927817" lon="9.5456267"><ele>412.3333333333333</ele><time>2026-05-02T13:51:07.039Z</time></trkpt><trkpt lat="44.8928217" lon="9.5457133"><ele>411.0</ele><time>2026-05-02T13:51:09.039Z</time></trkpt><trkpt lat="44.8928667" lon="9.54579"><ele>411.0</ele><time>2026-05-02T13:51:11.038Z</time></trkpt><trkpt lat="44.8929167" lon="9.545865"><ele>411.0</ele><time>2026-05-02T13:51:13.041Z</time></trkpt><trkpt lat="44.89297" lon="9.5459183"><ele>411.0</ele><time>2026-05-02T13:51:15.038Z</time></trkpt><trkpt lat="44.8930367" lon="9.545995"><ele>411.0</ele><time>2026-05-02T13:51:18.038Z</time></trkpt><trkpt lat="44.8930883" lon="9.5460717"><ele>411.0</ele><time>2026-05-02T13:51:21.041Z</time></trkpt><trkpt lat="44.8931483" lon="9.54616"><ele>411.0</ele><time>2026-05-02T13:51:24.036Z</time></trkpt><trkpt lat="44.893195" lon="9.5462633"><ele>411.8333333333333</ele><time>2026-05-02T13:51:27.038Z</time></trkpt><trkpt lat="44.8932417" lon="9.5463733"><ele>412.66666666666663</ele><time>2026-05-02T13:51:30.035Z</time></trkpt><trkpt lat="44.8933167" lon="9.5464383"><ele>413.5</ele><time>2026-05-02T13:51:33.039Z</time></trkpt><trkpt lat="44.8933933" lon="9.5464883"><ele>414.3333333333333</ele><time>2026-05-02T13:51:35.036Z</time></trkpt><trkpt lat="44.8934633" lon="9.5465433"><ele>415.16666666666663</ele><time>2026-05-02T13:51:37.045Z</time></trkpt><trkpt lat="44.8935217" lon="9.5466583"><ele>416.0</ele><time>2026-05-02T13:51:39.038Z</time></trkpt><trkpt lat="44.893585" lon="9.5467567"><ele>415.99999999999994</ele><time>2026-05-02T13:51:41.035Z</time></trkpt><trkpt lat="44.8936533" lon="9.5468467"><ele>416.0</ele><time>2026-05-02T13:51:43.039Z</time></trkpt><trkpt lat="44.8937217" lon="9.5469483"><ele>416.0</ele><time>2026-05-02T13:51:45.036Z</time></trkpt><trkpt lat="44.89379" lon="9.547035"><ele>416.0</ele><time>2026-05-02T13:51:47.036Z</time></trkpt><trkpt lat="44.8938433" lon="9.5470933"><ele>415.99999999999994</ele><time>2026-05-02T13:51:49.039Z</time></trkpt><trkpt lat="44.893915" lon="9.5471367"><ele>416.0</ele><time>2026-05-02T13:51:51.038Z</time></trkpt><trkpt lat="44.8939867" lon="9.54719"><ele>419.6</ele><time>2026-05-02T13:51:53.037Z</time></trkpt><trkpt lat="44.8940917" lon="9.5471883"><ele>423.20000000000005</ele><time>2026-05-02T13:51:55.039Z</time></trkpt><trkpt lat="44.8941783" lon="9.54721"><ele>426.79999999999995</ele><time>2026-05-02T13:51:57.043Z</time></trkpt><trkpt lat="44.894265" lon="9.5472417"><ele>430.4</ele><time>2026-05-02T13:51:59.035Z</time></trkpt><trkpt lat="44.8943567" lon="9.5472717"><ele>434.0</ele><time>2026-05-02T13:52:01.032Z</time></trkpt><trkpt lat="44.8944283" lon="9.547315"><ele>433.99999999999994</ele><time>2026-05-02T13:52:03.037Z</time></trkpt><trkpt lat="44.8944933" lon="9.5473417"><ele>434.0</ele><time>2026-05-02T13:52:05.034Z</time></trkpt><trkpt lat="44.8945983" lon="9.54737"><ele>434.0</ele><time>2026-05-02T13:52:07.035Z</time></trkpt><trkpt lat="44.8946833" lon="9.5474383"><ele>434.0</ele><time>2026-05-02T13:52:09.042Z</time></trkpt><trkpt lat="44.8947483" lon="9.54748"><ele>433.99999999999994</ele><time>2026-05-02T13:52:11.037Z</time></trkpt><trkpt lat="44.8948283" lon="9.54755"><ele>434.0</ele><time>2026-05-02T13:52:13.038Z</time></trkpt><trkpt lat="44.8949133" lon="9.5476667"><ele>433.99999999999994</ele><time>2026-05-02T13:52:15.036Z</time></trkpt><trkpt lat="44.8949783" lon="9.547765"><ele>434.0</ele><time>2026-05-02T13:52:17.036Z</time></trkpt><trkpt lat="44.8950167" lon="9.5478367"><ele>434.0</ele><time>2026-05-02T13:52:19.031Z</time></trkpt><trkpt lat="44.8950767" lon="9.547935"><ele>434.0</ele><time>2026-05-02T13:52:22.038Z</time></trkpt><trkpt lat="44.8951267" lon="9.5480167"><ele>433.99999999999994</ele><time>2026-05-02T13:52:25.035Z</time></trkpt><trkpt lat="44.8951783" lon="9.54807"><ele>434.0</ele><time>2026-05-02T13:52:27.042Z</time></trkpt><trkpt lat="44.8952233" lon="9.5481333"><ele>434.42857142857144</ele><time>2026-05-02T13:52:29.033Z</time></trkpt><trkpt lat="44.8952667" lon="9.5482033"><ele>434.8571428571429</ele><time>2026-05-02T13:52:32.038Z</time></trkpt><trkpt lat="44.895325" lon="9.54831"><ele>435.2857142857143</ele><time>2026-05-02T13:52:35.035Z</time></trkpt><trkpt lat="44.895365" lon="9.5483883"><ele>435.7142857142857</ele><time>2026-05-02T13:52:38.038Z</time></trkpt><trkpt lat="44.895365" lon="9.5484833"><ele>436.14285714285717</ele><time>2026-05-02T13:52:41.035Z</time></trkpt><trkpt lat="44.89537" lon="9.5485867"><ele>436.57142857142856</ele><time>2026-05-02T13:52:44.036Z</time></trkpt><trkpt lat="44.8953733" lon="9.548695"><ele>437.0</ele><time>2026-05-02T13:52:47.037Z</time></trkpt><trkpt lat="44.8953833" lon="9.5487883"><ele>438.99999999999994</ele><time>2026-05-02T13:52:51.046Z</time></trkpt><trkpt lat="44.8953933" lon="9.5488817"><ele>441.0</ele><time>2026-05-02T13:52:56.039Z</time></trkpt><trkpt lat="44.8953733" lon="9.549"><ele>443.0</ele><time>2026-05-02T13:52:59.036Z</time></trkpt><trkpt lat="44.89536" lon="9.5491033"><ele>445.0</ele><time>2026-05-02T13:53:03.045Z</time></trkpt><trkpt lat="44.8953383" lon="9.54919"><ele>446.99999999999994</ele><time>2026-05-02T13:53:06.037Z</time></trkpt><trkpt lat="44.8953517" lon="9.549305"><ele>449.0</ele><time>2026-05-02T13:53:09.037Z</time></trkpt><trkpt lat="44.8953917" lon="9.54941"><ele>448.99999999999994</ele><time>2026-05-02T13:53:12.035Z</time></trkpt><trkpt lat="44.895425" lon="9.5494983"><ele>449.0</ele><time>2026-05-02T13:53:15.04Z</time></trkpt><trkpt lat="44.8954683" lon="9.549595"><ele>449.0</ele><time>2026-05-02T13:53:18.035Z</time></trkpt><trkpt lat="44.8955133" lon="9.5497083"><ele>449.0</ele><time>2026-05-02T13:53:21.039Z</time></trkpt><trkpt lat="44.8955583" lon="9.54982"><ele>448.99999999999994</ele><time>2026-05-02T13:53:24.038Z</time></trkpt><trkpt lat="44.8955917" lon="9.5499017"><ele>449.0</ele><time>2026-05-02T13:53:26.033Z</time></trkpt><trkpt lat="44.895635" lon="9.5499783"><ele>449.8333333333333</ele><time>2026-05-02T13:53:28.041Z</time></trkpt><trkpt lat="44.895685" lon="9.550065"><ele>450.66666666666663</ele><time>2026-05-02T13:53:31.038Z</time></trkpt><trkpt lat="44.8957317" lon="9.55015"><ele>451.5</ele><time>2026-05-02T13:53:33.038Z</time></trkpt><trkpt lat="44.8957817" lon="9.55022"><ele>452.33333333333337</ele><time>2026-05-02T13:53:36.036Z</time></trkpt><trkpt lat="44.895815" lon="9.5503033"><ele>453.1666666666667</ele><time>2026-05-02T13:53:38.029Z</time></trkpt><trkpt lat="44.895885" lon="9.550465"><ele>454.0</ele><time>2026-05-02T13:53:51.035Z</time></trkpt><trkpt lat="44.8959467" lon="9.550535"><ele>454.0</ele><time>2026-05-02T13:53:56.037Z</time></trkpt><trkpt lat="44.8960133" lon="9.5505083"><ele>454.0</ele><time>2026-05-02T13:53:58.037Z</time></trkpt><trkpt lat="44.8961" lon="9.5504817"><ele>454.0</ele><time>2026-05-02T13:54:00.037Z</time></trkpt><trkpt lat="44.8961967" lon="9.5504483"><ele>454.0</ele><time>2026-05-02T13:54:02.036Z</time></trkpt><trkpt lat="44.8962883" lon="9.5504"><ele>454.0</ele><time>2026-05-02T13:54:04.036Z</time></trkpt><trkpt lat="44.8963867" lon="9.5503433"><ele>454.6</ele><time>2026-05-02T13:54:06.038Z</time></trkpt><trkpt lat="44.8964883" lon="9.550285"><ele>455.2</ele><time>2026-05-02T13:54:08.036Z</time></trkpt><trkpt lat="44.8965833" lon="9.550225"><ele>455.80000000000007</ele><time>2026-05-02T13:54:10.034Z</time></trkpt><trkpt lat="44.8966733" lon="9.5501683"><ele>456.40000000000003</ele><time>2026-05-02T13:54:12.036Z</time></trkpt><trkpt lat="44.8967583" lon="9.5501233"><ele>457.0</ele><time>2026-05-02T13:54:14.033Z</time></trkpt><trkpt lat="44.8968467" lon="9.5500933"><ele>457.20000000000005</ele><time>2026-05-02T13:54:16.036Z</time></trkpt><trkpt lat="44.8969383" lon="9.5500617"><ele>457.40000000000003</ele><time>2026-05-02T13:54:18.036Z</time></trkpt><trkpt lat="44.8970383" lon="9.550035"><ele>457.59999999999997</ele><time>2026-05-02T13:54:20.039Z</time></trkpt><trkpt lat="44.89714" lon="9.550015"><ele>457.79999999999995</ele><time>2026-05-02T13:54:22.041Z</time></trkpt><trkpt lat="44.89725" lon="9.5500017"><ele>458.0</ele><time>2026-05-02T13:54:24.036Z</time></trkpt><trkpt lat="44.8973533" lon="9.5499867"><ele>457.99999999999994</ele><time>2026-05-02T13:54:26.033Z</time></trkpt><trkpt lat="44.8974483" lon="9.5499617"><ele>458.0</ele><time>2026-05-02T13:54:28.037Z</time></trkpt><trkpt lat="44.89754" lon="9.5499167"><ele>458.0</ele><time>2026-05-02T13:54:30.036Z</time></trkpt><trkpt lat="44.8976183" lon="9.5498533"><ele>458.0</ele><time>2026-05-02T13:54:32.033Z</time></trkpt><trkpt lat="44.89768" lon="9.549795"><ele>457.99999999999994</ele><time>2026-05-02T13:54:34.036Z</time></trkpt><trkpt lat="44.8977533" lon="9.5497417"><ele>458.0</ele><time>2026-05-02T13:54:36.035Z</time></trkpt><trkpt lat="44.8978417" lon="9.5496767"><ele>459.66666666666663</ele><time>2026-05-02T13:54:38.035Z</time></trkpt><trkpt lat="44.8979333" lon="9.5496"><ele>461.3333333333333</ele><time>2026-05-02T13:54:40.036Z</time></trkpt><trkpt lat="44.898005" lon="9.54953"><ele>463.0</ele><time>2026-05-02T13:54:42.034Z</time></trkpt><trkpt lat="44.89807" lon="9.549465"><ele>464.66666666666663</ele><time>2026-05-02T13:54:44.035Z</time></trkpt><trkpt lat="44.8981317" lon="9.549405"><ele>466.3333333333333</ele><time>2026-05-02T13:54:46.038Z</time></trkpt><trkpt lat="44.8982017" lon="9.5493433"><ele>468.0</ele><time>2026-05-02T13:54:48.04Z</time></trkpt><trkpt lat="44.8982583" lon="9.5492767"><ele>468.0</ele><time>2026-05-02T13:54:50.037Z</time></trkpt><trkpt lat="44.8983117" lon="9.549225"><ele>468.00000000000006</ele><time>2026-05-02T13:54:52.034Z</time></trkpt><trkpt lat="44.8983633" lon="9.5491633"><ele>468.0</ele><time>2026-05-02T13:54:54.04Z</time></trkpt><trkpt lat="44.8984117" lon="9.5491017"><ele>468.0</ele><time>2026-05-02T13:54:56.037Z</time></trkpt><trkpt lat="44.8984683" lon="9.5490467"><ele>468.00000000000006</ele><time>2026-05-02T13:54:58.034Z</time></trkpt><trkpt lat="44.8985233" lon="9.5489917"><ele>468.0</ele><time>2026-05-02T13:55:00.034Z</time></trkpt><trkpt lat="44.898565" lon="9.5489133"><ele>468.0</ele><time>2026-05-02T13:55:02.04Z</time></trkpt><trkpt lat="44.8986117" lon="9.5488433"><ele>468.3333333333333</ele><time>2026-05-02T13:55:04.037Z</time></trkpt><trkpt lat="44.8986567" lon="9.548775"><ele>468.66666666666663</ele><time>2026-05-02T13:55:06.037Z</time></trkpt><trkpt lat="44.898705" lon="9.5487017"><ele>469.0</ele><time>2026-05-02T13:55:08.037Z</time></trkpt><trkpt lat="44.8987667" lon="9.5486417"><ele>469.3333333333333</ele><time>2026-05-02T13:55:10.037Z</time></trkpt><trkpt lat="44.8988567" lon="9.54863"><ele>469.66666666666663</ele><time>2026-05-02T13:55:13.034Z</time></trkpt><trkpt lat="44.8989317" lon="9.54865"><ele>470.0</ele><time>2026-05-02T13:55:16.036Z</time></trkpt><trkpt lat="44.8989967" lon="9.548745"><ele>472.66666666666663</ele><time>2026-05-02T13:55:19.039Z</time></trkpt><trkpt lat="44.8990417" lon="9.5488217"><ele>475.3333333333333</ele><time>2026-05-02T13:55:21.038Z</time></trkpt><trkpt lat="44.8990933" lon="9.5488917"><ele>478.0</ele><time>2026-05-02T13:55:23.036Z</time></trkpt><trkpt lat="44.8991433" lon="9.5489533"><ele>480.66666666666663</ele><time>2026-05-02T13:55:25.035Z</time></trkpt><trkpt lat="44.8992133" lon="9.5490283"><ele>483.3333333333333</ele><time>2026-05-02T13:55:28.034Z</time></trkpt><trkpt lat="44.8992817" lon="9.5490883"><ele>486.0</ele><time>2026-05-02T13:55:31.039Z</time></trkpt><trkpt lat="44.89935" lon="9.5491667"><ele>486.1666666666667</ele><time>2026-05-02T13:55:34.039Z</time></trkpt><trkpt lat="44.89941" lon="9.5492367"><ele>486.33333333333337</ele><time>2026-05-02T13:55:37.037Z</time></trkpt><trkpt lat="44.899465" lon="9.5492817"><ele>486.5</ele><time>2026-05-02T13:55:40.036Z</time></trkpt><trkpt lat="44.8995183" lon="9.54933"><ele>486.6666666666667</ele><time>2026-05-02T13:55:43.035Z</time></trkpt><trkpt lat="44.89958" lon="9.5494167"><ele>486.83333333333337</ele><time>2026-05-02T13:55:46.039Z</time></trkpt><trkpt lat="44.8996317" lon="9.549505"><ele>487.0</ele><time>2026-05-02T13:55:48.04Z</time></trkpt><trkpt lat="44.899685" lon="9.549585"><ele>487.33333333333337</ele><time>2026-05-02T13:55:50.036Z</time></trkpt><trkpt lat="44.8997467" lon="9.549665"><ele>487.6666666666667</ele><time>2026-05-02T13:55:53.036Z</time></trkpt><trkpt lat="44.899815" lon="9.5497417"><ele>488.0</ele><time>2026-05-02T13:55:56.037Z</time></trkpt><trkpt lat="44.8998883" lon="9.549775"><ele>488.33333333333337</ele><time>2026-05-02T13:55:59.035Z</time></trkpt><trkpt lat="44.899955" lon="9.5497933"><ele>488.6666666666667</ele><time>2026-05-02T13:56:01.033Z</time></trkpt><trkpt lat="44.900035" lon="9.5498167"><ele>489.0</ele><time>2026-05-02T13:56:04.027Z</time></trkpt><trkpt lat="44.900095" lon="9.5497867"><ele>489.0</ele><time>2026-05-02T13:56:06.037Z</time></trkpt><trkpt lat="44.9001633" lon="9.5497483"><ele>489.00000000000006</ele><time>2026-05-02T13:56:08.037Z</time></trkpt><trkpt lat="44.9002267" lon="9.54973"><ele>489.0</ele><time>2026-05-02T13:56:10.036Z</time></trkpt><trkpt lat="44.9002917" lon="9.5497233"><ele>489.0</ele><time>2026-05-02T13:56:12.036Z</time></trkpt><trkpt lat="44.9003533" lon="9.5496983"><ele>489.00000000000006</ele><time>2026-05-02T13:56:14.039Z</time></trkpt><trkpt lat="44.9004433" lon="9.54968"><ele>489.0</ele><time>2026-05-02T13:56:17.037Z</time></trkpt><trkpt lat="44.9005133" lon="9.5496633"><ele>489.0</ele><time>2026-05-02T13:56:19.036Z</time></trkpt><trkpt lat="44.9005717" lon="9.5496283"><ele>489.0</ele><time>2026-05-02T13:56:21.038Z</time></trkpt><trkpt lat="44.9006533" lon="9.5495733"><ele>489.00000000000006</ele><time>2026-05-02T13:56:24.036Z</time></trkpt><trkpt lat="44.9007117" lon="9.5495333"><ele>489.0</ele><time>2026-05-02T13:56:26.038Z</time></trkpt><trkpt lat="44.9007733" lon="9.5495133"><ele>489.0</ele><time>2026-05-02T13:56:28.036Z</time></trkpt><trkpt lat="44.9008433" lon="9.5494917"><ele>489.00000000000006</ele><time>2026-05-02T13:56:30.034Z</time></trkpt><trkpt lat="44.9009083" lon="9.5494967"><ele>489.0</ele><time>2026-05-02T13:56:32.034Z</time></trkpt><trkpt lat="44.9009717" lon="9.5495533"><ele>489.0</ele><time>2026-05-02T13:56:34.036Z</time></trkpt><trkpt lat="44.9010333" lon="9.5496667"><ele>489.0</ele><time>2026-05-02T13:56:36.037Z</time></trkpt><trkpt lat="44.9010767" lon="9.5497483"><ele>489.0</ele><time>2026-05-02T13:56:37.039Z</time></trkpt><trkpt lat="44.9011267" lon="9.5498217"><ele>489.0</ele><time>2026-05-02T13:56:38.034Z</time></trkpt><trkpt lat="44.9011783" lon="9.5499067"><ele>489.0</ele><time>2026-05-02T13:56:39.039Z</time></trkpt><trkpt lat="44.90123" lon="9.5500133"><ele>489.0</ele><time>2026-05-02T13:56:40.037Z</time></trkpt><trkpt lat="44.9012933" lon="9.5501283"><ele>489.0</ele><time>2026-05-02T13:56:41.036Z</time></trkpt><trkpt lat="44.9013567" lon="9.550245"><ele>489.0</ele><time>2026-05-02T13:56:42.037Z</time></trkpt><trkpt lat="44.9014217" lon="9.5503633"><ele>489.0</ele><time>2026-05-02T13:56:43.037Z</time></trkpt><trkpt lat="44.9014833" lon="9.550465"><ele>489.0</ele><time>2026-05-02T13:56:44.035Z</time></trkpt><trkpt lat="44.9015483" lon="9.5505667"><ele>489.0</ele><time>2026-05-02T13:56:45.035Z</time></trkpt><trkpt lat="44.9016133" lon="9.550665"><ele>489.0</ele><time>2026-05-02T13:56:46.037Z</time></trkpt><trkpt lat="44.90167" lon="9.5507667"><ele>489.0</ele><time>2026-05-02T13:56:47.035Z</time></trkpt><trkpt lat="44.9017183" lon="9.55087"><ele>489.0</ele><time>2026-05-02T13:56:48.035Z</time></trkpt><trkpt lat="44.9017817" lon="9.550965"><ele>489.0</ele><time>2026-05-02T13:56:49.041Z</time></trkpt><trkpt lat="44.9018433" lon="9.5510617"><ele>489.0</ele><time>2026-05-02T13:56:50.031Z</time></trkpt><trkpt lat="44.9019083" lon="9.551145"><ele>489.0</ele><time>2026-05-02T13:56:51.036Z</time></trkpt><trkpt lat="44.9019683" lon="9.5512267"><ele>489.0</ele><time>2026-05-02T13:56:52.037Z</time></trkpt><trkpt lat="44.902025" lon="9.5513133"><ele>488.1666666666667</ele><time>2026-05-02T13:56:53.037Z</time></trkpt><trkpt lat="44.9020817" lon="9.5514017"><ele>487.33333333333337</ele><time>2026-05-02T13:56:54.037Z</time></trkpt><trkpt lat="44.9021333" lon="9.5515"><ele>486.5</ele><time>2026-05-02T13:56:55.033Z</time></trkpt><trkpt lat="44.90218" lon="9.5516017"><ele>485.6666666666667</ele><time>2026-05-02T13:56:56.04Z</time></trkpt><trkpt lat="44.9022283" lon="9.5517"><ele>484.83333333333337</ele><time>2026-05-02T13:56:57.039Z</time></trkpt><trkpt lat="44.9022767" lon="9.5517967"><ele>484.0</ele><time>2026-05-02T13:56:58.034Z</time></trkpt><trkpt lat="44.90232" lon="9.5518917"><ele>484.00000000000006</ele><time>2026-05-02T13:56:59.034Z</time></trkpt><trkpt lat="44.902365" lon="9.5519817"><ele>484.0</ele><time>2026-05-02T13:57:00.034Z</time></trkpt><trkpt lat="44.9024083" lon="9.5520683"><ele>484.0</ele><time>2026-05-02T13:57:01.035Z</time></trkpt><trkpt lat="44.9024433" lon="9.55215"><ele>484.0</ele><time>2026-05-02T13:57:02.034Z</time></trkpt><trkpt lat="44.9024983" lon="9.552275"><ele>484.00000000000006</ele><time>2026-05-02T13:57:04.037Z</time></trkpt><trkpt lat="44.902545" lon="9.55241"><ele>484.0</ele><time>2026-05-02T13:57:06.035Z</time></trkpt><trkpt lat="44.9025817" lon="9.5525567"><ele>483.4285714285714</ele><time>2026-05-02T13:57:08.034Z</time></trkpt><trkpt lat="44.9026017" lon="9.5526417"><ele>482.8571428571428</ele><time>2026-05-02T13:57:09.038Z</time></trkpt><trkpt lat="44.9026567" lon="9.5527117"><ele>482.2857142857143</ele><time>2026-05-02T13:57:10.036Z</time></trkpt><trkpt lat="44.9026833" lon="9.5527967"><ele>481.71428571428567</ele><time>2026-05-02T13:57:11.039Z</time></trkpt><trkpt lat="44.9027117" lon="9.55289"><ele>481.1428571428571</ele><time>2026-05-02T13:57:12.037Z</time></trkpt><trkpt lat="44.9027233" lon="9.5529933"><ele>480.57142857142856</ele><time>2026-05-02T13:57:13.035Z</time></trkpt><trkpt lat="44.9027483" lon="9.553095"><ele>480.0</ele><time>2026-05-02T13:57:14.034Z</time></trkpt><trkpt lat="44.9028333" lon="9.553275"><ele>480.0</ele><time>2026-05-02T13:57:15.037Z</time></trkpt><trkpt lat="44.9028733" lon="9.55339"><ele>480.0</ele><time>2026-05-02T13:57:16.039Z</time></trkpt><trkpt lat="44.9029083" lon="9.5535"><ele>480.0</ele><time>2026-05-02T13:57:17.036Z</time></trkpt><trkpt lat="44.9029383" lon="9.553605"><ele>480.0</ele><time>2026-05-02T13:57:18.039Z</time></trkpt><trkpt lat="44.9029733" lon="9.553705"><ele>480.0</ele><time>2026-05-02T13:57:19.039Z</time></trkpt><trkpt lat="44.9030233" lon="9.5537983"><ele>480.0</ele><time>2026-05-02T13:57:20.036Z</time></trkpt><trkpt lat="44.9030867" lon="9.5538683"><ele>478.0</ele><time>2026-05-02T13:57:21.035Z</time></trkpt><trkpt lat="44.9031467" lon="9.5539417"><ele>476.0</ele><time>2026-05-02T13:57:22.035Z</time></trkpt><trkpt lat="44.9032133" lon="9.5540083"><ele>474.0</ele><time>2026-05-02T13:57:23.033Z</time></trkpt><trkpt lat="44.9032917" lon="9.55406"><ele>472.0</ele><time>2026-05-02T13:57:24.037Z</time></trkpt><trkpt lat="44.9033617" lon="9.5541233"><ele>470.0</ele><time>2026-05-02T13:57:25.035Z</time></trkpt><trkpt lat="44.90343" lon="9.5541983"><ele>468.0</ele><time>2026-05-02T13:57:26.038Z</time></trkpt><trkpt lat="44.9034917" lon="9.5542667"><ele>468.0</ele><time>2026-05-02T13:57:27.035Z</time></trkpt><trkpt lat="44.9035367" lon="9.5543433"><ele>468.0</ele><time>2026-05-02T13:57:28.034Z</time></trkpt><trkpt lat="44.9035583" lon="9.5544283"><ele>468.0</ele><time>2026-05-02T13:57:29.038Z</time></trkpt><trkpt lat="44.903565" lon="9.5545167"><ele>468.0</ele><time>2026-05-02T13:57:30.038Z</time></trkpt><trkpt lat="44.90357" lon="9.5546067"><ele>468.0</ele><time>2026-05-02T13:57:31.04Z</time></trkpt><trkpt lat="44.90357" lon="9.5547633"><ele>468.0</ele><time>2026-05-02T13:57:33.042Z</time></trkpt><trkpt lat="44.9036383" lon="9.5549017"><ele>465.75</ele><time>2026-05-02T13:57:35.036Z</time></trkpt><trkpt lat="44.9037417" lon="9.5549217"><ele>463.5</ele><time>2026-05-02T13:57:37.041Z</time></trkpt><trkpt lat="44.9038417" lon="9.55493"><ele>461.25</ele><time>2026-05-02T13:57:39.035Z</time></trkpt><trkpt lat="44.9039567" lon="9.554875"><ele>459.0</ele><time>2026-05-02T13:57:41.037Z</time></trkpt><trkpt lat="44.9040717" lon="9.5547933"><ele>459.0</ele><time>2026-05-02T13:57:43.033Z</time></trkpt><trkpt lat="44.9041367" lon="9.55474"><ele>459.0</ele><time>2026-05-02T13:57:44.03Z</time></trkpt><trkpt lat="44.9042017" lon="9.5546817"><ele>459.0</ele><time>2026-05-02T13:57:45.038Z</time></trkpt><trkpt lat="44.9042633" lon="9.55461"><ele>459.0</ele><time>2026-05-02T13:57:46.038Z</time></trkpt><trkpt lat="44.904335" lon="9.5545567"><ele>459.0</ele><time>2026-05-02T13:57:47.037Z</time></trkpt><trkpt lat="44.904405" lon="9.5544717"><ele>459.0</ele><time>2026-05-02T13:57:48.037Z</time></trkpt><trkpt lat="44.904475" lon="9.554395"><ele>457.1666666666667</ele><time>2026-05-02T13:57:49.039Z</time></trkpt><trkpt lat="44.90455" lon="9.5543083"><ele>455.33333333333337</ele><time>2026-05-02T13:57:50.04Z</time></trkpt><trkpt lat="44.9046117" lon="9.554225"><ele>453.5</ele><time>2026-05-02T13:57:51.041Z</time></trkpt><trkpt lat="44.9046733" lon="9.5541467"><ele>451.6666666666667</ele><time>2026-05-02T13:57:52.037Z</time></trkpt><trkpt lat="44.90474" lon="9.554065"><ele>449.83333333333337</ele><time>2026-05-02T13:57:53.039Z</time></trkpt><trkpt lat="44.9048" lon="9.5539817"><ele>448.0</ele><time>2026-05-02T13:57:54.033Z</time></trkpt><trkpt lat="44.9048667" lon="9.5538567"><ele>448.00000000000006</ele><time>2026-05-02T13:57:55.042Z</time></trkpt><trkpt lat="44.904925" lon="9.5537417"><ele>448.0</ele><time>2026-05-02T13:57:56.036Z</time></trkpt><trkpt lat="44.9049767" lon="9.55366"><ele>448.0</ele><time>2026-05-02T13:57:57.039Z</time></trkpt><trkpt lat="44.90505" lon="9.5535767"><ele>448.0</ele><time>2026-05-02T13:57:58.037Z</time></trkpt><trkpt lat="44.9051183" lon="9.5535167"><ele>448.00000000000006</ele><time>2026-05-02T13:57:59.036Z</time></trkpt><trkpt lat="44.9051933" lon="9.55347"><ele>448.0</ele><time>2026-05-02T13:58:00.036Z</time></trkpt><trkpt lat="44.9052767" lon="9.553445"><ele>448.4</ele><time>2026-05-02T13:58:01.035Z</time></trkpt><trkpt lat="44.9053667" lon="9.553455"><ele>448.79999999999995</ele><time>2026-05-02T13:58:02.035Z</time></trkpt><trkpt lat="44.9054633" lon="9.553485"><ele>449.2</ele><time>2026-05-02T13:58:03.042Z</time></trkpt><trkpt lat="44.9055533" lon="9.5535183"><ele>449.6</ele><time>2026-05-02T13:58:04.035Z</time></trkpt><trkpt lat="44.9056517" lon="9.5535617"><ele>450.0</ele><time>2026-05-02T13:58:05.035Z</time></trkpt><trkpt lat="44.9057583" lon="9.5536067"><ele>450.0</ele><time>2026-05-02T13:58:06.033Z</time></trkpt><trkpt lat="44.9058617" lon="9.553645"><ele>450.0</ele><time>2026-05-02T13:58:07.033Z</time></trkpt><trkpt lat="44.9059617" lon="9.5536933"><ele>450.0</ele><time>2026-05-02T13:58:08.04Z</time></trkpt><trkpt lat="44.906065" lon="9.55373"><ele>450.0</ele><time>2026-05-02T13:58:09.041Z</time></trkpt><trkpt lat="44.90617" lon="9.553785"><ele>450.0</ele><time>2026-05-02T13:58:10.038Z</time></trkpt><trkpt lat="44.906265" lon="9.55386"><ele>448.0</ele><time>2026-05-02T13:58:11.035Z</time></trkpt><trkpt lat="44.906345" lon="9.5539567"><ele>446.0</ele><time>2026-05-02T13:58:12.034Z</time></trkpt><trkpt lat="44.9064233" lon="9.554045"><ele>444.0</ele><time>2026-05-02T13:58:13.035Z</time></trkpt><trkpt lat="44.906495" lon="9.55413"><ele>442.0</ele><time>2026-05-02T13:58:14.034Z</time></trkpt><trkpt lat="44.9065717" lon="9.5541933"><ele>440.0</ele><time>2026-05-02T13:58:15.036Z</time></trkpt><trkpt lat="44.90665" lon="9.55423"><ele>440.0</ele><time>2026-05-02T13:58:16.039Z</time></trkpt><trkpt lat="44.906735" lon="9.55425"><ele>440.0</ele><time>2026-05-02T13:58:17.036Z</time></trkpt><trkpt lat="44.9068233" lon="9.5542467"><ele>440.0</ele><time>2026-05-02T13:58:18.031Z</time></trkpt><trkpt lat="44.9069167" lon="9.5542417"><ele>440.0</ele><time>2026-05-02T13:58:19.043Z</time></trkpt><trkpt lat="44.907015" lon="9.5542233"><ele>440.0</ele><time>2026-05-02T13:58:20.035Z</time></trkpt><trkpt lat="44.9071133" lon="9.5542"><ele>439.0</ele><time>2026-05-02T13:58:21.042Z</time></trkpt><trkpt lat="44.9072117" lon="9.5541733"><ele>438.0</ele><time>2026-05-02T13:58:22.039Z</time></trkpt><trkpt lat="44.90731" lon="9.5541617"><ele>437.0</ele><time>2026-05-02T13:58:23.036Z</time></trkpt><trkpt lat="44.9074083" lon="9.5541517"><ele>436.0</ele><time>2026-05-02T13:58:24.045Z</time></trkpt><trkpt lat="44.90751" lon="9.5541333"><ele>435.0</ele><time>2026-05-02T13:58:25.038Z</time></trkpt><trkpt lat="44.9076083" lon="9.5541067"><ele>434.0</ele><time>2026-05-02T13:58:26.035Z</time></trkpt><trkpt lat="44.9077033" lon="9.554095"><ele>433.0</ele><time>2026-05-02T13:58:27.041Z</time></trkpt><trkpt lat="44.9077867" lon="9.554135"><ele>432.0</ele><time>2026-05-02T13:58:28.035Z</time></trkpt><trkpt lat="44.907865" lon="9.554185"><ele>431.0</ele><time>2026-05-02T13:58:29.034Z</time></trkpt><trkpt lat="44.907945" lon="9.554255"><ele>430.0</ele><time>2026-05-02T13:58:30.033Z</time></trkpt><trkpt lat="44.9080167" lon="9.5543433"><ele>430.0</ele><time>2026-05-02T13:58:31.038Z</time></trkpt><trkpt lat="44.9080817" lon="9.554435"><ele>430.0</ele><time>2026-05-02T13:58:32.035Z</time></trkpt><trkpt lat="44.90815" lon="9.554535"><ele>430.0</ele><time>2026-05-02T13:58:33.047Z</time></trkpt><trkpt lat="44.90822" lon="9.55463"><ele>430.0</ele><time>2026-05-02T13:58:34.036Z</time></trkpt><trkpt lat="44.90829" lon="9.5547333"><ele>430.0</ele><time>2026-05-02T13:58:35.033Z</time></trkpt><trkpt lat="44.90835" lon="9.5548317"><ele>427.8</ele><time>2026-05-02T13:58:36.035Z</time></trkpt><trkpt lat="44.9084067" lon="9.55493"><ele>425.6</ele><time>2026-05-02T13:58:37.035Z</time></trkpt><trkpt lat="44.9084583" lon="9.5550317"><ele>423.4</ele><time>2026-05-02T13:58:38.039Z</time></trkpt><trkpt lat="44.9085067" lon="9.5551233"><ele>421.2</ele><time>2026-05-02T13:58:39.036Z</time></trkpt><trkpt lat="44.908455" lon="9.555275"><ele>419.0</ele><time>2026-05-02T13:58:41.035Z</time></trkpt><trkpt lat="44.90837" lon="9.5553833"><ele>417.0</ele><time>2026-05-02T13:58:43.037Z</time></trkpt><trkpt lat="44.9082533" lon="9.5554467"><ele>415.0</ele><time>2026-05-02T13:58:45.037Z</time></trkpt><trkpt lat="44.9081617" lon="9.5554617"><ele>413.0</ele><time>2026-05-02T13:58:46.036Z</time></trkpt><trkpt lat="44.9080567" lon="9.5554867"><ele>411.0</ele><time>2026-05-02T13:58:47.038Z</time></trkpt><trkpt lat="44.9079633" lon="9.55552"><ele>409.0</ele><time>2026-05-02T13:58:48.035Z</time></trkpt><trkpt lat="44.90787" lon="9.55556"><ele>409.0</ele><time>2026-05-02T13:58:49.041Z</time></trkpt><trkpt lat="44.9077783" lon="9.5556"><ele>409.0</ele><time>2026-05-02T13:58:50.033Z</time></trkpt><trkpt lat="44.9076867" lon="9.5556367"><ele>409.0</ele><time>2026-05-02T13:58:51.037Z</time></trkpt><trkpt lat="44.9075983" lon="9.5556717"><ele>409.0</ele><time>2026-05-02T13:58:52.035Z</time></trkpt><trkpt lat="44.907515" lon="9.55571"><ele>409.0</ele><time>2026-05-02T13:58:53.036Z</time></trkpt><trkpt lat="44.907435" lon="9.5557433"><ele>409.50000000000006</ele><time>2026-05-02T13:58:54.037Z</time></trkpt><trkpt lat="44.9073533" lon="9.5557817"><ele>410.0</ele><time>2026-05-02T13:58:55.039Z</time></trkpt><trkpt lat="44.9072817" lon="9.5558333"><ele>410.5</ele><time>2026-05-02T13:58:56.037Z</time></trkpt><trkpt lat="44.907225" lon="9.555895"><ele>411.0</ele><time>2026-05-02T13:58:57.036Z</time></trkpt><trkpt lat="44.90719" lon="9.55598"><ele>411.50000000000006</ele><time>2026-05-02T13:58:58.035Z</time></trkpt><trkpt lat="44.907195" lon="9.556085"><ele>412.0</ele><time>2026-05-02T13:58:59.039Z</time></trkpt><trkpt lat="44.907215" lon="9.556195"><ele>410.33333333333337</ele><time>2026-05-02T13:59:00.035Z</time></trkpt><trkpt lat="44.9072583" lon="9.556295"><ele>408.6666666666667</ele><time>2026-05-02T13:59:01.04Z</time></trkpt><trkpt lat="44.9073317" lon="9.5563167"><ele>407.0</ele><time>2026-05-02T13:59:02.035Z</time></trkpt><trkpt lat="44.9074083" lon="9.5563433"><ele>405.33333333333337</ele><time>2026-05-02T13:59:03.038Z</time></trkpt><trkpt lat="44.907495" lon="9.55636"><ele>403.6666666666667</ele><time>2026-05-02T13:59:04.035Z</time></trkpt><trkpt lat="44.907585" lon="9.55638"><ele>402.0</ele><time>2026-05-02T13:59:05.039Z</time></trkpt><trkpt lat="44.9076717" lon="9.5563967"><ele>401.6</ele><time>2026-05-02T13:59:06.039Z</time></trkpt><trkpt lat="44.9077617" lon="9.5564117"><ele>401.20000000000005</ele><time>2026-05-02T13:59:07.053Z</time></trkpt><trkpt lat="44.9078517" lon="9.5564283"><ele>400.8</ele><time>2026-05-02T13:59:08.035Z</time></trkpt><trkpt lat="44.9079433" lon="9.556455"><ele>400.4</ele><time>2026-05-02T13:59:09.035Z</time></trkpt><trkpt lat="44.9080367" lon="9.55649"><ele>400.0</ele><time>2026-05-02T13:59:10.036Z</time></trkpt><trkpt lat="44.90813" lon="9.556535"><ele>400.0</ele><time>2026-05-02T13:59:11.04Z</time></trkpt><trkpt lat="44.908225" lon="9.556575"><ele>400.0</ele><time>2026-05-02T13:59:12.04Z</time></trkpt><trkpt lat="44.9083167" lon="9.5566067"><ele>400.0</ele><time>2026-05-02T13:59:13.037Z</time></trkpt><trkpt lat="44.9084083" lon="9.5566083"><ele>400.0</ele><time>2026-05-02T13:59:14.037Z</time></trkpt><trkpt lat="44.9085" lon="9.55658"><ele>400.0</ele><time>2026-05-02T13:59:15.038Z</time></trkpt><trkpt lat="44.9085817" lon="9.5565383"><ele>397.6</ele><time>2026-05-02T13:59:16.039Z</time></trkpt><trkpt lat="44.9086617" lon="9.5564633"><ele>395.2</ele><time>2026-05-02T13:59:17.037Z</time></trkpt><trkpt lat="44.9087367" lon="9.5564067"><ele>392.79999999999995</ele><time>2026-05-02T13:59:18.034Z</time></trkpt><trkpt lat="44.9088167" lon="9.55631"><ele>390.4</ele><time>2026-05-02T13:59:19.039Z</time></trkpt><trkpt lat="44.9088933" lon="9.556255"><ele>388.0</ele><time>2026-05-02T13:59:20.038Z</time></trkpt><trkpt lat="44.9089783" lon="9.5562083"><ele>388.79999999999995</ele><time>2026-05-02T13:59:21.037Z</time></trkpt><trkpt lat="44.9090683" lon="9.556165"><ele>389.6</ele><time>2026-05-02T13:59:22.035Z</time></trkpt><trkpt lat="44.9091583" lon="9.5561233"><ele>390.4</ele><time>2026-05-02T13:59:23.035Z</time></trkpt><trkpt lat="44.9092467" lon="9.5560767"><ele>391.20000000000005</ele><time>2026-05-02T13:59:24.034Z</time></trkpt><trkpt lat="44.9093333" lon="9.55604"><ele>392.0</ele><time>2026-05-02T13:59:25.037Z</time></trkpt><trkpt lat="44.9094167" lon="9.5560183"><ele>391.99999999999994</ele><time>2026-05-02T13:59:26.035Z</time></trkpt><trkpt lat="44.9094933" lon="9.5560133"><ele>392.0</ele><time>2026-05-02T13:59:27.036Z</time></trkpt><trkpt lat="44.9095617" lon="9.5560217"><ele>392.0</ele><time>2026-05-02T13:59:28.037Z</time></trkpt><trkpt lat="44.90966" lon="9.5561217"><ele>392.0</ele><time>2026-05-02T13:59:30.037Z</time></trkpt><trkpt lat="44.909715" lon="9.5561783"><ele>391.99999999999994</ele><time>2026-05-02T13:59:31.041Z</time></trkpt><trkpt lat="44.9097733" lon="9.55623"><ele>392.0</ele><time>2026-05-02T13:59:32.041Z</time></trkpt><trkpt lat="44.9098333" lon="9.556275"><ele>390.20000000000005</ele><time>2026-05-02T13:59:33.036Z</time></trkpt><trkpt lat="44.9099033" lon="9.5562983"><ele>388.4</ele><time>2026-05-02T13:59:34.035Z</time></trkpt><trkpt lat="44.9100233" lon="9.55631"><ele>386.6</ele><time>2026-05-02T13:59:36.039Z</time></trkpt><trkpt lat="44.9101383" lon="9.55632"><ele>384.79999999999995</ele><time>2026-05-02T13:59:38.036Z</time></trkpt><trkpt lat="44.9102567" lon="9.556315"><ele>383.0</ele><time>2026-05-02T13:59:40.036Z</time></trkpt><trkpt lat="44.91037" lon="9.5563167"><ele>383.0</ele><time>2026-05-02T13:59:42.035Z</time></trkpt><trkpt lat="44.9104833" lon="9.5563183"><ele>383.0</ele><time>2026-05-02T13:59:44.038Z</time></trkpt><trkpt lat="44.91059" lon="9.55632"><ele>383.0</ele><time>2026-05-02T13:59:46.034Z</time></trkpt><trkpt lat="44.9106883" lon="9.5562883"><ele>383.0</ele><time>2026-05-02T13:59:48.037Z</time></trkpt><trkpt lat="44.9107567" lon="9.5562733"><ele>383.0</ele><time>2026-05-02T13:59:50.036Z</time></trkpt><trkpt lat="44.91084" lon="9.5563067"><ele>383.0</ele><time>2026-05-02T14:01:00.039Z</time></trkpt><trkpt lat="44.910905" lon="9.5563267"><ele>383.0</ele><time>2026-05-02T14:01:02.039Z</time></trkpt><trkpt lat="44.91099" lon="9.556335"><ele>383.0</ele><time>2026-05-02T14:01:04.044Z</time></trkpt><trkpt lat="44.911085" lon="9.5563483"><ele>383.0</ele><time>2026-05-02T14:01:06.038Z</time></trkpt><trkpt lat="44.9111783" lon="9.5563517"><ele>383.0</ele><time>2026-05-02T14:01:08.039Z</time></trkpt><trkpt lat="44.9112633" lon="9.5563517"><ele>383.0</ele><time>2026-05-02T14:01:10.038Z</time></trkpt><trkpt lat="44.9113433" lon="9.55637"><ele>383.2857142857143</ele><time>2026-05-02T14:01:12.036Z</time></trkpt><trkpt lat="44.911405" lon="9.5563983"><ele>383.57142857142856</ele><time>2026-05-02T14:01:14.038Z</time></trkpt><trkpt lat="44.9114383" lon="9.556475"><ele>383.8571428571429</ele><time>2026-05-02T14:01:16.041Z</time></trkpt><trkpt lat="44.9114683" lon="9.5565683"><ele>384.1428571428571</ele><time>2026-05-02T14:01:18.036Z</time></trkpt><trkpt lat="44.9114833" lon="9.5566983"><ele>384.42857142857144</ele><time>2026-05-02T14:01:20.035Z</time></trkpt><trkpt lat="44.9114883" lon="9.5567883"><ele>384.7142857142857</ele><time>2026-05-02T14:01:21.039Z</time></trkpt><trkpt lat="44.9114867" lon="9.55688"><ele>385.0</ele><time>2026-05-02T14:01:22.036Z</time></trkpt><trkpt lat="44.9114917" lon="9.5570367"><ele>383.4</ele><time>2026-05-02T14:01:24.036Z</time></trkpt><trkpt lat="44.91149" lon="9.5571933"><ele>381.8</ele><time>2026-05-02T14:01:26.036Z</time></trkpt><trkpt lat="44.9114817" lon="9.557325"><ele>380.20000000000005</ele><time>2026-05-02T14:01:28.032Z</time></trkpt><trkpt lat="44.9114483" lon="9.55746"><ele>378.6</ele><time>2026-05-02T14:01:30.035Z</time></trkpt><trkpt lat="44.91139" lon="9.5576133"><ele>377.0</ele><time>2026-05-02T14:01:32.034Z</time></trkpt><trkpt lat="44.9113667" lon="9.5577017"><ele>376.99999999999994</ele><time>2026-05-02T14:01:33.036Z</time></trkpt><trkpt lat="44.9113533" lon="9.5577933"><ele>377.0</ele><time>2026-05-02T14:01:34.036Z</time></trkpt><trkpt lat="44.911355" lon="9.55789"><ele>377.0</ele><time>2026-05-02T14:01:35.041Z</time></trkpt><trkpt lat="44.91136" lon="9.5579883"><ele>377.0</ele><time>2026-05-02T14:01:36.038Z</time></trkpt><trkpt lat="44.9113617" lon="9.5580817"><ele>377.0</ele><time>2026-05-02T14:01:37.035Z</time></trkpt><trkpt lat="44.9113667" lon="9.5581733"><ele>376.99999999999994</ele><time>2026-05-02T14:01:38.033Z</time></trkpt><trkpt lat="44.91138" lon="9.5582683"><ele>377.0</ele><time>2026-05-02T14:01:39.035Z</time></trkpt><trkpt lat="44.91139" lon="9.55836"><ele>375.83333333333337</ele><time>2026-05-02T14:01:40.038Z</time></trkpt><trkpt lat="44.91139" lon="9.55845"><ele>374.6666666666667</ele><time>2026-05-02T14:01:41.036Z</time></trkpt><trkpt lat="44.91139" lon="9.55854"><ele>373.5</ele><time>2026-05-02T14:01:42.037Z</time></trkpt><trkpt lat="44.9114017" lon="9.5586283"><ele>372.3333333333333</ele><time>2026-05-02T14:01:43.037Z</time></trkpt><trkpt lat="44.9114183" lon="9.5587967"><ele>371.16666666666663</ele><time>2026-05-02T14:01:45.042Z</time></trkpt><trkpt lat="44.9114367" lon="9.5589783"><ele>370.0</ele><time>2026-05-02T14:01:47.035Z</time></trkpt><trkpt lat="44.9114433" lon="9.5590767"><ele>369.0</ele><time>2026-05-02T14:01:48.038Z</time></trkpt><trkpt lat="44.91145" lon="9.5591733"><ele>368.0</ele><time>2026-05-02T14:01:49.04Z</time></trkpt><trkpt lat="44.9114617" lon="9.55927"><ele>367.0</ele><time>2026-05-02T14:01:50.036Z</time></trkpt><trkpt lat="44.911475" lon="9.5593617"><ele>366.0</ele><time>2026-05-02T14:01:51.036Z</time></trkpt><trkpt lat="44.911485" lon="9.5594517"><ele>365.0</ele><time>2026-05-02T14:01:52.036Z</time></trkpt><trkpt lat="44.911505" lon="9.5596217"><ele>364.0</ele><time>2026-05-02T14:01:54.035Z</time></trkpt><trkpt lat="44.9115217" lon="9.5597917"><ele>362.79999999999995</ele><time>2026-05-02T14:01:56.039Z</time></trkpt><trkpt lat="44.9115233" lon="9.559965"><ele>361.59999999999997</ele><time>2026-05-02T14:01:58.032Z</time></trkpt><trkpt lat="44.9115167" lon="9.5601233"><ele>360.4</ele><time>2026-05-02T14:02:00.035Z</time></trkpt><trkpt lat="44.9115117" lon="9.5602617"><ele>359.2</ele><time>2026-05-02T14:02:02.037Z</time></trkpt><trkpt lat="44.9115167" lon="9.5603733"><ele>358.0</ele><time>2026-05-02T14:02:04.038Z</time></trkpt><trkpt lat="44.91154" lon="9.56049"><ele>356.79999999999995</ele><time>2026-05-02T14:02:06.036Z</time></trkpt><trkpt lat="44.911595" lon="9.5606033"><ele>355.6</ele><time>2026-05-02T14:02:08.029Z</time></trkpt><trkpt lat="44.911675" lon="9.5607017"><ele>354.4</ele><time>2026-05-02T14:02:10.038Z</time></trkpt><trkpt lat="44.9117583" lon="9.5608017"><ele>353.20000000000005</ele><time>2026-05-02T14:02:12.037Z</time></trkpt><trkpt lat="44.9118283" lon="9.5609117"><ele>352.0</ele><time>2026-05-02T14:02:14.035Z</time></trkpt><trkpt lat="44.91188" lon="9.5610083"><ele>350.40000000000003</ele><time>2026-05-02T14:02:16.038Z</time></trkpt><trkpt lat="44.911885" lon="9.5611433"><ele>348.8</ele><time>2026-05-02T14:02:18.042Z</time></trkpt><trkpt lat="44.91184" lon="9.5612733"><ele>347.2</ele><time>2026-05-02T14:02:20.036Z</time></trkpt><trkpt lat="44.9117783" lon="9.5613867"><ele>345.6</ele><time>2026-05-02T14:02:22.039Z</time></trkpt><trkpt lat="44.9116983" lon="9.5614583"><ele>344.0</ele><time>2026-05-02T14:02:24.041Z</time></trkpt><trkpt lat="44.9116183" lon="9.5614867"><ele>344.0</ele><time>2026-05-02T14:02:26.038Z</time></trkpt><trkpt lat="44.9115533" lon="9.561525"><ele>344.0</ele><time>2026-05-02T14:02:28.035Z</time></trkpt><trkpt lat="44.911535" lon="9.5616467"><ele>344.0</ele><time>2026-05-02T14:02:31.039Z</time></trkpt><trkpt lat="44.9115933" lon="9.5616983"><ele>344.0</ele><time>2026-05-02T14:02:34.034Z</time></trkpt><trkpt lat="44.91166" lon="9.5616317"><ele>344.0</ele><time>2026-05-02T14:02:38.037Z</time></trkpt><trkpt lat="44.9117417" lon="9.56164"><ele>344.0</ele><time>2026-05-02T14:02:41.035Z</time></trkpt><trkpt lat="44.911805" lon="9.5616533"><ele>343.0</ele><time>2026-05-02T14:02:43.04Z</time></trkpt><trkpt lat="44.9118933" lon="9.56164"><ele>342.0</ele><time>2026-05-02T14:02:46.037Z</time></trkpt><trkpt lat="44.9119767" lon="9.561615"><ele>341.0</ele><time>2026-05-02T14:02:48.037Z</time></trkpt><trkpt lat="44.9120567" lon="9.5615817"><ele>340.0</ele><time>2026-05-02T14:02:50.039Z</time></trkpt><trkpt lat="44.9121333" lon="9.5615433"><ele>339.0</ele><time>2026-05-02T14:02:52.038Z</time></trkpt><trkpt lat="44.9122133" lon="9.5615083"><ele>338.0</ele><time>2026-05-02T14:02:54.036Z</time></trkpt><trkpt lat="44.9122983" lon="9.5615133"><ele>338.0</ele><time>2026-05-02T14:02:56.041Z</time></trkpt><trkpt lat="44.9123883" lon="9.56162"><ele>338.0</ele><time>2026-05-02T14:02:58.035Z</time></trkpt><trkpt lat="44.9124333" lon="9.56169"><ele>338.0</ele><time>2026-05-02T14:02:59.038Z</time></trkpt><trkpt lat="44.9124833" lon="9.5617717"><ele>338.0</ele><time>2026-05-02T14:03:00.038Z</time></trkpt><trkpt lat="44.9125317" lon="9.5618617"><ele>338.0</ele><time>2026-05-02T14:03:01.037Z</time></trkpt><trkpt lat="44.9125783" lon="9.5619617"><ele>338.0</ele><time>2026-05-02T14:03:02.036Z</time></trkpt><trkpt lat="44.91262" lon="9.5620617"><ele>336.0</ele><time>2026-05-02T14:03:03.035Z</time></trkpt><trkpt lat="44.912655" lon="9.56216"><ele>334.0</ele><time>2026-05-02T14:03:04.036Z</time></trkpt><trkpt lat="44.9126817" lon="9.5622583"><ele>332.0</ele><time>2026-05-02T14:03:05.035Z</time></trkpt><trkpt lat="44.9127083" lon="9.562365"><ele>330.0</ele><time>2026-05-02T14:03:06.037Z</time></trkpt><trkpt lat="44.9127233" lon="9.5624717"><ele>328.0</ele><time>2026-05-02T14:03:07.036Z</time></trkpt><trkpt lat="44.912735" lon="9.5625783"><ele>326.0</ele><time>2026-05-02T14:03:08.037Z</time></trkpt><trkpt lat="44.912745" lon="9.5626867"><ele>326.0</ele><time>2026-05-02T14:03:09.037Z</time></trkpt><trkpt lat="44.91276" lon="9.5627967"><ele>326.0</ele><time>2026-05-02T14:03:10.038Z</time></trkpt><trkpt lat="44.912765" lon="9.5629033"><ele>326.0</ele><time>2026-05-02T14:03:11.038Z</time></trkpt><trkpt lat="44.9127733" lon="9.5630067"><ele>326.0</ele><time>2026-05-02T14:03:12.038Z</time></trkpt><trkpt lat="44.91279" lon="9.5631117"><ele>326.0</ele><time>2026-05-02T14:03:13.035Z</time></trkpt><trkpt lat="44.9128033" lon="9.5632167"><ele>326.0</ele><time>2026-05-02T14:03:14.036Z</time></trkpt><trkpt lat="44.9128133" lon="9.5633183"><ele>325.83333333333337</ele><time>2026-05-02T14:03:15.04Z</time></trkpt><trkpt lat="44.9128367" lon="9.56342"><ele>325.6666666666667</ele><time>2026-05-02T14:03:16.034Z</time></trkpt><trkpt lat="44.91287" lon="9.5635183"><ele>325.5</ele><time>2026-05-02T14:03:17.036Z</time></trkpt><trkpt lat="44.91291" lon="9.56361"><ele>325.3333333333333</ele><time>2026-05-02T14:03:18.036Z</time></trkpt><trkpt lat="44.9129583" lon="9.5636967"><ele>325.16666666666663</ele><time>2026-05-02T14:03:19.039Z</time></trkpt><trkpt lat="44.9130083" lon="9.5637817"><ele>325.0</ele><time>2026-05-02T14:03:20.036Z</time></trkpt><trkpt lat="44.9130567" lon="9.5638633"><ele>324.3333333333333</ele><time>2026-05-02T14:03:21.034Z</time></trkpt><trkpt lat="44.91311" lon="9.5639417"><ele>323.66666666666663</ele><time>2026-05-02T14:03:22.036Z</time></trkpt><trkpt lat="44.9131667" lon="9.56402"><ele>323.0</ele><time>2026-05-02T14:03:23.033Z</time></trkpt><trkpt lat="44.9132217" lon="9.5640967"><ele>322.3333333333333</ele><time>2026-05-02T14:03:24.035Z</time></trkpt><trkpt lat="44.913275" lon="9.5641767"><ele>321.6666666666667</ele><time>2026-05-02T14:03:25.034Z</time></trkpt><trkpt lat="44.9133267" lon="9.5642483"><ele>321.0</ele><time>2026-05-02T14:03:26.034Z</time></trkpt><trkpt lat="44.9133717" lon="9.5643217"><ele>319.85714285714283</ele><time>2026-05-02T14:03:27.039Z</time></trkpt><trkpt lat="44.9134117" lon="9.564395"><ele>318.7142857142857</ele><time>2026-05-02T14:03:28.037Z</time></trkpt><trkpt lat="44.9134433" lon="9.5644783"><ele>317.57142857142856</ele><time>2026-05-02T14:03:29.034Z</time></trkpt><trkpt lat="44.9134667" lon="9.5645633"><ele>316.42857142857144</ele><time>2026-05-02T14:03:30.036Z</time></trkpt><trkpt lat="44.9134883" lon="9.5646567"><ele>315.2857142857143</ele><time>2026-05-02T14:03:31.039Z</time></trkpt><trkpt lat="44.913515" lon="9.5647617"><ele>314.1428571428571</ele><time>2026-05-02T14:03:32.039Z</time></trkpt><trkpt lat="44.9135317" lon="9.5648683"><ele>313.0</ele><time>2026-05-02T14:03:33.041Z</time></trkpt><trkpt lat="44.913555" lon="9.56498"><ele>313.0</ele><time>2026-05-02T14:03:34.039Z</time></trkpt><trkpt lat="44.91357" lon="9.565095"><ele>313.0</ele><time>2026-05-02T14:03:35.041Z</time></trkpt><trkpt lat="44.91358" lon="9.56521"><ele>313.0</ele><time>2026-05-02T14:03:36.026Z</time></trkpt><trkpt lat="44.9135867" lon="9.5653283"><ele>313.0</ele><time>2026-05-02T14:03:37.042Z</time></trkpt><trkpt lat="44.9136033" lon="9.5654483"><ele>313.0</ele><time>2026-05-02T14:03:38.038Z</time></trkpt><trkpt lat="44.9136267" lon="9.5655717"><ele>313.0</ele><time>2026-05-02T14:03:39.037Z</time></trkpt><trkpt lat="44.9136417" lon="9.565695"><ele>312.6</ele><time>2026-05-02T14:03:40.036Z</time></trkpt><trkpt lat="44.9136483" lon="9.5658167"><ele>312.20000000000005</ele><time>2026-05-02T14:03:41.036Z</time></trkpt><trkpt lat="44.9136633" lon="9.565935"><ele>311.8</ele><time>2026-05-02T14:03:42.038Z</time></trkpt><trkpt lat="44.9136767" lon="9.566035"><ele>311.40000000000003</ele><time>2026-05-02T14:03:43.041Z</time></trkpt><trkpt lat="44.9136717" lon="9.5661933"><ele>311.0</ele><time>2026-05-02T14:03:45.037Z</time></trkpt><trkpt lat="44.9136633" lon="9.566345"><ele>310.4285714285714</ele><time>2026-05-02T14:03:47.034Z</time></trkpt><trkpt lat="44.9136817" lon="9.5664583"><ele>309.8571428571429</ele><time>2026-05-02T14:03:49.039Z</time></trkpt><trkpt lat="44.9137133" lon="9.5665417"><ele>309.2857142857143</ele><time>2026-05-02T14:03:51.04Z</time></trkpt><trkpt lat="44.9137683" lon="9.5666367"><ele>308.71428571428567</ele><time>2026-05-02T14:03:54.04Z</time></trkpt><trkpt lat="44.91382" lon="9.5666917"><ele>308.1428571428571</ele><time>2026-05-02T14:03:57.04Z</time></trkpt><trkpt lat="44.9138717" lon="9.56675"><ele>307.57142857142856</ele><time>2026-05-02T14:04:00.04Z</time></trkpt><trkpt lat="44.9139133" lon="9.5668367"><ele>307.0</ele><time>2026-05-02T14:04:03.038Z</time></trkpt><trkpt lat="44.913935" lon="9.5669533"><ele>305.6</ele><time>2026-05-02T14:04:05.037Z</time></trkpt><trkpt lat="44.91398" lon="9.5671"><ele>304.2</ele><time>2026-05-02T14:04:07.039Z</time></trkpt><trkpt lat="44.91404" lon="9.5672167"><ele>302.8</ele><time>2026-05-02T14:04:09.04Z</time></trkpt><trkpt lat="44.9141067" lon="9.5673233"><ele>301.4</ele><time>2026-05-02T14:04:11.033Z</time></trkpt><trkpt lat="44.9141783" lon="9.5674533"><ele>300.0</ele><time>2026-05-02T14:04:13.036Z</time></trkpt><trkpt lat="44.9142367" lon="9.56759"><ele>298.8</ele><time>2026-05-02T14:04:15.036Z</time></trkpt><trkpt lat="44.9142867" lon="9.567715"><ele>297.6</ele><time>2026-05-02T14:04:17.036Z</time></trkpt><trkpt lat="44.9143117" lon="9.5678433"><ele>296.4</ele><time>2026-05-02T14:04:19.036Z</time></trkpt><trkpt lat="44.9143817" lon="9.567985"><ele>295.2</ele><time>2026-05-02T14:04:21.039Z</time></trkpt><trkpt lat="44.9144183" lon="9.5680633"><ele>294.0</ele><time>2026-05-02T14:04:22.04Z</time></trkpt><trkpt lat="44.9144583" lon="9.5681433"><ele>292.7142857142857</ele><time>2026-05-02T14:04:23.035Z</time></trkpt><trkpt lat="44.9144933" lon="9.5682233"><ele>291.42857142857144</ele><time>2026-05-02T14:04:24.039Z</time></trkpt><trkpt lat="44.91453" lon="9.568305"><ele>290.1428571428571</ele><time>2026-05-02T14:04:25.037Z</time></trkpt><trkpt lat="44.9145717" lon="9.5683933"><ele>288.8571428571429</ele><time>2026-05-02T14:04:26.037Z</time></trkpt><trkpt lat="44.914615" lon="9.56848"><ele>287.57142857142856</ele><time>2026-05-02T14:04:27.04Z</time></trkpt><trkpt lat="44.914655" lon="9.5685633"><ele>286.2857142857143</ele><time>2026-05-02T14:04:28.035Z</time></trkpt><trkpt lat="44.9146933" lon="9.568645"><ele>285.0</ele><time>2026-05-02T14:04:29.036Z</time></trkpt><trkpt lat="44.9147383" lon="9.568725"><ele>284.3333333333333</ele><time>2026-05-02T14:04:30.039Z</time></trkpt><trkpt lat="44.9147867" lon="9.568805"><ele>283.6666666666667</ele><time>2026-05-02T14:04:31.039Z</time></trkpt><trkpt lat="44.9148367" lon="9.56888"><ele>283.0</ele><time>2026-05-02T14:04:32.035Z</time></trkpt><trkpt lat="44.9148867" lon="9.5689583"><ele>282.33333333333337</ele><time>2026-05-02T14:04:33.04Z</time></trkpt><trkpt lat="44.9149417" lon="9.5690383"><ele>281.6666666666667</ele><time>2026-05-02T14:04:34.038Z</time></trkpt><trkpt lat="44.915" lon="9.5691183"><ele>281.0</ele><time>2026-05-02T14:04:35.034Z</time></trkpt><trkpt lat="44.9150533" lon="9.56919"><ele>280.5714285714286</ele><time>2026-05-02T14:04:36.038Z</time></trkpt><trkpt lat="44.91511" lon="9.5692617"><ele>280.14285714285717</ele><time>2026-05-02T14:04:37.036Z</time></trkpt><trkpt lat="44.9151667" lon="9.569335"><ele>279.7142857142857</ele><time>2026-05-02T14:04:38.041Z</time></trkpt><trkpt lat="44.9152233" lon="9.569405"><ele>279.28571428571433</ele><time>2026-05-02T14:04:39.035Z</time></trkpt><trkpt lat="44.9152733" lon="9.56948"><ele>278.8571428571429</ele><time>2026-05-02T14:04:40.039Z</time></trkpt><trkpt lat="44.9153183" lon="9.569555"><ele>278.42857142857144</ele><time>2026-05-02T14:04:41.039Z</time></trkpt><trkpt lat="44.9153533" lon="9.5696317"><ele>278.0</ele><time>2026-05-02T14:04:42.042Z</time></trkpt><trkpt lat="44.9153617" lon="9.5698083"><ele>277.0</ele><time>2026-05-02T14:04:44.037Z</time></trkpt><trkpt lat="44.9153383" lon="9.5699717"><ele>276.0</ele><time>2026-05-02T14:04:46.039Z</time></trkpt><trkpt lat="44.91532" lon="9.5701067"><ele>275.0</ele><time>2026-05-02T14:04:48.037Z</time></trkpt><trkpt lat="44.91534" lon="9.5702667"><ele>274.0</ele><time>2026-05-02T14:04:50.035Z</time></trkpt><trkpt lat="44.9153633" lon="9.5704267"><ele>273.0</ele><time>2026-05-02T14:04:52.039Z</time></trkpt><trkpt lat="44.9153767" lon="9.570515"><ele>271.8333333333333</ele><time>2026-05-02T14:04:53.035Z</time></trkpt><trkpt lat="44.9153883" lon="9.570605"><ele>270.6666666666667</ele><time>2026-05-02T14:04:54.037Z</time></trkpt><trkpt lat="44.9154017" lon="9.5706933"><ele>269.5</ele><time>2026-05-02T14:04:55.039Z</time></trkpt><trkpt lat="44.9154133" lon="9.5707817"><ele>268.33333333333337</ele><time>2026-05-02T14:04:56.042Z</time></trkpt><trkpt lat="44.915435" lon="9.5709567"><ele>267.1666666666667</ele><time>2026-05-02T14:04:58.035Z</time></trkpt><trkpt lat="44.9154483" lon="9.5710467"><ele>266.0</ele><time>2026-05-02T14:04:59.033Z</time></trkpt><trkpt lat="44.9154617" lon="9.5711417"><ele>265.0</ele><time>2026-05-02T14:05:00.034Z</time></trkpt><trkpt lat="44.9154717" lon="9.5712383"><ele>264.0</ele><time>2026-05-02T14:05:01.033Z</time></trkpt><trkpt lat="44.915485" lon="9.57133"><ele>263.0</ele><time>2026-05-02T14:05:02.037Z</time></trkpt><trkpt lat="44.9154967" lon="9.5714233"><ele>262.0</ele><time>2026-05-02T14:05:03.042Z</time></trkpt><trkpt lat="44.9155083" lon="9.5715117"><ele>261.0</ele><time>2026-05-02T14:05:04.041Z</time></trkpt><trkpt lat="44.9155333" lon="9.571675"><ele>260.0</ele><time>2026-05-02T14:05:06.039Z</time></trkpt><trkpt lat="44.91554" lon="9.57183"><ele>260.0</ele><time>2026-05-02T14:05:08.038Z</time></trkpt><trkpt lat="44.9155117" lon="9.5719917"><ele>260.0</ele><time>2026-05-02T14:05:10.033Z</time></trkpt><trkpt lat="44.9154617" lon="9.5721517"><ele>260.0</ele><time>2026-05-02T14:05:12.038Z</time></trkpt><trkpt lat="44.9154367" lon="9.5722367"><ele>260.0</ele><time>2026-05-02T14:05:13.044Z</time></trkpt><trkpt lat="44.9154117" lon="9.5723233"><ele>260.0</ele><time>2026-05-02T14:05:14.041Z</time></trkpt><trkpt lat="44.9153867" lon="9.5724083"><ele>260.0</ele><time>2026-05-02T14:05:15.044Z</time></trkpt><trkpt lat="44.9153617" lon="9.5724917"><ele>258.6</ele><time>2026-05-02T14:05:16.037Z</time></trkpt><trkpt lat="44.915325" lon="9.5726433"><ele>257.2</ele><time>2026-05-02T14:05:18.034Z</time></trkpt><trkpt lat="44.9153117" lon="9.57278"><ele>255.8</ele><time>2026-05-02T14:05:20.038Z</time></trkpt><trkpt lat="44.915315" lon="9.5729217"><ele>254.4</ele><time>2026-05-02T14:05:22.038Z</time></trkpt><trkpt lat="44.9153567" lon="9.5730717"><ele>253.0</ele><time>2026-05-02T14:05:24.043Z</time></trkpt><trkpt lat="44.9154083" lon="9.5732167"><ele>251.83333333333331</ele><time>2026-05-02T14:05:26.034Z</time></trkpt><trkpt lat="44.9154683" lon="9.5733233"><ele>250.66666666666666</ele><time>2026-05-02T14:05:28.037Z</time></trkpt><trkpt lat="44.9155533" lon="9.57339"><ele>249.5</ele><time>2026-05-02T14:05:30.039Z</time></trkpt><trkpt lat="44.9156267" lon="9.5734033"><ele>248.33333333333331</ele><time>2026-05-02T14:05:32.035Z</time></trkpt><trkpt lat="44.9157133" lon="9.573365"><ele>247.16666666666666</ele><time>2026-05-02T14:05:35.036Z</time></trkpt><trkpt lat="44.915785" lon="9.5733367"><ele>246.0</ele><time>2026-05-02T14:05:38.037Z</time></trkpt><trkpt lat="44.9158717" lon="9.573295"><ele>246.14285714285717</ele><time>2026-05-02T14:05:41.036Z</time></trkpt><trkpt lat="44.9159383" lon="9.5732717"><ele>246.28571428571428</ele><time>2026-05-02T14:05:43.037Z</time></trkpt><trkpt lat="44.9159983" lon="9.5732383"><ele>246.42857142857144</ele><time>2026-05-02T14:05:45.039Z</time></trkpt><trkpt lat="44.9160683" lon="9.5731783"><ele>246.57142857142858</ele><time>2026-05-02T14:05:48.043Z</time></trkpt><trkpt lat="44.9161333" lon="9.5731733"><ele>246.71428571428572</ele><time>2026-05-02T14:05:50.04Z</time></trkpt><trkpt lat="44.9162067" lon="9.5731683"><ele>246.85714285714286</ele><time>2026-05-02T14:05:52.039Z</time></trkpt><trkpt lat="44.9162767" lon="9.5731683"><ele>247.0</ele><time>2026-05-02T14:05:54.038Z</time></trkpt><trkpt lat="44.916355" lon="9.5731583"><ele>247.0</ele><time>2026-05-02T14:05:56.041Z</time></trkpt><trkpt lat="44.9164517" lon="9.5731483"><ele>247.0</ele><time>2026-05-02T14:05:58.038Z</time></trkpt><trkpt lat="44.9165517" lon="9.5731183"><ele>247.0</ele><time>2026-05-02T14:06:00.04Z</time></trkpt><trkpt lat="44.916635" lon="9.57307"><ele>247.0</ele><time>2026-05-02T14:06:02.043Z</time></trkpt><trkpt lat="44.9167067" lon="9.5730317"><ele>247.0</ele><time>2026-05-02T14:06:04.044Z</time></trkpt><trkpt lat="44.9167817" lon="9.5729667"><ele>247.2</ele><time>2026-05-02T14:06:06.041Z</time></trkpt><trkpt lat="44.916845" lon="9.5728617"><ele>247.39999999999998</ele><time>2026-05-02T14:06:08.037Z</time></trkpt><trkpt lat="44.91692" lon="9.57276"><ele>247.60000000000002</ele><time>2026-05-02T14:06:10.039Z</time></trkpt><trkpt lat="44.9169933" lon="9.57268"><ele>247.8</ele><time>2026-05-02T14:06:12.042Z</time></trkpt><trkpt lat="44.9170817" lon="9.5725967"><ele>248.0</ele><time>2026-05-02T14:06:14.038Z</time></trkpt><trkpt lat="44.9171617" lon="9.5725017"><ele>248.0</ele><time>2026-05-02T14:06:16.039Z</time></trkpt><trkpt lat="44.9172433" lon="9.5724317"><ele>248.0</ele><time>2026-05-02T14:06:18.043Z</time></trkpt><trkpt lat="44.9173267" lon="9.572385"><ele>248.0</ele><time>2026-05-02T14:06:20.041Z</time></trkpt><trkpt lat="44.9174117" lon="9.5723383"><ele>248.0</ele><time>2026-05-02T14:06:22.041Z</time></trkpt><trkpt lat="44.9174933" lon="9.57229"><ele>248.0</ele><time>2026-05-02T14:06:24.04Z</time></trkpt><trkpt lat="44.9175767" lon="9.572255"><ele>247.83333333333334</ele><time>2026-05-02T14:06:26.037Z</time></trkpt><trkpt lat="44.91766" lon="9.572215"><ele>247.66666666666669</ele><time>2026-05-02T14:06:28.04Z</time></trkpt><trkpt lat="44.917735" lon="9.57216"><ele>247.5</ele><time>2026-05-02T14:06:30.04Z</time></trkpt><trkpt lat="44.9178233" lon="9.5721217"><ele>247.33333333333331</ele><time>2026-05-02T14:06:32.037Z</time></trkpt><trkpt lat="44.9179117" lon="9.5720817"><ele>247.16666666666666</ele><time>2026-05-02T14:06:34.041Z</time></trkpt><trkpt lat="44.9180017" lon="9.572075"><ele>247.0</ele><time>2026-05-02T14:06:36.04Z</time></trkpt><trkpt lat="44.9180917" lon="9.5720833"><ele>247.0</ele><time>2026-05-02T14:06:38.037Z</time></trkpt><trkpt lat="44.9181833" lon="9.57211"><ele>247.0</ele><time>2026-05-02T14:06:40.038Z</time></trkpt><trkpt lat="44.9182783" lon="9.5721217"><ele>247.0</ele><time>2026-05-02T14:06:42.042Z</time></trkpt><trkpt lat="44.918375" lon="9.5721267"><ele>247.0</ele><time>2026-05-02T14:06:44.043Z</time></trkpt><trkpt lat="44.918475" lon="9.572145"><ele>247.0</ele><time>2026-05-02T14:06:46.04Z</time></trkpt><trkpt lat="44.918575" lon="9.5721717"><ele>246.8</ele><time>2026-05-02T14:06:48.039Z</time></trkpt><trkpt lat="44.9187" lon="9.5721417"><ele>246.6</ele><time>2026-05-02T14:06:50.037Z</time></trkpt><trkpt lat="44.9187683" lon="9.5721083"><ele>246.40000000000003</ele><time>2026-05-02T14:06:51.045Z</time></trkpt><trkpt lat="44.9188833" lon="9.572085"><ele>246.20000000000002</ele><time>2026-05-02T14:06:53.035Z</time></trkpt><trkpt lat="44.918985" lon="9.572055"><ele>246.0</ele><time>2026-05-02T14:06:55.039Z</time></trkpt><trkpt lat="44.9190783" lon="9.5719567"><ele>246.0</ele><time>2026-05-02T14:06:57.043Z</time></trkpt><trkpt lat="44.9191567" lon="9.5718467"><ele>246.00000000000003</ele><time>2026-05-02T14:06:59.04Z</time></trkpt><trkpt lat="44.9192383" lon="9.571765"><ele>246.00000000000003</ele><time>2026-05-02T14:07:01.042Z</time></trkpt><trkpt lat="44.919325" lon="9.5716783"><ele>246.0</ele><time>2026-05-02T14:07:03.04Z</time></trkpt><trkpt lat="44.91941" lon="9.571585"><ele>246.0</ele><time>2026-05-02T14:07:05.038Z</time></trkpt><trkpt lat="44.9194983" lon="9.5715183"><ele>246.0</ele><time>2026-05-02T14:07:07.037Z</time></trkpt><trkpt lat="44.9195733" lon="9.57145"><ele>246.00000000000003</ele><time>2026-05-02T14:07:09.04Z</time></trkpt><trkpt lat="44.9196567" lon="9.5713617"><ele>246.00000000000003</ele><time>2026-05-02T14:07:11.035Z</time></trkpt><trkpt lat="44.91974" lon="9.5712483"><ele>246.0</ele><time>2026-05-02T14:07:13.04Z</time></trkpt><trkpt lat="44.9197817" lon="9.5711783"><ele>246.0</ele><time>2026-05-02T14:07:14.041Z</time></trkpt><trkpt lat="44.919855" lon="9.5710817"><ele>245.5</ele><time>2026-05-02T14:07:16.04Z</time></trkpt><trkpt lat="44.9199167" lon="9.5709717"><ele>245.0</ele><time>2026-05-02T14:07:18.039Z</time></trkpt><trkpt lat="44.9199767" lon="9.5708917"><ele>244.5</ele><time>2026-05-02T14:07:20.04Z</time></trkpt><trkpt lat="44.9200283" lon="9.5708333"><ele>244.0</ele><time>2026-05-02T14:07:21.039Z</time></trkpt><trkpt lat="44.9200933" lon="9.57076"><ele>243.5</ele><time>2026-05-02T14:07:23.041Z</time></trkpt><trkpt lat="44.9201717" lon="9.5706567"><ele>243.0</ele><time>2026-05-02T14:07:25.041Z</time></trkpt><trkpt lat="44.9202367" lon="9.5705867"><ele>242.8</ele><time>2026-05-02T14:07:27.038Z</time></trkpt><trkpt lat="44.9203" lon="9.5705283"><ele>242.60000000000002</ele><time>2026-05-02T14:07:29.04Z</time></trkpt><trkpt lat="44.9203633" lon="9.5704483"><ele>242.39999999999998</ele><time>2026-05-02T14:07:31.044Z</time></trkpt><trkpt lat="44.9204383" lon="9.5703217"><ele>242.2</ele><time>2026-05-02T14:07:33.041Z</time></trkpt><trkpt lat="44.9205167" lon="9.570235"><ele>242.0</ele><time>2026-05-02T14:07:35.037Z</time></trkpt><trkpt lat="44.9205783" lon="9.5701583"><ele>242.00000000000003</ele><time>2026-05-02T14:07:37.039Z</time></trkpt><trkpt lat="44.9206483" lon="9.570075"><ele>242.0</ele><time>2026-05-02T14:07:39.041Z</time></trkpt><trkpt lat="44.920715" lon="9.57"><ele>242.0</ele><time>2026-05-02T14:07:41.036Z</time></trkpt><trkpt lat="44.9207883" lon="9.569925"><ele>242.0</ele><time>2026-05-02T14:07:43.041Z</time></trkpt><trkpt lat="44.9208567" lon="9.5698633"><ele>242.00000000000003</ele><time>2026-05-02T14:07:45.044Z</time></trkpt><trkpt lat="44.9209283" lon="9.5697983"><ele>242.0</ele><time>2026-05-02T14:07:47.038Z</time></trkpt><trkpt lat="44.9210117" lon="9.5697267"><ele>242.0</ele><time>2026-05-02T14:07:49.041Z</time></trkpt><trkpt lat="44.9211067" lon="9.5696683"><ele>242.0</ele><time>2026-05-02T14:07:51.039Z</time></trkpt><trkpt lat="44.9212117" lon="9.56962"><ele>242.0</ele><time>2026-05-02T14:07:53.039Z</time></trkpt><trkpt lat="44.9213067" lon="9.569555"><ele>242.0</ele><time>2026-05-02T14:07:55.039Z</time></trkpt><trkpt lat="44.921385" lon="9.5695333"><ele>242.0</ele><time>2026-05-02T14:07:57.04Z</time></trkpt><trkpt lat="44.921455" lon="9.5695183"><ele>242.0</ele><time>2026-05-02T14:07:59.035Z</time></trkpt><trkpt lat="44.9215317" lon="9.5694917"><ele>242.0</ele><time>2026-05-02T14:08:01.037Z</time></trkpt><trkpt lat="44.9216283" lon="9.5694717"><ele>242.0</ele><time>2026-05-02T14:08:03.043Z</time></trkpt><trkpt lat="44.9217283" lon="9.5694567"><ele>242.0</ele><time>2026-05-02T14:08:05.037Z</time></trkpt><trkpt lat="44.92182" lon="9.56944"><ele>242.0</ele><time>2026-05-02T14:08:07.039Z</time></trkpt><trkpt lat="44.921925" lon="9.5693983"><ele>241.8</ele><time>2026-05-02T14:08:09.04Z</time></trkpt><trkpt lat="44.9220233" lon="9.5693733"><ele>241.6</ele><time>2026-05-02T14:08:11.036Z</time></trkpt><trkpt lat="44.92212" lon="9.5693517"><ele>241.40000000000003</ele><time>2026-05-02T14:08:13.037Z</time></trkpt><trkpt lat="44.9222167" lon="9.5693367"><ele>241.20000000000002</ele><time>2026-05-02T14:08:15.04Z</time></trkpt><trkpt lat="44.9223033" lon="9.56927"><ele>241.0</ele><time>2026-05-02T14:08:17.035Z</time></trkpt><trkpt lat="44.9223783" lon="9.5691867"><ele>241.0</ele><time>2026-05-02T14:08:19.036Z</time></trkpt><trkpt lat="44.922455" lon="9.56911"><ele>241.00000000000003</ele><time>2026-05-02T14:08:21.042Z</time></trkpt><trkpt lat="44.922525" lon="9.5690067"><ele>241.00000000000003</ele><time>2026-05-02T14:08:23.037Z</time></trkpt><trkpt lat="44.9225717" lon="9.5689367"><ele>241.0</ele><time>2026-05-02T14:08:24.038Z</time></trkpt><trkpt lat="44.9226167" lon="9.5688733"><ele>241.0</ele><time>2026-05-02T14:08:25.037Z</time></trkpt><trkpt lat="44.9227117" lon="9.5687617"><ele>240.57142857142858</ele><time>2026-05-02T14:08:27.04Z</time></trkpt><trkpt lat="44.92276" lon="9.5686933"><ele>240.14285714285717</ele><time>2026-05-02T14:08:28.037Z</time></trkpt><trkpt lat="44.9228083" lon="9.5686283"><ele>239.71428571428572</ele><time>2026-05-02T14:08:29.038Z</time></trkpt><trkpt lat="44.922855" lon="9.5685517"><ele>239.28571428571428</ele><time>2026-05-02T14:08:30.035Z</time></trkpt><trkpt lat="44.9228983" lon="9.568485"><ele>238.85714285714286</ele><time>2026-05-02T14:08:31.036Z</time></trkpt><trkpt lat="44.9229483" lon="9.5684217"><ele>238.42857142857144</ele><time>2026-05-02T14:08:32.04Z</time></trkpt><trkpt lat="44.9229983" lon="9.568365"><ele>238.0</ele><time>2026-05-02T14:08:33.042Z</time></trkpt><trkpt lat="44.9230483" lon="9.5683017"><ele>237.99999999999997</ele><time>2026-05-02T14:08:34.037Z</time></trkpt><trkpt lat="44.9230917" lon="9.5682167"><ele>238.0</ele><time>2026-05-02T14:08:35.037Z</time></trkpt><trkpt lat="44.9231433" lon="9.5681283"><ele>238.0</ele><time>2026-05-02T14:08:36.038Z</time></trkpt><trkpt lat="44.9231917" lon="9.5680633"><ele>238.0</ele><time>2026-05-02T14:08:37.038Z</time></trkpt><trkpt lat="44.92324" lon="9.568"><ele>237.99999999999997</ele><time>2026-05-02T14:08:38.041Z</time></trkpt><trkpt lat="44.92333" lon="9.5678933"><ele>238.0</ele><time>2026-05-02T14:08:40.039Z</time></trkpt><trkpt lat="44.9233783" lon="9.56783"><ele>237.75</ele><time>2026-05-02T14:08:41.034Z</time></trkpt><trkpt lat="44.9234617" lon="9.5677183"><ele>237.5</ele><time>2026-05-02T14:08:43.04Z</time></trkpt><trkpt lat="44.9235417" lon="9.56761"><ele>237.25</ele><time>2026-05-02T14:08:45.043Z</time></trkpt><trkpt lat="44.9236267" lon="9.567495"><ele>237.0</ele><time>2026-05-02T14:08:47.037Z</time></trkpt><trkpt lat="44.9237" lon="9.5673633"><ele>236.99999999999997</ele><time>2026-05-02T14:08:49.038Z</time></trkpt><trkpt lat="44.9237567" lon="9.5673117"><ele>237.0</ele><time>2026-05-02T14:08:50.037Z</time></trkpt><trkpt lat="44.923815" lon="9.5672733"><ele>236.99999999999997</ele><time>2026-05-02T14:08:51.044Z</time></trkpt><trkpt lat="44.92388" lon="9.5672267"><ele>236.99999999999997</ele><time>2026-05-02T14:08:52.039Z</time></trkpt><trkpt lat="44.92395" lon="9.5671967"><ele>237.0</ele><time>2026-05-02T14:08:53.035Z</time></trkpt><trkpt lat="44.9240167" lon="9.5671733"><ele>236.99999999999997</ele><time>2026-05-02T14:08:54.038Z</time></trkpt><trkpt lat="44.9240867" lon="9.567155"><ele>236.99999999999997</ele><time>2026-05-02T14:08:55.037Z</time></trkpt><trkpt lat="44.9241567" lon="9.5671383"><ele>236.4285714285714</ele><time>2026-05-02T14:08:56.038Z</time></trkpt><trkpt lat="44.92423" lon="9.5671033"><ele>235.85714285714283</ele><time>2026-05-02T14:08:57.046Z</time></trkpt><trkpt lat="44.924305" lon="9.5670817"><ele>235.28571428571428</ele><time>2026-05-02T14:08:58.037Z</time></trkpt><trkpt lat="44.9243767" lon="9.5670617"><ele>234.7142857142857</ele><time>2026-05-02T14:08:59.049Z</time></trkpt><trkpt lat="44.9244517" lon="9.5670417"><ele>234.1428571428571</ele><time>2026-05-02T14:09:00.038Z</time></trkpt><trkpt lat="44.924525" lon="9.56702"><ele>233.57142857142858</ele><time>2026-05-02T14:09:01.037Z</time></trkpt><trkpt lat="44.924595" lon="9.5670033"><ele>233.0</ele><time>2026-05-02T14:09:02.037Z</time></trkpt><trkpt lat="44.9246667" lon="9.56699"><ele>233.0</ele><time>2026-05-02T14:09:03.034Z</time></trkpt><trkpt lat="44.9247367" lon="9.566975"><ele>233.0</ele><time>2026-05-02T14:09:04.039Z</time></trkpt><trkpt lat="44.9248083" lon="9.5669583"><ele>233.0</ele><time>2026-05-02T14:09:05.037Z</time></trkpt><trkpt lat="44.92488" lon="9.566935"><ele>233.0</ele><time>2026-05-02T14:09:06.043Z</time></trkpt><trkpt lat="44.9249483" lon="9.566895"><ele>233.0</ele><time>2026-05-02T14:09:07.036Z</time></trkpt><trkpt lat="44.9250167" lon="9.5668517"><ele>233.0</ele><time>2026-05-02T14:09:08.039Z</time></trkpt><trkpt lat="44.925085" lon="9.5668217"><ele>233.0</ele><time>2026-05-02T14:09:09.044Z</time></trkpt><trkpt lat="44.9252017" lon="9.5667667"><ele>232.8</ele><time>2026-05-02T14:09:11.038Z</time></trkpt><trkpt lat="44.9253" lon="9.566725"><ele>232.60000000000002</ele><time>2026-05-02T14:09:13.039Z</time></trkpt><trkpt lat="44.9254033" lon="9.566685"><ele>232.39999999999998</ele><time>2026-05-02T14:09:15.042Z</time></trkpt><trkpt lat="44.9255167" lon="9.56664"><ele>232.2</ele><time>2026-05-02T14:09:17.038Z</time></trkpt><trkpt lat="44.925635" lon="9.56662"><ele>232.0</ele><time>2026-05-02T14:09:19.038Z</time></trkpt><trkpt lat="44.9257417" lon="9.566635"><ele>232.0</ele><time>2026-05-02T14:09:21.037Z</time></trkpt><trkpt lat="44.9258533" lon="9.5665867"><ele>232.0</ele><time>2026-05-02T14:09:23.039Z</time></trkpt><trkpt lat="44.9259733" lon="9.5665367"><ele>232.0</ele><time>2026-05-02T14:09:25.038Z</time></trkpt><trkpt lat="44.9260767" lon="9.56648"><ele>232.0</ele><time>2026-05-02T14:09:27.039Z</time></trkpt><trkpt lat="44.9261617" lon="9.566445"><ele>232.0</ele><time>2026-05-02T14:09:29.04Z</time></trkpt><trkpt lat="44.9262483" lon="9.5664367"><ele>231.49999999999997</ele><time>2026-05-02T14:09:31.041Z</time></trkpt><trkpt lat="44.9263383" lon="9.56641"><ele>231.0</ele><time>2026-05-02T14:09:33.035Z</time></trkpt><trkpt lat="44.9264183" lon="9.56636"><ele>230.5</ele><time>2026-05-02T14:09:35.038Z</time></trkpt><trkpt lat="44.926495" lon="9.5662767"><ele>230.0</ele><time>2026-05-02T14:09:37.042Z</time></trkpt><trkpt lat="44.9265483" lon="9.5662017"><ele>229.49999999999997</ele><time>2026-05-02T14:09:39.038Z</time></trkpt><trkpt lat="44.9266067" lon="9.5662533"><ele>229.0</ele><time>2026-05-02T14:09:42.041Z</time></trkpt><trkpt lat="44.9266133" lon="9.5664383"><ele>229.0</ele><time>2026-05-02T14:09:44.04Z</time></trkpt><trkpt lat="44.9266217" lon="9.5665967"><ele>228.99999999999997</ele><time>2026-05-02T14:09:46.042Z</time></trkpt><trkpt lat="44.9266183" lon="9.5666883"><ele>228.99999999999997</ele><time>2026-05-02T14:09:47.039Z</time></trkpt><trkpt lat="44.926625" lon="9.5668817"><ele>229.0</ele><time>2026-05-02T14:09:49.041Z</time></trkpt><trkpt lat="44.926625" lon="9.5669833"><ele>229.0</ele><time>2026-05-02T14:09:50.038Z</time></trkpt><trkpt lat="44.926625" lon="9.56708"><ele>228.57142857142856</ele><time>2026-05-02T14:09:51.041Z</time></trkpt><trkpt lat="44.9266267" lon="9.567175"><ele>228.14285714285717</ele><time>2026-05-02T14:09:52.041Z</time></trkpt><trkpt lat="44.926635" lon="9.5672667"><ele>227.71428571428572</ele><time>2026-05-02T14:09:53.037Z</time></trkpt><trkpt lat="44.9266533" lon="9.5673683"><ele>227.28571428571428</ele><time>2026-05-02T14:09:54.039Z</time></trkpt><trkpt lat="44.926665" lon="9.5674767"><ele>226.85714285714283</ele><time>2026-05-02T14:09:55.037Z</time></trkpt><trkpt lat="44.9266717" lon="9.567575"><ele>226.42857142857144</ele><time>2026-05-02T14:09:56.038Z</time></trkpt><trkpt lat="44.9266833" lon="9.5676683"><ele>226.0</ele><time>2026-05-02T14:09:57.037Z</time></trkpt><trkpt lat="44.9266917" lon="9.567775"><ele>225.57142857142858</ele><time>2026-05-02T14:09:58.04Z</time></trkpt><trkpt lat="44.9266917" lon="9.5678783"><ele>225.14285714285714</ele><time>2026-05-02T14:09:59.038Z</time></trkpt><trkpt lat="44.9266983" lon="9.5679817"><ele>224.71428571428572</ele><time>2026-05-02T14:10:00.039Z</time></trkpt><trkpt lat="44.926705" lon="9.568085"><ele>224.28571428571428</ele><time>2026-05-02T14:10:01.036Z</time></trkpt><trkpt lat="44.926705" lon="9.56819"><ele>223.85714285714283</ele><time>2026-05-02T14:10:02.037Z</time></trkpt><trkpt lat="44.9267067" lon="9.5682917"><ele>223.42857142857142</ele><time>2026-05-02T14:10:03.037Z</time></trkpt><trkpt lat="44.9267083" lon="9.56839"><ele>223.0</ele><time>2026-05-02T14:10:04.037Z</time></trkpt><trkpt lat="44.9267133" lon="9.5684867"><ele>223.0</ele><time>2026-05-02T14:10:05.038Z</time></trkpt><trkpt lat="44.9267233" lon="9.5685833"><ele>223.0</ele><time>2026-05-02T14:10:06.038Z</time></trkpt><trkpt lat="44.9267333" lon="9.5686817"><ele>223.0</ele><time>2026-05-02T14:10:07.03Z</time></trkpt><trkpt lat="44.9267383" lon="9.56878"><ele>223.0</ele><time>2026-05-02T14:10:08.038Z</time></trkpt><trkpt lat="44.92674" lon="9.56888"><ele>223.0</ele><time>2026-05-02T14:10:09.042Z</time></trkpt><trkpt lat="44.9267467" lon="9.5689883"><ele>223.0</ele><time>2026-05-02T14:10:10.059Z</time></trkpt><trkpt lat="44.9267767" lon="9.5690967"><ele>223.0</ele><time>2026-05-02T14:10:11.037Z</time></trkpt><trkpt lat="44.9268067" lon="9.5691917"><ele>222.85714285714286</ele><time>2026-05-02T14:10:12.037Z</time></trkpt><trkpt lat="44.92684" lon="9.5692783"><ele>222.71428571428572</ele><time>2026-05-02T14:10:13.038Z</time></trkpt><trkpt lat="44.9268817" lon="9.56936"><ele>222.57142857142856</ele><time>2026-05-02T14:10:14.04Z</time></trkpt><trkpt lat="44.92693" lon="9.56944"><ele>222.42857142857144</ele><time>2026-05-02T14:10:15.036Z</time></trkpt><trkpt lat="44.9269717" lon="9.5695083"><ele>222.2857142857143</ele><time>2026-05-02T14:10:16.034Z</time></trkpt><trkpt lat="44.927015" lon="9.569585"><ele>222.14285714285714</ele><time>2026-05-02T14:10:17.037Z</time></trkpt><trkpt lat="44.92706" lon="9.5696583"><ele>222.0</ele><time>2026-05-02T14:10:18.038Z</time></trkpt><trkpt lat="44.9271067" lon="9.56974"><ele>221.83333333333334</ele><time>2026-05-02T14:10:19.042Z</time></trkpt><trkpt lat="44.9271467" lon="9.5698217"><ele>221.66666666666669</ele><time>2026-05-02T14:10:20.039Z</time></trkpt><trkpt lat="44.92719" lon="9.569905"><ele>221.5</ele><time>2026-05-02T14:10:21.035Z</time></trkpt><trkpt lat="44.927235" lon="9.5699867"><ele>221.33333333333334</ele><time>2026-05-02T14:10:22.039Z</time></trkpt><trkpt lat="44.9272767" lon="9.5700717"><ele>221.16666666666669</ele><time>2026-05-02T14:10:23.036Z</time></trkpt><trkpt lat="44.927345" lon="9.5702333"><ele>221.0</ele><time>2026-05-02T14:10:25.041Z</time></trkpt><trkpt lat="44.927385" lon="9.57032"><ele>220.66666666666669</ele><time>2026-05-02T14:10:26.04Z</time></trkpt><trkpt lat="44.9274283" lon="9.5704033"><ele>220.33333333333334</ele><time>2026-05-02T14:10:27.038Z</time></trkpt><trkpt lat="44.927465" lon="9.570495"><ele>220.0</ele><time>2026-05-02T14:10:28.037Z</time></trkpt><trkpt lat="44.927505" lon="9.570575"><ele>219.66666666666669</ele><time>2026-05-02T14:10:29.036Z</time></trkpt><trkpt lat="44.9275417" lon="9.5706483"><ele>219.33333333333334</ele><time>2026-05-02T14:10:30.039Z</time></trkpt><trkpt lat="44.9276133" lon="9.5707533"><ele>219.0</ele><time>2026-05-02T14:10:32.037Z</time></trkpt><trkpt lat="44.9277" lon="9.5708333"><ele>218.79999999999998</ele><time>2026-05-02T14:10:34.036Z</time></trkpt><trkpt lat="44.92779" lon="9.570945"><ele>218.59999999999997</ele><time>2026-05-02T14:10:36.04Z</time></trkpt><trkpt lat="44.9278733" lon="9.5710583"><ele>218.4</ele><time>2026-05-02T14:10:38.039Z</time></trkpt><trkpt lat="44.9279317" lon="9.5711683"><ele>218.2</ele><time>2026-05-02T14:10:40.039Z</time></trkpt><trkpt lat="44.9279583" lon="9.5713117"><ele>218.0</ele><time>2026-05-02T14:10:42.043Z</time></trkpt><trkpt lat="44.92796" lon="9.5714683"><ele>218.0</ele><time>2026-05-02T14:10:44.037Z</time></trkpt><trkpt lat="44.9279383" lon="9.5716167"><ele>218.0</ele><time>2026-05-02T14:10:46.038Z</time></trkpt><trkpt lat="44.9279367" lon="9.5717467"><ele>218.0</ele><time>2026-05-02T14:10:48.037Z</time></trkpt><trkpt lat="44.9279217" lon="9.5718583"><ele>218.0</ele><time>2026-05-02T14:10:50.039Z</time></trkpt><trkpt lat="44.92791" lon="9.571975"><ele>218.0</ele><time>2026-05-02T14:10:52.041Z</time></trkpt><trkpt lat="44.9279083" lon="9.572105"><ele>217.66666666666669</ele><time>2026-05-02T14:10:54.039Z</time></trkpt><trkpt lat="44.9279" lon="9.57224"><ele>217.33333333333334</ele><time>2026-05-02T14:10:56.039Z</time></trkpt><trkpt lat="44.92788" lon="9.5723617"><ele>217.0</ele><time>2026-05-02T14:10:58.04Z</time></trkpt><trkpt lat="44.927875" lon="9.57248"><ele>216.66666666666669</ele><time>2026-05-02T14:11:00.04Z</time></trkpt><trkpt lat="44.9278683" lon="9.572585"><ele>216.33333333333334</ele><time>2026-05-02T14:11:02.036Z</time></trkpt><trkpt lat="44.92785" lon="9.5726867"><ele>216.0</ele><time>2026-05-02T14:11:04.037Z</time></trkpt><trkpt lat="44.9278367" lon="9.5728067"><ele>215.66666666666666</ele><time>2026-05-02T14:11:06.04Z</time></trkpt><trkpt lat="44.92782" lon="9.57293"><ele>215.33333333333331</ele><time>2026-05-02T14:11:08.039Z</time></trkpt><trkpt lat="44.9277917" lon="9.5730417"><ele>215.0</ele><time>2026-05-02T14:11:10.042Z</time></trkpt><trkpt lat="44.927775" lon="9.5731683"><ele>214.66666666666666</ele><time>2026-05-02T14:11:12.041Z</time></trkpt><trkpt lat="44.927755" lon="9.57329"><ele>214.33333333333331</ele><time>2026-05-02T14:11:14.039Z</time></trkpt><trkpt lat="44.9277367" lon="9.5734083"><ele>214.0</ele><time>2026-05-02T14:11:16.04Z</time></trkpt><trkpt lat="44.9277483" lon="9.5735367"><ele>214.0</ele><time>2026-05-02T14:11:18.038Z</time></trkpt><trkpt lat="44.9278133" lon="9.5736483"><ele>213.99999999999997</ele><time>2026-05-02T14:11:20.039Z</time></trkpt><trkpt lat="44.927915" lon="9.5737133"><ele>213.99999999999997</ele><time>2026-05-02T14:11:22.04Z</time></trkpt><trkpt lat="44.9280267" lon="9.57377"><ele>214.0</ele><time>2026-05-02T14:11:24.038Z</time></trkpt><trkpt lat="44.9281283" lon="9.5738317"><ele>214.0</ele><time>2026-05-02T14:11:26.041Z</time></trkpt><trkpt lat="44.928235" lon="9.5738867"><ele>213.75</ele><time>2026-05-02T14:11:28.04Z</time></trkpt><trkpt lat="44.9283417" lon="9.5739467"><ele>213.5</ele><time>2026-05-02T14:11:30.04Z</time></trkpt><trkpt lat="44.9284433" lon="9.5740133"><ele>213.25</ele><time>2026-05-02T14:11:32.038Z</time></trkpt><trkpt lat="44.9285517" lon="9.5740633"><ele>213.0</ele><time>2026-05-02T14:11:34.044Z</time></trkpt><trkpt lat="44.9286567" lon="9.5741183"><ele>213.0</ele><time>2026-05-02T14:11:36.045Z</time></trkpt><trkpt lat="44.9287667" lon="9.5741717"><ele>213.0</ele><time>2026-05-02T14:11:38.039Z</time></trkpt><trkpt lat="44.9288717" lon="9.57424"><ele>213.0</ele><time>2026-05-02T14:11:40.04Z</time></trkpt><trkpt lat="44.928975" lon="9.5743117"><ele>213.0</ele><time>2026-05-02T14:11:42.037Z</time></trkpt><trkpt lat="44.929085" lon="9.574385"><ele>213.0</ele><time>2026-05-02T14:11:44.039Z</time></trkpt><trkpt lat="44.9291433" lon="9.57442"><ele>213.0</ele><time>2026-05-02T14:11:45.042Z</time></trkpt><trkpt lat="44.9292017" lon="9.5744533"><ele>213.0</ele><time>2026-05-02T14:11:46.041Z</time></trkpt><trkpt lat="44.92932" lon="9.574515"><ele>213.0</ele><time>2026-05-02T14:11:48.038Z</time></trkpt><trkpt lat="44.9294433" lon="9.5745717"><ele>213.0</ele><time>2026-05-02T14:11:50.038Z</time></trkpt><trkpt lat="44.9295017" lon="9.57461"><ele>213.0</ele><time>2026-05-02T14:11:51.04Z</time></trkpt><trkpt lat="44.9296183" lon="9.5746683"><ele>212.5</ele><time>2026-05-02T14:11:53.038Z</time></trkpt><trkpt lat="44.9297267" lon="9.574725"><ele>212.0</ele><time>2026-05-02T14:11:55.044Z</time></trkpt><trkpt lat="44.9297833" lon="9.574765"><ele>211.5</ele><time>2026-05-02T14:11:56.04Z</time></trkpt><trkpt lat="44.9298983" lon="9.5748233"><ele>211.0</ele><time>2026-05-02T14:11:58.041Z</time></trkpt><trkpt lat="44.9299567" lon="9.5748583"><ele>210.5</ele><time>2026-05-02T14:11:59.035Z</time></trkpt><trkpt lat="44.9300167" lon="9.57489"><ele>210.0</ele><time>2026-05-02T14:12:00.038Z</time></trkpt><trkpt lat="44.9300817" lon="9.5749117"><ele>209.57142857142858</ele><time>2026-05-02T14:12:01.04Z</time></trkpt><trkpt lat="44.9301433" lon="9.5749417"><ele>209.14285714285714</ele><time>2026-05-02T14:12:02.038Z</time></trkpt><trkpt lat="44.9302033" lon="9.5749817"><ele>208.71428571428572</ele><time>2026-05-02T14:12:03.038Z</time></trkpt><trkpt lat="44.930265" lon="9.575015"><ele>208.28571428571428</ele><time>2026-05-02T14:12:04.038Z</time></trkpt><trkpt lat="44.930325" lon="9.5750533"><ele>207.85714285714286</ele><time>2026-05-02T14:12:05.038Z</time></trkpt><trkpt lat="44.9303867" lon="9.5750933"><ele>207.42857142857144</ele><time>2026-05-02T14:12:06.039Z</time></trkpt><trkpt lat="44.9304533" lon="9.57513"><ele>207.0</ele><time>2026-05-02T14:12:07.04Z</time></trkpt><trkpt lat="44.9305183" lon="9.5751667"><ele>207.00000000000003</ele><time>2026-05-02T14:12:08.039Z</time></trkpt><trkpt lat="44.930585" lon="9.5751983"><ele>207.0</ele><time>2026-05-02T14:12:09.04Z</time></trkpt><trkpt lat="44.930655" lon="9.5752283"><ele>207.0</ele><time>2026-05-02T14:12:10.042Z</time></trkpt><trkpt lat="44.9307283" lon="9.5752533"><ele>207.0</ele><time>2026-05-02T14:12:11.039Z</time></trkpt><trkpt lat="44.9308033" lon="9.5752683"><ele>207.0</ele><time>2026-05-02T14:12:12.038Z</time></trkpt><trkpt lat="44.9308783" lon="9.5752833"><ele>207.00000000000003</ele><time>2026-05-02T14:12:13.037Z</time></trkpt><trkpt lat="44.9309533" lon="9.5753"><ele>207.0</ele><time>2026-05-02T14:12:14.041Z</time></trkpt><trkpt lat="44.9310283" lon="9.575315"><ele>206.57142857142858</ele><time>2026-05-02T14:12:15.04Z</time></trkpt><trkpt lat="44.9311" lon="9.57533"><ele>206.14285714285714</ele><time>2026-05-02T14:12:16.041Z</time></trkpt><trkpt lat="44.9311733" lon="9.5753433"><ele>205.71428571428572</ele><time>2026-05-02T14:12:17.035Z</time></trkpt><trkpt lat="44.93125" lon="9.5753633"><ele>205.28571428571428</ele><time>2026-05-02T14:12:18.043Z</time></trkpt><trkpt lat="44.9313217" lon="9.57539"><ele>204.85714285714286</ele><time>2026-05-02T14:12:19.036Z</time></trkpt><trkpt lat="44.93139" lon="9.5754117"><ele>204.42857142857144</ele><time>2026-05-02T14:12:20.037Z</time></trkpt><trkpt lat="44.9314617" lon="9.5754267"><ele>204.0</ele><time>2026-05-02T14:12:21.041Z</time></trkpt><trkpt lat="44.9315367" lon="9.57544"><ele>203.85714285714286</ele><time>2026-05-02T14:12:22.035Z</time></trkpt><trkpt lat="44.93161" lon="9.5754433"><ele>203.71428571428572</ele><time>2026-05-02T14:12:23.035Z</time></trkpt><trkpt lat="44.9316767" lon="9.5754533"><ele>203.57142857142856</ele><time>2026-05-02T14:12:24.038Z</time></trkpt><trkpt lat="44.931745" lon="9.5754667"><ele>203.42857142857144</ele><time>2026-05-02T14:12:25.041Z</time></trkpt><trkpt lat="44.93182" lon="9.5754767"><ele>203.28571428571428</ele><time>2026-05-02T14:12:26.038Z</time></trkpt><trkpt lat="44.93189" lon="9.5754883"><ele>203.14285714285714</ele><time>2026-05-02T14:12:27.038Z</time></trkpt><trkpt lat="44.931955" lon="9.5755033"><ele>203.0</ele><time>2026-05-02T14:12:28.039Z</time></trkpt><trkpt lat="44.9320183" lon="9.5755183"><ele>202.71428571428572</ele><time>2026-05-02T14:12:29.039Z</time></trkpt><trkpt lat="44.9320833" lon="9.5755333"><ele>202.42857142857144</ele><time>2026-05-02T14:12:30.041Z</time></trkpt><trkpt lat="44.9321483" lon="9.5755467"><ele>202.14285714285714</ele><time>2026-05-02T14:12:31.043Z</time></trkpt><trkpt lat="44.932215" lon="9.575545"><ele>201.85714285714286</ele><time>2026-05-02T14:12:32.041Z</time></trkpt><trkpt lat="44.932285" lon="9.5755467"><ele>201.57142857142858</ele><time>2026-05-02T14:12:33.048Z</time></trkpt><trkpt lat="44.9323483" lon="9.5755567"><ele>201.28571428571428</ele><time>2026-05-02T14:12:34.042Z</time></trkpt><trkpt lat="44.9324133" lon="9.5755633"><ele>201.0</ele><time>2026-05-02T14:12:35.038Z</time></trkpt><trkpt lat="44.9324767" lon="9.575565"><ele>200.25</ele><time>2026-05-02T14:12:36.042Z</time></trkpt><trkpt lat="44.9325967" lon="9.575575"><ele>199.5</ele><time>2026-05-02T14:12:38.042Z</time></trkpt><trkpt lat="44.9326967" lon="9.5756067"><ele>198.75</ele><time>2026-05-02T14:12:40.041Z</time></trkpt><trkpt lat="44.9328033" lon="9.5756317"><ele>198.0</ele><time>2026-05-02T14:12:42.039Z</time></trkpt><trkpt lat="44.93293" lon="9.57565"><ele>198.0</ele><time>2026-05-02T14:12:44.04Z</time></trkpt><trkpt lat="44.9329967" lon="9.5756667"><ele>198.0</ele><time>2026-05-02T14:12:45.04Z</time></trkpt><trkpt lat="44.9330617" lon="9.5756933"><ele>198.0</ele><time>2026-05-02T14:12:46.042Z</time></trkpt><trkpt lat="44.9331283" lon="9.5757033"><ele>198.0</ele><time>2026-05-02T14:12:47.04Z</time></trkpt><trkpt lat="44.9332467" lon="9.5757283"><ele>198.0</ele><time>2026-05-02T14:12:49.039Z</time></trkpt><trkpt lat="44.9333683" lon="9.5757567"><ele>198.0</ele><time>2026-05-02T14:12:51.043Z</time></trkpt><trkpt lat="44.9334917" lon="9.57578"><ele>197.75</ele><time>2026-05-02T14:12:53.038Z</time></trkpt><trkpt lat="44.9336083" lon="9.575815"><ele>197.5</ele><time>2026-05-02T14:12:55.038Z</time></trkpt><trkpt lat="44.9337167" lon="9.5758433"><ele>197.25</ele><time>2026-05-02T14:12:57.038Z</time></trkpt><trkpt lat="44.9338283" lon="9.5758667"><ele>197.0</ele><time>2026-05-02T14:12:59.041Z</time></trkpt><trkpt lat="44.9339517" lon="9.575885"><ele>197.0</ele><time>2026-05-02T14:13:01.038Z</time></trkpt><trkpt lat="44.934075" lon="9.5759133"><ele>197.0</ele><time>2026-05-02T14:13:03.03Z</time></trkpt><trkpt lat="44.9341383" lon="9.5759267"><ele>197.0</ele><time>2026-05-02T14:13:04.039Z</time></trkpt><trkpt lat="44.9342017" lon="9.5759383"><ele>197.0</ele><time>2026-05-02T14:13:05.039Z</time></trkpt><trkpt lat="44.9343233" lon="9.5759467"><ele>197.0</ele><time>2026-05-02T14:13:07.039Z</time></trkpt><trkpt lat="44.93444" lon="9.57597"><ele>196.6</ele><time>2026-05-02T14:13:09.043Z</time></trkpt><trkpt lat="44.9345517" lon="9.5759817"><ele>196.2</ele><time>2026-05-02T14:13:11.037Z</time></trkpt><trkpt lat="44.9346633" lon="9.5759917"><ele>195.8</ele><time>2026-05-02T14:13:13.037Z</time></trkpt><trkpt lat="44.9347817" lon="9.576005"><ele>195.4</ele><time>2026-05-02T14:13:15.038Z</time></trkpt><trkpt lat="44.934845" lon="9.576015"><ele>195.0</ele><time>2026-05-02T14:13:16.037Z</time></trkpt><trkpt lat="44.9349683" lon="9.5760183"><ele>194.83333333333334</ele><time>2026-05-02T14:13:18.037Z</time></trkpt><trkpt lat="44.9350867" lon="9.5760383"><ele>194.66666666666669</ele><time>2026-05-02T14:13:20.042Z</time></trkpt><trkpt lat="44.9351517" lon="9.5760533"><ele>194.5</ele><time>2026-05-02T14:13:21.038Z</time></trkpt><trkpt lat="44.93522" lon="9.5760667"><ele>194.33333333333334</ele><time>2026-05-02T14:13:22.043Z</time></trkpt><trkpt lat="44.93529" lon="9.5760767"><ele>194.16666666666669</ele><time>2026-05-02T14:13:23.036Z</time></trkpt><trkpt lat="44.9353567" lon="9.5760867"><ele>194.0</ele><time>2026-05-02T14:13:24.041Z</time></trkpt><trkpt lat="44.9354233" lon="9.57609"><ele>194.00000000000003</ele><time>2026-05-02T14:13:25.041Z</time></trkpt><trkpt lat="44.9354867" lon="9.5761017"><ele>194.0</ele><time>2026-05-02T14:13:26.036Z</time></trkpt><trkpt lat="44.9355533" lon="9.576105"><ele>194.0</ele><time>2026-05-02T14:13:27.042Z</time></trkpt><trkpt lat="44.9356783" lon="9.5761317"><ele>194.0</ele><time>2026-05-02T14:13:29.039Z</time></trkpt><trkpt lat="44.9357467" lon="9.57612"><ele>194.00000000000003</ele><time>2026-05-02T14:13:30.037Z</time></trkpt><trkpt lat="44.9358617" lon="9.5761333"><ele>194.0</ele><time>2026-05-02T14:13:32.04Z</time></trkpt><trkpt lat="44.9359783" lon="9.5761483"><ele>193.0</ele><time>2026-05-02T14:13:34.039Z</time></trkpt><trkpt lat="44.9360917" lon="9.5761683"><ele>192.0</ele><time>2026-05-02T14:13:36.038Z</time></trkpt><trkpt lat="44.9362133" lon="9.57615"><ele>191.0</ele><time>2026-05-02T14:13:38.04Z</time></trkpt><trkpt lat="44.936325" lon="9.5761483"><ele>190.0</ele><time>2026-05-02T14:13:40.04Z</time></trkpt><trkpt lat="44.936435" lon="9.5761683"><ele>190.0</ele><time>2026-05-02T14:13:42.04Z</time></trkpt><trkpt lat="44.9364983" lon="9.5761783"><ele>190.0</ele><time>2026-05-02T14:13:43.039Z</time></trkpt><trkpt lat="44.9365617" lon="9.5761883"><ele>190.0</ele><time>2026-05-02T14:13:44.043Z</time></trkpt><trkpt lat="44.9366267" lon="9.5761967"><ele>190.0</ele><time>2026-05-02T14:13:45.04Z</time></trkpt><trkpt lat="44.9366983" lon="9.5762"><ele>190.0</ele><time>2026-05-02T14:13:46.037Z</time></trkpt><trkpt lat="44.9367683" lon="9.5762133"><ele>190.0</ele><time>2026-05-02T14:13:47.037Z</time></trkpt><trkpt lat="44.9368367" lon="9.57623"><ele>190.0</ele><time>2026-05-02T14:13:48.044Z</time></trkpt><trkpt lat="44.9369083" lon="9.5762517"><ele>190.0</ele><time>2026-05-02T14:13:49.038Z</time></trkpt><trkpt lat="44.9369783" lon="9.5762633"><ele>190.0</ele><time>2026-05-02T14:13:50.039Z</time></trkpt><trkpt lat="44.9370467" lon="9.5762783"><ele>190.0</ele><time>2026-05-02T14:13:51.036Z</time></trkpt><trkpt lat="44.9371117" lon="9.576295"><ele>190.0</ele><time>2026-05-02T14:13:52.037Z</time></trkpt><trkpt lat="44.937175" lon="9.5763183"><ele>190.0</ele><time>2026-05-02T14:13:53.039Z</time></trkpt><trkpt lat="44.9372367" lon="9.57634"><ele>190.0</ele><time>2026-05-02T14:13:54.039Z</time></trkpt><trkpt lat="44.9372983" lon="9.5763617"><ele>190.0</ele><time>2026-05-02T14:13:55.038Z</time></trkpt><trkpt lat="44.9374167" lon="9.576405"><ele>190.0</ele><time>2026-05-02T14:13:57.042Z</time></trkpt><trkpt lat="44.93748" lon="9.5764333"><ele>190.0</ele><time>2026-05-02T14:13:58.04Z</time></trkpt><trkpt lat="44.9375433" lon="9.576455"><ele>190.0</ele><time>2026-05-02T14:13:59.042Z</time></trkpt><trkpt lat="44.937605" lon="9.5764817"><ele>190.0</ele><time>2026-05-02T14:14:00.041Z</time></trkpt><trkpt lat="44.9376717" lon="9.5765083"><ele>190.0</ele><time>2026-05-02T14:14:01.038Z</time></trkpt><trkpt lat="44.9377367" lon="9.576535"><ele>190.0</ele><time>2026-05-02T14:14:02.039Z</time></trkpt><trkpt lat="44.9378" lon="9.5765683"><ele>190.0</ele><time>2026-05-02T14:14:03.043Z</time></trkpt><trkpt lat="44.9378633" lon="9.5765983"><ele>189.5</ele><time>2026-05-02T14:14:04.039Z</time></trkpt><trkpt lat="44.9379833" lon="9.5766483"><ele>189.0</ele><time>2026-05-02T14:14:06.041Z</time></trkpt><trkpt lat="44.9380967" lon="9.5766983"><ele>188.5</ele><time>2026-05-02T14:14:08.039Z</time></trkpt><trkpt lat="44.9382117" lon="9.5767267"><ele>188.0</ele><time>2026-05-02T14:14:10.041Z</time></trkpt><trkpt lat="44.9383367" lon="9.5767467"><ele>187.42857142857142</ele><time>2026-05-02T14:14:12.042Z</time></trkpt><trkpt lat="44.9384" lon="9.5767567"><ele>186.85714285714283</ele><time>2026-05-02T14:14:13.042Z</time></trkpt><trkpt lat="44.9384683" lon="9.5767517"><ele>186.28571428571428</ele><time>2026-05-02T14:14:14.041Z</time></trkpt><trkpt lat="44.9385333" lon="9.5767533"><ele>185.71428571428572</ele><time>2026-05-02T14:14:15.04Z</time></trkpt><trkpt lat="44.9385983" lon="9.5767433"><ele>185.14285714285714</ele><time>2026-05-02T14:14:16.039Z</time></trkpt><trkpt lat="44.9386617" lon="9.57673"><ele>184.57142857142858</ele><time>2026-05-02T14:14:17.038Z</time></trkpt><trkpt lat="44.9387333" lon="9.5767083"><ele>184.0</ele><time>2026-05-02T14:14:18.042Z</time></trkpt><trkpt lat="44.9388017" lon="9.5766917"><ele>184.0</ele><time>2026-05-02T14:14:19.038Z</time></trkpt><trkpt lat="44.93887" lon="9.57668"><ele>184.0</ele><time>2026-05-02T14:14:20.037Z</time></trkpt><trkpt lat="44.938935" lon="9.5766683"><ele>184.0</ele><time>2026-05-02T14:14:21.047Z</time></trkpt><trkpt lat="44.939" lon="9.5766533"><ele>184.0</ele><time>2026-05-02T14:14:22.034Z</time></trkpt><trkpt lat="44.9390683" lon="9.5766333"><ele>184.0</ele><time>2026-05-02T14:14:23.04Z</time></trkpt><trkpt lat="44.9391367" lon="9.5766183"><ele>184.0</ele><time>2026-05-02T14:14:24.045Z</time></trkpt><trkpt lat="44.9392017" lon="9.5766017"><ele>184.0</ele><time>2026-05-02T14:14:25.039Z</time></trkpt><trkpt lat="44.9392683" lon="9.5765933"><ele>183.57142857142858</ele><time>2026-05-02T14:14:26.042Z</time></trkpt><trkpt lat="44.9393333" lon="9.576585"><ele>183.14285714285714</ele><time>2026-05-02T14:14:27.041Z</time></trkpt><trkpt lat="44.9394017" lon="9.576575"><ele>182.71428571428572</ele><time>2026-05-02T14:14:28.037Z</time></trkpt><trkpt lat="44.9394683" lon="9.57657"><ele>182.28571428571428</ele><time>2026-05-02T14:14:29.038Z</time></trkpt><trkpt lat="44.93954" lon="9.576565"><ele>181.85714285714283</ele><time>2026-05-02T14:14:30.04Z</time></trkpt><trkpt lat="44.9396117" lon="9.5765467"><ele>181.42857142857142</ele><time>2026-05-02T14:14:31.037Z</time></trkpt><trkpt lat="44.9396817" lon="9.5765283"><ele>181.0</ele><time>2026-05-02T14:14:32.037Z</time></trkpt><trkpt lat="44.9397583" lon="9.5765133"><ele>181.0</ele><time>2026-05-02T14:14:33.04Z</time></trkpt><trkpt lat="44.9398367" lon="9.57649"><ele>181.0</ele><time>2026-05-02T14:14:34.039Z</time></trkpt><trkpt lat="44.9399117" lon="9.5764633"><ele>181.0</ele><time>2026-05-02T14:14:35.037Z</time></trkpt><trkpt lat="44.9399783" lon="9.5764483"><ele>181.0</ele><time>2026-05-02T14:14:36.043Z</time></trkpt><trkpt lat="44.9400517" lon="9.5764233"><ele>181.0</ele><time>2026-05-02T14:14:37.044Z</time></trkpt><trkpt lat="44.9401267" lon="9.5764133"><ele>181.0</ele><time>2026-05-02T14:14:38.043Z</time></trkpt><trkpt lat="44.9401967" lon="9.5764083"><ele>181.0</ele><time>2026-05-02T14:14:39.043Z</time></trkpt><trkpt lat="44.9402633" lon="9.576395"><ele>180.57142857142856</ele><time>2026-05-02T14:14:40.043Z</time></trkpt><trkpt lat="44.9403267" lon="9.5763767"><ele>180.14285714285714</ele><time>2026-05-02T14:14:41.036Z</time></trkpt><trkpt lat="44.94039" lon="9.5763733"><ele>179.71428571428572</ele><time>2026-05-02T14:14:42.039Z</time></trkpt><trkpt lat="44.9404533" lon="9.5763667"><ele>179.28571428571428</ele><time>2026-05-02T14:14:43.041Z</time></trkpt><trkpt lat="44.94052" lon="9.5763567"><ele>178.85714285714286</ele><time>2026-05-02T14:14:44.038Z</time></trkpt><trkpt lat="44.9405833" lon="9.5763533"><ele>178.42857142857142</ele><time>2026-05-02T14:14:45.038Z</time></trkpt><trkpt lat="44.9406533" lon="9.5763467"><ele>178.0</ele><time>2026-05-02T14:14:46.04Z</time></trkpt><trkpt lat="44.9407233" lon="9.576345"><ele>177.99999999999997</ele><time>2026-05-02T14:14:47.037Z</time></trkpt><trkpt lat="44.9407917" lon="9.5763367"><ele>178.0</ele><time>2026-05-02T14:14:48.043Z</time></trkpt><trkpt lat="44.9408567" lon="9.5763317"><ele>178.0</ele><time>2026-05-02T14:14:49.044Z</time></trkpt><trkpt lat="44.9409217" lon="9.5763283"><ele>178.0</ele><time>2026-05-02T14:14:50.038Z</time></trkpt><trkpt lat="44.940985" lon="9.5763167"><ele>178.0</ele><time>2026-05-02T14:14:51.037Z</time></trkpt><trkpt lat="44.94105" lon="9.5763133"><ele>177.99999999999997</ele><time>2026-05-02T14:14:52.035Z</time></trkpt><trkpt lat="44.94114" lon="9.5763117"><ele>178.0</ele><time>2026-05-02T14:14:54.035Z</time></trkpt><trkpt lat="44.9412117" lon="9.57628"><ele>177.8</ele><time>2026-05-02T14:15:02.039Z</time></trkpt><trkpt lat="44.9412667" lon="9.576235"><ele>177.60000000000002</ele><time>2026-05-02T14:15:05.039Z</time></trkpt><trkpt lat="44.9413333" lon="9.5762483"><ele>177.39999999999998</ele><time>2026-05-02T14:15:07.039Z</time></trkpt><trkpt lat="44.9414317" lon="9.5762533"><ele>177.2</ele><time>2026-05-02T14:15:09.043Z</time></trkpt><trkpt lat="44.941545" lon="9.5762667"><ele>177.0</ele><time>2026-05-02T14:15:11.036Z</time></trkpt><trkpt lat="44.94166" lon="9.57629"><ele>176.6</ele><time>2026-05-02T14:15:13.038Z</time></trkpt><trkpt lat="44.941775" lon="9.5763067"><ele>176.2</ele><time>2026-05-02T14:15:15.04Z</time></trkpt><trkpt lat="44.9418733" lon="9.57634"><ele>175.8</ele><time>2026-05-02T14:15:17.037Z</time></trkpt><trkpt lat="44.9419783" lon="9.5763767"><ele>175.4</ele><time>2026-05-02T14:15:19.039Z</time></trkpt><trkpt lat="44.9420817" lon="9.5764267"><ele>175.0</ele><time>2026-05-02T14:15:21.041Z</time></trkpt><trkpt lat="44.9422017" lon="9.576485"><ele>175.0</ele><time>2026-05-02T14:15:23.039Z</time></trkpt><trkpt lat="44.9422633" lon="9.5765133"><ele>175.0</ele><time>2026-05-02T14:15:24.036Z</time></trkpt><trkpt lat="44.9423267" lon="9.5765433"><ele>175.0</ele><time>2026-05-02T14:15:25.039Z</time></trkpt><trkpt lat="44.942385" lon="9.57658"><ele>175.0</ele><time>2026-05-02T14:15:26.041Z</time></trkpt><trkpt lat="44.9424983" lon="9.5766383"><ele>175.0</ele><time>2026-05-02T14:15:28.042Z</time></trkpt><trkpt lat="44.9426117" lon="9.5766917"><ele>175.0</ele><time>2026-05-02T14:15:30.039Z</time></trkpt><trkpt lat="44.9427267" lon="9.5767483"><ele>174.83333333333334</ele><time>2026-05-02T14:15:32.041Z</time></trkpt><trkpt lat="44.9428467" lon="9.5767933"><ele>174.66666666666669</ele><time>2026-05-02T14:15:34.036Z</time></trkpt><trkpt lat="44.942965" lon="9.57682"><ele>174.5</ele><time>2026-05-02T14:15:36.039Z</time></trkpt><trkpt lat="44.9430283" lon="9.57683"><ele>174.33333333333334</ele><time>2026-05-02T14:15:37.045Z</time></trkpt><trkpt lat="44.9430917" lon="9.576835"><ele>174.16666666666666</ele><time>2026-05-02T14:15:38.04Z</time></trkpt><trkpt lat="44.9431533" lon="9.5768633"><ele>174.0</ele><time>2026-05-02T14:15:39.045Z</time></trkpt><trkpt lat="44.9432167" lon="9.57688"><ele>174.0</ele><time>2026-05-02T14:15:40.041Z</time></trkpt><trkpt lat="44.9432833" lon="9.5768933"><ele>174.0</ele><time>2026-05-02T14:15:41.04Z</time></trkpt><trkpt lat="44.9433483" lon="9.5769067"><ele>174.0</ele><time>2026-05-02T14:15:42.042Z</time></trkpt><trkpt lat="44.9434133" lon="9.57692"><ele>174.0</ele><time>2026-05-02T14:15:43.041Z</time></trkpt><trkpt lat="44.9435333" lon="9.57695"><ele>174.0</ele><time>2026-05-02T14:15:45.041Z</time></trkpt><trkpt lat="44.943595" lon="9.5769767"><ele>174.0</ele><time>2026-05-02T14:15:46.042Z</time></trkpt><trkpt lat="44.94366" lon="9.577"><ele>173.5</ele><time>2026-05-02T14:15:47.043Z</time></trkpt><trkpt lat="44.9437267" lon="9.5770233"><ele>173.0</ele><time>2026-05-02T14:15:48.043Z</time></trkpt><trkpt lat="44.94379" lon="9.5770517"><ele>172.5</ele><time>2026-05-02T14:15:49.043Z</time></trkpt><trkpt lat="44.94391" lon="9.577095"><ele>172.0</ele><time>2026-05-02T14:15:51.042Z</time></trkpt><trkpt lat="44.9439733" lon="9.577105"><ele>171.5</ele><time>2026-05-02T14:15:52.041Z</time></trkpt><trkpt lat="44.9440367" lon="9.57712"><ele>171.0</ele><time>2026-05-02T14:15:53.037Z</time></trkpt><trkpt lat="44.9441583" lon="9.57716"><ele>171.0</ele><time>2026-05-02T14:15:55.037Z</time></trkpt><trkpt lat="44.94428" lon="9.5771967"><ele>171.0</ele><time>2026-05-02T14:15:57.043Z</time></trkpt><trkpt lat="44.9443433" lon="9.5772217"><ele>171.0</ele><time>2026-05-02T14:15:58.039Z</time></trkpt><trkpt lat="44.9444667" lon="9.57725"><ele>171.0</ele><time>2026-05-02T14:16:00.037Z</time></trkpt><trkpt lat="44.9445883" lon="9.5772883"><ele>171.0</ele><time>2026-05-02T14:16:02.038Z</time></trkpt><trkpt lat="44.9446533" lon="9.5773083"><ele>170.99999999999997</ele><time>2026-05-02T14:16:03.041Z</time></trkpt><trkpt lat="44.9447167" lon="9.5773333"><ele>171.0</ele><time>2026-05-02T14:16:04.042Z</time></trkpt><trkpt lat="44.944785" lon="9.5773533"><ele>171.0</ele><time>2026-05-02T14:16:05.039Z</time></trkpt><trkpt lat="44.9448467" lon="9.57738"><ele>171.0</ele><time>2026-05-02T14:16:06.039Z</time></trkpt><trkpt lat="44.94491" lon="9.5774"><ele>171.0</ele><time>2026-05-02T14:16:07.044Z</time></trkpt><trkpt lat="44.9449717" lon="9.5774183"><ele>170.99999999999997</ele><time>2026-05-02T14:16:08.041Z</time></trkpt><trkpt lat="44.94504" lon="9.577425"><ele>171.0</ele><time>2026-05-02T14:16:09.045Z</time></trkpt><trkpt lat="44.9451033" lon="9.57744"><ele>170.57142857142856</ele><time>2026-05-02T14:16:10.044Z</time></trkpt><trkpt lat="44.9451667" lon="9.57746"><ele>170.14285714285714</ele><time>2026-05-02T14:16:11.039Z</time></trkpt><trkpt lat="44.9452333" lon="9.577485"><ele>169.71428571428572</ele><time>2026-05-02T14:16:12.037Z</time></trkpt><trkpt lat="44.9452983" lon="9.57751"><ele>169.28571428571428</ele><time>2026-05-02T14:16:13.039Z</time></trkpt><trkpt lat="44.9453617" lon="9.5775367"><ele>168.85714285714286</ele><time>2026-05-02T14:16:14.046Z</time></trkpt><trkpt lat="44.9454283" lon="9.5775617"><ele>168.42857142857142</ele><time>2026-05-02T14:16:15.041Z</time></trkpt><trkpt lat="44.945495" lon="9.5775817"><ele>168.0</ele><time>2026-05-02T14:16:16.039Z</time></trkpt><trkpt lat="44.9455633" lon="9.5776067"><ele>168.0</ele><time>2026-05-02T14:16:17.041Z</time></trkpt><trkpt lat="44.9456283" lon="9.5776183"><ele>168.0</ele><time>2026-05-02T14:16:18.039Z</time></trkpt><trkpt lat="44.945695" lon="9.5776383"><ele>168.0</ele><time>2026-05-02T14:16:19.041Z</time></trkpt><trkpt lat="44.9457583" lon="9.5776583"><ele>168.0</ele><time>2026-05-02T14:16:20.04Z</time></trkpt><trkpt lat="44.9458283" lon="9.577685"><ele>168.0</ele><time>2026-05-02T14:16:21.044Z</time></trkpt><trkpt lat="44.9459" lon="9.5777133"><ele>168.0</ele><time>2026-05-02T14:16:22.036Z</time></trkpt><trkpt lat="44.9459717" lon="9.5777433"><ele>168.0</ele><time>2026-05-02T14:16:23.038Z</time></trkpt><trkpt lat="44.946045" lon="9.57778"><ele>167.28571428571428</ele><time>2026-05-02T14:16:24.034Z</time></trkpt><trkpt lat="44.9461217" lon="9.577805"><ele>166.57142857142856</ele><time>2026-05-02T14:16:25.039Z</time></trkpt><trkpt lat="44.9461983" lon="9.5778317"><ele>165.85714285714286</ele><time>2026-05-02T14:16:26.038Z</time></trkpt><trkpt lat="44.9462733" lon="9.5778583"><ele>165.14285714285714</ele><time>2026-05-02T14:16:27.044Z</time></trkpt><trkpt lat="44.94634" lon="9.57789"><ele>164.42857142857142</ele><time>2026-05-02T14:16:28.04Z</time></trkpt><trkpt lat="44.9464117" lon="9.57792"><ele>163.71428571428572</ele><time>2026-05-02T14:16:29.039Z</time></trkpt><trkpt lat="44.9464783" lon="9.5779433"><ele>163.0</ele><time>2026-05-02T14:16:30.037Z</time></trkpt><trkpt lat="44.9465467" lon="9.5779683"><ele>162.71428571428572</ele><time>2026-05-02T14:16:31.037Z</time></trkpt><trkpt lat="44.9466117" lon="9.5780117"><ele>162.42857142857142</ele><time>2026-05-02T14:16:32.04Z</time></trkpt><trkpt lat="44.9466733" lon="9.5780567"><ele>162.14285714285714</ele><time>2026-05-02T14:16:33.038Z</time></trkpt><trkpt lat="44.9467367" lon="9.5781"><ele>161.85714285714286</ele><time>2026-05-02T14:16:34.038Z</time></trkpt><trkpt lat="44.9468033" lon="9.5781433"><ele>161.57142857142856</ele><time>2026-05-02T14:16:35.039Z</time></trkpt><trkpt lat="44.9468683" lon="9.5781867"><ele>161.28571428571428</ele><time>2026-05-02T14:16:36.041Z</time></trkpt><trkpt lat="44.9469267" lon="9.5782283"><ele>161.0</ele><time>2026-05-02T14:16:37.04Z</time></trkpt><trkpt lat="44.9469883" lon="9.57827"><ele>160.71428571428572</ele><time>2026-05-02T14:16:38.04Z</time></trkpt><trkpt lat="44.9470533" lon="9.5783"><ele>160.42857142857144</ele><time>2026-05-02T14:16:39.038Z</time></trkpt><trkpt lat="44.9471117" lon="9.5783417"><ele>160.14285714285714</ele><time>2026-05-02T14:16:40.037Z</time></trkpt><trkpt lat="44.9471717" lon="9.5783817"><ele>159.85714285714286</ele><time>2026-05-02T14:16:41.038Z</time></trkpt><trkpt lat="44.9472317" lon="9.578425"><ele>159.57142857142858</ele><time>2026-05-02T14:16:42.036Z</time></trkpt><trkpt lat="44.9472933" lon="9.5784667"><ele>159.28571428571428</ele><time>2026-05-02T14:16:43.04Z</time></trkpt><trkpt lat="44.9473567" lon="9.5785017"><ele>159.0</ele><time>2026-05-02T14:16:44.042Z</time></trkpt><trkpt lat="44.947425" lon="9.5785333"><ele>159.0</ele><time>2026-05-02T14:16:45.043Z</time></trkpt><trkpt lat="44.94749" lon="9.5785717"><ele>159.0</ele><time>2026-05-02T14:16:46.039Z</time></trkpt><trkpt lat="44.9475533" lon="9.5786167"><ele>159.0</ele><time>2026-05-02T14:16:47.035Z</time></trkpt><trkpt lat="44.9476183" lon="9.5786583"><ele>159.0</ele><time>2026-05-02T14:16:48.044Z</time></trkpt><trkpt lat="44.94768" lon="9.5787"><ele>159.0</ele><time>2026-05-02T14:16:49.041Z</time></trkpt><trkpt lat="44.9477417" lon="9.5787467"><ele>159.0</ele><time>2026-05-02T14:16:50.039Z</time></trkpt><trkpt lat="44.947805" lon="9.5787917"><ele>159.0</ele><time>2026-05-02T14:16:51.042Z</time></trkpt><trkpt lat="44.9478683" lon="9.57883"><ele>158.0</ele><time>2026-05-02T14:16:52.039Z</time></trkpt><trkpt lat="44.9479333" lon="9.578865"><ele>157.0</ele><time>2026-05-02T14:16:53.037Z</time></trkpt><trkpt lat="44.947995" lon="9.578895"><ele>156.0</ele><time>2026-05-02T14:16:54.037Z</time></trkpt><trkpt lat="44.9481133" lon="9.5789467"><ele>155.0</ele><time>2026-05-02T14:16:56.039Z</time></trkpt><trkpt lat="44.9482283" lon="9.5789817"><ele>154.0</ele><time>2026-05-02T14:16:58.041Z</time></trkpt><trkpt lat="44.9483517" lon="9.5789967"><ele>154.42857142857142</ele><time>2026-05-02T14:17:00.043Z</time></trkpt><trkpt lat="44.9484183" lon="9.57901"><ele>154.85714285714286</ele><time>2026-05-02T14:17:01.039Z</time></trkpt><trkpt lat="44.94849" lon="9.5790133"><ele>155.28571428571428</ele><time>2026-05-02T14:17:02.041Z</time></trkpt><trkpt lat="44.94856" lon="9.5790167"><ele>155.71428571428572</ele><time>2026-05-02T14:17:03.04Z</time></trkpt><trkpt lat="44.9486267" lon="9.57902"><ele>156.14285714285714</ele><time>2026-05-02T14:17:04.04Z</time></trkpt><trkpt lat="44.9486917" lon="9.57902"><ele>156.57142857142856</ele><time>2026-05-02T14:17:05.039Z</time></trkpt><trkpt lat="44.948755" lon="9.5790167"><ele>157.0</ele><time>2026-05-02T14:17:06.047Z</time></trkpt><trkpt lat="44.94882" lon="9.57901"><ele>157.0</ele><time>2026-05-02T14:17:07.041Z</time></trkpt><trkpt lat="44.9489383" lon="9.57899"><ele>157.0</ele><time>2026-05-02T14:17:09.041Z</time></trkpt><trkpt lat="44.949055" lon="9.578995"><ele>157.0</ele><time>2026-05-02T14:17:11.039Z</time></trkpt><trkpt lat="44.94918" lon="9.5790017"><ele>157.0</ele><time>2026-05-02T14:17:13.042Z</time></trkpt><trkpt lat="44.949245" lon="9.5790067"><ele>157.0</ele><time>2026-05-02T14:17:14.038Z</time></trkpt><trkpt lat="44.9493083" lon="9.5790133"><ele>156.33333333333334</ele><time>2026-05-02T14:17:15.039Z</time></trkpt><trkpt lat="44.9493767" lon="9.5790283"><ele>155.66666666666669</ele><time>2026-05-02T14:17:16.043Z</time></trkpt><trkpt lat="44.9495" lon="9.5790333"><ele>155.0</ele><time>2026-05-02T14:17:18.038Z</time></trkpt><trkpt lat="44.9495683" lon="9.57904"><ele>154.33333333333334</ele><time>2026-05-02T14:17:19.044Z</time></trkpt><trkpt lat="44.9496333" lon="9.57904"><ele>153.66666666666666</ele><time>2026-05-02T14:17:20.038Z</time></trkpt><trkpt lat="44.9496967" lon="9.579035"><ele>153.0</ele><time>2026-05-02T14:17:21.047Z</time></trkpt><trkpt lat="44.9498167" lon="9.5790517"><ele>153.0</ele><time>2026-05-02T14:17:23.037Z</time></trkpt><trkpt lat="44.94988" lon="9.579055"><ele>153.0</ele><time>2026-05-02T14:17:24.037Z</time></trkpt><trkpt lat="44.949945" lon="9.5790533"><ele>153.0</ele><time>2026-05-02T14:17:25.04Z</time></trkpt><trkpt lat="44.9500117" lon="9.5790567"><ele>153.0</ele><time>2026-05-02T14:17:26.039Z</time></trkpt><trkpt lat="44.950075" lon="9.57905"><ele>153.0</ele><time>2026-05-02T14:17:27.037Z</time></trkpt><trkpt lat="44.9501983" lon="9.5790367"><ele>153.0</ele><time>2026-05-02T14:17:29.04Z</time></trkpt><trkpt lat="44.95032" lon="9.5790117"><ele>152.57142857142856</ele><time>2026-05-02T14:17:31.039Z</time></trkpt><trkpt lat="44.9503867" lon="9.5789867"><ele>152.14285714285714</ele><time>2026-05-02T14:17:32.042Z</time></trkpt><trkpt lat="44.9504533" lon="9.5789567"><ele>151.71428571428572</ele><time>2026-05-02T14:17:33.039Z</time></trkpt><trkpt lat="44.9505183" lon="9.5789333"><ele>151.28571428571428</ele><time>2026-05-02T14:17:34.039Z</time></trkpt><trkpt lat="44.9505817" lon="9.5789117"><ele>150.85714285714286</ele><time>2026-05-02T14:17:35.037Z</time></trkpt><trkpt lat="44.95065" lon="9.57888"><ele>150.42857142857142</ele><time>2026-05-02T14:17:36.039Z</time></trkpt><trkpt lat="44.9507167" lon="9.578845"><ele>150.0</ele><time>2026-05-02T14:17:37.04Z</time></trkpt><trkpt lat="44.95078" lon="9.57882"><ele>150.0</ele><time>2026-05-02T14:17:38.038Z</time></trkpt><trkpt lat="44.9508467" lon="9.5787867"><ele>150.0</ele><time>2026-05-02T14:17:39.046Z</time></trkpt><trkpt lat="44.9509167" lon="9.5787533"><ele>150.0</ele><time>2026-05-02T14:17:40.038Z</time></trkpt><trkpt lat="44.9509917" lon="9.5786867"><ele>150.0</ele><time>2026-05-02T14:17:41.039Z</time></trkpt><trkpt lat="44.9510667" lon="9.5786417"><ele>150.0</ele><time>2026-05-02T14:17:42.041Z</time></trkpt><trkpt lat="44.95114" lon="9.5785983"><ele>150.0</ele><time>2026-05-02T14:17:43.038Z</time></trkpt><trkpt lat="44.9512167" lon="9.578555"><ele>149.5</ele><time>2026-05-02T14:17:44.038Z</time></trkpt><trkpt lat="44.9512917" lon="9.578505"><ele>149.0</ele><time>2026-05-02T14:17:45.041Z</time></trkpt><trkpt lat="44.9513633" lon="9.578465"><ele>148.5</ele><time>2026-05-02T14:17:46.038Z</time></trkpt><trkpt lat="44.9514417" lon="9.578395"><ele>148.0</ele><time>2026-05-02T14:17:47.039Z</time></trkpt><trkpt lat="44.9515217" lon="9.578345"><ele>147.5</ele><time>2026-05-02T14:17:48.038Z</time></trkpt><trkpt lat="44.9516083" lon="9.5782633"><ele>147.0</ele><time>2026-05-02T14:17:49.041Z</time></trkpt><trkpt lat="44.9516917" lon="9.5782083"><ele>146.0</ele><time>2026-05-02T14:17:50.04Z</time></trkpt><trkpt lat="44.9517733" lon="9.57816"><ele>145.0</ele><time>2026-05-02T14:17:51.041Z</time></trkpt><trkpt lat="44.95186" lon="9.57813"><ele>144.0</ele><time>2026-05-02T14:17:52.037Z</time></trkpt><trkpt lat="44.9519533" lon="9.578115"><ele>143.0</ele><time>2026-05-02T14:17:53.04Z</time></trkpt><trkpt lat="44.95205" lon="9.5781467"><ele>142.0</ele><time>2026-05-02T14:17:54.041Z</time></trkpt><trkpt lat="44.9521417" lon="9.57817"><ele>142.0</ele><time>2026-05-02T14:17:55.039Z</time></trkpt><trkpt lat="44.95223" lon="9.5781917"><ele>142.0</ele><time>2026-05-02T14:17:56.039Z</time></trkpt><trkpt lat="44.9523017" lon="9.5782083"><ele>142.0</ele><time>2026-05-02T14:17:57.043Z</time></trkpt><trkpt lat="44.9523867" lon="9.57822"><ele>142.0</ele><time>2026-05-02T14:17:58.038Z</time></trkpt><trkpt lat="44.95247" lon="9.5782433"><ele>142.0</ele><time>2026-05-02T14:17:59.038Z</time></trkpt><trkpt lat="44.9525567" lon="9.5782567"><ele>142.0</ele><time>2026-05-02T14:18:00.04Z</time></trkpt><trkpt lat="44.952635" lon="9.5782583"><ele>141.57142857142856</ele><time>2026-05-02T14:18:01.037Z</time></trkpt><trkpt lat="44.95271" lon="9.57826"><ele>141.14285714285714</ele><time>2026-05-02T14:18:02.039Z</time></trkpt><trkpt lat="44.952785" lon="9.5782683"><ele>140.71428571428572</ele><time>2026-05-02T14:18:03.04Z</time></trkpt><trkpt lat="44.95286" lon="9.578275"><ele>140.28571428571428</ele><time>2026-05-02T14:18:04.041Z</time></trkpt><trkpt lat="44.9529383" lon="9.578275"><ele>139.85714285714286</ele><time>2026-05-02T14:18:05.04Z</time></trkpt><trkpt lat="44.95301" lon="9.578275"><ele>139.42857142857142</ele><time>2026-05-02T14:18:06.04Z</time></trkpt><trkpt lat="44.9530733" lon="9.5782817"><ele>139.0</ele><time>2026-05-02T14:18:07.039Z</time></trkpt><trkpt lat="44.953165" lon="9.5783283"><ele>139.0</ele><time>2026-05-02T14:18:09.042Z</time></trkpt><trkpt lat="44.9531833" lon="9.5784417"><ele>139.0</ele><time>2026-05-02T14:18:11.038Z</time></trkpt><trkpt lat="44.95316" lon="9.57861"><ele>139.0</ele><time>2026-05-02T14:18:13.035Z</time></trkpt><trkpt lat="44.953135" lon="9.578775"><ele>139.0</ele><time>2026-05-02T14:18:15.042Z</time></trkpt><trkpt lat="44.9531033" lon="9.5789417"><ele>139.0</ele><time>2026-05-02T14:18:17.038Z</time></trkpt><trkpt lat="44.953075" lon="9.579115"><ele>139.0</ele><time>2026-05-02T14:18:19.037Z</time></trkpt><trkpt lat="44.953045" lon="9.5792833"><ele>139.0</ele><time>2026-05-02T14:18:21.041Z</time></trkpt><trkpt lat="44.9530283" lon="9.57937"><ele>139.0</ele><time>2026-05-02T14:18:22.037Z</time></trkpt><trkpt lat="44.9530117" lon="9.5794567"><ele>139.0</ele><time>2026-05-02T14:18:23.042Z</time></trkpt><trkpt lat="44.9529967" lon="9.579545"><ele>139.0</ele><time>2026-05-02T14:18:24.042Z</time></trkpt><trkpt lat="44.95298" lon="9.5796333"><ele>139.0</ele><time>2026-05-02T14:18:25.042Z</time></trkpt><trkpt lat="44.9529433" lon="9.5797933"><ele>139.0</ele><time>2026-05-02T14:18:27.039Z</time></trkpt><trkpt lat="44.952915" lon="9.5799583"><ele>139.0</ele><time>2026-05-02T14:18:29.042Z</time></trkpt><trkpt lat="44.9528883" lon="9.580115"><ele>139.0</ele><time>2026-05-02T14:18:31.039Z</time></trkpt><trkpt lat="44.9528617" lon="9.5802917"><ele>139.0</ele><time>2026-05-02T14:18:33.043Z</time></trkpt><trkpt lat="44.952855" lon="9.580385"><ele>139.0</ele><time>2026-05-02T14:18:34.039Z</time></trkpt><trkpt lat="44.95285" lon="9.580485"><ele>138.16666666666669</ele><time>2026-05-02T14:18:35.041Z</time></trkpt><trkpt lat="44.95284" lon="9.5805783"><ele>137.33333333333334</ele><time>2026-05-02T14:18:36.04Z</time></trkpt><trkpt lat="44.952835" lon="9.5806883"><ele>136.5</ele><time>2026-05-02T14:18:37.04Z</time></trkpt><trkpt lat="44.9528283" lon="9.580795"><ele>135.66666666666666</ele><time>2026-05-02T14:18:38.037Z</time></trkpt><trkpt lat="44.9528267" lon="9.5809083"><ele>134.83333333333331</ele><time>2026-05-02T14:18:39.041Z</time></trkpt><trkpt lat="44.9528233" lon="9.5810183"><ele>134.0</ele><time>2026-05-02T14:18:40.039Z</time></trkpt><trkpt lat="44.9528183" lon="9.581125"><ele>134.16666666666666</ele><time>2026-05-02T14:18:41.036Z</time></trkpt><trkpt lat="44.9528133" lon="9.581235"><ele>134.33333333333331</ele><time>2026-05-02T14:18:42.043Z</time></trkpt><trkpt lat="44.95281" lon="9.581345"><ele>134.5</ele><time>2026-05-02T14:18:43.045Z</time></trkpt><trkpt lat="44.9528033" lon="9.5814417"><ele>134.66666666666666</ele><time>2026-05-02T14:18:44.039Z</time></trkpt><trkpt lat="44.952795" lon="9.5816233"><ele>134.83333333333334</ele><time>2026-05-02T14:18:46.037Z</time></trkpt><trkpt lat="44.9527983" lon="9.5817183"><ele>135.0</ele><time>2026-05-02T14:18:47.039Z</time></trkpt><trkpt lat="44.9528017" lon="9.5818117"><ele>135.0</ele><time>2026-05-02T14:18:48.04Z</time></trkpt><trkpt lat="44.9528" lon="9.5819867"><ele>135.0</ele><time>2026-05-02T14:18:50.041Z</time></trkpt><trkpt lat="44.9527983" lon="9.582165"><ele>135.0</ele><time>2026-05-02T14:18:52.037Z</time></trkpt><trkpt lat="44.9527917" lon="9.5822567"><ele>135.0</ele><time>2026-05-02T14:18:53.036Z</time></trkpt><trkpt lat="44.95278" lon="9.5824217"><ele>135.0</ele><time>2026-05-02T14:18:55.043Z</time></trkpt><trkpt lat="44.9527717" lon="9.5825767"><ele>135.8</ele><time>2026-05-02T14:18:57.043Z</time></trkpt><trkpt lat="44.95275" lon="9.5827267"><ele>136.6</ele><time>2026-05-02T14:18:59.041Z</time></trkpt><trkpt lat="44.9527217" lon="9.5828617"><ele>137.4</ele><time>2026-05-02T14:19:01.041Z</time></trkpt><trkpt lat="44.9526967" lon="9.5829983"><ele>138.2</ele><time>2026-05-02T14:19:03.042Z</time></trkpt><trkpt lat="44.9526733" lon="9.583135"><ele>139.0</ele><time>2026-05-02T14:19:05.037Z</time></trkpt><trkpt lat="44.952635" lon="9.5832683"><ele>139.2</ele><time>2026-05-02T14:19:07.04Z</time></trkpt><trkpt lat="44.952595" lon="9.58342"><ele>139.4</ele><time>2026-05-02T14:19:09.045Z</time></trkpt><trkpt lat="44.9525517" lon="9.5835717"><ele>139.6</ele><time>2026-05-02T14:19:11.036Z</time></trkpt><trkpt lat="44.952515" lon="9.5837133"><ele>139.8</ele><time>2026-05-02T14:19:13.042Z</time></trkpt><trkpt lat="44.9524867" lon="9.5838517"><ele>140.0</ele><time>2026-05-02T14:19:15.042Z</time></trkpt><trkpt lat="44.9524583" lon="9.5840067"><ele>139.75</ele><time>2026-05-02T14:19:17.038Z</time></trkpt><trkpt lat="44.9524267" lon="9.5841667"><ele>139.5</ele><time>2026-05-02T14:19:19.039Z</time></trkpt><trkpt lat="44.9524" lon="9.5843317"><ele>139.25</ele><time>2026-05-02T14:19:21.044Z</time></trkpt><trkpt lat="44.9523667" lon="9.5844917"><ele>139.0</ele><time>2026-05-02T14:19:23.037Z</time></trkpt><trkpt lat="44.9523333" lon="9.5846533"><ele>139.0</ele><time>2026-05-02T14:19:25.044Z</time></trkpt><trkpt lat="44.9523233" lon="9.584745"><ele>139.0</ele><time>2026-05-02T14:19:26.038Z</time></trkpt><trkpt lat="44.952315" lon="9.5849233"><ele>139.0</ele><time>2026-05-02T14:19:28.043Z</time></trkpt><trkpt lat="44.9523133" lon="9.5850133"><ele>139.0</ele><time>2026-05-02T14:19:29.036Z</time></trkpt><trkpt lat="44.9523083" lon="9.5851067"><ele>139.0</ele><time>2026-05-02T14:19:30.037Z</time></trkpt><trkpt lat="44.952305" lon="9.5851983"><ele>139.0</ele><time>2026-05-02T14:19:31.042Z</time></trkpt><trkpt lat="44.952305" lon="9.5852967"><ele>138.71428571428572</ele><time>2026-05-02T14:19:32.04Z</time></trkpt><trkpt lat="44.9522983" lon="9.58539"><ele>138.42857142857144</ele><time>2026-05-02T14:19:33.042Z</time></trkpt><trkpt lat="44.952275" lon="9.5855067"><ele>138.14285714285717</ele><time>2026-05-02T14:19:34.038Z</time></trkpt><trkpt lat="44.9522683" lon="9.5856117"><ele>137.85714285714286</ele><time>2026-05-02T14:19:35.041Z</time></trkpt><trkpt lat="44.9522583" lon="9.5857183"><ele>137.57142857142858</ele><time>2026-05-02T14:19:36.042Z</time></trkpt><trkpt lat="44.9522617" lon="9.5858183"><ele>137.2857142857143</ele><time>2026-05-02T14:19:37.038Z</time></trkpt><trkpt lat="44.9522633" lon="9.5859167"><ele>137.0</ele><time>2026-05-02T14:19:38.04Z</time></trkpt><trkpt lat="44.9522683" lon="9.5860167"><ele>137.00000000000003</ele><time>2026-05-02T14:19:39.04Z</time></trkpt><trkpt lat="44.9522667" lon="9.5861183"><ele>137.0</ele><time>2026-05-02T14:19:40.042Z</time></trkpt><trkpt lat="44.9522633" lon="9.58622"><ele>137.0</ele><time>2026-05-02T14:19:41.037Z</time></trkpt><trkpt lat="44.9522683" lon="9.5863333"><ele>137.0</ele><time>2026-05-02T14:19:42.033Z</time></trkpt><trkpt lat="44.95226" lon="9.5864333"><ele>137.0</ele><time>2026-05-02T14:19:43.038Z</time></trkpt><trkpt lat="44.9522583" lon="9.5865333"><ele>137.00000000000003</ele><time>2026-05-02T14:19:44.039Z</time></trkpt><trkpt lat="44.95226" lon="9.5866333"><ele>137.0</ele><time>2026-05-02T14:19:45.044Z</time></trkpt><trkpt lat="44.9522583" lon="9.5867333"><ele>136.83333333333331</ele><time>2026-05-02T14:19:46.04Z</time></trkpt><trkpt lat="44.9522633" lon="9.5868333"><ele>136.66666666666666</ele><time>2026-05-02T14:19:47.036Z</time></trkpt><trkpt lat="44.9522683" lon="9.586935"><ele>136.5</ele><time>2026-05-02T14:19:48.036Z</time></trkpt><trkpt lat="44.9522633" lon="9.5870383"><ele>136.33333333333334</ele><time>2026-05-02T14:19:49.043Z</time></trkpt><trkpt lat="44.9522583" lon="9.5871383"><ele>136.16666666666669</ele><time>2026-05-02T14:19:50.04Z</time></trkpt><trkpt lat="44.9522633" lon="9.587295"><ele>136.0</ele><time>2026-05-02T14:19:52.042Z</time></trkpt><trkpt lat="44.9523017" lon="9.5874"><ele>135.66666666666669</ele><time>2026-05-02T14:19:54.041Z</time></trkpt><trkpt lat="44.9523783" lon="9.5874533"><ele>135.33333333333334</ele><time>2026-05-02T14:19:56.039Z</time></trkpt><trkpt lat="44.9524733" lon="9.5874117"><ele>135.0</ele><time>2026-05-02T14:19:58.041Z</time></trkpt><trkpt lat="44.9525833" lon="9.587335"><ele>134.66666666666666</ele><time>2026-05-02T14:20:00.039Z</time></trkpt><trkpt lat="44.952645" lon="9.5872967"><ele>134.33333333333331</ele><time>2026-05-02T14:20:01.038Z</time></trkpt><trkpt lat="44.9527083" lon="9.5872533"><ele>134.0</ele><time>2026-05-02T14:20:02.038Z</time></trkpt><trkpt lat="44.9527733" lon="9.5872183"><ele>133.33333333333331</ele><time>2026-05-02T14:20:03.045Z</time></trkpt><trkpt lat="44.9528417" lon="9.587165"><ele>132.66666666666666</ele><time>2026-05-02T14:20:04.039Z</time></trkpt><trkpt lat="44.9529033" lon="9.5871283"><ele>132.0</ele><time>2026-05-02T14:20:05.039Z</time></trkpt><trkpt lat="44.953015" lon="9.5870833"><ele>131.33333333333334</ele><time>2026-05-02T14:20:07.038Z</time></trkpt><trkpt lat="44.9530783" lon="9.5870633"><ele>130.66666666666669</ele><time>2026-05-02T14:20:08.039Z</time></trkpt><trkpt lat="44.9531517" lon="9.587055"><ele>130.0</ele><time>2026-05-02T14:20:09.042Z</time></trkpt><trkpt lat="44.95322" lon="9.5870517"><ele>130.00000000000003</ele><time>2026-05-02T14:20:10.039Z</time></trkpt><trkpt lat="44.9532933" lon="9.5870483"><ele>130.0</ele><time>2026-05-02T14:20:11.041Z</time></trkpt><trkpt lat="44.9533617" lon="9.5870567"><ele>130.0</ele><time>2026-05-02T14:20:12.04Z</time></trkpt><trkpt lat="44.95343" lon="9.58707"><ele>130.0</ele><time>2026-05-02T14:20:13.044Z</time></trkpt><trkpt lat="44.953495" lon="9.5870917"><ele>130.0</ele><time>2026-05-02T14:20:14.04Z</time></trkpt><trkpt lat="44.95356" lon="9.5871167"><ele>130.00000000000003</ele><time>2026-05-02T14:20:15.043Z</time></trkpt><trkpt lat="44.9536217" lon="9.58715"><ele>130.0</ele><time>2026-05-02T14:20:16.039Z</time></trkpt><trkpt lat="44.953685" lon="9.5871833"><ele>130.0</ele><time>2026-05-02T14:20:17.043Z</time></trkpt><trkpt lat="44.95375" lon="9.5871983"><ele>130.0</ele><time>2026-05-02T14:20:18.04Z</time></trkpt><trkpt lat="44.9538133" lon="9.587215"><ele>130.0</ele><time>2026-05-02T14:20:19.04Z</time></trkpt><trkpt lat="44.953875" lon="9.5872333"><ele>130.0</ele><time>2026-05-02T14:20:20.039Z</time></trkpt><trkpt lat="44.953935" lon="9.5872633"><ele>130.0</ele><time>2026-05-02T14:20:21.043Z</time></trkpt><trkpt lat="44.9540483" lon="9.587305"><ele>130.0</ele><time>2026-05-02T14:20:23.04Z</time></trkpt><trkpt lat="44.954165" lon="9.5873583"><ele>130.0</ele><time>2026-05-02T14:20:25.044Z</time></trkpt><trkpt lat="44.9542917" lon="9.5873967"><ele>130.0</ele><time>2026-05-02T14:20:27.035Z</time></trkpt><trkpt lat="44.9543583" lon="9.5874217"><ele>130.0</ele><time>2026-05-02T14:20:28.042Z</time></trkpt><trkpt lat="44.9544233" lon="9.58744"><ele>130.0</ele><time>2026-05-02T14:20:29.039Z</time></trkpt><trkpt lat="44.9545417" lon="9.5874983"><ele>130.0</ele><time>2026-05-02T14:20:31.04Z</time></trkpt><trkpt lat="44.9546033" lon="9.5875333"><ele>130.0</ele><time>2026-05-02T14:20:32.037Z</time></trkpt><trkpt lat="44.954665" lon="9.5875667"><ele>130.0</ele><time>2026-05-02T14:20:33.044Z</time></trkpt><trkpt lat="44.95473" lon="9.5875983"><ele>130.0</ele><time>2026-05-02T14:20:34.034Z</time></trkpt><trkpt lat="44.9547933" lon="9.587625"><ele>130.0</ele><time>2026-05-02T14:20:35.036Z</time></trkpt><trkpt lat="44.954855" lon="9.5876483"><ele>130.0</ele><time>2026-05-02T14:20:36.036Z</time></trkpt><trkpt lat="44.9549717" lon="9.5877"><ele>130.0</ele><time>2026-05-02T14:20:38.041Z</time></trkpt><trkpt lat="44.95509" lon="9.5877417"><ele>129.6</ele><time>2026-05-02T14:20:40.04Z</time></trkpt><trkpt lat="44.9552117" lon="9.58777"><ele>129.2</ele><time>2026-05-02T14:20:42.041Z</time></trkpt><trkpt lat="44.9553267" lon="9.5877817"><ele>128.8</ele><time>2026-05-02T14:20:44.045Z</time></trkpt><trkpt lat="44.9554517" lon="9.5877717"><ele>128.4</ele><time>2026-05-02T14:20:46.04Z</time></trkpt><trkpt lat="44.95552" lon="9.587765"><ele>128.0</ele><time>2026-05-02T14:20:47.042Z</time></trkpt><trkpt lat="44.955585" lon="9.587755"><ele>127.99999999999999</ele><time>2026-05-02T14:20:48.043Z</time></trkpt><trkpt lat="44.95565" lon="9.5877417"><ele>128.0</ele><time>2026-05-02T14:20:49.041Z</time></trkpt><trkpt lat="44.95572" lon="9.5877217"><ele>128.0</ele><time>2026-05-02T14:20:50.042Z</time></trkpt><trkpt lat="44.9557883" lon="9.5877033"><ele>128.0</ele><time>2026-05-02T14:20:51.038Z</time></trkpt><trkpt lat="44.9558567" lon="9.5876733"><ele>127.99999999999999</ele><time>2026-05-02T14:20:52.039Z</time></trkpt><trkpt lat="44.95592" lon="9.5876583"><ele>128.0</ele><time>2026-05-02T14:20:53.035Z</time></trkpt><trkpt lat="44.9560417" lon="9.5876283"><ele>127.99999999999999</ele><time>2026-05-02T14:20:55.04Z</time></trkpt><trkpt lat="44.9561617" lon="9.5876117"><ele>128.0</ele><time>2026-05-02T14:20:57.049Z</time></trkpt><trkpt lat="44.9562833" lon="9.5875867"><ele>128.0</ele><time>2026-05-02T14:20:59.038Z</time></trkpt><trkpt lat="44.95635" lon="9.5875667"><ele>128.0</ele><time>2026-05-02T14:21:00.041Z</time></trkpt><trkpt lat="44.9564167" lon="9.5875483"><ele>127.99999999999999</ele><time>2026-05-02T14:21:01.042Z</time></trkpt><trkpt lat="44.956485" lon="9.5875283"><ele>128.0</ele><time>2026-05-02T14:21:02.042Z</time></trkpt><trkpt lat="44.9565583" lon="9.5875067"><ele>127.99999999999999</ele><time>2026-05-02T14:21:03.038Z</time></trkpt><trkpt lat="44.9566283" lon="9.58749"><ele>128.0</ele><time>2026-05-02T14:21:04.038Z</time></trkpt><trkpt lat="44.9567517" lon="9.5875067"><ele>128.0</ele><time>2026-05-02T14:21:06.041Z</time></trkpt><trkpt lat="44.95682" lon="9.5875083"><ele>128.0</ele><time>2026-05-02T14:21:07.036Z</time></trkpt><trkpt lat="44.9568883" lon="9.5875217"><ele>127.99999999999999</ele><time>2026-05-02T14:21:08.04Z</time></trkpt><trkpt lat="44.956955" lon="9.587535"><ele>128.0</ele><time>2026-05-02T14:21:09.039Z</time></trkpt><trkpt lat="44.9570217" lon="9.587555"><ele>127.71428571428571</ele><time>2026-05-02T14:21:10.041Z</time></trkpt><trkpt lat="44.957085" lon="9.5875783"><ele>127.42857142857142</ele><time>2026-05-02T14:21:11.04Z</time></trkpt><trkpt lat="44.9571533" lon="9.587605"><ele>127.14285714285714</ele><time>2026-05-02T14:21:12.039Z</time></trkpt><trkpt lat="44.9572183" lon="9.5876217"><ele>126.85714285714286</ele><time>2026-05-02T14:21:13.041Z</time></trkpt><trkpt lat="44.957285" lon="9.58764"><ele>126.57142857142857</ele><time>2026-05-02T14:21:14.043Z</time></trkpt><trkpt lat="44.957355" lon="9.5876583"><ele>126.28571428571428</ele><time>2026-05-02T14:21:15.043Z</time></trkpt><trkpt lat="44.9574233" lon="9.5876733"><ele>126.0</ele><time>2026-05-02T14:21:16.044Z</time></trkpt><trkpt lat="44.9574883" lon="9.5876917"><ele>126.0</ele><time>2026-05-02T14:21:17.037Z</time></trkpt><trkpt lat="44.9575533" lon="9.58771"><ele>126.0</ele><time>2026-05-02T14:21:18.037Z</time></trkpt><trkpt lat="44.957615" lon="9.58773"><ele>126.0</ele><time>2026-05-02T14:21:19.047Z</time></trkpt><trkpt lat="44.9577333" lon="9.587755"><ele>126.0</ele><time>2026-05-02T14:21:21.04Z</time></trkpt><trkpt lat="44.9578583" lon="9.5877767"><ele>126.0</ele><time>2026-05-02T14:21:23.041Z</time></trkpt><trkpt lat="44.9579283" lon="9.5877833"><ele>126.0</ele><time>2026-05-02T14:21:24.037Z</time></trkpt><trkpt lat="44.9579933" lon="9.587795"><ele>126.0</ele><time>2026-05-02T14:21:25.041Z</time></trkpt><trkpt lat="44.9580617" lon="9.5878017"><ele>126.0</ele><time>2026-05-02T14:21:26.036Z</time></trkpt><trkpt lat="44.9581283" lon="9.5878"><ele>126.0</ele><time>2026-05-02T14:21:27.042Z</time></trkpt><trkpt lat="44.958195" lon="9.5877933"><ele>126.0</ele><time>2026-05-02T14:21:28.039Z</time></trkpt><trkpt lat="44.958315" lon="9.58778"><ele>126.0</ele><time>2026-05-02T14:21:30.039Z</time></trkpt><trkpt lat="44.9583783" lon="9.5877483"><ele>126.0</ele><time>2026-05-02T14:21:31.041Z</time></trkpt><trkpt lat="44.9584983" lon="9.5876917"><ele>125.66666666666667</ele><time>2026-05-02T14:21:33.047Z</time></trkpt><trkpt lat="44.9586183" lon="9.5876317"><ele>125.33333333333334</ele><time>2026-05-02T14:21:35.037Z</time></trkpt><trkpt lat="44.9586783" lon="9.5876017"><ele>125.0</ele><time>2026-05-02T14:21:36.041Z</time></trkpt><trkpt lat="44.95874" lon="9.58757"><ele>124.66666666666667</ele><time>2026-05-02T14:21:37.044Z</time></trkpt><trkpt lat="44.9588017" lon="9.5875417"><ele>124.33333333333334</ele><time>2026-05-02T14:21:38.041Z</time></trkpt><trkpt lat="44.9588617" lon="9.5875"><ele>124.0</ele><time>2026-05-02T14:21:39.04Z</time></trkpt><trkpt lat="44.958925" lon="9.5874733"><ele>124.00000000000001</ele><time>2026-05-02T14:21:40.039Z</time></trkpt><trkpt lat="44.9590417" lon="9.58744"><ele>124.0</ele><time>2026-05-02T14:21:42.039Z</time></trkpt><trkpt lat="44.9591567" lon="9.5874117"><ele>124.0</ele><time>2026-05-02T14:21:44.042Z</time></trkpt><trkpt lat="44.9592167" lon="9.5873783"><ele>124.0</ele><time>2026-05-02T14:21:45.039Z</time></trkpt><trkpt lat="44.95928" lon="9.587345"><ele>124.00000000000001</ele><time>2026-05-02T14:21:46.039Z</time></trkpt><trkpt lat="44.9593433" lon="9.587325"><ele>124.0</ele><time>2026-05-02T14:21:47.037Z</time></trkpt><trkpt lat="44.9594067" lon="9.5872967"><ele>123.85714285714286</ele><time>2026-05-02T14:21:48.04Z</time></trkpt><trkpt lat="44.9594733" lon="9.5872667"><ele>123.71428571428572</ele><time>2026-05-02T14:21:49.04Z</time></trkpt><trkpt lat="44.9595417" lon="9.5872433"><ele>123.57142857142858</ele><time>2026-05-02T14:21:50.038Z</time></trkpt><trkpt lat="44.95961" lon="9.5872217"><ele>123.42857142857144</ele><time>2026-05-02T14:21:51.042Z</time></trkpt><trkpt lat="44.959675" lon="9.5871983"><ele>123.28571428571429</ele><time>2026-05-02T14:21:52.038Z</time></trkpt><trkpt lat="44.9597417" lon="9.5871767"><ele>123.14285714285717</ele><time>2026-05-02T14:21:53.045Z</time></trkpt><trkpt lat="44.95981" lon="9.587155"><ele>123.00000000000001</ele><time>2026-05-02T14:21:54.041Z</time></trkpt><trkpt lat="44.9598733" lon="9.58713"><ele>123.0</ele><time>2026-05-02T14:21:55.037Z</time></trkpt><trkpt lat="44.9599383" lon="9.5871167"><ele>123.0</ele><time>2026-05-02T14:21:56.038Z</time></trkpt><trkpt lat="44.9600017" lon="9.5871"><ele>123.0</ele><time>2026-05-02T14:21:57.041Z</time></trkpt><trkpt lat="44.960065" lon="9.587085"><ele>123.0</ele><time>2026-05-02T14:21:58.04Z</time></trkpt><trkpt lat="44.96013" lon="9.5870683"><ele>123.0</ele><time>2026-05-02T14:21:59.038Z</time></trkpt><trkpt lat="44.96025" lon="9.5870267"><ele>123.0</ele><time>2026-05-02T14:22:01.041Z</time></trkpt><trkpt lat="44.9603583" lon="9.586995"><ele>122.66666666666667</ele><time>2026-05-02T14:22:03.039Z</time></trkpt><trkpt lat="44.9604733" lon="9.5869617"><ele>122.33333333333334</ele><time>2026-05-02T14:22:05.04Z</time></trkpt><trkpt lat="44.9605933" lon="9.5869233"><ele>122.0</ele><time>2026-05-02T14:22:07.038Z</time></trkpt><trkpt lat="44.960655" lon="9.5868983"><ele>121.66666666666667</ele><time>2026-05-02T14:22:08.039Z</time></trkpt><trkpt lat="44.9607183" lon="9.586875"><ele>121.33333333333334</ele><time>2026-05-02T14:22:09.041Z</time></trkpt><trkpt lat="44.9607833" lon="9.586855"><ele>121.0</ele><time>2026-05-02T14:22:10.036Z</time></trkpt><trkpt lat="44.96085" lon="9.58683"><ele>121.14285714285714</ele><time>2026-05-02T14:22:11.035Z</time></trkpt><trkpt lat="44.96092" lon="9.58681"><ele>121.28571428571428</ele><time>2026-05-02T14:22:12.041Z</time></trkpt><trkpt lat="44.9609883" lon="9.5867933"><ele>121.42857142857142</ele><time>2026-05-02T14:22:13.04Z</time></trkpt><trkpt lat="44.9610567" lon="9.5867867"><ele>121.57142857142856</ele><time>2026-05-02T14:22:14.039Z</time></trkpt><trkpt lat="44.9611267" lon="9.5867683"><ele>121.71428571428571</ele><time>2026-05-02T14:22:15.041Z</time></trkpt><trkpt lat="44.9611967" lon="9.5867517"><ele>121.85714285714283</ele><time>2026-05-02T14:22:16.044Z</time></trkpt><trkpt lat="44.9612633" lon="9.5867367"><ele>121.99999999999999</ele><time>2026-05-02T14:22:17.039Z</time></trkpt><trkpt lat="44.9613883" lon="9.5867117"><ele>121.99999999999999</ele><time>2026-05-02T14:22:19.039Z</time></trkpt><trkpt lat="44.9614533" lon="9.5866933"><ele>122.0</ele><time>2026-05-02T14:22:20.038Z</time></trkpt><trkpt lat="44.9615783" lon="9.5866667"><ele>122.0</ele><time>2026-05-02T14:22:22.035Z</time></trkpt><trkpt lat="44.9616467" lon="9.5866633"><ele>122.0</ele><time>2026-05-02T14:22:23.034Z</time></trkpt><trkpt lat="44.9617133" lon="9.5866417"><ele>121.99999999999999</ele><time>2026-05-02T14:22:24.039Z</time></trkpt><trkpt lat="44.96178" lon="9.5866183"><ele>122.0</ele><time>2026-05-02T14:22:25.043Z</time></trkpt><trkpt lat="44.9618967" lon="9.5865817"><ele>121.66666666666666</ele><time>2026-05-02T14:22:27.044Z</time></trkpt><trkpt lat="44.9620067" lon="9.5865583"><ele>121.33333333333333</ele><time>2026-05-02T14:22:29.034Z</time></trkpt><trkpt lat="44.9621283" lon="9.5865033"><ele>121.0</ele><time>2026-05-02T14:22:31.041Z</time></trkpt><trkpt lat="44.9621883" lon="9.58647"><ele>120.66666666666666</ele><time>2026-05-02T14:22:32.042Z</time></trkpt><trkpt lat="44.96225" lon="9.586445"><ele>120.33333333333333</ele><time>2026-05-02T14:22:33.036Z</time></trkpt><trkpt lat="44.9623117" lon="9.5864183"><ele>120.0</ele><time>2026-05-02T14:22:34.041Z</time></trkpt><trkpt lat="44.962375" lon="9.5864"><ele>120.0</ele><time>2026-05-02T14:22:35.038Z</time></trkpt><trkpt lat="44.9624383" lon="9.58637"><ele>120.0</ele><time>2026-05-02T14:22:36.042Z</time></trkpt><trkpt lat="44.9625" lon="9.5863433"><ele>120.0</ele><time>2026-05-02T14:22:37.035Z</time></trkpt><trkpt lat="44.9625617" lon="9.586325"><ele>120.0</ele><time>2026-05-02T14:22:38.038Z</time></trkpt><trkpt lat="44.962625" lon="9.5862967"><ele>120.0</ele><time>2026-05-02T14:22:39.039Z</time></trkpt><trkpt lat="44.9626883" lon="9.58627"><ele>120.0</ele><time>2026-05-02T14:22:40.041Z</time></trkpt><trkpt lat="44.9627517" lon="9.5862417"><ele>120.0</ele><time>2026-05-02T14:22:41.041Z</time></trkpt><trkpt lat="44.96282" lon="9.586215"><ele>119.71428571428572</ele><time>2026-05-02T14:22:42.041Z</time></trkpt><trkpt lat="44.9628883" lon="9.5861883"><ele>119.42857142857142</ele><time>2026-05-02T14:22:43.045Z</time></trkpt><trkpt lat="44.9629533" lon="9.5861683"><ele>119.14285714285714</ele><time>2026-05-02T14:22:44.04Z</time></trkpt><trkpt lat="44.96302" lon="9.5861467"><ele>118.85714285714286</ele><time>2026-05-02T14:22:45.046Z</time></trkpt><trkpt lat="44.9630883" lon="9.5861283"><ele>118.57142857142858</ele><time>2026-05-02T14:22:46.039Z</time></trkpt><trkpt lat="44.9631567" lon="9.5861017"><ele>118.28571428571428</ele><time>2026-05-02T14:22:47.041Z</time></trkpt><trkpt lat="44.96323" lon="9.5860833"><ele>118.0</ele><time>2026-05-02T14:22:48.04Z</time></trkpt><trkpt lat="44.963295" lon="9.586065"><ele>117.50000000000001</ele><time>2026-05-02T14:22:49.043Z</time></trkpt><trkpt lat="44.96342" lon="9.5860283"><ele>117.0</ele><time>2026-05-02T14:22:51.042Z</time></trkpt><trkpt lat="44.963485" lon="9.5860067"><ele>116.5</ele><time>2026-05-02T14:22:52.042Z</time></trkpt><trkpt lat="44.9635467" lon="9.5859667"><ele>116.0</ele><time>2026-05-02T14:22:53.037Z</time></trkpt><trkpt lat="44.9636133" lon="9.5859483"><ele>115.50000000000001</ele><time>2026-05-02T14:22:54.038Z</time></trkpt><trkpt lat="44.9636833" lon="9.5859083"><ele>115.0</ele><time>2026-05-02T14:22:55.04Z</time></trkpt><trkpt lat="44.96376" lon="9.5858883"><ele>114.99999999999999</ele><time>2026-05-02T14:22:56.04Z</time></trkpt><trkpt lat="44.9638333" lon="9.5858783"><ele>115.0</ele><time>2026-05-02T14:22:57.041Z</time></trkpt><trkpt lat="44.9639017" lon="9.5858717"><ele>114.99999999999999</ele><time>2026-05-02T14:22:58.044Z</time></trkpt><trkpt lat="44.9639717" lon="9.585855"><ele>114.99999999999999</ele><time>2026-05-02T14:22:59.038Z</time></trkpt><trkpt lat="44.9640417" lon="9.5858433"><ele>115.0</ele><time>2026-05-02T14:23:00.04Z</time></trkpt><trkpt lat="44.9641117" lon="9.58583"><ele>114.99999999999999</ele><time>2026-05-02T14:23:01.041Z</time></trkpt><trkpt lat="44.96418" lon="9.58581"><ele>114.99999999999999</ele><time>2026-05-02T14:23:02.036Z</time></trkpt><trkpt lat="44.96425" lon="9.5857867"><ele>114.57142857142856</ele><time>2026-05-02T14:23:03.045Z</time></trkpt><trkpt lat="44.96432" lon="9.58578"><ele>114.14285714285714</ele><time>2026-05-02T14:23:04.04Z</time></trkpt><trkpt lat="44.964385" lon="9.5857883"><ele>113.71428571428571</ele><time>2026-05-02T14:23:05.038Z</time></trkpt><trkpt lat="44.964455" lon="9.5858133"><ele>113.28571428571428</ele><time>2026-05-02T14:23:06.036Z</time></trkpt><trkpt lat="44.964515" lon="9.5858717"><ele>112.85714285714286</ele><time>2026-05-02T14:23:07.04Z</time></trkpt><trkpt lat="44.9645317" lon="9.586"><ele>112.42857142857143</ele><time>2026-05-02T14:23:08.039Z</time></trkpt><trkpt lat="44.9645533" lon="9.5860883"><ele>112.0</ele><time>2026-05-02T14:23:09.037Z</time></trkpt><trkpt lat="44.96454" lon="9.5862767"><ele>112.0</ele><time>2026-05-02T14:23:11.036Z</time></trkpt><trkpt lat="44.9645233" lon="9.5863783"><ele>112.0</ele><time>2026-05-02T14:23:12.037Z</time></trkpt><trkpt lat="44.964515" lon="9.586485"><ele>112.0</ele><time>2026-05-02T14:23:13.041Z</time></trkpt><trkpt lat="44.96451" lon="9.5865867"><ele>112.0</ele><time>2026-05-02T14:23:14.034Z</time></trkpt><trkpt lat="44.9645017" lon="9.5866817"><ele>112.0</ele><time>2026-05-02T14:23:15.04Z</time></trkpt><trkpt lat="44.9644967" lon="9.5867767"><ele>112.0</ele><time>2026-05-02T14:23:16.041Z</time></trkpt><trkpt lat="44.964495" lon="9.586875"><ele>112.0</ele><time>2026-05-02T14:23:17.037Z</time></trkpt><trkpt lat="44.9644917" lon="9.58697"><ele>111.42857142857143</ele><time>2026-05-02T14:23:18.037Z</time></trkpt><trkpt lat="44.964485" lon="9.5870683"><ele>110.85714285714286</ele><time>2026-05-02T14:23:19.038Z</time></trkpt><trkpt lat="44.964475" lon="9.587165"><ele>110.28571428571428</ele><time>2026-05-02T14:23:20.042Z</time></trkpt><trkpt lat="44.964465" lon="9.5872583"><ele>109.71428571428572</ele><time>2026-05-02T14:23:21.045Z</time></trkpt><trkpt lat="44.96446" lon="9.58736"><ele>109.14285714285714</ele><time>2026-05-02T14:23:22.041Z</time></trkpt><trkpt lat="44.9644533" lon="9.58746"><ele>108.57142857142857</ele><time>2026-05-02T14:23:23.04Z</time></trkpt><trkpt lat="44.9644467" lon="9.5875583"><ele>108.0</ele><time>2026-05-02T14:23:24.04Z</time></trkpt><trkpt lat="44.96444" lon="9.5876533"><ele>108.0</ele><time>2026-05-02T14:23:25.044Z</time></trkpt><trkpt lat="44.9644317" lon="9.587745"><ele>108.0</ele><time>2026-05-02T14:23:26.037Z</time></trkpt><trkpt lat="44.9644233" lon="9.5878383"><ele>108.0</ele><time>2026-05-02T14:23:27.038Z</time></trkpt><trkpt lat="44.9644083" lon="9.5879267"><ele>108.0</ele><time>2026-05-02T14:23:28.036Z</time></trkpt><trkpt lat="44.9644" lon="9.588015"><ele>108.0</ele><time>2026-05-02T14:23:29.037Z</time></trkpt><trkpt lat="44.9643917" lon="9.5881033"><ele>108.0</ele><time>2026-05-02T14:23:30.037Z</time></trkpt><trkpt lat="44.9643717" lon="9.5882767"><ele>108.0</ele><time>2026-05-02T14:23:32.039Z</time></trkpt><trkpt lat="44.9643667" lon="9.58837"><ele>107.66666666666667</ele><time>2026-05-02T14:23:33.04Z</time></trkpt><trkpt lat="44.9643617" lon="9.5884667"><ele>107.33333333333334</ele><time>2026-05-02T14:23:34.04Z</time></trkpt><trkpt lat="44.9643567" lon="9.58856"><ele>107.0</ele><time>2026-05-02T14:23:35.039Z</time></trkpt><trkpt lat="44.9643517" lon="9.588655"><ele>106.66666666666667</ele><time>2026-05-02T14:23:36.04Z</time></trkpt><trkpt lat="44.964335" lon="9.588835"><ele>106.33333333333334</ele><time>2026-05-02T14:23:38.039Z</time></trkpt><trkpt lat="44.964325" lon="9.5889283"><ele>106.0</ele><time>2026-05-02T14:23:39.044Z</time></trkpt><trkpt lat="44.9643183" lon="9.5890233"><ele>105.66666666666667</ele><time>2026-05-02T14:23:40.042Z</time></trkpt><trkpt lat="44.9643117" lon="9.5891167"><ele>105.33333333333334</ele><time>2026-05-02T14:23:41.04Z</time></trkpt><trkpt lat="44.964305" lon="9.5892083"><ele>105.0</ele><time>2026-05-02T14:23:42.039Z</time></trkpt><trkpt lat="44.9642983" lon="9.5892983"><ele>104.66666666666666</ele><time>2026-05-02T14:23:43.043Z</time></trkpt><trkpt lat="44.9642833" lon="9.5894667"><ele>104.33333333333333</ele><time>2026-05-02T14:23:45.038Z</time></trkpt><trkpt lat="44.9642733" lon="9.589645"><ele>104.0</ele><time>2026-05-02T14:23:47.035Z</time></trkpt><trkpt lat="44.964265" lon="9.589815"><ele>103.66666666666666</ele><time>2026-05-02T14:23:49.041Z</time></trkpt><trkpt lat="44.9642517" lon="9.5899817"><ele>103.33333333333333</ele><time>2026-05-02T14:23:51.037Z</time></trkpt><trkpt lat="44.964245" lon="9.5900717"><ele>103.0</ele><time>2026-05-02T14:23:52.04Z</time></trkpt><trkpt lat="44.9642267" lon="9.5902483"><ele>102.66666666666666</ele><time>2026-05-02T14:23:54.036Z</time></trkpt><trkpt lat="44.9642133" lon="9.5903367"><ele>102.33333333333333</ele><time>2026-05-02T14:23:55.041Z</time></trkpt><trkpt lat="44.9642017" lon="9.5904267"><ele>102.0</ele><time>2026-05-02T14:23:56.04Z</time></trkpt><trkpt lat="44.96419" lon="9.5906033"><ele>102.0</ele><time>2026-05-02T14:23:58.042Z</time></trkpt><trkpt lat="44.9641883" lon="9.5906933"><ele>102.0</ele><time>2026-05-02T14:23:59.038Z</time></trkpt><trkpt lat="44.964185" lon="9.5907833"><ele>102.0</ele><time>2026-05-02T14:24:00.042Z</time></trkpt><trkpt lat="44.96418" lon="9.5908817"><ele>102.0</ele><time>2026-05-02T14:24:01.042Z</time></trkpt><trkpt lat="44.96417" lon="9.591055"><ele>102.0</ele><time>2026-05-02T14:24:03.042Z</time></trkpt><trkpt lat="44.9641583" lon="9.5912117"><ele>102.0</ele><time>2026-05-02T14:24:05.037Z</time></trkpt><trkpt lat="44.96415" lon="9.59139"><ele>101.85714285714286</ele><time>2026-05-02T14:24:07.04Z</time></trkpt><trkpt lat="44.964145" lon="9.591485"><ele>101.71428571428572</ele><time>2026-05-02T14:24:08.042Z</time></trkpt><trkpt lat="44.9641383" lon="9.5915817"><ele>101.57142857142857</ele><time>2026-05-02T14:24:09.036Z</time></trkpt><trkpt lat="44.9641317" lon="9.5916717"><ele>101.42857142857143</ele><time>2026-05-02T14:24:10.038Z</time></trkpt><trkpt lat="44.9641267" lon="9.5917617"><ele>101.28571428571428</ele><time>2026-05-02T14:24:11.041Z</time></trkpt><trkpt lat="44.9641233" lon="9.5918533"><ele>101.14285714285714</ele><time>2026-05-02T14:24:12.039Z</time></trkpt><trkpt lat="44.96412" lon="9.591945"><ele>101.0</ele><time>2026-05-02T14:24:13.039Z</time></trkpt><trkpt lat="44.9641133" lon="9.592035"><ele>100.8</ele><time>2026-05-02T14:24:14.03Z</time></trkpt><trkpt lat="44.9641" lon="9.5922017"><ele>100.6</ele><time>2026-05-02T14:24:16.042Z</time></trkpt><trkpt lat="44.964095" lon="9.5923717"><ele>100.4</ele><time>2026-05-02T14:24:18.045Z</time></trkpt><trkpt lat="44.964085" lon="9.592555"><ele>100.2</ele><time>2026-05-02T14:24:20.045Z</time></trkpt><trkpt lat="44.96408" lon="9.5926467"><ele>100.0</ele><time>2026-05-02T14:24:21.046Z</time></trkpt><trkpt lat="44.9640733" lon="9.5927367"><ele>100.00000000000001</ele><time>2026-05-02T14:24:22.044Z</time></trkpt><trkpt lat="44.9640667" lon="9.5928283"><ele>100.0</ele><time>2026-05-02T14:24:23.04Z</time></trkpt><trkpt lat="44.9640533" lon="9.5930017"><ele>100.0</ele><time>2026-05-02T14:24:25.043Z</time></trkpt><trkpt lat="44.9640483" lon="9.593095"><ele>100.0</ele><time>2026-05-02T14:24:26.038Z</time></trkpt><trkpt lat="44.96404" lon="9.5931917"><ele>100.00000000000001</ele><time>2026-05-02T14:24:27.041Z</time></trkpt><trkpt lat="44.9640333" lon="9.593295"><ele>100.0</ele><time>2026-05-02T14:24:28.039Z</time></trkpt><trkpt lat="44.96403" lon="9.59339"><ele>100.0</ele><time>2026-05-02T14:24:29.041Z</time></trkpt><trkpt lat="44.964025" lon="9.5934867"><ele>100.0</ele><time>2026-05-02T14:24:30.038Z</time></trkpt><trkpt lat="44.9640183" lon="9.5935767"><ele>100.0</ele><time>2026-05-02T14:24:31.043Z</time></trkpt><trkpt lat="44.96401" lon="9.593745"><ele>100.0</ele><time>2026-05-02T14:24:33.04Z</time></trkpt><trkpt lat="44.9640017" lon="9.59391"><ele>100.0</ele><time>2026-05-02T14:24:35.04Z</time></trkpt><trkpt lat="44.96399" lon="9.5940733"><ele>100.0</ele><time>2026-05-02T14:24:37.041Z</time></trkpt><trkpt lat="44.9639767" lon="9.5942467"><ele>100.0</ele><time>2026-05-02T14:24:39.039Z</time></trkpt><trkpt lat="44.9639667" lon="9.594425"><ele>100.0</ele><time>2026-05-02T14:24:41.042Z</time></trkpt><trkpt lat="44.9639583" lon="9.594515"><ele>100.0</ele><time>2026-05-02T14:24:42.043Z</time></trkpt><trkpt lat="44.9639517" lon="9.59461"><ele>100.0</ele><time>2026-05-02T14:24:43.037Z</time></trkpt><trkpt lat="44.9639433" lon="9.5947067"><ele>100.00000000000001</ele><time>2026-05-02T14:24:44.037Z</time></trkpt><trkpt lat="44.963935" lon="9.5948"><ele>100.0</ele><time>2026-05-02T14:24:45.038Z</time></trkpt><trkpt lat="44.963925" lon="9.5948917"><ele>100.0</ele><time>2026-05-02T14:24:46.039Z</time></trkpt><trkpt lat="44.96391" lon="9.5950617"><ele>100.0</ele><time>2026-05-02T14:24:48.041Z</time></trkpt><trkpt lat="44.9639017" lon="9.59523"><ele>100.00000000000001</ele><time>2026-05-02T14:24:50.035Z</time></trkpt><trkpt lat="44.9638933" lon="9.5953183"><ele>100.0</ele><time>2026-05-02T14:24:51.039Z</time></trkpt><trkpt lat="44.9638833" lon="9.59548"><ele>100.00000000000001</ele><time>2026-05-02T14:24:53.038Z</time></trkpt><trkpt lat="44.9638733" lon="9.5956483"><ele>100.0</ele><time>2026-05-02T14:24:55.042Z</time></trkpt><trkpt lat="44.9638733" lon="9.5957417"><ele>100.0</ele><time>2026-05-02T14:24:56.038Z</time></trkpt><trkpt lat="44.96387" lon="9.5958383"><ele>100.0</ele><time>2026-05-02T14:24:57.039Z</time></trkpt><trkpt lat="44.9638633" lon="9.5959367"><ele>100.00000000000001</ele><time>2026-05-02T14:24:58.043Z</time></trkpt><trkpt lat="44.9638583" lon="9.5960333"><ele>100.0</ele><time>2026-05-02T14:24:59.04Z</time></trkpt><trkpt lat="44.9638533" lon="9.5961267"><ele>100.2</ele><time>2026-05-02T14:25:00.043Z</time></trkpt><trkpt lat="44.9638433" lon="9.5963017"><ele>100.4</ele><time>2026-05-02T14:25:02.038Z</time></trkpt><trkpt lat="44.96384" lon="9.5963933"><ele>100.6</ele><time>2026-05-02T14:25:03.037Z</time></trkpt><trkpt lat="44.9638333" lon="9.596565"><ele>100.8</ele><time>2026-05-02T14:25:05.038Z</time></trkpt><trkpt lat="44.963825" lon="9.59673"><ele>101.0</ele><time>2026-05-02T14:25:07.037Z</time></trkpt><trkpt lat="44.9638183" lon="9.59689"><ele>101.0</ele><time>2026-05-02T14:25:09.04Z</time></trkpt><trkpt lat="44.9638083" lon="9.5970517"><ele>101.0</ele><time>2026-05-02T14:25:11.037Z</time></trkpt><trkpt lat="44.9638033" lon="9.5971417"><ele>101.0</ele><time>2026-05-02T14:25:12.038Z</time></trkpt><trkpt lat="44.963795" lon="9.597235"><ele>101.0</ele><time>2026-05-02T14:25:13.044Z</time></trkpt><trkpt lat="44.9637867" lon="9.5973317"><ele>101.0</ele><time>2026-05-02T14:25:14.036Z</time></trkpt><trkpt lat="44.9637783" lon="9.597425"><ele>101.0</ele><time>2026-05-02T14:25:15.04Z</time></trkpt><trkpt lat="44.9637683" lon="9.5975183"><ele>101.0</ele><time>2026-05-02T14:25:16.037Z</time></trkpt><trkpt lat="44.9637617" lon="9.5976117"><ele>100.99999999999999</ele><time>2026-05-02T14:25:17.038Z</time></trkpt><trkpt lat="44.963755" lon="9.5977067"><ele>101.0</ele><time>2026-05-02T14:25:18.043Z</time></trkpt><trkpt lat="44.9637433" lon="9.5977967"><ele>101.0</ele><time>2026-05-02T14:25:19.043Z</time></trkpt><trkpt lat="44.963735" lon="9.5978933"><ele>101.0</ele><time>2026-05-02T14:25:20.038Z</time></trkpt><trkpt lat="44.9637267" lon="9.5979833"><ele>100.99999999999999</ele><time>2026-05-02T14:25:21.037Z</time></trkpt><trkpt lat="44.9637183" lon="9.5980783"><ele>101.0</ele><time>2026-05-02T14:25:22.04Z</time></trkpt><trkpt lat="44.963705" lon="9.5982583"><ele>101.4</ele><time>2026-05-02T14:25:24.039Z</time></trkpt><trkpt lat="44.9637017" lon="9.59835"><ele>101.8</ele><time>2026-05-02T14:25:25.039Z</time></trkpt><trkpt lat="44.9636917" lon="9.5985267"><ele>102.2</ele><time>2026-05-02T14:25:27.04Z</time></trkpt><trkpt lat="44.9636783" lon="9.598695"><ele>102.60000000000001</ele><time>2026-05-02T14:25:29.039Z</time></trkpt><trkpt lat="44.9636733" lon="9.5988667"><ele>103.0</ele><time>2026-05-02T14:25:31.044Z</time></trkpt><trkpt lat="44.9636667" lon="9.5990383"><ele>103.16666666666667</ele><time>2026-05-02T14:25:33.04Z</time></trkpt><trkpt lat="44.963665" lon="9.5991317"><ele>103.33333333333334</ele><time>2026-05-02T14:25:34.042Z</time></trkpt><trkpt lat="44.9636633" lon="9.599225"><ele>103.5</ele><time>2026-05-02T14:25:35.038Z</time></trkpt><trkpt lat="44.9636633" lon="9.5993167"><ele>103.66666666666666</ele><time>2026-05-02T14:25:36.039Z</time></trkpt><trkpt lat="44.9636567" lon="9.59948"><ele>103.83333333333333</ele><time>2026-05-02T14:25:38.04Z</time></trkpt><trkpt lat="44.9636483" lon="9.5996433"><ele>104.0</ele><time>2026-05-02T14:25:40.036Z</time></trkpt><trkpt lat="44.9636383" lon="9.5997983"><ele>104.0</ele><time>2026-05-02T14:25:42.041Z</time></trkpt><trkpt lat="44.9636217" lon="9.5999533"><ele>104.0</ele><time>2026-05-02T14:25:44.04Z</time></trkpt><trkpt lat="44.9636117" lon="9.6001167"><ele>104.0</ele><time>2026-05-02T14:25:46.042Z</time></trkpt><trkpt lat="44.9636" lon="9.60029"><ele>104.0</ele><time>2026-05-02T14:25:48.036Z</time></trkpt><trkpt lat="44.963585" lon="9.6004567"><ele>104.0</ele><time>2026-05-02T14:25:50.04Z</time></trkpt><trkpt lat="44.96358" lon="9.6006217"><ele>104.0</ele><time>2026-05-02T14:25:52.042Z</time></trkpt><trkpt lat="44.9635733" lon="9.600785"><ele>104.0</ele><time>2026-05-02T14:25:54.039Z</time></trkpt><trkpt lat="44.963575" lon="9.6009517"><ele>104.0</ele><time>2026-05-02T14:25:56.044Z</time></trkpt><trkpt lat="44.96357" lon="9.6011017"><ele>103.80000000000001</ele><time>2026-05-02T14:25:58.04Z</time></trkpt><trkpt lat="44.963575" lon="9.601245"><ele>103.60000000000001</ele><time>2026-05-02T14:26:00.038Z</time></trkpt><trkpt lat="44.963585" lon="9.601385"><ele>103.4</ele><time>2026-05-02T14:26:02.037Z</time></trkpt><trkpt lat="44.963605" lon="9.601555"><ele>103.2</ele><time>2026-05-02T14:26:04.043Z</time></trkpt><trkpt lat="44.9636183" lon="9.6016433"><ele>103.0</ele><time>2026-05-02T14:26:05.038Z</time></trkpt><trkpt lat="44.9636483" lon="9.6018167"><ele>103.0</ele><time>2026-05-02T14:26:07.042Z</time></trkpt><trkpt lat="44.9636833" lon="9.6019783"><ele>103.0</ele><time>2026-05-02T14:26:09.041Z</time></trkpt><trkpt lat="44.9637217" lon="9.60213"><ele>103.0</ele><time>2026-05-02T14:26:11.039Z</time></trkpt><trkpt lat="44.96377" lon="9.60229"><ele>103.0</ele><time>2026-05-02T14:26:13.036Z</time></trkpt><trkpt lat="44.9638233" lon="9.60244"><ele>103.5</ele><time>2026-05-02T14:26:15.04Z</time></trkpt><trkpt lat="44.9638867" lon="9.6025767"><ele>104.0</ele><time>2026-05-02T14:26:17.04Z</time></trkpt><trkpt lat="44.96395" lon="9.6027183"><ele>104.5</ele><time>2026-05-02T14:26:19.04Z</time></trkpt><trkpt lat="44.9640167" lon="9.6028517"><ele>105.0</ele><time>2026-05-02T14:26:21.039Z</time></trkpt><trkpt lat="44.9640883" lon="9.6029717"><ele>105.0</ele><time>2026-05-02T14:26:23.037Z</time></trkpt><trkpt lat="44.964165" lon="9.603075"><ele>105.0</ele><time>2026-05-02T14:26:25.045Z</time></trkpt><trkpt lat="44.9642417" lon="9.6031833"><ele>105.0</ele><time>2026-05-02T14:26:27.04Z</time></trkpt><trkpt lat="44.964325" lon="9.6032833"><ele>105.0</ele><time>2026-05-02T14:26:29.037Z</time></trkpt><trkpt lat="44.9644167" lon="9.60336"><ele>105.0</ele><time>2026-05-02T14:26:31.04Z</time></trkpt><trkpt lat="44.96451" lon="9.603435"><ele>105.0</ele><time>2026-05-02T14:26:33.042Z</time></trkpt><trkpt lat="44.96461" lon="9.6035017"><ele>105.0</ele><time>2026-05-02T14:26:35.034Z</time></trkpt><trkpt lat="44.964715" lon="9.603565"><ele>105.0</ele><time>2026-05-02T14:26:37.04Z</time></trkpt><trkpt lat="44.9648083" lon="9.6036233"><ele>105.0</ele><time>2026-05-02T14:26:39.037Z</time></trkpt><trkpt lat="44.9649167" lon="9.60367"><ele>105.0</ele><time>2026-05-02T14:26:41.039Z</time></trkpt><trkpt lat="44.9650267" lon="9.6037133"><ele>105.0</ele><time>2026-05-02T14:26:43.04Z</time></trkpt><trkpt lat="44.9651283" lon="9.6037367"><ele>105.0</ele><time>2026-05-02T14:26:45.039Z</time></trkpt><trkpt lat="44.9652367" lon="9.603765"><ele>105.0</ele><time>2026-05-02T14:26:47.041Z</time></trkpt><trkpt lat="44.9653467" lon="9.603785"><ele>105.0</ele><time>2026-05-02T14:26:49.04Z</time></trkpt><trkpt lat="44.965465" lon="9.6037783"><ele>105.0</ele><time>2026-05-02T14:26:51.037Z</time></trkpt><trkpt lat="44.965575" lon="9.6037767"><ele>105.0</ele><time>2026-05-02T14:26:53.038Z</time></trkpt><trkpt lat="44.9656933" lon="9.6037683"><ele>105.0</ele><time>2026-05-02T14:26:55.039Z</time></trkpt><trkpt lat="44.9657567" lon="9.6037633"><ele>105.0</ele><time>2026-05-02T14:26:56.036Z</time></trkpt><trkpt lat="44.96582" lon="9.6037617"><ele>105.0</ele><time>2026-05-02T14:26:57.041Z</time></trkpt><trkpt lat="44.9659417" lon="9.603755"><ele>105.0</ele><time>2026-05-02T14:26:59.039Z</time></trkpt><trkpt lat="44.9660467" lon="9.6037633"><ele>104.8</ele><time>2026-05-02T14:27:01.037Z</time></trkpt><trkpt lat="44.9661533" lon="9.60375"><ele>104.6</ele><time>2026-05-02T14:27:03.044Z</time></trkpt><trkpt lat="44.9662383" lon="9.6037417"><ele>104.4</ele><time>2026-05-02T14:27:05.039Z</time></trkpt><trkpt lat="44.9663433" lon="9.6037183"><ele>104.2</ele><time>2026-05-02T14:27:07.041Z</time></trkpt><trkpt lat="44.9664617" lon="9.6036917"><ele>104.0</ele><time>2026-05-02T14:27:09.038Z</time></trkpt><trkpt lat="44.96653" lon="9.6036717"><ele>104.14285714285714</ele><time>2026-05-02T14:27:10.041Z</time></trkpt><trkpt lat="44.9666" lon="9.6036633"><ele>104.28571428571429</ele><time>2026-05-02T14:27:11.036Z</time></trkpt><trkpt lat="44.9666683" lon="9.6036483"><ele>104.42857142857143</ele><time>2026-05-02T14:27:12.038Z</time></trkpt><trkpt lat="44.9667383" lon="9.6036333"><ele>104.57142857142857</ele><time>2026-05-02T14:27:13.04Z</time></trkpt><trkpt lat="44.9668083" lon="9.6036167"><ele>104.71428571428572</ele><time>2026-05-02T14:27:14.042Z</time></trkpt><trkpt lat="44.9668717" lon="9.6036067"><ele>104.85714285714286</ele><time>2026-05-02T14:27:15.037Z</time></trkpt><trkpt lat="44.966935" lon="9.6035967"><ele>105.0</ele><time>2026-05-02T14:27:16.04Z</time></trkpt><trkpt lat="44.9669983" lon="9.603595"><ele>105.0</ele><time>2026-05-02T14:27:17.037Z</time></trkpt><trkpt lat="44.96712" lon="9.6036067"><ele>105.0</ele><time>2026-05-02T14:27:19.038Z</time></trkpt><trkpt lat="44.967185" lon="9.603595"><ele>105.0</ele><time>2026-05-02T14:27:20.036Z</time></trkpt><trkpt lat="44.9672983" lon="9.60359"><ele>105.0</ele><time>2026-05-02T14:27:22.04Z</time></trkpt><trkpt lat="44.9674017" lon="9.603575"><ele>105.0</ele><time>2026-05-02T14:27:24.042Z</time></trkpt><trkpt lat="44.9675033" lon="9.6035867"><ele>104.8</ele><time>2026-05-02T14:27:26.038Z</time></trkpt><trkpt lat="44.9676117" lon="9.6035983"><ele>104.6</ele><time>2026-05-02T14:27:28.042Z</time></trkpt><trkpt lat="44.9677067" lon="9.6036333"><ele>104.4</ele><time>2026-05-02T14:27:30.037Z</time></trkpt><trkpt lat="44.967805" lon="9.603665"><ele>104.2</ele><time>2026-05-02T14:27:32.038Z</time></trkpt><trkpt lat="44.9679133" lon="9.6036933"><ele>104.0</ele><time>2026-05-02T14:27:34.044Z</time></trkpt><trkpt lat="44.9680217" lon="9.60374"><ele>104.0</ele><time>2026-05-02T14:27:36.035Z</time></trkpt><trkpt lat="44.9681317" lon="9.6037717"><ele>104.0</ele><time>2026-05-02T14:27:38.038Z</time></trkpt><trkpt lat="44.9682483" lon="9.6038133"><ele>104.0</ele><time>2026-05-02T14:27:40.037Z</time></trkpt><trkpt lat="44.9683667" lon="9.6038617"><ele>104.0</ele><time>2026-05-02T14:27:42.04Z</time></trkpt><trkpt lat="44.9684767" lon="9.6039133"><ele>104.4</ele><time>2026-05-02T14:27:44.038Z</time></trkpt><trkpt lat="44.9685783" lon="9.6039667"><ele>104.80000000000001</ele><time>2026-05-02T14:27:46.043Z</time></trkpt><trkpt lat="44.9686767" lon="9.6040283"><ele>105.19999999999999</ele><time>2026-05-02T14:27:48.039Z</time></trkpt><trkpt lat="44.96879" lon="9.6040883"><ele>105.6</ele><time>2026-05-02T14:27:50.038Z</time></trkpt><trkpt lat="44.9688517" lon="9.604125"><ele>106.0</ele><time>2026-05-02T14:27:51.042Z</time></trkpt><trkpt lat="44.96891" lon="9.6041633"><ele>106.00000000000001</ele><time>2026-05-02T14:27:52.037Z</time></trkpt><trkpt lat="44.9689667" lon="9.6042067"><ele>106.0</ele><time>2026-05-02T14:27:53.036Z</time></trkpt><trkpt lat="44.96902" lon="9.604255"><ele>106.0</ele><time>2026-05-02T14:27:54.036Z</time></trkpt><trkpt lat="44.969075" lon="9.6042983"><ele>106.0</ele><time>2026-05-02T14:27:55.043Z</time></trkpt><trkpt lat="44.9691767" lon="9.60439"><ele>106.00000000000001</ele><time>2026-05-02T14:27:57.034Z</time></trkpt><trkpt lat="44.9692783" lon="9.604475"><ele>106.0</ele><time>2026-05-02T14:27:59.041Z</time></trkpt><trkpt lat="44.96938" lon="9.604555"><ele>105.6</ele><time>2026-05-02T14:28:01.036Z</time></trkpt><trkpt lat="44.9694683" lon="9.604645"><ele>105.19999999999999</ele><time>2026-05-02T14:28:03.038Z</time></trkpt><trkpt lat="44.969515" lon="9.6047083"><ele>104.80000000000001</ele><time>2026-05-02T14:28:04.039Z</time></trkpt><trkpt lat="44.9696067" lon="9.604825"><ele>104.4</ele><time>2026-05-02T14:28:06.035Z</time></trkpt><trkpt lat="44.969685" lon="9.6049367"><ele>104.0</ele><time>2026-05-02T14:28:08.04Z</time></trkpt><trkpt lat="44.9697583" lon="9.605045"><ele>104.0</ele><time>2026-05-02T14:28:10.036Z</time></trkpt><trkpt lat="44.9698367" lon="9.6051483"><ele>104.0</ele><time>2026-05-02T14:28:12.042Z</time></trkpt><trkpt lat="44.9699067" lon="9.6052367"><ele>104.0</ele><time>2026-05-02T14:28:14.04Z</time></trkpt><trkpt lat="44.9699967" lon="9.6053367"><ele>104.0</ele><time>2026-05-02T14:28:16.04Z</time></trkpt><trkpt lat="44.970085" lon="9.605445"><ele>104.0</ele><time>2026-05-02T14:28:18.042Z</time></trkpt><trkpt lat="44.97015" lon="9.60554"><ele>103.49999999999999</ele><time>2026-05-02T14:28:20.038Z</time></trkpt><trkpt lat="44.9701983" lon="9.60561"><ele>103.0</ele><time>2026-05-02T14:28:22.042Z</time></trkpt><trkpt lat="44.9702633" lon="9.6056267"><ele>102.5</ele><time>2026-05-02T14:28:26.041Z</time></trkpt><trkpt lat="44.97034" lon="9.6055983"><ele>102.0</ele><time>2026-05-02T14:28:29.039Z</time></trkpt><trkpt lat="44.97044" lon="9.6055667"><ele>101.49999999999999</ele><time>2026-05-02T14:28:31.044Z</time></trkpt><trkpt lat="44.970545" lon="9.6055083"><ele>101.0</ele><time>2026-05-02T14:28:33.04Z</time></trkpt><trkpt lat="44.970595" lon="9.6054483"><ele>101.0</ele><time>2026-05-02T14:28:34.041Z</time></trkpt><trkpt lat="44.9706867" lon="9.60537"><ele>101.0</ele><time>2026-05-02T14:28:36.041Z</time></trkpt><trkpt lat="44.9707717" lon="9.6053283"><ele>101.0</ele><time>2026-05-02T14:28:38.039Z</time></trkpt><trkpt lat="44.9708667" lon="9.6052883"><ele>101.0</ele><time>2026-05-02T14:28:40.036Z</time></trkpt><trkpt lat="44.97096" lon="9.6052683"><ele>101.0</ele><time>2026-05-02T14:28:42.039Z</time></trkpt><trkpt lat="44.9710533" lon="9.6052617"><ele>101.0</ele><time>2026-05-02T14:28:44.04Z</time></trkpt><trkpt lat="44.9711567" lon="9.6052683"><ele>101.0</ele><time>2026-05-02T14:28:46.038Z</time></trkpt><trkpt lat="44.9712483" lon="9.6052633"><ele>101.0</ele><time>2026-05-02T14:28:48.04Z</time></trkpt><trkpt lat="44.971335" lon="9.60527"><ele>101.0</ele><time>2026-05-02T14:28:50.037Z</time></trkpt><trkpt lat="44.9714167" lon="9.605305"><ele>101.0</ele><time>2026-05-02T14:28:52.036Z</time></trkpt><trkpt lat="44.97151" lon="9.6053183"><ele>100.99999999999999</ele><time>2026-05-02T14:28:54.039Z</time></trkpt><trkpt lat="44.9716" lon="9.605335"><ele>101.0</ele><time>2026-05-02T14:28:56.039Z</time></trkpt><trkpt lat="44.971665" lon="9.6053167"><ele>101.0</ele><time>2026-05-02T14:29:00.038Z</time></trkpt><trkpt lat="44.9716833" lon="9.6052233"><ele>101.0</ele><time>2026-05-02T14:29:04.043Z</time></trkpt><trkpt lat="44.971785" lon="9.6052233"><ele>100.99999999999999</ele><time>2026-05-02T14:29:07.046Z</time></trkpt><trkpt lat="44.9718517" lon="9.6052417"><ele>101.0</ele><time>2026-05-02T14:29:09.045Z</time></trkpt><trkpt lat="44.971935" lon="9.605255"><ele>100.8</ele><time>2026-05-02T14:29:11.035Z</time></trkpt><trkpt lat="44.9720317" lon="9.605265"><ele>100.6</ele><time>2026-05-02T14:29:13.043Z</time></trkpt><trkpt lat="44.97213" lon="9.605295"><ele>100.4</ele><time>2026-05-02T14:29:15.039Z</time></trkpt><trkpt lat="44.97224" lon="9.6053267"><ele>100.2</ele><time>2026-05-02T14:29:17.037Z</time></trkpt><trkpt lat="44.972355" lon="9.6053517"><ele>100.0</ele><time>2026-05-02T14:29:19.042Z</time></trkpt><trkpt lat="44.9724633" lon="9.6053867"><ele>100.0</ele><time>2026-05-02T14:29:21.044Z</time></trkpt><trkpt lat="44.9725667" lon="9.60541"><ele>100.0</ele><time>2026-05-02T14:29:23.035Z</time></trkpt><trkpt lat="44.9726733" lon="9.6054167"><ele>100.0</ele><time>2026-05-02T14:29:25.039Z</time></trkpt><trkpt lat="44.9727783" lon="9.6054233"><ele>100.0</ele><time>2026-05-02T14:29:27.041Z</time></trkpt><trkpt lat="44.97287" lon="9.6054233"><ele>100.0</ele><time>2026-05-02T14:29:29.042Z</time></trkpt><trkpt lat="44.9729583" lon="9.6054033"><ele>100.0</ele><time>2026-05-02T14:29:31.042Z</time></trkpt><trkpt lat="44.9730433" lon="9.605415"><ele>100.0</ele><time>2026-05-02T14:29:33.041Z</time></trkpt><trkpt lat="44.9731517" lon="9.6054417"><ele>100.0</ele><time>2026-05-02T14:29:35.037Z</time></trkpt><trkpt lat="44.9732567" lon="9.6054683"><ele>100.0</ele><time>2026-05-02T14:29:37.039Z</time></trkpt><trkpt lat="44.97337" lon="9.6054717"><ele>100.0</ele><time>2026-05-02T14:29:39.047Z</time></trkpt><trkpt lat="44.9734767" lon="9.605475"><ele>100.2</ele><time>2026-05-02T14:29:41.038Z</time></trkpt><trkpt lat="44.973585" lon="9.6054733"><ele>100.4</ele><time>2026-05-02T14:29:43.041Z</time></trkpt><trkpt lat="44.9736817" lon="9.60547"><ele>100.6</ele><time>2026-05-02T14:29:45.045Z</time></trkpt><trkpt lat="44.97379" lon="9.6054683"><ele>100.8</ele><time>2026-05-02T14:29:47.038Z</time></trkpt><trkpt lat="44.973885" lon="9.605475"><ele>101.0</ele><time>2026-05-02T14:29:49.04Z</time></trkpt><trkpt lat="44.9739733" lon="9.6054833"><ele>101.0</ele><time>2026-05-02T14:29:51.043Z</time></trkpt><trkpt lat="44.9740583" lon="9.6054833"><ele>101.0</ele><time>2026-05-02T14:29:53.037Z</time></trkpt><trkpt lat="44.9741383" lon="9.6054733"><ele>101.0</ele><time>2026-05-02T14:29:55.042Z</time></trkpt><trkpt lat="44.9742317" lon="9.6054767"><ele>101.0</ele><time>2026-05-02T14:29:57.045Z</time></trkpt><trkpt lat="44.9743283" lon="9.6054783"><ele>101.0</ele><time>2026-05-02T14:29:59.037Z</time></trkpt><trkpt lat="44.9744267" lon="9.6054817"><ele>101.0</ele><time>2026-05-02T14:30:01.041Z</time></trkpt><trkpt lat="44.9745183" lon="9.6054783"><ele>101.0</ele><time>2026-05-02T14:30:03.043Z</time></trkpt><trkpt lat="44.9746133" lon="9.605485"><ele>101.0</ele><time>2026-05-02T14:30:05.035Z</time></trkpt><trkpt lat="44.9747083" lon="9.6054983"><ele>101.0</ele><time>2026-05-02T14:30:07.041Z</time></trkpt><trkpt lat="44.974805" lon="9.6055017"><ele>101.0</ele><time>2026-05-02T14:30:09.042Z</time></trkpt><trkpt lat="44.974895" lon="9.60551"><ele>100.99999999999999</ele><time>2026-05-02T14:30:11.036Z</time></trkpt><trkpt lat="44.9749817" lon="9.6054883"><ele>101.0</ele><time>2026-05-02T14:30:13.041Z</time></trkpt><trkpt lat="44.9750633" lon="9.60547"><ele>101.0</ele><time>2026-05-02T14:30:15.043Z</time></trkpt><trkpt lat="44.975145" lon="9.6054467"><ele>101.0</ele><time>2026-05-02T14:30:17.038Z</time></trkpt><trkpt lat="44.975225" lon="9.6054283"><ele>100.99999999999999</ele><time>2026-05-02T14:30:19.041Z</time></trkpt><trkpt lat="44.9753133" lon="9.605425"><ele>101.0</ele><time>2026-05-02T14:30:21.037Z</time></trkpt><trkpt lat="44.9754217" lon="9.6054383"><ele>100.4</ele><time>2026-05-02T14:30:23.035Z</time></trkpt><trkpt lat="44.97552" lon="9.6054967"><ele>99.8</ele><time>2026-05-02T14:30:25.042Z</time></trkpt><trkpt lat="44.9756117" lon="9.605565"><ele>99.2</ele><time>2026-05-02T14:30:27.04Z</time></trkpt><trkpt lat="44.9757" lon="9.6056433"><ele>98.60000000000001</ele><time>2026-05-02T14:30:29.04Z</time></trkpt><trkpt lat="44.9757817" lon="9.6057117"><ele>98.0</ele><time>2026-05-02T14:30:31.037Z</time></trkpt><trkpt lat="44.9758783" lon="9.6057567"><ele>98.0</ele><time>2026-05-02T14:30:33.044Z</time></trkpt><trkpt lat="44.9759783" lon="9.6057917"><ele>98.0</ele><time>2026-05-02T14:30:35.044Z</time></trkpt><trkpt lat="44.9760717" lon="9.6058317"><ele>98.0</ele><time>2026-05-02T14:30:37.043Z</time></trkpt><trkpt lat="44.97617" lon="9.6058517"><ele>98.0</ele><time>2026-05-02T14:30:39.037Z</time></trkpt><trkpt lat="44.9762617" lon="9.60588"><ele>98.0</ele><time>2026-05-02T14:30:41.036Z</time></trkpt><trkpt lat="44.97635" lon="9.6058967"><ele>98.0</ele><time>2026-05-02T14:30:43.035Z</time></trkpt><trkpt lat="44.976455" lon="9.6059117"><ele>98.0</ele><time>2026-05-02T14:30:45.042Z</time></trkpt><trkpt lat="44.9765567" lon="9.6059233"><ele>98.0</ele><time>2026-05-02T14:30:47.041Z</time></trkpt><trkpt lat="44.97666" lon="9.6059233"><ele>98.0</ele><time>2026-05-02T14:30:49.038Z</time></trkpt><trkpt lat="44.976725" lon="9.6059167"><ele>98.0</ele><time>2026-05-02T14:30:50.038Z</time></trkpt><trkpt lat="44.9768383" lon="9.6059283"><ele>97.80000000000001</ele><time>2026-05-02T14:30:52.035Z</time></trkpt><trkpt lat="44.976955" lon="9.605935"><ele>97.6</ele><time>2026-05-02T14:30:54.039Z</time></trkpt><trkpt lat="44.977055" lon="9.6059417"><ele>97.4</ele><time>2026-05-02T14:30:56.041Z</time></trkpt><trkpt lat="44.9771583" lon="9.605935"><ele>97.19999999999999</ele><time>2026-05-02T14:30:58.039Z</time></trkpt><trkpt lat="44.9772467" lon="9.605945"><ele>97.0</ele><time>2026-05-02T14:31:00.035Z</time></trkpt><trkpt lat="44.9773417" lon="9.6059583"><ele>97.0</ele><time>2026-05-02T14:31:02.036Z</time></trkpt><trkpt lat="44.9774433" lon="9.605985"><ele>97.0</ele><time>2026-05-02T14:31:04.039Z</time></trkpt><trkpt lat="44.9775433" lon="9.6060117"><ele>97.0</ele><time>2026-05-02T14:31:06.04Z</time></trkpt><trkpt lat="44.9776317" lon="9.6060283"><ele>97.0</ele><time>2026-05-02T14:31:08.037Z</time></trkpt><trkpt lat="44.9777117" lon="9.6060567"><ele>97.0</ele><time>2026-05-02T14:31:10.041Z</time></trkpt><trkpt lat="44.9777967" lon="9.6060767"><ele>96.83333333333334</ele><time>2026-05-02T14:31:12.04Z</time></trkpt><trkpt lat="44.977885" lon="9.606115"><ele>96.66666666666667</ele><time>2026-05-02T14:31:14.036Z</time></trkpt><trkpt lat="44.9779783" lon="9.606145"><ele>96.5</ele><time>2026-05-02T14:31:16.037Z</time></trkpt><trkpt lat="44.9780483" lon="9.606175"><ele>96.33333333333334</ele><time>2026-05-02T14:31:18.039Z</time></trkpt><trkpt lat="44.9781317" lon="9.60621"><ele>96.16666666666667</ele><time>2026-05-02T14:31:20.043Z</time></trkpt><trkpt lat="44.978225" lon="9.6062417"><ele>96.0</ele><time>2026-05-02T14:31:22.04Z</time></trkpt><trkpt lat="44.9783267" lon="9.6062917"><ele>95.8</ele><time>2026-05-02T14:31:24.037Z</time></trkpt><trkpt lat="44.978435" lon="9.6063267"><ele>95.6</ele><time>2026-05-02T14:31:26.039Z</time></trkpt><trkpt lat="44.978535" lon="9.6063583"><ele>95.4</ele><time>2026-05-02T14:31:28.038Z</time></trkpt><trkpt lat="44.97863" lon="9.6063867"><ele>95.2</ele><time>2026-05-02T14:31:30.037Z</time></trkpt><trkpt lat="44.978715" lon="9.6064083"><ele>95.0</ele><time>2026-05-02T14:31:32.042Z</time></trkpt><trkpt lat="44.9788133" lon="9.6064267"><ele>95.0</ele><time>2026-05-02T14:31:34.041Z</time></trkpt><trkpt lat="44.97891" lon="9.6064367"><ele>95.0</ele><time>2026-05-02T14:31:36.037Z</time></trkpt><trkpt lat="44.9789917" lon="9.60646"><ele>95.0</ele><time>2026-05-02T14:31:38.036Z</time></trkpt><trkpt lat="44.9790483" lon="9.606515"><ele>95.0</ele><time>2026-05-02T14:31:40.036Z</time></trkpt><trkpt lat="44.97908" lon="9.606605"><ele>95.0</ele><time>2026-05-02T14:31:42.042Z</time></trkpt><trkpt lat="44.979135" lon="9.6066783"><ele>95.0</ele><time>2026-05-02T14:31:44.038Z</time></trkpt><trkpt lat="44.979205" lon="9.6066667"><ele>95.4</ele><time>2026-05-02T14:31:46.039Z</time></trkpt><trkpt lat="44.9792967" lon="9.60663"><ele>95.8</ele><time>2026-05-02T14:31:48.04Z</time></trkpt><trkpt lat="44.979395" lon="9.6065917"><ele>96.19999999999999</ele><time>2026-05-02T14:31:50.037Z</time></trkpt><trkpt lat="44.9794983" lon="9.60655"><ele>96.6</ele><time>2026-05-02T14:31:52.041Z</time></trkpt><trkpt lat="44.9796083" lon="9.60651"><ele>97.0</ele><time>2026-05-02T14:31:54.037Z</time></trkpt><trkpt lat="44.979695" lon="9.6064933"><ele>97.0</ele><time>2026-05-02T14:31:56.039Z</time></trkpt><trkpt lat="44.9797917" lon="9.6064817"><ele>97.0</ele><time>2026-05-02T14:31:58.04Z</time></trkpt><trkpt lat="44.979875" lon="9.6065083"><ele>97.0</ele><time>2026-05-02T14:32:00.034Z</time></trkpt><trkpt lat="44.9799633" lon="9.60655"><ele>97.0</ele><time>2026-05-02T14:32:02.039Z</time></trkpt><trkpt lat="44.9800617" lon="9.6065833"><ele>97.0</ele><time>2026-05-02T14:32:04.037Z</time></trkpt><trkpt lat="44.9801617" lon="9.6066017"><ele>96.8</ele><time>2026-05-02T14:32:06.041Z</time></trkpt><trkpt lat="44.9802583" lon="9.6066117"><ele>96.6</ele><time>2026-05-02T14:32:08.036Z</time></trkpt><trkpt lat="44.9803433" lon="9.6066117"><ele>96.39999999999999</ele><time>2026-05-02T14:32:10.04Z</time></trkpt><trkpt lat="44.98043" lon="9.6066183"><ele>96.19999999999999</ele><time>2026-05-02T14:32:12.038Z</time></trkpt><trkpt lat="44.9805267" lon="9.606645"><ele>96.0</ele><time>2026-05-02T14:32:14.039Z</time></trkpt><trkpt lat="44.98062" lon="9.6066667"><ele>96.0</ele><time>2026-05-02T14:32:16.037Z</time></trkpt><trkpt lat="44.9807133" lon="9.60666"><ele>96.0</ele><time>2026-05-02T14:32:18.038Z</time></trkpt><trkpt lat="44.9808167" lon="9.606665"><ele>96.0</ele><time>2026-05-02T14:32:20.037Z</time></trkpt><trkpt lat="44.980895" lon="9.6067133"><ele>96.0</ele><time>2026-05-02T14:32:22.035Z</time></trkpt><trkpt lat="44.9809617" lon="9.606755"><ele>96.0</ele><time>2026-05-02T14:32:24.039Z</time></trkpt><trkpt lat="44.9810267" lon="9.606785"><ele>96.0</ele><time>2026-05-02T14:32:26.04Z</time></trkpt><trkpt lat="44.9811267" lon="9.6067783"><ele>95.4</ele><time>2026-05-02T14:32:28.036Z</time></trkpt><trkpt lat="44.9812317" lon="9.6067983"><ele>94.8</ele><time>2026-05-02T14:32:30.041Z</time></trkpt><trkpt lat="44.9812983" lon="9.606795"><ele>94.2</ele><time>2026-05-02T14:32:31.038Z</time></trkpt><trkpt lat="44.9814067" lon="9.6067933"><ele>93.60000000000001</ele><time>2026-05-02T14:32:33.043Z</time></trkpt><trkpt lat="44.9815017" lon="9.6068"><ele>93.0</ele><time>2026-05-02T14:32:35.04Z</time></trkpt><trkpt lat="44.9815933" lon="9.6068117"><ele>93.0</ele><time>2026-05-02T14:32:37.039Z</time></trkpt><trkpt lat="44.9816783" lon="9.606815"><ele>93.0</ele><time>2026-05-02T14:32:39.042Z</time></trkpt><trkpt lat="44.9817817" lon="9.6068417"><ele>93.0</ele><time>2026-05-02T14:32:41.039Z</time></trkpt><trkpt lat="44.9818933" lon="9.606865"><ele>93.0</ele><time>2026-05-02T14:32:43.039Z</time></trkpt><trkpt lat="44.982" lon="9.60689"><ele>93.0</ele><time>2026-05-02T14:32:45.038Z</time></trkpt><trkpt lat="44.98209" lon="9.6069133"><ele>93.4</ele><time>2026-05-02T14:32:47.039Z</time></trkpt><trkpt lat="44.98217" lon="9.6069333"><ele>93.80000000000001</ele><time>2026-05-02T14:32:49.042Z</time></trkpt><trkpt lat="44.9822617" lon="9.606935"><ele>94.2</ele><time>2026-05-02T14:32:51.037Z</time></trkpt><trkpt lat="44.9823617" lon="9.6069533"><ele>94.6</ele><time>2026-05-02T14:32:53.041Z</time></trkpt><trkpt lat="44.98247" lon="9.60694"><ele>95.0</ele><time>2026-05-02T14:32:55.038Z</time></trkpt><trkpt lat="44.98258" lon="9.606925"><ele>95.0</ele><time>2026-05-02T14:32:57.042Z</time></trkpt><trkpt lat="44.9826767" lon="9.60693"><ele>95.0</ele><time>2026-05-02T14:32:59.039Z</time></trkpt><trkpt lat="44.9827883" lon="9.6069467"><ele>95.0</ele><time>2026-05-02T14:33:01.039Z</time></trkpt><trkpt lat="44.9829" lon="9.606965"><ele>95.0</ele><time>2026-05-02T14:33:03.04Z</time></trkpt><trkpt lat="44.9830133" lon="9.60696"><ele>95.0</ele><time>2026-05-02T14:33:05.038Z</time></trkpt><trkpt lat="44.98313" lon="9.6069517"><ele>95.0</ele><time>2026-05-02T14:33:07.037Z</time></trkpt><trkpt lat="44.98325" lon="9.606945"><ele>95.0</ele><time>2026-05-02T14:33:09.037Z</time></trkpt><trkpt lat="44.9833633" lon="9.6069417"><ele>95.0</ele><time>2026-05-02T14:33:11.037Z</time></trkpt><trkpt lat="44.9834667" lon="9.6069367"><ele>95.0</ele><time>2026-05-02T14:33:13.038Z</time></trkpt><trkpt lat="44.9835833" lon="9.6068933"><ele>95.0</ele><time>2026-05-02T14:33:15.043Z</time></trkpt><trkpt lat="44.9836683" lon="9.60681"><ele>95.0</ele><time>2026-05-02T14:33:16.043Z</time></trkpt><trkpt lat="44.9837683" lon="9.6068033"><ele>95.0</ele><time>2026-05-02T14:33:18.041Z</time></trkpt><trkpt lat="44.9838583" lon="9.6068067"><ele>95.0</ele><time>2026-05-02T14:33:20.038Z</time></trkpt><trkpt lat="44.9839583" lon="9.6068133"><ele>95.0</ele><time>2026-05-02T14:33:22.037Z</time></trkpt><trkpt lat="44.98406" lon="9.6068267"><ele>95.0</ele><time>2026-05-02T14:33:24.034Z</time></trkpt><trkpt lat="44.9841633" lon="9.606835"><ele>95.0</ele><time>2026-05-02T14:33:26.038Z</time></trkpt><trkpt lat="44.9842717" lon="9.6068483"><ele>95.0</ele><time>2026-05-02T14:33:28.041Z</time></trkpt><trkpt lat="44.9843883" lon="9.60686"><ele>95.0</ele><time>2026-05-02T14:33:30.044Z</time></trkpt><trkpt lat="44.9844983" lon="9.6068833"><ele>95.0</ele><time>2026-05-02T14:33:32.037Z</time></trkpt><trkpt lat="44.9846117" lon="9.6068817"><ele>94.8</ele><time>2026-05-02T14:33:34.037Z</time></trkpt><trkpt lat="44.9847217" lon="9.6068817"><ele>94.6</ele><time>2026-05-02T14:33:36.036Z</time></trkpt><trkpt lat="44.9848267" lon="9.6068767"><ele>94.4</ele><time>2026-05-02T14:33:38.041Z</time></trkpt><trkpt lat="44.9849467" lon="9.6068567"><ele>94.2</ele><time>2026-05-02T14:33:40.037Z</time></trkpt><trkpt lat="44.98504" lon="9.6068833"><ele>94.0</ele><time>2026-05-02T14:33:42.039Z</time></trkpt><trkpt lat="44.985105" lon="9.6068817"><ele>93.83333333333333</ele><time>2026-05-02T14:33:43.041Z</time></trkpt><trkpt lat="44.9852067" lon="9.6069083"><ele>93.66666666666666</ele><time>2026-05-02T14:33:45.039Z</time></trkpt><trkpt lat="44.9852967" lon="9.6069067"><ele>93.5</ele><time>2026-05-02T14:33:47.033Z</time></trkpt><trkpt lat="44.98538" lon="9.6069067"><ele>93.33333333333333</ele><time>2026-05-02T14:33:49.042Z</time></trkpt><trkpt lat="44.9854567" lon="9.6069233"><ele>93.16666666666667</ele><time>2026-05-02T14:33:51.039Z</time></trkpt><trkpt lat="44.9855233" lon="9.60688"><ele>93.0</ele><time>2026-05-02T14:33:53.038Z</time></trkpt><trkpt lat="44.9855617" lon="9.6067617"><ele>93.0</ele><time>2026-05-02T14:33:55.041Z</time></trkpt><trkpt lat="44.985585" lon="9.6066567"><ele>93.0</ele><time>2026-05-02T14:33:57.04Z</time></trkpt><trkpt lat="44.9856017" lon="9.6065467"><ele>93.0</ele><time>2026-05-02T14:33:59.036Z</time></trkpt><trkpt lat="44.9856183" lon="9.6064117"><ele>93.0</ele><time>2026-05-02T14:34:02.041Z</time></trkpt><trkpt lat="44.9856333" lon="9.606265"><ele>93.0</ele><time>2026-05-02T14:34:04.037Z</time></trkpt><trkpt lat="44.9856583" lon="9.6061233"><ele>93.0</ele><time>2026-05-02T14:34:06.04Z</time></trkpt><trkpt lat="44.985685" lon="9.6059867"><ele>93.0</ele><time>2026-05-02T14:34:08.041Z</time></trkpt><trkpt lat="44.9857117" lon="9.6058483"><ele>93.0</ele><time>2026-05-02T14:34:10.035Z</time></trkpt><trkpt lat="44.98574" lon="9.6057183"><ele>93.0</ele><time>2026-05-02T14:34:12.039Z</time></trkpt><trkpt lat="44.9857633" lon="9.605585"><ele>93.0</ele><time>2026-05-02T14:34:14.04Z</time></trkpt><trkpt lat="44.9857967" lon="9.605435"><ele>92.60000000000001</ele><time>2026-05-02T14:34:16.037Z</time></trkpt><trkpt lat="44.9858167" lon="9.6052633"><ele>92.2</ele><time>2026-05-02T14:34:18.037Z</time></trkpt><trkpt lat="44.9858467" lon="9.6051383"><ele>91.8</ele><time>2026-05-02T14:34:20.037Z</time></trkpt><trkpt lat="44.9858917" lon="9.6049917"><ele>91.4</ele><time>2026-05-02T14:34:22.037Z</time></trkpt><trkpt lat="44.9859083" lon="9.6048617"><ele>91.0</ele><time>2026-05-02T14:34:24.038Z</time></trkpt><trkpt lat="44.98594" lon="9.6047517"><ele>91.0</ele><time>2026-05-02T14:34:26.036Z</time></trkpt><trkpt lat="44.985985" lon="9.6046683"><ele>91.0</ele><time>2026-05-02T14:34:28.038Z</time></trkpt><trkpt lat="44.9860533" lon="9.6046233"><ele>91.0</ele><time>2026-05-02T14:34:30.038Z</time></trkpt><trkpt lat="44.9861367" lon="9.6045933"><ele>91.0</ele><time>2026-05-02T14:34:32.04Z</time></trkpt><trkpt lat="44.9862383" lon="9.6045767"><ele>91.0</ele><time>2026-05-02T14:34:34.037Z</time></trkpt><trkpt lat="44.9863417" lon="9.6045483"><ele>91.0</ele><time>2026-05-02T14:34:36.039Z</time></trkpt><trkpt lat="44.9864433" lon="9.60452"><ele>91.0</ele><time>2026-05-02T14:34:38.036Z</time></trkpt><trkpt lat="44.9865417" lon="9.6045067"><ele>91.0</ele><time>2026-05-02T14:34:40.041Z</time></trkpt><trkpt lat="44.9866483" lon="9.6044867"><ele>91.0</ele><time>2026-05-02T14:34:42.036Z</time></trkpt><trkpt lat="44.98677" lon="9.6044683"><ele>91.0</ele><time>2026-05-02T14:34:44.037Z</time></trkpt><trkpt lat="44.986875" lon="9.604455"><ele>91.0</ele><time>2026-05-02T14:34:46.039Z</time></trkpt><trkpt lat="44.9869767" lon="9.6044417"><ele>91.0</ele><time>2026-05-02T14:34:48.037Z</time></trkpt><trkpt lat="44.9870717" lon="9.6044233"><ele>91.0</ele><time>2026-05-02T14:34:50.041Z</time></trkpt><trkpt lat="44.9871633" lon="9.6044117"><ele>91.0</ele><time>2026-05-02T14:34:52.039Z</time></trkpt><trkpt lat="44.9872467" lon="9.6043933"><ele>91.0</ele><time>2026-05-02T14:34:54.038Z</time></trkpt><trkpt lat="44.98732" lon="9.6043867"><ele>91.0</ele><time>2026-05-02T14:34:56.043Z</time></trkpt><trkpt lat="44.9874167" lon="9.6043867"><ele>91.0</ele><time>2026-05-02T14:34:58.04Z</time></trkpt><trkpt lat="44.9875183" lon="9.6043817"><ele>90.8</ele><time>2026-05-02T14:35:00.038Z</time></trkpt><trkpt lat="44.9876267" lon="9.6043667"><ele>90.6</ele><time>2026-05-02T14:35:02.037Z</time></trkpt><trkpt lat="44.9877333" lon="9.60436"><ele>90.4</ele><time>2026-05-02T14:35:04.036Z</time></trkpt><trkpt lat="44.9878333" lon="9.604355"><ele>90.2</ele><time>2026-05-02T14:35:06.042Z</time></trkpt><trkpt lat="44.9879333" lon="9.6043633"><ele>90.0</ele><time>2026-05-02T14:35:08.035Z</time></trkpt><trkpt lat="44.9880417" lon="9.60435"><ele>90.0</ele><time>2026-05-02T14:35:10.036Z</time></trkpt><trkpt lat="44.9881483" lon="9.6043483"><ele>90.0</ele><time>2026-05-02T14:35:12.042Z</time></trkpt><trkpt lat="44.9882533" lon="9.60436"><ele>90.0</ele><time>2026-05-02T14:35:14.039Z</time></trkpt><trkpt lat="44.9883583" lon="9.60437"><ele>90.0</ele><time>2026-05-02T14:35:16.037Z</time></trkpt><trkpt lat="44.988465" lon="9.60437"><ele>90.0</ele><time>2026-05-02T14:35:18.035Z</time></trkpt><trkpt lat="44.98856" lon="9.6043817"><ele>89.8</ele><time>2026-05-02T14:35:20.039Z</time></trkpt><trkpt lat="44.98865" lon="9.60439"><ele>89.6</ele><time>2026-05-02T14:35:22.039Z</time></trkpt><trkpt lat="44.98875" lon="9.6044"><ele>89.4</ele><time>2026-05-02T14:35:24.04Z</time></trkpt><trkpt lat="44.98886" lon="9.6044083"><ele>89.2</ele><time>2026-05-02T14:35:26.036Z</time></trkpt><trkpt lat="44.9889733" lon="9.6044033"><ele>89.0</ele><time>2026-05-02T14:35:28.037Z</time></trkpt><trkpt lat="44.9890767" lon="9.6043917"><ele>89.0</ele><time>2026-05-02T14:35:30.037Z</time></trkpt><trkpt lat="44.9891683" lon="9.6043833"><ele>89.0</ele><time>2026-05-02T14:35:32.039Z</time></trkpt><trkpt lat="44.9892683" lon="9.6043917"><ele>89.0</ele><time>2026-05-02T14:35:34.038Z</time></trkpt><trkpt lat="44.9893867" lon="9.6044117"><ele>89.0</ele><time>2026-05-02T14:35:36.039Z</time></trkpt><trkpt lat="44.9894867" lon="9.6044233"><ele>89.0</ele><time>2026-05-02T14:35:38.041Z</time></trkpt><trkpt lat="44.98959" lon="9.6044417"><ele>88.75</ele><time>2026-05-02T14:35:40.037Z</time></trkpt><trkpt lat="44.9896967" lon="9.6044483"><ele>88.5</ele><time>2026-05-02T14:35:42.037Z</time></trkpt><trkpt lat="44.9898167" lon="9.604445"><ele>88.25</ele><time>2026-05-02T14:35:44.037Z</time></trkpt><trkpt lat="44.9899333" lon="9.6044533"><ele>88.0</ele><time>2026-05-02T14:35:46.04Z</time></trkpt><trkpt lat="44.99005" lon="9.604465"><ele>88.0</ele><time>2026-05-02T14:35:48.041Z</time></trkpt><trkpt lat="44.990115" lon="9.60447"><ele>88.0</ele><time>2026-05-02T14:35:49.037Z</time></trkpt><trkpt lat="44.990235" lon="9.6044917"><ele>88.0</ele><time>2026-05-02T14:35:51.038Z</time></trkpt><trkpt lat="44.990355" lon="9.604495"><ele>88.0</ele><time>2026-05-02T14:35:53.039Z</time></trkpt><trkpt lat="44.9904717" lon="9.6045133"><ele>88.0</ele><time>2026-05-02T14:35:55.039Z</time></trkpt><trkpt lat="44.9905867" lon="9.6045183"><ele>88.0</ele><time>2026-05-02T14:35:57.037Z</time></trkpt><trkpt lat="44.9907" lon="9.6045267"><ele>88.0</ele><time>2026-05-02T14:35:59.032Z</time></trkpt><trkpt lat="44.990805" lon="9.6045433"><ele>88.0</ele><time>2026-05-02T14:36:01.034Z</time></trkpt><trkpt lat="44.9909133" lon="9.6045617"><ele>88.0</ele><time>2026-05-02T14:36:03.041Z</time></trkpt><trkpt lat="44.9910317" lon="9.6045733"><ele>88.0</ele><time>2026-05-02T14:36:05.039Z</time></trkpt><trkpt lat="44.9911417" lon="9.6045967"><ele>88.0</ele><time>2026-05-02T14:36:07.045Z</time></trkpt><trkpt lat="44.991205" lon="9.604595"><ele>88.0</ele><time>2026-05-02T14:36:08.036Z</time></trkpt><trkpt lat="44.9913267" lon="9.6046067"><ele>88.0</ele><time>2026-05-02T14:36:10.036Z</time></trkpt><trkpt lat="44.99139" lon="9.60462"><ele>88.0</ele><time>2026-05-02T14:36:11.039Z</time></trkpt><trkpt lat="44.9914983" lon="9.6046433"><ele>88.0</ele><time>2026-05-02T14:36:13.036Z</time></trkpt><trkpt lat="44.99161" lon="9.6046683"><ele>87.80000000000001</ele><time>2026-05-02T14:36:15.041Z</time></trkpt><trkpt lat="44.9917183" lon="9.6046883"><ele>87.6</ele><time>2026-05-02T14:36:17.039Z</time></trkpt><trkpt lat="44.99182" lon="9.6047083"><ele>87.4</ele><time>2026-05-02T14:36:19.036Z</time></trkpt><trkpt lat="44.9919283" lon="9.6047283"><ele>87.19999999999999</ele><time>2026-05-02T14:36:21.034Z</time></trkpt><trkpt lat="44.99204" lon="9.604745"><ele>87.0</ele><time>2026-05-02T14:36:23.036Z</time></trkpt><trkpt lat="44.992145" lon="9.604775"><ele>87.0</ele><time>2026-05-02T14:36:25.037Z</time></trkpt><trkpt lat="44.99226" lon="9.6047933"><ele>87.0</ele><time>2026-05-02T14:36:27.044Z</time></trkpt><trkpt lat="44.992375" lon="9.6047917"><ele>87.0</ele><time>2026-05-02T14:36:29.038Z</time></trkpt><trkpt lat="44.9924733" lon="9.6047867"><ele>87.0</ele><time>2026-05-02T14:36:31.043Z</time></trkpt><trkpt lat="44.9926" lon="9.6047767"><ele>87.39999999999999</ele><time>2026-05-02T14:36:33.043Z</time></trkpt><trkpt lat="44.9927183" lon="9.6047883"><ele>87.8</ele><time>2026-05-02T14:36:35.036Z</time></trkpt><trkpt lat="44.9928217" lon="9.6047817"><ele>88.2</ele><time>2026-05-02T14:36:37.038Z</time></trkpt><trkpt lat="44.9929317" lon="9.6047683"><ele>88.6</ele><time>2026-05-02T14:36:39.041Z</time></trkpt><trkpt lat="44.9930367" lon="9.6047567"><ele>89.0</ele><time>2026-05-02T14:36:41.036Z</time></trkpt><trkpt lat="44.9931383" lon="9.6047733"><ele>89.0</ele><time>2026-05-02T14:36:43.038Z</time></trkpt><trkpt lat="44.99325" lon="9.6047983"><ele>89.0</ele><time>2026-05-02T14:36:45.041Z</time></trkpt><trkpt lat="44.9933567" lon="9.6047883"><ele>89.0</ele><time>2026-05-02T14:36:47.037Z</time></trkpt><trkpt lat="44.9934583" lon="9.604765"><ele>89.0</ele><time>2026-05-02T14:36:49.036Z</time></trkpt><trkpt lat="44.9935683" lon="9.6047417"><ele>89.0</ele><time>2026-05-02T14:36:51.042Z</time></trkpt><trkpt lat="44.9936867" lon="9.6047217"><ele>88.33333333333334</ele><time>2026-05-02T14:36:53.037Z</time></trkpt><trkpt lat="44.9937483" lon="9.6047017"><ele>87.66666666666667</ele><time>2026-05-02T14:36:54.038Z</time></trkpt><trkpt lat="44.99385" lon="9.6046533"><ele>87.0</ele><time>2026-05-02T14:36:56.043Z</time></trkpt><trkpt lat="44.9939283" lon="9.6046217"><ele>86.33333333333333</ele><time>2026-05-02T14:36:58.037Z</time></trkpt><trkpt lat="44.9939967" lon="9.6046"><ele>85.66666666666666</ele><time>2026-05-02T14:37:00.039Z</time></trkpt><trkpt lat="44.9940867" lon="9.604575"><ele>85.0</ele><time>2026-05-02T14:37:02.038Z</time></trkpt><trkpt lat="44.99419" lon="9.6045483"><ele>85.0</ele><time>2026-05-02T14:37:04.037Z</time></trkpt><trkpt lat="44.9942783" lon="9.604515"><ele>85.0</ele><time>2026-05-02T14:37:06.039Z</time></trkpt><trkpt lat="44.9943767" lon="9.6045033"><ele>85.0</ele><time>2026-05-02T14:37:08.038Z</time></trkpt><trkpt lat="44.99448" lon="9.60449"><ele>85.0</ele><time>2026-05-02T14:37:10.039Z</time></trkpt><trkpt lat="44.9945783" lon="9.60447"><ele>85.0</ele><time>2026-05-02T14:37:12.042Z</time></trkpt><trkpt lat="44.994665" lon="9.6044283"><ele>85.0</ele><time>2026-05-02T14:37:14.037Z</time></trkpt><trkpt lat="44.9947733" lon="9.60439"><ele>85.0</ele><time>2026-05-02T14:37:16.04Z</time></trkpt><trkpt lat="44.9948733" lon="9.604375"><ele>85.0</ele><time>2026-05-02T14:37:18.038Z</time></trkpt><trkpt lat="44.9949733" lon="9.6043733"><ele>85.0</ele><time>2026-05-02T14:37:20.04Z</time></trkpt><trkpt lat="44.9950783" lon="9.6043583"><ele>85.0</ele><time>2026-05-02T14:37:22.038Z</time></trkpt><trkpt lat="44.9951783" lon="9.6043583"><ele>85.2</ele><time>2026-05-02T14:37:24.038Z</time></trkpt><trkpt lat="44.9952567" lon="9.6043833"><ele>85.4</ele><time>2026-05-02T14:37:26.039Z</time></trkpt><trkpt lat="44.9953433" lon="9.60439"><ele>85.6</ele><time>2026-05-02T14:37:28.036Z</time></trkpt><trkpt lat="44.995445" lon="9.6044117"><ele>85.8</ele><time>2026-05-02T14:37:30.042Z</time></trkpt><trkpt lat="44.995545" lon="9.6044083"><ele>86.0</ele><time>2026-05-02T14:37:32.04Z</time></trkpt><trkpt lat="44.9956433" lon="9.604405"><ele>86.0</ele><time>2026-05-02T14:37:34.037Z</time></trkpt><trkpt lat="44.9957317" lon="9.6044117"><ele>86.0</ele><time>2026-05-02T14:37:36.038Z</time></trkpt><trkpt lat="44.99581" lon="9.6044733"><ele>86.0</ele><time>2026-05-02T14:37:38.039Z</time></trkpt><trkpt lat="44.9958917" lon="9.60458"><ele>86.0</ele><time>2026-05-02T14:37:40.037Z</time></trkpt><trkpt lat="44.9959683" lon="9.6046917"><ele>86.0</ele><time>2026-05-02T14:37:42.037Z</time></trkpt><trkpt lat="44.99603" lon="9.6048117"><ele>86.19999999999999</ele><time>2026-05-02T14:37:44.04Z</time></trkpt><trkpt lat="44.996095" lon="9.604925"><ele>86.39999999999999</ele><time>2026-05-02T14:37:46.038Z</time></trkpt><trkpt lat="44.9961633" lon="9.6050483"><ele>86.6</ele><time>2026-05-02T14:37:48.038Z</time></trkpt><trkpt lat="44.9962183" lon="9.6051817"><ele>86.8</ele><time>2026-05-02T14:37:50.038Z</time></trkpt><trkpt lat="44.9962683" lon="9.6053117"><ele>87.0</ele><time>2026-05-02T14:37:52.038Z</time></trkpt><trkpt lat="44.9963183" lon="9.605425"><ele>87.19999999999999</ele><time>2026-05-02T14:37:54.037Z</time></trkpt><trkpt lat="44.99638" lon="9.6055533"><ele>87.4</ele><time>2026-05-02T14:37:56.043Z</time></trkpt><trkpt lat="44.9964417" lon="9.605685"><ele>87.6</ele><time>2026-05-02T14:37:58.036Z</time></trkpt><trkpt lat="44.9965" lon="9.605805"><ele>87.80000000000001</ele><time>2026-05-02T14:38:00.041Z</time></trkpt><trkpt lat="44.9965683" lon="9.605925"><ele>88.0</ele><time>2026-05-02T14:38:02.036Z</time></trkpt><trkpt lat="44.9966333" lon="9.60604"><ele>87.4</ele><time>2026-05-02T14:38:04.039Z</time></trkpt><trkpt lat="44.9966867" lon="9.6061467"><ele>86.80000000000001</ele><time>2026-05-02T14:38:06.039Z</time></trkpt><trkpt lat="44.996735" lon="9.606265"><ele>86.2</ele><time>2026-05-02T14:38:08.039Z</time></trkpt><trkpt lat="44.996785" lon="9.6063717"><ele>85.6</ele><time>2026-05-02T14:38:10.036Z</time></trkpt><trkpt lat="44.9968367" lon="9.6064733"><ele>85.0</ele><time>2026-05-02T14:38:12.039Z</time></trkpt><trkpt lat="44.9968683" lon="9.6065917"><ele>85.0</ele><time>2026-05-02T14:38:14.036Z</time></trkpt><trkpt lat="44.9969" lon="9.6066983"><ele>85.0</ele><time>2026-05-02T14:38:16.039Z</time></trkpt><trkpt lat="44.996945" lon="9.6068067"><ele>85.0</ele><time>2026-05-02T14:38:18.034Z</time></trkpt><trkpt lat="44.9969933" lon="9.60693"><ele>85.0</ele><time>2026-05-02T14:38:20.038Z</time></trkpt><trkpt lat="44.9970417" lon="9.60706"><ele>85.0</ele><time>2026-05-02T14:38:22.037Z</time></trkpt><trkpt lat="44.9970967" lon="9.6071967"><ele>85.2</ele><time>2026-05-02T14:38:24.04Z</time></trkpt><trkpt lat="44.9971467" lon="9.6073267"><ele>85.4</ele><time>2026-05-02T14:38:26.039Z</time></trkpt><trkpt lat="44.9971967" lon="9.60746"><ele>85.6</ele><time>2026-05-02T14:38:28.042Z</time></trkpt><trkpt lat="44.99725" lon="9.6075917"><ele>85.8</ele><time>2026-05-02T14:38:30.035Z</time></trkpt><trkpt lat="44.9973117" lon="9.6077133"><ele>86.0</ele><time>2026-05-02T14:38:32.039Z</time></trkpt><trkpt lat="44.997375" lon="9.6078433"><ele>86.19999999999999</ele><time>2026-05-02T14:38:34.041Z</time></trkpt><trkpt lat="44.9974283" lon="9.6079767"><ele>86.39999999999999</ele><time>2026-05-02T14:38:36.039Z</time></trkpt><trkpt lat="44.9974783" lon="9.60811"><ele>86.6</ele><time>2026-05-02T14:38:38.037Z</time></trkpt><trkpt lat="44.9975117" lon="9.6082333"><ele>86.8</ele><time>2026-05-02T14:38:40.04Z</time></trkpt><trkpt lat="44.99755" lon="9.6083383"><ele>87.0</ele><time>2026-05-02T14:38:42.035Z</time></trkpt><trkpt lat="44.9976" lon="9.608425"><ele>87.0</ele><time>2026-05-02T14:38:44.043Z</time></trkpt><trkpt lat="44.997655" lon="9.6085633"><ele>87.0</ele><time>2026-05-02T14:38:46.039Z</time></trkpt><trkpt lat="44.9977083" lon="9.608695"><ele>87.0</ele><time>2026-05-02T14:38:48.038Z</time></trkpt><trkpt lat="44.997765" lon="9.6088183"><ele>87.0</ele><time>2026-05-02T14:38:50.04Z</time></trkpt><trkpt lat="44.99782" lon="9.608925"><ele>87.0</ele><time>2026-05-02T14:38:52.037Z</time></trkpt><trkpt lat="44.9978733" lon="9.609045"><ele>87.0</ele><time>2026-05-02T14:38:54.039Z</time></trkpt><trkpt lat="44.99793" lon="9.6091783"><ele>87.0</ele><time>2026-05-02T14:38:56.037Z</time></trkpt><trkpt lat="44.9979883" lon="9.6092883"><ele>87.0</ele><time>2026-05-02T14:38:58.037Z</time></trkpt><trkpt lat="44.99805" lon="9.609405"><ele>87.0</ele><time>2026-05-02T14:39:00.036Z</time></trkpt><trkpt lat="44.99811" lon="9.609525"><ele>87.0</ele><time>2026-05-02T14:39:02.039Z</time></trkpt><trkpt lat="44.99816" lon="9.609645"><ele>86.8</ele><time>2026-05-02T14:39:04.037Z</time></trkpt><trkpt lat="44.9982117" lon="9.6097633"><ele>86.6</ele><time>2026-05-02T14:39:06.041Z</time></trkpt><trkpt lat="44.9982617" lon="9.60988"><ele>86.39999999999999</ele><time>2026-05-02T14:39:08.044Z</time></trkpt><trkpt lat="44.99831" lon="9.6100033"><ele>86.19999999999999</ele><time>2026-05-02T14:39:10.035Z</time></trkpt><trkpt lat="44.9983633" lon="9.61013"><ele>86.0</ele><time>2026-05-02T14:39:12.035Z</time></trkpt><trkpt lat="44.998415" lon="9.6102617"><ele>85.66666666666667</ele><time>2026-05-02T14:39:14.038Z</time></trkpt><trkpt lat="44.9984583" lon="9.6103833"><ele>85.33333333333334</ele><time>2026-05-02T14:39:16.035Z</time></trkpt><trkpt lat="44.9985067" lon="9.6105"><ele>85.0</ele><time>2026-05-02T14:39:18.038Z</time></trkpt><trkpt lat="44.998555" lon="9.610595"><ele>84.66666666666667</ele><time>2026-05-02T14:39:20.042Z</time></trkpt><trkpt lat="44.998585" lon="9.6106917"><ele>84.33333333333333</ele><time>2026-05-02T14:39:22.04Z</time></trkpt><trkpt lat="44.9986267" lon="9.6107667"><ele>84.0</ele><time>2026-05-02T14:39:24.041Z</time></trkpt><trkpt lat="44.9986617" lon="9.6108483"><ele>84.0</ele><time>2026-05-02T14:39:26.037Z</time></trkpt><trkpt lat="44.9987033" lon="9.6109567"><ele>84.0</ele><time>2026-05-02T14:39:29.039Z</time></trkpt><trkpt lat="44.9987683" lon="9.6110233"><ele>84.0</ele><time>2026-05-02T14:39:32.04Z</time></trkpt><trkpt lat="44.9988533" lon="9.61102"><ele>84.0</ele><time>2026-05-02T14:39:35.041Z</time></trkpt><trkpt lat="44.998945" lon="9.6110383"><ele>84.0</ele><time>2026-05-02T14:39:38.04Z</time></trkpt><trkpt lat="44.9990283" lon="9.6110333"><ele>84.0</ele><time>2026-05-02T14:39:40.039Z</time></trkpt><trkpt lat="44.9991" lon="9.6110717"><ele>83.83333333333333</ele><time>2026-05-02T14:39:42.043Z</time></trkpt><trkpt lat="44.9991817" lon="9.6110833"><ele>83.66666666666667</ele><time>2026-05-02T14:39:44.037Z</time></trkpt><trkpt lat="44.999265" lon="9.6110833"><ele>83.5</ele><time>2026-05-02T14:39:46.037Z</time></trkpt><trkpt lat="44.9993617" lon="9.61109"><ele>83.33333333333334</ele><time>2026-05-02T14:39:49.038Z</time></trkpt><trkpt lat="44.9994367" lon="9.6110933"><ele>83.16666666666667</ele><time>2026-05-02T14:39:51.041Z</time></trkpt><trkpt lat="44.999505" lon="9.611085"><ele>83.0</ele><time>2026-05-02T14:39:53.037Z</time></trkpt><trkpt lat="44.9995917" lon="9.6110617"><ele>83.0</ele><time>2026-05-02T14:39:56.036Z</time></trkpt><trkpt lat="44.999685" lon="9.611065"><ele>83.0</ele><time>2026-05-02T14:39:59.037Z</time></trkpt><trkpt lat="44.9997367" lon="9.610965"><ele>83.0</ele><time>2026-05-02T14:40:02.041Z</time></trkpt><trkpt lat="44.9997583" lon="9.6108483"><ele>83.0</ele><time>2026-05-02T14:40:04.039Z</time></trkpt><trkpt lat="44.9998067" lon="9.6107767"><ele>83.0</ele><time>2026-05-02T14:40:06.037Z</time></trkpt><trkpt lat="44.9998667" lon="9.6107283"><ele>83.0</ele><time>2026-05-02T14:40:08.036Z</time></trkpt><trkpt lat="44.9999517" lon="9.6106867"><ele>83.0</ele><time>2026-05-02T14:40:10.038Z</time></trkpt><trkpt lat="45.0000367" lon="9.6106733"><ele>83.0</ele><time>2026-05-02T14:40:12.039Z</time></trkpt><trkpt lat="45.0001233" lon="9.6106683"><ele>83.0</ele><time>2026-05-02T14:40:14.038Z</time></trkpt><trkpt lat="45.0002" lon="9.61067"><ele>83.0</ele><time>2026-05-02T14:40:16.04Z</time></trkpt><trkpt lat="45.00027" lon="9.6106733"><ele>83.0</ele><time>2026-05-02T14:40:18.039Z</time></trkpt><trkpt lat="45.00034" lon="9.610675"><ele>83.0</ele><time>2026-05-02T14:40:20.039Z</time></trkpt><trkpt lat="45.0004133" lon="9.610675"><ele>83.0</ele><time>2026-05-02T14:40:22.037Z</time></trkpt><trkpt lat="45.0004817" lon="9.61068"><ele>83.0</ele><time>2026-05-02T14:40:24.039Z</time></trkpt><trkpt lat="45.000555" lon="9.6106967"><ele>83.0</ele><time>2026-05-02T14:40:26.039Z</time></trkpt><trkpt lat="45.0006233" lon="9.6107367"><ele>83.0</ele><time>2026-05-02T14:40:29.038Z</time></trkpt><trkpt lat="45.0006233" lon="9.61088"><ele>83.0</ele><time>2026-05-02T14:40:32.036Z</time></trkpt><trkpt lat="45.0006067" lon="9.6110167"><ele>83.0</ele><time>2026-05-02T14:40:34.041Z</time></trkpt><trkpt lat="45.000585" lon="9.6111533"><ele>83.33333333333334</ele><time>2026-05-02T14:40:36.038Z</time></trkpt><trkpt lat="45.0005733" lon="9.6112933"><ele>83.66666666666667</ele><time>2026-05-02T14:40:38.038Z</time></trkpt><trkpt lat="45.00056" lon="9.6114217"><ele>84.0</ele><time>2026-05-02T14:40:40.037Z</time></trkpt><trkpt lat="45.0005367" lon="9.6115383"><ele>84.33333333333333</ele><time>2026-05-02T14:40:42.034Z</time></trkpt><trkpt lat="45.00052" lon="9.6116467"><ele>84.66666666666666</ele><time>2026-05-02T14:40:44.041Z</time></trkpt><trkpt lat="45.0005033" lon="9.6117567"><ele>85.0</ele><time>2026-05-02T14:40:46.04Z</time></trkpt><trkpt lat="45.0005017" lon="9.6118517"><ele>85.0</ele><time>2026-05-02T14:40:48.041Z</time></trkpt><trkpt lat="45.000565" lon="9.611935"><ele>85.0</ele><time>2026-05-02T14:40:51.041Z</time></trkpt><trkpt lat="45.0006517" lon="9.61194"><ele>85.0</ele><time>2026-05-02T14:40:53.039Z</time></trkpt><trkpt lat="45.0007533" lon="9.611935"><ele>85.0</ele><time>2026-05-02T14:40:55.042Z</time></trkpt><trkpt lat="45.0008467" lon="9.611925"><ele>85.0</ele><time>2026-05-02T14:40:57.039Z</time></trkpt><trkpt lat="45.00094" lon="9.6119217"><ele>85.0</ele><time>2026-05-02T14:40:59.036Z</time></trkpt><trkpt lat="45.00102" lon="9.611925"><ele>85.0</ele><time>2026-05-02T14:41:01.038Z</time></trkpt><trkpt lat="45.0010967" lon="9.6119167"><ele>85.0</ele><time>2026-05-02T14:41:03.042Z</time></trkpt><trkpt lat="45.0011767" lon="9.6119333"><ele>85.0</ele><time>2026-05-02T14:41:05.042Z</time></trkpt><trkpt lat="45.0012567" lon="9.61194"><ele>85.0</ele><time>2026-05-02T14:41:07.039Z</time></trkpt><trkpt lat="45.0013517" lon="9.6119683"><ele>85.0</ele><time>2026-05-02T14:41:09.043Z</time></trkpt><trkpt lat="45.0014517" lon="9.6119967"><ele>84.8</ele><time>2026-05-02T14:41:11.039Z</time></trkpt><trkpt lat="45.0015517" lon="9.6120217"><ele>84.6</ele><time>2026-05-02T14:41:13.037Z</time></trkpt><trkpt lat="45.001655" lon="9.6120367"><ele>84.4</ele><time>2026-05-02T14:41:15.038Z</time></trkpt><trkpt lat="45.0017517" lon="9.6120317"><ele>84.2</ele><time>2026-05-02T14:41:17.038Z</time></trkpt><trkpt lat="45.0018333" lon="9.6120467"><ele>84.0</ele><time>2026-05-02T14:41:19.04Z</time></trkpt><trkpt lat="45.0019017" lon="9.6120633"><ele>83.83333333333333</ele><time>2026-05-02T14:41:21.039Z</time></trkpt><trkpt lat="45.00197" lon="9.6120733"><ele>83.66666666666667</ele><time>2026-05-02T14:41:23.039Z</time></trkpt><trkpt lat="45.00206" lon="9.6120917"><ele>83.5</ele><time>2026-05-02T14:41:26.039Z</time></trkpt><trkpt lat="45.0021317" lon="9.6121017"><ele>83.33333333333334</ele><time>2026-05-02T14:41:28.041Z</time></trkpt><trkpt lat="45.00222" lon="9.6121167"><ele>83.16666666666667</ele><time>2026-05-02T14:41:31.036Z</time></trkpt><trkpt lat="45.0022867" lon="9.6121267"><ele>83.0</ele><time>2026-05-02T14:41:33.037Z</time></trkpt><trkpt lat="45.00235" lon="9.61211"><ele>83.0</ele><time>2026-05-02T14:41:35.041Z</time></trkpt><trkpt lat="45.00242" lon="9.6121083"><ele>83.0</ele><time>2026-05-02T14:41:37.039Z</time></trkpt><trkpt lat="45.0025033" lon="9.6121233"><ele>83.0</ele><time>2026-05-02T14:41:39.042Z</time></trkpt><trkpt lat="45.0025833" lon="9.612145"><ele>83.0</ele><time>2026-05-02T14:41:41.036Z</time></trkpt><trkpt lat="45.0026433" lon="9.6121783"><ele>83.0</ele><time>2026-05-02T14:41:43.038Z</time></trkpt><trkpt lat="45.0027233" lon="9.6122117"><ele>83.0</ele><time>2026-05-02T14:41:46.041Z</time></trkpt><trkpt lat="45.0028067" lon="9.6122083"><ele>83.0</ele><time>2026-05-02T14:41:49.04Z</time></trkpt><trkpt lat="45.0028717" lon="9.6122433"><ele>83.0</ele><time>2026-05-02T14:41:53.039Z</time></trkpt><trkpt lat="45.00291" lon="9.6123217"><ele>83.0</ele><time>2026-05-02T14:41:57.04Z</time></trkpt><trkpt lat="45.0029167" lon="9.6124333"><ele>83.0</ele><time>2026-05-02T14:41:59.037Z</time></trkpt><trkpt lat="45.0029217" lon="9.6125633"><ele>83.0</ele><time>2026-05-02T14:42:01.041Z</time></trkpt><trkpt lat="45.0029317" lon="9.6127033"><ele>83.0</ele><time>2026-05-02T14:42:03.04Z</time></trkpt><trkpt lat="45.0029833" lon="9.61279"><ele>83.0</ele><time>2026-05-02T14:42:05.039Z</time></trkpt><trkpt lat="45.00304" lon="9.6128317"><ele>83.0</ele><time>2026-05-02T14:42:07.039Z</time></trkpt><trkpt lat="45.0030783" lon="9.6127583"><ele>83.0</ele><time>2026-05-02T14:43:07.039Z</time></trkpt><trkpt lat="45.00304" lon="9.6126783"><ele>83.0</ele><time>2026-05-02T14:43:29.042Z</time></trkpt><trkpt lat="45.0029833" lon="9.6125783"><ele>83.0</ele><time>2026-05-02T14:43:32.029Z</time></trkpt><trkpt lat="45.00297" lon="9.6124617"><ele>83.0</ele><time>2026-05-02T14:43:34.034Z</time></trkpt><trkpt lat="45.0029733" lon="9.6123417"><ele>83.0</ele><time>2026-05-02T14:43:36.039Z</time></trkpt><trkpt lat="45.0029817" lon="9.6122083"><ele>83.0</ele><time>2026-05-02T14:43:38.042Z</time></trkpt><trkpt lat="45.0030467" lon="9.612185"><ele>83.0</ele><time>2026-05-02T14:43:41.043Z</time></trkpt><trkpt lat="45.0031167" lon="9.612205"><ele>83.0</ele><time>2026-05-02T14:43:43.041Z</time></trkpt><trkpt lat="45.0031933" lon="9.6122167"><ele>83.0</ele><time>2026-05-02T14:43:45.047Z</time></trkpt><trkpt lat="45.00326" lon="9.61224"><ele>83.0</ele><time>2026-05-02T14:43:47.041Z</time></trkpt><trkpt lat="45.0033333" lon="9.6123117"><ele>83.0</ele><time>2026-05-02T14:43:50.042Z</time></trkpt><trkpt lat="45.00336" lon="9.6124383"><ele>83.0</ele><time>2026-05-02T14:43:53.04Z</time></trkpt><trkpt lat="45.003355" lon="9.6125517"><ele>83.0</ele><time>2026-05-02T14:43:55.036Z</time></trkpt><trkpt lat="45.0033367" lon="9.6126683"><ele>83.0</ele><time>2026-05-02T14:43:57.038Z</time></trkpt><trkpt lat="45.0033083" lon="9.6127933"><ele>83.0</ele><time>2026-05-02T14:43:59.034Z</time></trkpt><trkpt lat="45.0032883" lon="9.6129267"><ele>83.0</ele><time>2026-05-02T14:44:01.039Z</time></trkpt><trkpt lat="45.0032883" lon="9.6130433"><ele>83.33333333333334</ele><time>2026-05-02T14:44:03.04Z</time></trkpt><trkpt lat="45.0032817" lon="9.6131533"><ele>83.66666666666667</ele><time>2026-05-02T14:44:05.038Z</time></trkpt><trkpt lat="45.0032733" lon="9.613285"><ele>84.0</ele><time>2026-05-02T14:44:07.04Z</time></trkpt><trkpt lat="45.003265" lon="9.613425"><ele>84.33333333333333</ele><time>2026-05-02T14:44:09.04Z</time></trkpt><trkpt lat="45.003265" lon="9.6135367"><ele>84.66666666666666</ele><time>2026-05-02T14:44:11.04Z</time></trkpt><trkpt lat="45.0032517" lon="9.6136633"><ele>85.0</ele><time>2026-05-02T14:44:13.037Z</time></trkpt><trkpt lat="45.00325" lon="9.6137883"><ele>85.0</ele><time>2026-05-02T14:44:15.035Z</time></trkpt><trkpt lat="45.0032417" lon="9.6138983"><ele>85.0</ele><time>2026-05-02T14:44:17.038Z</time></trkpt><trkpt lat="45.00324" lon="9.613995"><ele>85.0</ele><time>2026-05-02T14:44:19.039Z</time></trkpt><trkpt lat="45.00326" lon="9.6140817"><ele>85.0</ele><time>2026-05-02T14:44:21.04Z</time></trkpt><trkpt lat="45.0033367" lon="9.614115"><ele>85.0</ele><time>2026-05-02T14:44:23.037Z</time></trkpt><trkpt lat="45.0034283" lon="9.6141383"><ele>85.0</ele><time>2026-05-02T14:44:25.042Z</time></trkpt><trkpt lat="45.0035317" lon="9.61416"><ele>85.0</ele><time>2026-05-02T14:44:27.038Z</time></trkpt><trkpt lat="45.0036517" lon="9.6141717"><ele>85.0</ele><time>2026-05-02T14:44:29.036Z</time></trkpt><trkpt lat="45.003715" lon="9.6141733"><ele>85.0</ele><time>2026-05-02T14:44:30.039Z</time></trkpt><trkpt lat="45.00378" lon="9.61418"><ele>85.0</ele><time>2026-05-02T14:44:31.037Z</time></trkpt><trkpt lat="45.0039017" lon="9.6142017"><ele>85.0</ele><time>2026-05-02T14:44:33.037Z</time></trkpt><trkpt lat="45.0040133" lon="9.6142117"><ele>85.0</ele><time>2026-05-02T14:44:35.034Z</time></trkpt><trkpt lat="45.00413" lon="9.6142283"><ele>85.0</ele><time>2026-05-02T14:44:37.038Z</time></trkpt><trkpt lat="45.0042533" lon="9.6142533"><ele>85.0</ele><time>2026-05-02T14:44:39.043Z</time></trkpt><trkpt lat="45.00437" lon="9.6142983"><ele>85.0</ele><time>2026-05-02T14:44:41.035Z</time></trkpt><trkpt lat="45.0044817" lon="9.6143467"><ele>85.0</ele><time>2026-05-02T14:44:43.039Z</time></trkpt><trkpt lat="45.00459" lon="9.614395"><ele>85.0</ele><time>2026-05-02T14:44:45.033Z</time></trkpt><trkpt lat="45.0047033" lon="9.614435"><ele>85.0</ele><time>2026-05-02T14:44:47.038Z</time></trkpt><trkpt lat="45.00481" lon="9.614485"><ele>85.0</ele><time>2026-05-02T14:44:49.039Z</time></trkpt><trkpt lat="45.0049083" lon="9.6145133"><ele>85.0</ele><time>2026-05-02T14:44:51.037Z</time></trkpt><trkpt lat="45.0049983" lon="9.6145433"><ele>84.8</ele><time>2026-05-02T14:44:53.038Z</time></trkpt><trkpt lat="45.0050917" lon="9.614575"><ele>84.6</ele><time>2026-05-02T14:44:55.04Z</time></trkpt><trkpt lat="45.0051883" lon="9.61462"><ele>84.4</ele><time>2026-05-02T14:44:57.038Z</time></trkpt><trkpt lat="45.0052933" lon="9.6146733"><ele>84.2</ele><time>2026-05-02T14:44:59.036Z</time></trkpt><trkpt lat="45.0054033" lon="9.6147317"><ele>84.0</ele><time>2026-05-02T14:45:01.042Z</time></trkpt><trkpt lat="45.0055033" lon="9.6147933"><ele>84.0</ele><time>2026-05-02T14:45:03.034Z</time></trkpt><trkpt lat="45.0055833" lon="9.61485"><ele>84.0</ele><time>2026-05-02T14:45:05.036Z</time></trkpt><trkpt lat="45.005675" lon="9.614895"><ele>84.0</ele><time>2026-05-02T14:45:07.039Z</time></trkpt><trkpt lat="45.0057683" lon="9.6149317"><ele>84.0</ele><time>2026-05-02T14:45:09.041Z</time></trkpt><trkpt lat="45.005865" lon="9.6149417"><ele>84.0</ele><time>2026-05-02T14:45:11.039Z</time></trkpt><trkpt lat="45.00595" lon="9.61494"><ele>83.80000000000001</ele><time>2026-05-02T14:45:13.04Z</time></trkpt><trkpt lat="45.0060367" lon="9.614935"><ele>83.60000000000001</ele><time>2026-05-02T14:45:15.045Z</time></trkpt><trkpt lat="45.0061417" lon="9.6149167"><ele>83.4</ele><time>2026-05-02T14:45:17.039Z</time></trkpt><trkpt lat="45.0062417" lon="9.6148967"><ele>83.2</ele><time>2026-05-02T14:45:19.041Z</time></trkpt><trkpt lat="45.0063367" lon="9.61489"><ele>83.0</ele><time>2026-05-02T14:45:21.039Z</time></trkpt><trkpt lat="45.0064233" lon="9.614905"><ele>83.0</ele><time>2026-05-02T14:45:23.035Z</time></trkpt><trkpt lat="45.0065067" lon="9.6149333"><ele>83.0</ele><time>2026-05-02T14:45:25.037Z</time></trkpt><trkpt lat="45.0065867" lon="9.6149333"><ele>83.0</ele><time>2026-05-02T14:45:27.039Z</time></trkpt><trkpt lat="45.00666" lon="9.6148933"><ele>83.0</ele><time>2026-05-02T14:45:29.034Z</time></trkpt><trkpt lat="45.006745" lon="9.6148867"><ele>83.0</ele><time>2026-05-02T14:45:31.037Z</time></trkpt><trkpt lat="45.0068467" lon="9.61491"><ele>83.0</ele><time>2026-05-02T14:45:33.045Z</time></trkpt><trkpt lat="45.0069617" lon="9.61493"><ele>82.2</ele><time>2026-05-02T14:45:35.036Z</time></trkpt><trkpt lat="45.007075" lon="9.6149483"><ele>81.4</ele><time>2026-05-02T14:45:37.036Z</time></trkpt><trkpt lat="45.0071817" lon="9.6149617"><ele>80.60000000000001</ele><time>2026-05-02T14:45:39.035Z</time></trkpt><trkpt lat="45.0072883" lon="9.6149717"><ele>79.80000000000001</ele><time>2026-05-02T14:45:41.039Z</time></trkpt><trkpt lat="45.0073867" lon="9.61499"><ele>79.0</ele><time>2026-05-02T14:45:43.046Z</time></trkpt><trkpt lat="45.007485" lon="9.6150333"><ele>79.80000000000001</ele><time>2026-05-02T14:45:45.039Z</time></trkpt><trkpt lat="45.0075917" lon="9.6150717"><ele>80.60000000000001</ele><time>2026-05-02T14:45:47.037Z</time></trkpt><trkpt lat="45.007705" lon="9.6150983"><ele>81.4</ele><time>2026-05-02T14:45:49.04Z</time></trkpt><trkpt lat="45.0078117" lon="9.6151317"><ele>82.2</ele><time>2026-05-02T14:45:51.044Z</time></trkpt><trkpt lat="45.0079133" lon="9.6151733"><ele>83.0</ele><time>2026-05-02T14:45:53.038Z</time></trkpt><trkpt lat="45.0080133" lon="9.6152133"><ele>83.0</ele><time>2026-05-02T14:45:55.039Z</time></trkpt><trkpt lat="45.0081033" lon="9.615265"><ele>83.0</ele><time>2026-05-02T14:45:57.042Z</time></trkpt><trkpt lat="45.00819" lon="9.61533"><ele>83.0</ele><time>2026-05-02T14:45:59.034Z</time></trkpt><trkpt lat="45.0082617" lon="9.61537"><ele>83.0</ele><time>2026-05-02T14:46:01.039Z</time></trkpt><trkpt lat="45.008325" lon="9.6154117"><ele>83.0</ele><time>2026-05-02T14:46:03.04Z</time></trkpt><trkpt lat="45.008385" lon="9.6155"><ele>83.0</ele><time>2026-05-02T14:46:06.041Z</time></trkpt><trkpt lat="45.0083983" lon="9.6156117"><ele>82.80000000000001</ele><time>2026-05-02T14:46:08.04Z</time></trkpt><trkpt lat="45.008405" lon="9.6157517"><ele>82.6</ele><time>2026-05-02T14:46:10.038Z</time></trkpt><trkpt lat="45.0084067" lon="9.6159067"><ele>82.4</ele><time>2026-05-02T14:46:12.038Z</time></trkpt><trkpt lat="45.0083983" lon="9.6160683"><ele>82.19999999999999</ele><time>2026-05-02T14:46:14.038Z</time></trkpt><trkpt lat="45.008395" lon="9.6162317"><ele>82.0</ele><time>2026-05-02T14:46:16.039Z</time></trkpt><trkpt lat="45.0083883" lon="9.6163983"><ele>81.6</ele><time>2026-05-02T14:46:18.039Z</time></trkpt><trkpt lat="45.0083833" lon="9.6165483"><ele>81.19999999999999</ele><time>2026-05-02T14:46:20.037Z</time></trkpt><trkpt lat="45.00838" lon="9.6166883"><ele>80.8</ele><time>2026-05-02T14:46:22.037Z</time></trkpt><trkpt lat="45.0083733" lon="9.616825"><ele>80.4</ele><time>2026-05-02T14:46:24.036Z</time></trkpt><trkpt lat="45.00837" lon="9.61695"><ele>80.0</ele><time>2026-05-02T14:46:26.037Z</time></trkpt><trkpt lat="45.008365" lon="9.6170767"><ele>80.0</ele><time>2026-05-02T14:46:28.038Z</time></trkpt><trkpt lat="45.0083617" lon="9.6172117"><ele>80.0</ele><time>2026-05-02T14:46:30.038Z</time></trkpt><trkpt lat="45.008355" lon="9.6173533"><ele>80.0</ele><time>2026-05-02T14:46:32.04Z</time></trkpt><trkpt lat="45.0083517" lon="9.617505"><ele>80.0</ele><time>2026-05-02T14:46:34.036Z</time></trkpt><trkpt lat="45.0083433" lon="9.6176483"><ele>80.0</ele><time>2026-05-02T14:46:36.041Z</time></trkpt><trkpt lat="45.0083383" lon="9.6177817"><ele>80.2</ele><time>2026-05-02T14:46:38.041Z</time></trkpt><trkpt lat="45.0083333" lon="9.6179283"><ele>80.4</ele><time>2026-05-02T14:46:40.04Z</time></trkpt><trkpt lat="45.0083267" lon="9.6180817"><ele>80.6</ele><time>2026-05-02T14:46:42.037Z</time></trkpt><trkpt lat="45.0083233" lon="9.6182433"><ele>80.8</ele><time>2026-05-02T14:46:44.038Z</time></trkpt><trkpt lat="45.0083267" lon="9.6183933"><ele>81.0</ele><time>2026-05-02T14:46:46.036Z</time></trkpt><trkpt lat="45.0083267" lon="9.6185283"><ele>81.0</ele><time>2026-05-02T14:46:48.036Z</time></trkpt><trkpt lat="45.0083333" lon="9.61866"><ele>81.0</ele><time>2026-05-02T14:46:50.036Z</time></trkpt><trkpt lat="45.00833" lon="9.6187833"><ele>81.0</ele><time>2026-05-02T14:46:52.037Z</time></trkpt><trkpt lat="45.0083283" lon="9.6189167"><ele>81.0</ele><time>2026-05-02T14:46:54.037Z</time></trkpt><trkpt lat="45.0083217" lon="9.6190483"><ele>81.0</ele><time>2026-05-02T14:46:56.04Z</time></trkpt><trkpt lat="45.0083217" lon="9.6191867"><ele>80.8</ele><time>2026-05-02T14:46:58.036Z</time></trkpt><trkpt lat="45.0083217" lon="9.61933"><ele>80.6</ele><time>2026-05-02T14:47:00.039Z</time></trkpt><trkpt lat="45.0083233" lon="9.6194617"><ele>80.4</ele><time>2026-05-02T14:47:02.038Z</time></trkpt><trkpt lat="45.0083417" lon="9.61958"><ele>80.2</ele><time>2026-05-02T14:47:04.042Z</time></trkpt><trkpt lat="45.0084" lon="9.6196633"><ele>80.0</ele><time>2026-05-02T14:47:06.037Z</time></trkpt><trkpt lat="45.008495" lon="9.6197183"><ele>79.8</ele><time>2026-05-02T14:47:08.04Z</time></trkpt><trkpt lat="45.0086083" lon="9.61974"><ele>79.6</ele><time>2026-05-02T14:47:10.035Z</time></trkpt><trkpt lat="45.0087267" lon="9.6197517"><ele>79.4</ele><time>2026-05-02T14:47:12.037Z</time></trkpt><trkpt lat="45.008835" lon="9.6197583"><ele>79.2</ele><time>2026-05-02T14:47:14.035Z</time></trkpt><trkpt lat="45.00894" lon="9.6197667"><ele>79.0</ele><time>2026-05-02T14:47:16.039Z</time></trkpt><trkpt lat="45.0090417" lon="9.61977"><ele>79.0</ele><time>2026-05-02T14:47:18.038Z</time></trkpt><trkpt lat="45.009145" lon="9.6197967"><ele>79.0</ele><time>2026-05-02T14:47:20.038Z</time></trkpt><trkpt lat="45.0092567" lon="9.61982"><ele>79.0</ele><time>2026-05-02T14:47:22.039Z</time></trkpt><trkpt lat="45.00936" lon="9.61984"><ele>79.0</ele><time>2026-05-02T14:47:24.037Z</time></trkpt><trkpt lat="45.0094517" lon="9.61987"><ele>79.0</ele><time>2026-05-02T14:47:26.038Z</time></trkpt><trkpt lat="45.00954" lon="9.6198783"><ele>79.4</ele><time>2026-05-02T14:47:28.039Z</time></trkpt><trkpt lat="45.009635" lon="9.6199233"><ele>79.80000000000001</ele><time>2026-05-02T14:47:30.036Z</time></trkpt><trkpt lat="45.0097383" lon="9.6199517"><ele>80.19999999999999</ele><time>2026-05-02T14:47:32.038Z</time></trkpt><trkpt lat="45.0098433" lon="9.61999"><ele>80.6</ele><time>2026-05-02T14:47:34.039Z</time></trkpt><trkpt lat="45.00996" lon="9.6200267"><ele>81.0</ele><time>2026-05-02T14:47:36.042Z</time></trkpt><trkpt lat="45.0100633" lon="9.6200683"><ele>81.0</ele><time>2026-05-02T14:47:38.037Z</time></trkpt><trkpt lat="45.0101667" lon="9.6201117"><ele>81.0</ele><time>2026-05-02T14:47:40.038Z</time></trkpt><trkpt lat="45.0102733" lon="9.6201417"><ele>81.0</ele><time>2026-05-02T14:47:42.037Z</time></trkpt><trkpt lat="45.0103783" lon="9.62018"><ele>81.0</ele><time>2026-05-02T14:47:44.039Z</time></trkpt><trkpt lat="45.01049" lon="9.6202017"><ele>81.0</ele><time>2026-05-02T14:47:46.036Z</time></trkpt><trkpt lat="45.0105817" lon="9.6202267"><ele>81.0</ele><time>2026-05-02T14:47:48.037Z</time></trkpt><trkpt lat="45.0106767" lon="9.6202683"><ele>81.0</ele><time>2026-05-02T14:47:50.037Z</time></trkpt><trkpt lat="45.01078" lon="9.62031"><ele>81.0</ele><time>2026-05-02T14:47:52.037Z</time></trkpt><trkpt lat="45.0108867" lon="9.6203467"><ele>81.0</ele><time>2026-05-02T14:47:54.037Z</time></trkpt><trkpt lat="45.010985" lon="9.62039"><ele>81.0</ele><time>2026-05-02T14:47:56.036Z</time></trkpt><trkpt lat="45.011075" lon="9.6204233"><ele>80.8</ele><time>2026-05-02T14:47:58.036Z</time></trkpt><trkpt lat="45.0111633" lon="9.6204483"><ele>80.6</ele><time>2026-05-02T14:48:00.036Z</time></trkpt><trkpt lat="45.0112633" lon="9.62048"><ele>80.4</ele><time>2026-05-02T14:48:02.034Z</time></trkpt><trkpt lat="45.0113733" lon="9.6205117"><ele>80.2</ele><time>2026-05-02T14:48:04.036Z</time></trkpt><trkpt lat="45.0114833" lon="9.6205467"><ele>80.0</ele><time>2026-05-02T14:48:06.034Z</time></trkpt><trkpt lat="45.0115933" lon="9.620575"><ele>79.6</ele><time>2026-05-02T14:48:08.037Z</time></trkpt><trkpt lat="45.01169" lon="9.6206017"><ele>79.2</ele><time>2026-05-02T14:48:10.037Z</time></trkpt><trkpt lat="45.0117917" lon="9.620615"><ele>78.8</ele><time>2026-05-02T14:48:12.038Z</time></trkpt><trkpt lat="45.0118983" lon="9.62064"><ele>78.4</ele><time>2026-05-02T14:48:14.038Z</time></trkpt><trkpt lat="45.0119983" lon="9.6206667"><ele>78.0</ele><time>2026-05-02T14:48:16.037Z</time></trkpt><trkpt lat="45.0120883" lon="9.6206883"><ele>78.0</ele><time>2026-05-02T14:48:18.038Z</time></trkpt><trkpt lat="45.012165" lon="9.6207183"><ele>78.0</ele><time>2026-05-02T14:48:20.036Z</time></trkpt><trkpt lat="45.0122533" lon="9.620755"><ele>78.0</ele><time>2026-05-02T14:48:22.037Z</time></trkpt><trkpt lat="45.0123533" lon="9.6207983"><ele>78.0</ele><time>2026-05-02T14:48:24.038Z</time></trkpt><trkpt lat="45.0124683" lon="9.6208383"><ele>78.0</ele><time>2026-05-02T14:48:26.035Z</time></trkpt><trkpt lat="45.012585" lon="9.6208817"><ele>78.0</ele><time>2026-05-02T14:48:28.037Z</time></trkpt><trkpt lat="45.012695" lon="9.62093"><ele>78.0</ele><time>2026-05-02T14:48:30.036Z</time></trkpt><trkpt lat="45.0128033" lon="9.6209683"><ele>78.0</ele><time>2026-05-02T14:48:32.035Z</time></trkpt><trkpt lat="45.012905" lon="9.6209933"><ele>78.0</ele><time>2026-05-02T14:48:34.037Z</time></trkpt><trkpt lat="45.013" lon="9.6210183"><ele>78.0</ele><time>2026-05-02T14:48:36.035Z</time></trkpt><trkpt lat="45.0130883" lon="9.62105"><ele>78.0</ele><time>2026-05-02T14:48:38.04Z</time></trkpt><trkpt lat="45.013175" lon="9.6210933"><ele>78.0</ele><time>2026-05-02T14:48:40.036Z</time></trkpt><trkpt lat="45.01327" lon="9.62113"><ele>78.0</ele><time>2026-05-02T14:48:42.035Z</time></trkpt><trkpt lat="45.0133683" lon="9.6211617"><ele>78.0</ele><time>2026-05-02T14:48:44.035Z</time></trkpt><trkpt lat="45.0134617" lon="9.621195"><ele>78.0</ele><time>2026-05-02T14:48:46.035Z</time></trkpt><trkpt lat="45.0135517" lon="9.6212417"><ele>78.0</ele><time>2026-05-02T14:48:48.038Z</time></trkpt><trkpt lat="45.0136483" lon="9.621285"><ele>78.0</ele><time>2026-05-02T14:48:50.037Z</time></trkpt><trkpt lat="45.01374" lon="9.6213233"><ele>78.0</ele><time>2026-05-02T14:48:52.038Z</time></trkpt><trkpt lat="45.0138283" lon="9.6213567"><ele>78.0</ele><time>2026-05-02T14:48:54.038Z</time></trkpt><trkpt lat="45.01391" lon="9.6213883"><ele>78.0</ele><time>2026-05-02T14:48:56.035Z</time></trkpt><trkpt lat="45.0139883" lon="9.6214067"><ele>78.0</ele><time>2026-05-02T14:48:58.035Z</time></trkpt><trkpt lat="45.01407" lon="9.6214417"><ele>78.0</ele><time>2026-05-02T14:49:00.041Z</time></trkpt><trkpt lat="45.0141633" lon="9.621485"><ele>78.0</ele><time>2026-05-02T14:49:02.036Z</time></trkpt><trkpt lat="45.01426" lon="9.6215267"><ele>78.0</ele><time>2026-05-02T14:49:04.037Z</time></trkpt><trkpt lat="45.014355" lon="9.6215617"><ele>78.0</ele><time>2026-05-02T14:49:06.036Z</time></trkpt><trkpt lat="45.0144467" lon="9.6215917"><ele>78.16666666666667</ele><time>2026-05-02T14:49:08.036Z</time></trkpt><trkpt lat="45.0145" lon="9.6216567"><ele>78.33333333333333</ele><time>2026-05-02T14:49:10.04Z</time></trkpt><trkpt lat="45.0145067" lon="9.621775"><ele>78.5</ele><time>2026-05-02T14:49:13.039Z</time></trkpt><trkpt lat="45.0144833" lon="9.6218733"><ele>78.66666666666666</ele><time>2026-05-02T14:49:15.035Z</time></trkpt><trkpt lat="45.0144783" lon="9.62199"><ele>78.83333333333333</ele><time>2026-05-02T14:49:17.039Z</time></trkpt><trkpt lat="45.0144617" lon="9.62213"><ele>79.0</ele><time>2026-05-02T14:49:19.037Z</time></trkpt><trkpt lat="45.0144583" lon="9.6222633"><ele>79.0</ele><time>2026-05-02T14:49:21.032Z</time></trkpt><trkpt lat="45.0144567" lon="9.6224017"><ele>79.0</ele><time>2026-05-02T14:49:23.039Z</time></trkpt><trkpt lat="45.0144567" lon="9.62255"><ele>79.0</ele><time>2026-05-02T14:49:25.039Z</time></trkpt><trkpt lat="45.01445" lon="9.622695"><ele>79.0</ele><time>2026-05-02T14:49:27.043Z</time></trkpt><trkpt lat="45.0144433" lon="9.6228267"><ele>79.0</ele><time>2026-05-02T14:49:29.041Z</time></trkpt><trkpt lat="45.0144367" lon="9.62293"><ele>79.0</ele><time>2026-05-02T14:49:31.04Z</time></trkpt><trkpt lat="45.014445" lon="9.62305"><ele>79.0</ele><time>2026-05-02T14:49:33.037Z</time></trkpt><trkpt lat="45.0144683" lon="9.6231783"><ele>79.0</ele><time>2026-05-02T14:49:35.036Z</time></trkpt><trkpt lat="45.0145" lon="9.62329"><ele>79.0</ele><time>2026-05-02T14:49:37.043Z</time></trkpt><trkpt lat="45.01454" lon="9.623395"><ele>79.0</ele><time>2026-05-02T14:49:39.037Z</time></trkpt><trkpt lat="45.0145983" lon="9.6235067"><ele>79.0</ele><time>2026-05-02T14:49:41.036Z</time></trkpt><trkpt lat="45.0146583" lon="9.6236217"><ele>78.8</ele><time>2026-05-02T14:49:43.041Z</time></trkpt><trkpt lat="45.0147117" lon="9.6237333"><ele>78.60000000000001</ele><time>2026-05-02T14:49:45.038Z</time></trkpt><trkpt lat="45.0147633" lon="9.623845"><ele>78.4</ele><time>2026-05-02T14:49:47.037Z</time></trkpt><trkpt lat="45.0148167" lon="9.623945"><ele>78.2</ele><time>2026-05-02T14:49:49.038Z</time></trkpt><trkpt lat="45.014865" lon="9.624045"><ele>78.0</ele><time>2026-05-02T14:49:51.04Z</time></trkpt><trkpt lat="45.01492" lon="9.6241633"><ele>78.0</ele><time>2026-05-02T14:49:53.034Z</time></trkpt><trkpt lat="45.0149767" lon="9.6242733"><ele>78.0</ele><time>2026-05-02T14:49:55.037Z</time></trkpt><trkpt lat="45.0150217" lon="9.6243583"><ele>78.0</ele><time>2026-05-02T14:49:57.037Z</time></trkpt><trkpt lat="45.015085" lon="9.6243183"><ele>78.0</ele><time>2026-05-02T14:50:02.038Z</time></trkpt><trkpt lat="45.0151" lon="9.6242183"><ele>78.0</ele><time>2026-05-02T14:50:05.036Z</time></trkpt><trkpt lat="45.0150017" lon="9.624185"><ele>78.0</ele><time>2026-05-02T14:51:09.047Z</time></trkpt><trkpt lat="45.0150038" lon="9.6242907"><ele>78.6</ele><time>2026-05-02T14:51:54.034Z</time></trkpt><trkpt lat="45.0150156" lon="9.6243849"><ele>79.19999999999999</ele><time>2026-05-02T14:51:58.043Z</time></trkpt><trkpt lat="45.0150983" lon="9.6246117"><ele>79.8</ele><time>2026-05-02T14:52:01.04Z</time></trkpt><trkpt lat="45.0151367" lon="9.6247267"><ele>80.39999999999999</ele><time>2026-05-02T14:52:03.045Z</time></trkpt><trkpt lat="45.0151683" lon="9.62485"><ele>81.0</ele><time>2026-05-02T14:52:05.039Z</time></trkpt><trkpt lat="45.015195" lon="9.624975"><ele>81.16666666666667</ele><time>2026-05-02T14:52:07.045Z</time></trkpt><trkpt lat="45.0152367" lon="9.6250783"><ele>81.33333333333333</ele><time>2026-05-02T14:52:09.043Z</time></trkpt><trkpt lat="45.0152883" lon="9.6251817"><ele>81.5</ele><time>2026-05-02T14:52:11.035Z</time></trkpt><trkpt lat="45.015335" lon="9.6252767"><ele>81.66666666666666</ele><time>2026-05-02T14:52:13.041Z</time></trkpt><trkpt lat="45.0153933" lon="9.6253683"><ele>81.83333333333333</ele><time>2026-05-02T14:52:15.041Z</time></trkpt><trkpt lat="45.0154517" lon="9.625475"><ele>82.0</ele><time>2026-05-02T14:52:17.041Z</time></trkpt><trkpt lat="45.0155117" lon="9.6255867"><ele>81.83333333333333</ele><time>2026-05-02T14:52:19.04Z</time></trkpt><trkpt lat="45.015565" lon="9.6256917"><ele>81.66666666666666</ele><time>2026-05-02T14:52:21.04Z</time></trkpt><trkpt lat="45.015615" lon="9.6257967"><ele>81.5</ele><time>2026-05-02T14:52:23.037Z</time></trkpt><trkpt lat="45.0156683" lon="9.625895"><ele>81.33333333333333</ele><time>2026-05-02T14:52:25.038Z</time></trkpt><trkpt lat="45.0157117" lon="9.6259917"><ele>81.16666666666667</ele><time>2026-05-02T14:52:27.04Z</time></trkpt><trkpt lat="45.015765" lon="9.6260933"><ele>81.0</ele><time>2026-05-02T14:52:29.039Z</time></trkpt><trkpt lat="45.0158233" lon="9.6262"><ele>81.0</ele><time>2026-05-02T14:52:31.036Z</time></trkpt><trkpt lat="45.0158833" lon="9.626305"><ele>81.0</ele><time>2026-05-02T14:52:33.041Z</time></trkpt><trkpt lat="45.015945" lon="9.62642"><ele>81.0</ele><time>2026-05-02T14:52:35.04Z</time></trkpt><trkpt lat="45.0160067" lon="9.62655"><ele>81.0</ele><time>2026-05-02T14:52:37.039Z</time></trkpt><trkpt lat="45.016065" lon="9.6266683"><ele>81.0</ele><time>2026-05-02T14:52:39.04Z</time></trkpt><trkpt lat="45.016125" lon="9.6267783"><ele>81.0</ele><time>2026-05-02T14:52:41.04Z</time></trkpt><trkpt lat="45.016175" lon="9.6268667"><ele>81.0</ele><time>2026-05-02T14:52:43.041Z</time></trkpt><trkpt lat="45.01622" lon="9.626955"><ele>81.0</ele><time>2026-05-02T14:52:45.041Z</time></trkpt><trkpt lat="45.0162717" lon="9.6270567"><ele>81.0</ele><time>2026-05-02T14:52:47.039Z</time></trkpt><trkpt lat="45.01633" lon="9.6271633"><ele>81.0</ele><time>2026-05-02T14:52:49.044Z</time></trkpt><trkpt lat="45.0163867" lon="9.6272583"><ele>81.0</ele><time>2026-05-02T14:52:51.039Z</time></trkpt><trkpt lat="45.01644" lon="9.627345"><ele>80.83333333333333</ele><time>2026-05-02T14:52:53.038Z</time></trkpt><trkpt lat="45.016495" lon="9.6274333"><ele>80.66666666666667</ele><time>2026-05-02T14:52:55.038Z</time></trkpt><trkpt lat="45.0165467" lon="9.6275217"><ele>80.5</ele><time>2026-05-02T14:52:57.044Z</time></trkpt><trkpt lat="45.0165967" lon="9.6276217"><ele>80.33333333333334</ele><time>2026-05-02T14:52:59.032Z</time></trkpt><trkpt lat="45.0166583" lon="9.6277133"><ele>80.16666666666667</ele><time>2026-05-02T14:53:01.039Z</time></trkpt><trkpt lat="45.016715" lon="9.627795"><ele>80.0</ele><time>2026-05-02T14:53:03.041Z</time></trkpt><trkpt lat="45.0167617" lon="9.627885"><ele>80.0</ele><time>2026-05-02T14:53:05.038Z</time></trkpt><trkpt lat="45.0168" lon="9.627975"><ele>80.0</ele><time>2026-05-02T14:53:07.038Z</time></trkpt><trkpt lat="45.0168367" lon="9.628055"><ele>80.0</ele><time>2026-05-02T14:53:09.041Z</time></trkpt><trkpt lat="45.0168667" lon="9.6281333"><ele>80.0</ele><time>2026-05-02T14:53:11.036Z</time></trkpt><trkpt lat="45.0168433" lon="9.6280183"><ele>80.0</ele><time>2026-05-02T14:56:47.04Z</time></trkpt><trkpt lat="45.0168017" lon="9.6279383"><ele>80.0</ele><time>2026-05-02T14:56:55.039Z</time></trkpt><trkpt lat="45.0167389" lon="9.627881"><ele>80.0</ele><time>2026-05-02T14:57:02.074Z</time></trkpt><trkpt lat="45.0167205" lon="9.6277958"><ele>80.0</ele><time>2026-05-02T14:57:07.043Z</time></trkpt><trkpt lat="45.0166873" lon="9.6277116"><ele>80.0</ele><time>2026-05-02T14:57:17.039Z</time></trkpt><trkpt lat="45.0166283" lon="9.6276"><ele>80.0</ele><time>2026-05-02T14:57:41.04Z</time></trkpt><trkpt lat="45.016585" lon="9.62752"><ele>80.0</ele><time>2026-05-02T14:57:46.038Z</time></trkpt><trkpt lat="45.0165383" lon="9.6274317"><ele>80.0</ele><time>2026-05-02T14:57:52.037Z</time></trkpt><trkpt lat="45.0164883" lon="9.6273517"><ele>80.0</ele><time>2026-05-02T14:57:56.039Z</time></trkpt><trkpt lat="45.01644" lon="9.62727"><ele>80.16666666666667</ele><time>2026-05-02T14:57:59.039Z</time></trkpt><trkpt lat="45.0163783" lon="9.62717"><ele>80.33333333333334</ele><time>2026-05-02T14:58:02.037Z</time></trkpt><trkpt lat="45.01634" lon="9.6270833"><ele>80.5</ele><time>2026-05-02T14:58:04.038Z</time></trkpt><trkpt lat="45.016295" lon="9.6270183"><ele>80.66666666666667</ele><time>2026-05-02T14:58:06.039Z</time></trkpt><trkpt lat="45.0162483" lon="9.6269383"><ele>80.83333333333333</ele><time>2026-05-02T14:58:08.038Z</time></trkpt><trkpt lat="45.0161933" lon="9.6268517"><ele>81.0</ele><time>2026-05-02T14:58:10.038Z</time></trkpt><trkpt lat="45.0161317" lon="9.6267533"><ele>81.0</ele><time>2026-05-02T14:58:12.04Z</time></trkpt><trkpt lat="45.0160717" lon="9.626645"><ele>81.0</ele><time>2026-05-02T14:58:14.041Z</time></trkpt><trkpt lat="45.0160133" lon="9.62653"><ele>81.0</ele><time>2026-05-02T14:58:16.042Z</time></trkpt><trkpt lat="45.01595" lon="9.6264167"><ele>81.0</ele><time>2026-05-02T14:58:18.038Z</time></trkpt><trkpt lat="45.0159033" lon="9.6262933"><ele>81.0</ele><time>2026-05-02T14:58:20.041Z</time></trkpt><trkpt lat="45.0158483" lon="9.62618"><ele>80.8</ele><time>2026-05-02T14:58:22.037Z</time></trkpt><trkpt lat="45.0158017" lon="9.6260783"><ele>80.6</ele><time>2026-05-02T14:58:24.035Z</time></trkpt><trkpt lat="45.015755" lon="9.6259733"><ele>80.4</ele><time>2026-05-02T14:58:26.038Z</time></trkpt><trkpt lat="45.0157067" lon="9.625865"><ele>80.2</ele><time>2026-05-02T14:58:28.038Z</time></trkpt><trkpt lat="45.0156533" lon="9.6257583"><ele>80.0</ele><time>2026-05-02T14:58:30.032Z</time></trkpt><trkpt lat="45.01559" lon="9.6256383"><ele>80.0</ele><time>2026-05-02T14:58:32.041Z</time></trkpt><trkpt lat="45.015525" lon="9.6255033"><ele>80.0</ele><time>2026-05-02T14:58:34.038Z</time></trkpt><trkpt lat="45.0154717" lon="9.6253567"><ele>80.0</ele><time>2026-05-02T14:58:36.036Z</time></trkpt><trkpt lat="45.0154117" lon="9.62522"><ele>80.0</ele><time>2026-05-02T14:58:38.039Z</time></trkpt><trkpt lat="45.01535" lon="9.6250833"><ele>80.2</ele><time>2026-05-02T14:58:40.042Z</time></trkpt><trkpt lat="45.0152933" lon="9.62494"><ele>80.4</ele><time>2026-05-02T14:58:42.039Z</time></trkpt><trkpt lat="45.0152333" lon="9.6247983"><ele>80.6</ele><time>2026-05-02T14:58:44.036Z</time></trkpt><trkpt lat="45.0151667" lon="9.6246767"><ele>80.8</ele><time>2026-05-02T14:58:46.039Z</time></trkpt><trkpt lat="45.0151" lon="9.6245567"><ele>81.0</ele><time>2026-05-02T14:58:48.036Z</time></trkpt><trkpt lat="45.0150467" lon="9.62443"><ele>80.39999999999999</ele><time>2026-05-02T14:58:50.038Z</time></trkpt><trkpt lat="45.0149867" lon="9.624295"><ele>79.8</ele><time>2026-05-02T14:58:52.037Z</time></trkpt><trkpt lat="45.014925" lon="9.624165"><ele>79.19999999999999</ele><time>2026-05-02T14:58:54.035Z</time></trkpt><trkpt lat="45.0148767" lon="9.6240433"><ele>78.6</ele><time>2026-05-02T14:58:56.037Z</time></trkpt><trkpt lat="45.0148267" lon="9.6239383"><ele>78.0</ele><time>2026-05-02T14:58:58.038Z</time></trkpt><trkpt lat="45.014785" lon="9.6238433"><ele>78.0</ele><time>2026-05-02T14:59:00.037Z</time></trkpt><trkpt lat="45.0147417" lon="9.6237383"><ele>78.0</ele><time>2026-05-02T14:59:02.037Z</time></trkpt><trkpt lat="45.0146933" lon="9.6236333"><ele>78.0</ele><time>2026-05-02T14:59:04.038Z</time></trkpt><trkpt lat="45.0146367" lon="9.6235067"><ele>78.0</ele><time>2026-05-02T14:59:06.038Z</time></trkpt><trkpt lat="45.0145833" lon="9.623385"><ele>78.0</ele><time>2026-05-02T14:59:08.043Z</time></trkpt><trkpt lat="45.01453" lon="9.6232817"><ele>78.2</ele><time>2026-05-02T14:59:10.04Z</time></trkpt><trkpt lat="45.01449" lon="9.62318"><ele>78.4</ele><time>2026-05-02T14:59:12.037Z</time></trkpt><trkpt lat="45.014465" lon="9.623065"><ele>78.60000000000001</ele><time>2026-05-02T14:59:14.038Z</time></trkpt><trkpt lat="45.0144517" lon="9.6229183"><ele>78.8</ele><time>2026-05-02T14:59:16.04Z</time></trkpt><trkpt lat="45.0144517" lon="9.6227683"><ele>79.0</ele><time>2026-05-02T14:59:18.04Z</time></trkpt><trkpt lat="45.0144517" lon="9.6226217"><ele>79.0</ele><time>2026-05-02T14:59:20.035Z</time></trkpt><trkpt lat="45.0144617" lon="9.62247"><ele>79.0</ele><time>2026-05-02T14:59:22.039Z</time></trkpt><trkpt lat="45.0144783" lon="9.62231"><ele>79.0</ele><time>2026-05-02T14:59:24.033Z</time></trkpt><trkpt lat="45.0144933" lon="9.6221567"><ele>79.0</ele><time>2026-05-02T14:59:26.039Z</time></trkpt><trkpt lat="45.0145067" lon="9.6220217"><ele>79.0</ele><time>2026-05-02T14:59:28.038Z</time></trkpt><trkpt lat="45.0145067" lon="9.621905"><ele>79.0</ele><time>2026-05-02T14:59:30.039Z</time></trkpt><trkpt lat="45.0144983" lon="9.6217867"><ele>79.0</ele><time>2026-05-02T14:59:32.04Z</time></trkpt><trkpt lat="45.01449" lon="9.6216667"><ele>79.0</ele><time>2026-05-02T14:59:34.035Z</time></trkpt><trkpt lat="45.014475" lon="9.621555"><ele>79.0</ele><time>2026-05-02T14:59:36.039Z</time></trkpt><trkpt lat="45.014435" lon="9.62148"><ele>79.0</ele><time>2026-05-02T14:59:38.038Z</time></trkpt><trkpt lat="45.014335" lon="9.6214633"><ele>79.0</ele><time>2026-05-02T14:59:40.041Z</time></trkpt><trkpt lat="45.0142217" lon="9.6214433"><ele>78.8</ele><time>2026-05-02T14:59:42.04Z</time></trkpt><trkpt lat="45.0141067" lon="9.6214067"><ele>78.60000000000001</ele><time>2026-05-02T14:59:44.037Z</time></trkpt><trkpt lat="45.0139967" lon="9.62137"><ele>78.4</ele><time>2026-05-02T14:59:46.036Z</time></trkpt><trkpt lat="45.0138983" lon="9.621345"><ele>78.2</ele><time>2026-05-02T14:59:48.039Z</time></trkpt><trkpt lat="45.013795" lon="9.621325"><ele>78.0</ele><time>2026-05-02T14:59:50.039Z</time></trkpt><trkpt lat="45.0136967" lon="9.6212783"><ele>78.0</ele><time>2026-05-02T14:59:52.037Z</time></trkpt><trkpt lat="45.0135833" lon="9.621225"><ele>78.0</ele><time>2026-05-02T14:59:54.044Z</time></trkpt><trkpt lat="45.0134717" lon="9.6211917"><ele>78.0</ele><time>2026-05-02T14:59:56.036Z</time></trkpt><trkpt lat="45.01337" lon="9.6211367"><ele>78.0</ele><time>2026-05-02T14:59:58.038Z</time></trkpt><trkpt lat="45.0132617" lon="9.6211"><ele>78.0</ele><time>2026-05-02T15:00:00.037Z</time></trkpt><trkpt lat="45.0131533" lon="9.62106"><ele>78.0</ele><time>2026-05-02T15:00:02.036Z</time></trkpt><trkpt lat="45.0130367" lon="9.6210067"><ele>78.0</ele><time>2026-05-02T15:00:04.036Z</time></trkpt><trkpt lat="45.0129267" lon="9.6209617"><ele>78.0</ele><time>2026-05-02T15:00:06.037Z</time></trkpt><trkpt lat="45.012805" lon="9.62093"><ele>78.0</ele><time>2026-05-02T15:00:08.036Z</time></trkpt><trkpt lat="45.01269" lon="9.620885"><ele>78.0</ele><time>2026-05-02T15:00:10.037Z</time></trkpt><trkpt lat="45.0125833" lon="9.620845"><ele>78.0</ele><time>2026-05-02T15:00:12.04Z</time></trkpt><trkpt lat="45.0124883" lon="9.6208067"><ele>78.0</ele><time>2026-05-02T15:00:14.04Z</time></trkpt><trkpt lat="45.0124" lon="9.620775"><ele>78.0</ele><time>2026-05-02T15:00:16.038Z</time></trkpt><trkpt lat="45.0123117" lon="9.62075"><ele>78.0</ele><time>2026-05-02T15:00:18.035Z</time></trkpt><trkpt lat="45.0122333" lon="9.620725"><ele>78.0</ele><time>2026-05-02T15:00:20.038Z</time></trkpt><trkpt lat="45.012155" lon="9.6207"><ele>78.0</ele><time>2026-05-02T15:00:22.036Z</time></trkpt><trkpt lat="45.0120883" lon="9.620675"><ele>78.0</ele><time>2026-05-02T15:00:24.035Z</time></trkpt><trkpt lat="45.012" lon="9.62064"><ele>78.0</ele><time>2026-05-02T15:00:27.038Z</time></trkpt><trkpt lat="45.0119183" lon="9.6206117"><ele>78.0</ele><time>2026-05-02T15:00:29.038Z</time></trkpt><trkpt lat="45.0118283" lon="9.620585"><ele>78.0</ele><time>2026-05-02T15:00:31.037Z</time></trkpt><trkpt lat="45.01172" lon="9.62055"><ele>78.0</ele><time>2026-05-02T15:00:33.039Z</time></trkpt><trkpt lat="45.0116067" lon="9.6205117"><ele>78.0</ele><time>2026-05-02T15:00:35.035Z</time></trkpt><trkpt lat="45.0114917" lon="9.6204817"><ele>78.0</ele><time>2026-05-02T15:00:37.038Z</time></trkpt><trkpt lat="45.0113733" lon="9.62045"><ele>78.4</ele><time>2026-05-02T15:00:39.034Z</time></trkpt><trkpt lat="45.0112533" lon="9.6204133"><ele>78.8</ele><time>2026-05-02T15:00:41.036Z</time></trkpt><trkpt lat="45.0111917" lon="9.6203917"><ele>79.2</ele><time>2026-05-02T15:00:42.041Z</time></trkpt><trkpt lat="45.0111283" lon="9.6203633"><ele>79.6</ele><time>2026-05-02T15:00:43.036Z</time></trkpt><trkpt lat="45.0110233" lon="9.6203267"><ele>80.0</ele><time>2026-05-02T15:00:45.039Z</time></trkpt><trkpt lat="45.0109183" lon="9.6202983"><ele>80.16666666666667</ele><time>2026-05-02T15:00:47.037Z</time></trkpt><trkpt lat="45.0108333" lon="9.620275"><ele>80.33333333333334</ele><time>2026-05-02T15:00:49.036Z</time></trkpt><trkpt lat="45.0107383" lon="9.6202417"><ele>80.5</ele><time>2026-05-02T15:00:51.037Z</time></trkpt><trkpt lat="45.010625" lon="9.6201967"><ele>80.66666666666667</ele><time>2026-05-02T15:00:53.034Z</time></trkpt><trkpt lat="45.0105633" lon="9.6201783"><ele>80.83333333333333</ele><time>2026-05-02T15:00:54.035Z</time></trkpt><trkpt lat="45.0104983" lon="9.6201633"><ele>81.0</ele><time>2026-05-02T15:00:55.041Z</time></trkpt><trkpt lat="45.0104317" lon="9.6201483"><ele>81.0</ele><time>2026-05-02T15:00:56.034Z</time></trkpt><trkpt lat="45.0103683" lon="9.6201267"><ele>81.0</ele><time>2026-05-02T15:00:57.041Z</time></trkpt><trkpt lat="45.0102467" lon="9.620085"><ele>81.0</ele><time>2026-05-02T15:00:59.038Z</time></trkpt><trkpt lat="45.0101317" lon="9.6200533"><ele>81.0</ele><time>2026-05-02T15:01:01.037Z</time></trkpt><trkpt lat="45.010005" lon="9.6200217"><ele>81.0</ele><time>2026-05-02T15:01:03.04Z</time></trkpt><trkpt lat="45.0099433" lon="9.6199983"><ele>81.16666666666667</ele><time>2026-05-02T15:01:04.034Z</time></trkpt><trkpt lat="45.00988" lon="9.6199733"><ele>81.33333333333333</ele><time>2026-05-02T15:01:05.038Z</time></trkpt><trkpt lat="45.009815" lon="9.6199533"><ele>81.5</ele><time>2026-05-02T15:01:06.037Z</time></trkpt><trkpt lat="45.0096967" lon="9.61992"><ele>81.66666666666666</ele><time>2026-05-02T15:01:08.038Z</time></trkpt><trkpt lat="45.0096" lon="9.6198883"><ele>81.83333333333333</ele><time>2026-05-02T15:01:10.034Z</time></trkpt><trkpt lat="45.0095067" lon="9.61986"><ele>82.0</ele><time>2026-05-02T15:01:12.036Z</time></trkpt><trkpt lat="45.0094017" lon="9.6198283"><ele>82.0</ele><time>2026-05-02T15:01:14.034Z</time></trkpt><trkpt lat="45.0092833" lon="9.6198233"><ele>82.0</ele><time>2026-05-02T15:01:16.037Z</time></trkpt><trkpt lat="45.0091617" lon="9.6198067"><ele>82.0</ele><time>2026-05-02T15:01:18.038Z</time></trkpt><trkpt lat="45.0090517" lon="9.6198017"><ele>82.0</ele><time>2026-05-02T15:01:20.038Z</time></trkpt><trkpt lat="45.0089533" lon="9.6197833"><ele>81.39999999999999</ele><time>2026-05-02T15:01:22.037Z</time></trkpt><trkpt lat="45.0088483" lon="9.6197533"><ele>80.8</ele><time>2026-05-02T15:01:24.04Z</time></trkpt><trkpt lat="45.0087433" lon="9.61971"><ele>80.2</ele><time>2026-05-02T15:01:26.039Z</time></trkpt><trkpt lat="45.0086183" lon="9.6196833"><ele>79.6</ele><time>2026-05-02T15:01:28.036Z</time></trkpt><trkpt lat="45.008555" lon="9.6196667"><ele>79.0</ele><time>2026-05-02T15:01:29.037Z</time></trkpt><trkpt lat="45.00849" lon="9.6196417"><ele>79.0</ele><time>2026-05-02T15:01:30.037Z</time></trkpt><trkpt lat="45.0084067" lon="9.6195633"><ele>79.0</ele><time>2026-05-02T15:01:32.041Z</time></trkpt><trkpt lat="45.0083433" lon="9.619435"><ele>79.0</ele><time>2026-05-02T15:01:34.038Z</time></trkpt><trkpt lat="45.0083467" lon="9.6192767"><ele>79.0</ele><time>2026-05-02T15:01:36.04Z</time></trkpt><trkpt lat="45.0083433" lon="9.619105"><ele>79.0</ele><time>2026-05-02T15:01:38.035Z</time></trkpt><trkpt lat="45.0083417" lon="9.6190083"><ele>79.28571428571429</ele><time>2026-05-02T15:01:39.037Z</time></trkpt><trkpt lat="45.008345" lon="9.6189083"><ele>79.57142857142857</ele><time>2026-05-02T15:01:40.04Z</time></trkpt><trkpt lat="45.0083467" lon="9.6188183"><ele>79.85714285714286</ele><time>2026-05-02T15:01:41.034Z</time></trkpt><trkpt lat="45.00835" lon="9.6187283"><ele>80.14285714285714</ele><time>2026-05-02T15:01:42.036Z</time></trkpt><trkpt lat="45.0083433" lon="9.6186367"><ele>80.42857142857143</ele><time>2026-05-02T15:01:43.039Z</time></trkpt><trkpt lat="45.008355" lon="9.6185383"><ele>80.71428571428572</ele><time>2026-05-02T15:01:44.038Z</time></trkpt><trkpt lat="45.0083567" lon="9.6184383"><ele>81.0</ele><time>2026-05-02T15:01:45.044Z</time></trkpt><trkpt lat="45.0083567" lon="9.6183483"><ele>81.14285714285714</ele><time>2026-05-02T15:01:46.034Z</time></trkpt><trkpt lat="45.0083533" lon="9.6182383"><ele>81.28571428571428</ele><time>2026-05-02T15:01:47.038Z</time></trkpt><trkpt lat="45.0083583" lon="9.6181333"><ele>81.42857142857142</ele><time>2026-05-02T15:01:48.038Z</time></trkpt><trkpt lat="45.0083667" lon="9.61804"><ele>81.57142857142857</ele><time>2026-05-02T15:01:49.039Z</time></trkpt><trkpt lat="45.0083717" lon="9.6179483"><ele>81.71428571428571</ele><time>2026-05-02T15:01:50.039Z</time></trkpt><trkpt lat="45.0083767" lon="9.61785"><ele>81.85714285714285</ele><time>2026-05-02T15:01:51.043Z</time></trkpt><trkpt lat="45.00838" lon="9.6177583"><ele>82.0</ele><time>2026-05-02T15:01:52.039Z</time></trkpt><trkpt lat="45.0083883" lon="9.617595"><ele>81.6</ele><time>2026-05-02T15:01:54.036Z</time></trkpt><trkpt lat="45.0083933" lon="9.61744"><ele>81.19999999999999</ele><time>2026-05-02T15:01:56.039Z</time></trkpt><trkpt lat="45.0083633" lon="9.6172933"><ele>80.8</ele><time>2026-05-02T15:01:58.036Z</time></trkpt><trkpt lat="45.0083783" lon="9.61713"><ele>80.4</ele><time>2026-05-02T15:02:00.036Z</time></trkpt><trkpt lat="45.0083767" lon="9.6170367"><ele>80.0</ele><time>2026-05-02T15:02:01.038Z</time></trkpt><trkpt lat="45.0083833" lon="9.6169417"><ele>80.0</ele><time>2026-05-02T15:02:02.039Z</time></trkpt><trkpt lat="45.00839" lon="9.6168433"><ele>80.0</ele><time>2026-05-02T15:02:03.041Z</time></trkpt><trkpt lat="45.008395" lon="9.6167517"><ele>80.0</ele><time>2026-05-02T15:02:04.041Z</time></trkpt><trkpt lat="45.0083983" lon="9.6166567"><ele>80.0</ele><time>2026-05-02T15:02:05.035Z</time></trkpt><trkpt lat="45.0084" lon="9.6165617"><ele>80.0</ele><time>2026-05-02T15:02:06.039Z</time></trkpt><trkpt lat="45.0083917" lon="9.6164733"><ele>80.0</ele><time>2026-05-02T15:02:07.043Z</time></trkpt><trkpt lat="45.0083883" lon="9.6163"><ele>80.4</ele><time>2026-05-02T15:02:09.039Z</time></trkpt><trkpt lat="45.0083983" lon="9.616135"><ele>80.8</ele><time>2026-05-02T15:02:11.037Z</time></trkpt><trkpt lat="45.008395" lon="9.61598"><ele>81.19999999999999</ele><time>2026-05-02T15:02:13.034Z</time></trkpt><trkpt lat="45.0084" lon="9.615825"><ele>81.6</ele><time>2026-05-02T15:02:15.041Z</time></trkpt><trkpt lat="45.00839" lon="9.61567"><ele>82.0</ele><time>2026-05-02T15:02:17.038Z</time></trkpt><trkpt lat="45.0083867" lon="9.615515"><ele>82.0</ele><time>2026-05-02T15:02:19.039Z</time></trkpt><trkpt lat="45.00838" lon="9.6153767"><ele>82.0</ele><time>2026-05-02T15:02:21.038Z</time></trkpt><trkpt lat="45.008325" lon="9.6152817"><ele>82.0</ele><time>2026-05-02T15:02:23.042Z</time></trkpt><trkpt lat="45.0082283" lon="9.6152217"><ele>82.0</ele><time>2026-05-02T15:02:25.038Z</time></trkpt><trkpt lat="45.0081617" lon="9.6151917"><ele>82.0</ele><time>2026-05-02T15:02:26.039Z</time></trkpt><trkpt lat="45.0080383" lon="9.61515"><ele>82.19999999999999</ele><time>2026-05-02T15:02:28.036Z</time></trkpt><trkpt lat="45.0079667" lon="9.6151283"><ele>82.4</ele><time>2026-05-02T15:02:29.039Z</time></trkpt><trkpt lat="45.0078533" lon="9.6150633"><ele>82.6</ele><time>2026-05-02T15:02:31.038Z</time></trkpt><trkpt lat="45.00779" lon="9.61505"><ele>82.80000000000001</ele><time>2026-05-02T15:02:32.043Z</time></trkpt><trkpt lat="45.0076683" lon="9.6150217"><ele>83.0</ele><time>2026-05-02T15:02:34.036Z</time></trkpt><trkpt lat="45.0075583" lon="9.61501"><ele>82.42857142857143</ele><time>2026-05-02T15:02:36.04Z</time></trkpt><trkpt lat="45.0074883" lon="9.6149983"><ele>81.85714285714286</ele><time>2026-05-02T15:02:37.041Z</time></trkpt><trkpt lat="45.007425" lon="9.6149867"><ele>81.28571428571429</ele><time>2026-05-02T15:02:38.038Z</time></trkpt><trkpt lat="45.0073483" lon="9.61495"><ele>80.71428571428572</ele><time>2026-05-02T15:02:39.042Z</time></trkpt><trkpt lat="45.0072833" lon="9.614935"><ele>80.14285714285714</ele><time>2026-05-02T15:02:40.041Z</time></trkpt><trkpt lat="45.0072183" lon="9.6149133"><ele>79.57142857142858</ele><time>2026-05-02T15:02:41.039Z</time></trkpt><trkpt lat="45.0071517" lon="9.6148933"><ele>79.0</ele><time>2026-05-02T15:02:42.041Z</time></trkpt><trkpt lat="45.0070867" lon="9.6148767"><ele>79.0</ele><time>2026-05-02T15:02:43.038Z</time></trkpt><trkpt lat="45.0069667" lon="9.6148567"><ele>79.0</ele><time>2026-05-02T15:02:45.042Z</time></trkpt><trkpt lat="45.0068617" lon="9.6148417"><ele>79.0</ele><time>2026-05-02T15:02:47.04Z</time></trkpt><trkpt lat="45.0067533" lon="9.6148283"><ele>79.0</ele><time>2026-05-02T15:02:49.036Z</time></trkpt><trkpt lat="45.00665" lon="9.61481"><ele>79.0</ele><time>2026-05-02T15:02:51.045Z</time></trkpt><trkpt lat="45.0065467" lon="9.6147567"><ele>79.80000000000001</ele><time>2026-05-02T15:02:53.042Z</time></trkpt><trkpt lat="45.006425" lon="9.614765"><ele>80.60000000000001</ele><time>2026-05-02T15:02:55.047Z</time></trkpt><trkpt lat="45.0063617" lon="9.614785"><ele>81.4</ele><time>2026-05-02T15:02:56.041Z</time></trkpt><trkpt lat="45.0062433" lon="9.61481"><ele>82.2</ele><time>2026-05-02T15:02:58.038Z</time></trkpt><trkpt lat="45.0061267" lon="9.6148233"><ele>83.0</ele><time>2026-05-02T15:03:00.039Z</time></trkpt><trkpt lat="45.0060033" lon="9.61484"><ele>83.0</ele><time>2026-05-02T15:03:02.04Z</time></trkpt><trkpt lat="45.0059367" lon="9.6148517"><ele>83.0</ele><time>2026-05-02T15:03:03.04Z</time></trkpt><trkpt lat="45.00582" lon="9.614865"><ele>83.0</ele><time>2026-05-02T15:03:05.038Z</time></trkpt><trkpt lat="45.0057167" lon="9.6148783"><ele>83.0</ele><time>2026-05-02T15:03:07.039Z</time></trkpt><trkpt lat="45.0056017" lon="9.614865"><ele>83.0</ele><time>2026-05-02T15:03:09.043Z</time></trkpt><trkpt lat="45.0054967" lon="9.6147883"><ele>83.16666666666667</ele><time>2026-05-02T15:03:11.034Z</time></trkpt><trkpt lat="45.0054367" lon="9.6147533"><ele>83.33333333333334</ele><time>2026-05-02T15:03:12.04Z</time></trkpt><trkpt lat="45.005325" lon="9.6146633"><ele>83.5</ele><time>2026-05-02T15:03:14.04Z</time></trkpt><trkpt lat="45.0052583" lon="9.6146267"><ele>83.66666666666667</ele><time>2026-05-02T15:03:15.04Z</time></trkpt><trkpt lat="45.005195" lon="9.6145933"><ele>83.83333333333333</ele><time>2026-05-02T15:03:16.035Z</time></trkpt><trkpt lat="45.0051333" lon="9.61456"><ele>84.0</ele><time>2026-05-02T15:03:17.037Z</time></trkpt><trkpt lat="45.005035" lon="9.6145033"><ele>84.4</ele><time>2026-05-02T15:03:19.041Z</time></trkpt><trkpt lat="45.0049267" lon="9.614445"><ele>84.80000000000001</ele><time>2026-05-02T15:03:21.04Z</time></trkpt><trkpt lat="45.0048033" lon="9.6143967"><ele>85.19999999999999</ele><time>2026-05-02T15:03:23.037Z</time></trkpt><trkpt lat="45.0047317" lon="9.61436"><ele>85.6</ele><time>2026-05-02T15:03:24.036Z</time></trkpt><trkpt lat="45.0046683" lon="9.6143333"><ele>86.0</ele><time>2026-05-02T15:03:25.041Z</time></trkpt><trkpt lat="45.0046083" lon="9.6143"><ele>86.0</ele><time>2026-05-02T15:03:26.041Z</time></trkpt><trkpt lat="45.004545" lon="9.614275"><ele>86.0</ele><time>2026-05-02T15:03:27.038Z</time></trkpt><trkpt lat="45.0044283" lon="9.6142233"><ele>86.0</ele><time>2026-05-02T15:03:29.037Z</time></trkpt><trkpt lat="45.0043133" lon="9.61419"><ele>86.0</ele><time>2026-05-02T15:03:31.04Z</time></trkpt><trkpt lat="45.0041967" lon="9.6141583"><ele>86.0</ele><time>2026-05-02T15:03:33.042Z</time></trkpt><trkpt lat="45.0041317" lon="9.6141567"><ele>85.8</ele><time>2026-05-02T15:03:34.038Z</time></trkpt><trkpt lat="45.00402" lon="9.6141117"><ele>85.6</ele><time>2026-05-02T15:03:36.042Z</time></trkpt><trkpt lat="45.0039133" lon="9.614075"><ele>85.4</ele><time>2026-05-02T15:03:38.039Z</time></trkpt><trkpt lat="45.0037983" lon="9.6140633"><ele>85.2</ele><time>2026-05-02T15:03:40.039Z</time></trkpt><trkpt lat="45.0036917" lon="9.6140617"><ele>85.0</ele><time>2026-05-02T15:03:42.039Z</time></trkpt><trkpt lat="45.003585" lon="9.61405"><ele>85.0</ele><time>2026-05-02T15:03:44.037Z</time></trkpt><trkpt lat="45.003485" lon="9.61405"><ele>85.0</ele><time>2026-05-02T15:03:46.038Z</time></trkpt><trkpt lat="45.0033967" lon="9.61407"><ele>85.0</ele><time>2026-05-02T15:03:48.041Z</time></trkpt><trkpt lat="45.0033133" lon="9.614055"><ele>85.0</ele><time>2026-05-02T15:03:50.041Z</time></trkpt><trkpt lat="45.0032617" lon="9.6139767"><ele>85.0</ele><time>2026-05-02T15:03:52.042Z</time></trkpt><trkpt lat="45.0032533" lon="9.613865"><ele>85.0</ele><time>2026-05-02T15:03:54.039Z</time></trkpt><trkpt lat="45.0032683" lon="9.6137217"><ele>85.0</ele><time>2026-05-02T15:03:56.037Z</time></trkpt><trkpt lat="45.0032833" lon="9.6135733"><ele>85.0</ele><time>2026-05-02T15:03:58.038Z</time></trkpt><trkpt lat="45.0032967" lon="9.6134067"><ele>85.0</ele><time>2026-05-02T15:04:00.037Z</time></trkpt><trkpt lat="45.0033083" lon="9.6132483"><ele>85.0</ele><time>2026-05-02T15:04:02.037Z</time></trkpt><trkpt lat="45.0033117" lon="9.6131033"><ele>85.0</ele><time>2026-05-02T15:04:04.042Z</time></trkpt><trkpt lat="45.0033183" lon="9.6129317"><ele>85.0</ele><time>2026-05-02T15:04:06.038Z</time></trkpt><trkpt lat="45.0033383" lon="9.6127683"><ele>85.0</ele><time>2026-05-02T15:04:08.041Z</time></trkpt><trkpt lat="45.0033517" lon="9.6126117"><ele>85.0</ele><time>2026-05-02T15:04:10.04Z</time></trkpt><trkpt lat="45.0033683" lon="9.61249"><ele>85.0</ele><time>2026-05-02T15:04:12.037Z</time></trkpt><trkpt lat="45.0033633" lon="9.6123567"><ele>85.0</ele><time>2026-05-02T15:04:14.035Z</time></trkpt><trkpt lat="45.0033333" lon="9.6122267"><ele>84.71428571428572</ele><time>2026-05-02T15:04:16.039Z</time></trkpt><trkpt lat="45.0032617" lon="9.6121733"><ele>84.42857142857142</ele><time>2026-05-02T15:04:19.045Z</time></trkpt><trkpt lat="45.0031833" lon="9.612165"><ele>84.14285714285714</ele><time>2026-05-02T15:04:22.041Z</time></trkpt><trkpt lat="45.0031133" lon="9.6121567"><ele>83.85714285714286</ele><time>2026-05-02T15:04:25.038Z</time></trkpt><trkpt lat="45.00305" lon="9.61216"><ele>83.57142857142858</ele><time>2026-05-02T15:04:28.039Z</time></trkpt><trkpt lat="45.0029867" lon="9.6121467"><ele>83.28571428571428</ele><time>2026-05-02T15:04:32.038Z</time></trkpt><trkpt lat="45.0029117" lon="9.6122183"><ele>83.0</ele><time>2026-05-02T15:04:40.039Z</time></trkpt><trkpt lat="45.0028967" lon="9.61234"><ele>83.0</ele><time>2026-05-02T15:04:43.039Z</time></trkpt><trkpt lat="45.0028883" lon="9.6124767"><ele>83.0</ele><time>2026-05-02T15:04:45.041Z</time></trkpt><trkpt lat="45.0028817" lon="9.6126017"><ele>83.0</ele><time>2026-05-02T15:04:47.038Z</time></trkpt><trkpt lat="45.0029117" lon="9.61271"><ele>83.0</ele><time>2026-05-02T15:04:49.039Z</time></trkpt><trkpt lat="45.0029783" lon="9.6127767"><ele>83.0</ele><time>2026-05-02T15:04:51.038Z</time></trkpt><trkpt lat="45.0031333" lon="9.6128033"><ele>83.0</ele><time>2026-05-02T15:05:23.038Z</time></trkpt><trkpt lat="45.003205" lon="9.612735"><ele>83.0</ele><time>2026-05-02T15:05:25.031Z</time></trkpt><trkpt lat="45.003285" lon="9.6127"><ele>83.0</ele><time>2026-05-02T15:05:27.03Z</time></trkpt><trkpt lat="45.0032833" lon="9.6126067"><ele>83.0</ele><time>2026-05-02T15:05:29.031Z</time></trkpt><trkpt lat="45.00325" lon="9.61251"><ele>83.0</ele><time>2026-05-02T15:05:30.033Z</time></trkpt><trkpt lat="45.003175" lon="9.61249"><ele>83.0</ele><time>2026-05-02T15:05:35.037Z</time></trkpt><trkpt lat="45.0031083" lon="9.6124217"><ele>83.0</ele><time>2026-05-02T15:05:37.041Z</time></trkpt><trkpt lat="45.003045" lon="9.6125367"><ele>83.0</ele><time>2026-05-02T15:05:39.037Z</time></trkpt><trkpt lat="45.0029867" lon="9.6126233"><ele>83.0</ele><time>2026-05-02T15:05:43.042Z</time></trkpt><trkpt lat="45.002945" lon="9.61271"><ele>83.0</ele><time>2026-05-02T15:05:48.044Z</time></trkpt><trkpt lat="45.0030067" lon="9.6128383"><ele>85.0</ele><time>2026-05-02T15:05:53.038Z</time></trkpt></trkseg></trk></gpx>